<?xml version="1.0" encoding="UTF-8" standalone="no" ?>
<gpx xmlns="http://www.topografix.com/GPX/1/1" xmlns:xsi="http://www.w3.org/2001/XMLSchema-instance" xsi:schemaLocation="http://www.topografix.com/GPX/1/1 http://www.topografix.com/GPX/1/1/gpx.xsd" version="1.1" creator="VisuGPX - https://www.visugpx.com">
  <metadata>
    <name>Boucle à partir d’Oingt (Pierres Dorées - Beaujolais)</name>
    <desc><![CDATA[Boucle à partir d’Oingt (Pierres Dorées - Beaujolais) [5 novembre 2022]]]></desc>
  </metadata>
  <trk>
    <name><![CDATA[Boucle autour d’Oingt ]]></name>
    <trkseg>
      <trkpt lat="45.95142" lon="4.57657">
        <ele>447.586</ele>
        <time>2022-11-05T10:04:01Z</time>
      </trkpt>
      <trkpt lat="45.95141" lon="4.57663">
        <ele>441.527</ele>
        <time>2022-11-05T10:04:02Z</time>
      </trkpt>
      <trkpt lat="45.95146" lon="4.57661">
        <ele>440.29</ele>
        <time>2022-11-05T10:04:03Z</time>
      </trkpt>
      <trkpt lat="45.95152" lon="4.57661">
        <ele>448.154</ele>
        <time>2022-11-05T10:04:04Z</time>
      </trkpt>
      <trkpt lat="45.9515" lon="4.57662">
        <ele>457.116</ele>
        <time>2022-11-05T10:04:05Z</time>
      </trkpt>
      <trkpt lat="45.95154" lon="4.57662">
        <ele>448.19</ele>
        <time>2022-11-05T10:04:07Z</time>
      </trkpt>
      <trkpt lat="45.95147" lon="4.57658">
        <ele>436.011</ele>
        <time>2022-11-05T10:04:08Z</time>
      </trkpt>
      <trkpt lat="45.95141" lon="4.5765">
        <ele>432.144</ele>
        <time>2022-11-05T10:04:09Z</time>
      </trkpt>
      <trkpt lat="45.95146" lon="4.57652">
        <ele>428.675</ele>
        <time>2022-11-05T10:04:10Z</time>
      </trkpt>
      <trkpt lat="45.9515" lon="4.57653">
        <ele>436.441</ele>
        <time>2022-11-05T10:04:13Z</time>
      </trkpt>
      <trkpt lat="45.95152" lon="4.57649">
        <ele>437.476</ele>
        <time>2022-11-05T10:04:16Z</time>
      </trkpt>
      <trkpt lat="45.95156" lon="4.57645">
        <ele>439.547</ele>
        <time>2022-11-05T10:04:19Z</time>
      </trkpt>
      <trkpt lat="45.95164" lon="4.57642">
        <ele>439.876</ele>
        <time>2022-11-05T10:04:28Z</time>
      </trkpt>
      <trkpt lat="45.95174" lon="4.57635">
        <ele>441.263</ele>
        <time>2022-11-05T10:04:42Z</time>
      </trkpt>
      <trkpt lat="45.95186" lon="4.57629">
        <ele>439.009</ele>
        <time>2022-11-05T10:04:54Z</time>
      </trkpt>
      <trkpt lat="45.95195" lon="4.57619">
        <ele>436.777</ele>
        <time>2022-11-05T10:05:09Z</time>
      </trkpt>
      <trkpt lat="45.95196" lon="4.57618">
        <ele>436.408</ele>
        <time>2022-11-05T10:05:10Z</time>
      </trkpt>
      <trkpt lat="45.95201" lon="4.57612">
        <ele>436.07</ele>
        <time>2022-11-05T10:05:18Z</time>
      </trkpt>
      <trkpt lat="45.95201" lon="4.57611">
        <ele>435.711</ele>
        <time>2022-11-05T10:05:19Z</time>
      </trkpt>
      <trkpt lat="45.95208" lon="4.57606">
        <ele>436.275</ele>
        <time>2022-11-05T10:05:27Z</time>
      </trkpt>
      <trkpt lat="45.95209" lon="4.57606">
        <ele>436.019</ele>
        <time>2022-11-05T10:05:28Z</time>
      </trkpt>
      <trkpt lat="45.95224" lon="4.57588">
        <ele>437.623</ele>
        <time>2022-11-05T10:05:51Z</time>
      </trkpt>
      <trkpt lat="45.95226" lon="4.5758">
        <ele>437.266</ele>
        <time>2022-11-05T10:05:57Z</time>
      </trkpt>
      <trkpt lat="45.95225" lon="4.57575">
        <ele>438.014</ele>
        <time>2022-11-05T10:06:00Z</time>
      </trkpt>
      <trkpt lat="45.95227" lon="4.57572">
        <ele>438.528</ele>
        <time>2022-11-05T10:06:03Z</time>
      </trkpt>
      <trkpt lat="45.95233" lon="4.57561">
        <ele>437.905</ele>
        <time>2022-11-05T10:06:14Z</time>
      </trkpt>
      <trkpt lat="45.95237" lon="4.57559">
        <ele>437.448</ele>
        <time>2022-11-05T10:06:17Z</time>
      </trkpt>
      <trkpt lat="45.95242" lon="4.57557">
        <ele>436.877</ele>
        <time>2022-11-05T10:06:21Z</time>
      </trkpt>
      <trkpt lat="45.95246" lon="4.57554">
        <ele>437.095</ele>
        <time>2022-11-05T10:06:24Z</time>
      </trkpt>
      <trkpt lat="45.95249" lon="4.57553">
        <ele>435.561</ele>
        <time>2022-11-05T10:06:27Z</time>
      </trkpt>
      <trkpt lat="45.95253" lon="4.57552">
        <ele>434.755</ele>
        <time>2022-11-05T10:06:30Z</time>
      </trkpt>
      <trkpt lat="45.95254" lon="4.57552">
        <ele>434.885</ele>
        <time>2022-11-05T10:06:31Z</time>
      </trkpt>
      <trkpt lat="45.95266" lon="4.57545">
        <ele>433.46</ele>
        <time>2022-11-05T10:06:45Z</time>
      </trkpt>
      <trkpt lat="45.9527" lon="4.57543">
        <ele>431.271</ele>
        <time>2022-11-05T10:06:48Z</time>
      </trkpt>
      <trkpt lat="45.95275" lon="4.57543">
        <ele>429.149</ele>
        <time>2022-11-05T10:06:53Z</time>
      </trkpt>
      <trkpt lat="45.95279" lon="4.57544">
        <ele>426.549</ele>
        <time>2022-11-05T10:06:58Z</time>
      </trkpt>
      <trkpt lat="45.95282" lon="4.57545">
        <ele>425.37</ele>
        <time>2022-11-05T10:07:02Z</time>
      </trkpt>
      <trkpt lat="45.95283" lon="4.57547">
        <ele>425.518</ele>
        <time>2022-11-05T10:07:06Z</time>
      </trkpt>
      <trkpt lat="45.95289" lon="4.5755">
        <ele>424.41</ele>
        <time>2022-11-05T10:07:15Z</time>
      </trkpt>
      <trkpt lat="45.9529" lon="4.5755">
        <ele>423.303</ele>
        <time>2022-11-05T10:07:17Z</time>
      </trkpt>
      <trkpt lat="45.95291" lon="4.5755">
        <ele>422.268</ele>
        <time>2022-11-05T10:07:19Z</time>
      </trkpt>
      <trkpt lat="45.95294" lon="4.57551">
        <ele>422.412</ele>
        <time>2022-11-05T10:07:23Z</time>
      </trkpt>
      <trkpt lat="45.95296" lon="4.57551">
        <ele>421.399</ele>
        <time>2022-11-05T10:07:26Z</time>
      </trkpt>
      <trkpt lat="45.95298" lon="4.5755">
        <ele>420.897</ele>
        <time>2022-11-05T10:07:28Z</time>
      </trkpt>
      <trkpt lat="45.95299" lon="4.5755">
        <ele>420.402</ele>
        <time>2022-11-05T10:07:29Z</time>
      </trkpt>
      <trkpt lat="45.95302" lon="4.57549">
        <ele>420.915</ele>
        <time>2022-11-05T10:07:34Z</time>
      </trkpt>
      <trkpt lat="45.95308" lon="4.57545">
        <ele>421.142</ele>
        <time>2022-11-05T10:07:40Z</time>
      </trkpt>
      <trkpt lat="45.9531" lon="4.57542">
        <ele>421.809</ele>
        <time>2022-11-05T10:07:43Z</time>
      </trkpt>
      <trkpt lat="45.95318" lon="4.57534">
        <ele>421.68</ele>
        <time>2022-11-05T10:07:57Z</time>
      </trkpt>
      <trkpt lat="45.95318" lon="4.57534">
        <ele>421.709</ele>
        <time>2022-11-05T10:07:58Z</time>
      </trkpt>
      <trkpt lat="45.95318" lon="4.57534">
        <ele>420.506</ele>
        <time>2022-11-05T10:08:01Z</time>
      </trkpt>
      <trkpt lat="45.95319" lon="4.57534">
        <ele>421.248</ele>
        <time>2022-11-05T10:08:02Z</time>
      </trkpt>
      <trkpt lat="45.95319" lon="4.57534">
        <ele>421.217</ele>
        <time>2022-11-05T10:08:03Z</time>
      </trkpt>
      <trkpt lat="45.95319" lon="4.57534">
        <ele>421.217</ele>
        <time>2022-11-05T10:08:03Z</time>
      </trkpt>
      <trkpt lat="45.95319" lon="4.57534">
        <ele>420.919</ele>
        <time>2022-11-05T10:08:04Z</time>
      </trkpt>
      <trkpt lat="45.95319" lon="4.57534">
        <ele>420.86</ele>
        <time>2022-11-05T10:08:06Z</time>
      </trkpt>
      <trkpt lat="45.95319" lon="4.57534">
        <ele>420.777</ele>
        <time>2022-11-05T10:08:07Z</time>
      </trkpt>
      <trkpt lat="45.95319" lon="4.57534">
        <ele>420.777</ele>
        <time>2022-11-05T10:08:07Z</time>
      </trkpt>
      <trkpt lat="45.95319" lon="4.57534">
        <ele>420.673</ele>
        <time>2022-11-05T10:08:08Z</time>
      </trkpt>
      <trkpt lat="45.95319" lon="4.57534">
        <ele>420.568</ele>
        <time>2022-11-05T10:08:10Z</time>
      </trkpt>
      <trkpt lat="45.95319" lon="4.57534">
        <ele>420.568</ele>
        <time>2022-11-05T10:08:10Z</time>
      </trkpt>
      <trkpt lat="45.95319" lon="4.57534">
        <ele>420.397</ele>
        <time>2022-11-05T10:08:11Z</time>
      </trkpt>
      <trkpt lat="45.95319" lon="4.57534">
        <ele>420.397</ele>
        <time>2022-11-05T10:08:11Z</time>
      </trkpt>
      <trkpt lat="45.95319" lon="4.57534">
        <ele>420.337</ele>
        <time>2022-11-05T10:08:12Z</time>
      </trkpt>
      <trkpt lat="45.95319" lon="4.57534">
        <ele>420.259</ele>
        <time>2022-11-05T10:08:14Z</time>
      </trkpt>
      <trkpt lat="45.95319" lon="4.57534">
        <ele>420.1</ele>
        <time>2022-11-05T10:08:15Z</time>
      </trkpt>
      <trkpt lat="45.95319" lon="4.57534">
        <ele>420.1</ele>
        <time>2022-11-05T10:08:15Z</time>
      </trkpt>
      <trkpt lat="45.95319" lon="4.57534">
        <ele>420.106</ele>
        <time>2022-11-05T10:08:16Z</time>
      </trkpt>
      <trkpt lat="45.95319" lon="4.57534">
        <ele>419.738</ele>
        <time>2022-11-05T10:08:34Z</time>
      </trkpt>
      <trkpt lat="45.95318" lon="4.57534">
        <ele>419.456</ele>
        <time>2022-11-05T10:08:35Z</time>
      </trkpt>
      <trkpt lat="45.95318" lon="4.57534">
        <ele>419.442</ele>
        <time>2022-11-05T10:08:36Z</time>
      </trkpt>
      <trkpt lat="45.95318" lon="4.57534">
        <ele>419.378</ele>
        <time>2022-11-05T10:10:04Z</time>
      </trkpt>
      <trkpt lat="45.95317" lon="4.57534">
        <ele>419.394</ele>
        <time>2022-11-05T10:10:05Z</time>
      </trkpt>
      <trkpt lat="45.95317" lon="4.57534">
        <ele>419.373</ele>
        <time>2022-11-05T10:10:06Z</time>
      </trkpt>
      <trkpt lat="45.95317" lon="4.57534">
        <ele>419.373</ele>
        <time>2022-11-05T10:10:09Z</time>
      </trkpt>
      <trkpt lat="45.95317" lon="4.57533">
        <ele>419.237</ele>
        <time>2022-11-05T10:10:10Z</time>
      </trkpt>
      <trkpt lat="45.95317" lon="4.57533">
        <ele>419.251</ele>
        <time>2022-11-05T10:10:11Z</time>
      </trkpt>
      <trkpt lat="45.95317" lon="4.57533">
        <ele>419.2</ele>
        <time>2022-11-05T10:11:58Z</time>
      </trkpt>
      <trkpt lat="45.95316" lon="4.57532">
        <ele>418.949</ele>
        <time>2022-11-05T10:11:59Z</time>
      </trkpt>
      <trkpt lat="45.95315" lon="4.57532">
        <ele>418.914</ele>
        <time>2022-11-05T10:12:01Z</time>
      </trkpt>
      <trkpt lat="45.95315" lon="4.57532">
        <ele>418.873</ele>
        <time>2022-11-05T10:12:13Z</time>
      </trkpt>
      <trkpt lat="45.95316" lon="4.57533">
        <ele>418.35</ele>
        <time>2022-11-05T10:12:14Z</time>
      </trkpt>
      <trkpt lat="45.95316" lon="4.57533">
        <ele>418.142</ele>
        <time>2022-11-05T10:12:15Z</time>
      </trkpt>
      <trkpt lat="45.95316" lon="4.57533">
        <ele>418.143</ele>
        <time>2022-11-05T10:12:42Z</time>
      </trkpt>
      <trkpt lat="45.95317" lon="4.57533">
        <ele>417.8</ele>
        <time>2022-11-05T10:12:43Z</time>
      </trkpt>
      <trkpt lat="45.95317" lon="4.57533">
        <ele>417.637</ele>
        <time>2022-11-05T10:12:44Z</time>
      </trkpt>
      <trkpt lat="45.95317" lon="4.57533">
        <ele>416.691</ele>
        <time>2022-11-05T10:14:12Z</time>
      </trkpt>
      <trkpt lat="45.95318" lon="4.57532">
        <ele>417.008</ele>
        <time>2022-11-05T10:14:13Z</time>
      </trkpt>
      <trkpt lat="45.95318" lon="4.57532">
        <ele>416.977</ele>
        <time>2022-11-05T10:14:14Z</time>
      </trkpt>
      <trkpt lat="45.95318" lon="4.57532">
        <ele>416.538</ele>
        <time>2022-11-05T10:14:37Z</time>
      </trkpt>
      <trkpt lat="45.95318" lon="4.57532">
        <ele>416.217</ele>
        <time>2022-11-05T10:14:38Z</time>
      </trkpt>
      <trkpt lat="45.95318" lon="4.57532">
        <ele>417.129</ele>
        <time>2022-11-05T10:14:39Z</time>
      </trkpt>
      <trkpt lat="45.95318" lon="4.57532">
        <ele>416.887</ele>
        <time>2022-11-05T10:14:52Z</time>
      </trkpt>
      <trkpt lat="45.95317" lon="4.57534">
        <ele>417.43</ele>
        <time>2022-11-05T10:14:53Z</time>
      </trkpt>
      <trkpt lat="45.95317" lon="4.57534">
        <ele>417.648</ele>
        <time>2022-11-05T10:14:54Z</time>
      </trkpt>
      <trkpt lat="45.95317" lon="4.57534">
        <ele>417.623</ele>
        <time>2022-11-05T10:15:02Z</time>
      </trkpt>
      <trkpt lat="45.95316" lon="4.57535">
        <ele>417.256</ele>
        <time>2022-11-05T10:15:03Z</time>
      </trkpt>
      <trkpt lat="45.95316" lon="4.57534">
        <ele>417.102</ele>
        <time>2022-11-05T10:15:04Z</time>
      </trkpt>
      <trkpt lat="45.95316" lon="4.57534">
        <ele>417.528</ele>
        <time>2022-11-05T10:15:05Z</time>
      </trkpt>
      <trkpt lat="45.95316" lon="4.57534">
        <ele>417.164</ele>
        <time>2022-11-05T10:18:43Z</time>
      </trkpt>
      <trkpt lat="45.95316" lon="4.57535">
        <ele>417.204</ele>
        <time>2022-11-05T10:18:44Z</time>
      </trkpt>
      <trkpt lat="45.95316" lon="4.57535">
        <ele>417.217</ele>
        <time>2022-11-05T10:18:45Z</time>
      </trkpt>
      <trkpt lat="45.95316" lon="4.57535">
        <ele>417.037</ele>
        <time>2022-11-05T10:18:51Z</time>
      </trkpt>
      <trkpt lat="45.95316" lon="4.57535">
        <ele>416.006</ele>
        <time>2022-11-05T10:18:52Z</time>
      </trkpt>
      <trkpt lat="45.95316" lon="4.57535">
        <ele>415.978</ele>
        <time>2022-11-05T10:18:53Z</time>
      </trkpt>
      <trkpt lat="45.95316" lon="4.57535">
        <ele>415.978</ele>
        <time>2022-11-05T10:18:53Z</time>
      </trkpt>
      <trkpt lat="45.95316" lon="4.57535">
        <ele>416.109</ele>
        <time>2022-11-05T10:18:54Z</time>
      </trkpt>
      <trkpt lat="45.95316" lon="4.57535">
        <ele>416.143</ele>
        <time>2022-11-05T10:18:56Z</time>
      </trkpt>
      <trkpt lat="45.95316" lon="4.57535">
        <ele>416.359</ele>
        <time>2022-11-05T10:18:57Z</time>
      </trkpt>
      <trkpt lat="45.95316" lon="4.57535">
        <ele>416.737</ele>
        <time>2022-11-05T10:18:59Z</time>
      </trkpt>
      <trkpt lat="45.95315" lon="4.57535">
        <ele>416.724</ele>
        <time>2022-11-05T10:19:00Z</time>
      </trkpt>
      <trkpt lat="45.95315" lon="4.57535">
        <ele>417.136</ele>
        <time>2022-11-05T10:19:01Z</time>
      </trkpt>
      <trkpt lat="45.95315" lon="4.57535">
        <ele>416.73</ele>
        <time>2022-11-05T10:19:02Z</time>
      </trkpt>
      <trkpt lat="45.95315" lon="4.57535">
        <ele>416.404</ele>
        <time>2022-11-05T10:19:03Z</time>
      </trkpt>
      <trkpt lat="45.95316" lon="4.57535">
        <ele>416.881</ele>
        <time>2022-11-05T10:19:05Z</time>
      </trkpt>
      <trkpt lat="45.95316" lon="4.57535">
        <ele>416.959</ele>
        <time>2022-11-05T10:19:06Z</time>
      </trkpt>
      <trkpt lat="45.95316" lon="4.57535">
        <ele>416.959</ele>
        <time>2022-11-05T10:19:06Z</time>
      </trkpt>
      <trkpt lat="45.95317" lon="4.57535">
        <ele>417.78</ele>
        <time>2022-11-05T10:19:07Z</time>
      </trkpt>
      <trkpt lat="45.95317" lon="4.57535">
        <ele>417.78</ele>
        <time>2022-11-05T10:19:07Z</time>
      </trkpt>
      <trkpt lat="45.95317" lon="4.57535">
        <ele>414.957</ele>
        <time>2022-11-05T10:19:08Z</time>
      </trkpt>
      <trkpt lat="45.95317" lon="4.57535">
        <ele>414.096</ele>
        <time>2022-11-05T10:19:31Z</time>
      </trkpt>
      <trkpt lat="45.95315" lon="4.57533">
        <ele>414.395</ele>
        <time>2022-11-05T10:19:32Z</time>
      </trkpt>
      <trkpt lat="45.95315" lon="4.57533">
        <ele>414.395</ele>
        <time>2022-11-05T10:19:32Z</time>
      </trkpt>
      <trkpt lat="45.95315" lon="4.57533">
        <ele>414.369</ele>
        <time>2022-11-05T10:19:33Z</time>
      </trkpt>
      <trkpt lat="45.95315" lon="4.57533">
        <ele>414.314</ele>
        <time>2022-11-05T10:19:55Z</time>
      </trkpt>
      <trkpt lat="45.95315" lon="4.57533">
        <ele>413.903</ele>
        <time>2022-11-05T10:19:56Z</time>
      </trkpt>
      <trkpt lat="45.95315" lon="4.57533">
        <ele>413.06</ele>
        <time>2022-11-05T10:19:57Z</time>
      </trkpt>
      <trkpt lat="45.95315" lon="4.57533">
        <ele>413.06</ele>
        <time>2022-11-05T10:19:57Z</time>
      </trkpt>
      <trkpt lat="45.95315" lon="4.57533">
        <ele>413.191</ele>
        <time>2022-11-05T10:19:58Z</time>
      </trkpt>
      <trkpt lat="45.95315" lon="4.57533">
        <ele>413.191</ele>
        <time>2022-11-05T10:19:58Z</time>
      </trkpt>
      <trkpt lat="45.95315" lon="4.57533">
        <ele>413.217</ele>
        <time>2022-11-05T10:19:59Z</time>
      </trkpt>
      <trkpt lat="45.95315" lon="4.57533">
        <ele>412.621</ele>
        <time>2022-11-05T10:20:27Z</time>
      </trkpt>
      <trkpt lat="45.95315" lon="4.57534">
        <ele>413.203</ele>
        <time>2022-11-05T10:20:28Z</time>
      </trkpt>
      <trkpt lat="45.95315" lon="4.57535">
        <ele>412.384</ele>
        <time>2022-11-05T10:20:29Z</time>
      </trkpt>
      <trkpt lat="45.95318" lon="4.5754">
        <ele>414.371</ele>
        <time>2022-11-05T10:20:32Z</time>
      </trkpt>
      <trkpt lat="45.95319" lon="4.57541">
        <ele>414.405</ele>
        <time>2022-11-05T10:20:33Z</time>
      </trkpt>
      <trkpt lat="45.95319" lon="4.57541">
        <ele>413.391</ele>
        <time>2022-11-05T10:20:34Z</time>
      </trkpt>
      <trkpt lat="45.95319" lon="4.57543">
        <ele>412.614</ele>
        <time>2022-11-05T10:20:36Z</time>
      </trkpt>
      <trkpt lat="45.95319" lon="4.5755">
        <ele>413.519</ele>
        <time>2022-11-05T10:20:41Z</time>
      </trkpt>
      <trkpt lat="45.9532" lon="4.57551">
        <ele>413.336</ele>
        <time>2022-11-05T10:20:43Z</time>
      </trkpt>
      <trkpt lat="45.95325" lon="4.57553">
        <ele>413.114</ele>
        <time>2022-11-05T10:20:49Z</time>
      </trkpt>
      <trkpt lat="45.95326" lon="4.57557">
        <ele>411.639</ele>
        <time>2022-11-05T10:20:52Z</time>
      </trkpt>
      <trkpt lat="45.95329" lon="4.57558">
        <ele>410.916</ele>
        <time>2022-11-05T10:20:54Z</time>
      </trkpt>
      <trkpt lat="45.95335" lon="4.57566">
        <ele>409.101</ele>
        <time>2022-11-05T10:21:04Z</time>
      </trkpt>
      <trkpt lat="45.95336" lon="4.57567">
        <ele>408.251</ele>
        <time>2022-11-05T10:21:06Z</time>
      </trkpt>
      <trkpt lat="45.95336" lon="4.57567">
        <ele>408.251</ele>
        <time>2022-11-05T10:21:06Z</time>
      </trkpt>
      <trkpt lat="45.95337" lon="4.57567">
        <ele>407.674</ele>
        <time>2022-11-05T10:21:07Z</time>
      </trkpt>
      <trkpt lat="45.95338" lon="4.57567">
        <ele>407.716</ele>
        <time>2022-11-05T10:21:08Z</time>
      </trkpt>
      <trkpt lat="45.95339" lon="4.57567">
        <ele>408.014</ele>
        <time>2022-11-05T10:21:09Z</time>
      </trkpt>
      <trkpt lat="45.95343" lon="4.57568">
        <ele>407.939</ele>
        <time>2022-11-05T10:21:12Z</time>
      </trkpt>
      <trkpt lat="45.95377" lon="4.57572">
        <ele>405.851</ele>
        <time>2022-11-05T10:21:50Z</time>
      </trkpt>
      <trkpt lat="45.9539" lon="4.57573">
        <ele>405.712</ele>
        <time>2022-11-05T10:22:02Z</time>
      </trkpt>
      <trkpt lat="45.95393" lon="4.57573">
        <ele>405.553</ele>
        <time>2022-11-05T10:22:05Z</time>
      </trkpt>
      <trkpt lat="45.95397" lon="4.57573">
        <ele>406.565</ele>
        <time>2022-11-05T10:22:10Z</time>
      </trkpt>
      <trkpt lat="45.954" lon="4.57575">
        <ele>406.463</ele>
        <time>2022-11-05T10:22:14Z</time>
      </trkpt>
      <trkpt lat="45.95407" lon="4.57577">
        <ele>405.901</ele>
        <time>2022-11-05T10:22:22Z</time>
      </trkpt>
      <trkpt lat="45.9541" lon="4.57577">
        <ele>405.542</ele>
        <time>2022-11-05T10:22:26Z</time>
      </trkpt>
      <trkpt lat="45.95413" lon="4.57579">
        <ele>405.663</ele>
        <time>2022-11-05T10:22:30Z</time>
      </trkpt>
      <trkpt lat="45.95415" lon="4.57581">
        <ele>403.544</ele>
        <time>2022-11-05T10:22:33Z</time>
      </trkpt>
      <trkpt lat="45.95426" lon="4.57589">
        <ele>403.578</ele>
        <time>2022-11-05T10:22:46Z</time>
      </trkpt>
      <trkpt lat="45.95431" lon="4.57591">
        <ele>403.296</ele>
        <time>2022-11-05T10:22:52Z</time>
      </trkpt>
      <trkpt lat="45.95436" lon="4.5759">
        <ele>403.63</ele>
        <time>2022-11-05T10:22:56Z</time>
      </trkpt>
      <trkpt lat="45.95439" lon="4.57588">
        <ele>403.775</ele>
        <time>2022-11-05T10:22:59Z</time>
      </trkpt>
      <trkpt lat="45.95442" lon="4.57574">
        <ele>404.883</ele>
        <time>2022-11-05T10:23:11Z</time>
      </trkpt>
      <trkpt lat="45.95443" lon="4.57564">
        <ele>404.322</ele>
        <time>2022-11-05T10:23:20Z</time>
      </trkpt>
      <trkpt lat="45.95444" lon="4.5756">
        <ele>404.088</ele>
        <time>2022-11-05T10:23:24Z</time>
      </trkpt>
      <trkpt lat="45.95454" lon="4.57538">
        <ele>402.077</ele>
        <time>2022-11-05T10:23:44Z</time>
      </trkpt>
      <trkpt lat="45.95462" lon="4.57521">
        <ele>401.349</ele>
        <time>2022-11-05T10:24:01Z</time>
      </trkpt>
      <trkpt lat="45.95471" lon="4.57509">
        <ele>398.809</ele>
        <time>2022-11-05T10:24:14Z</time>
      </trkpt>
      <trkpt lat="45.95476" lon="4.57503">
        <ele>395.803</ele>
        <time>2022-11-05T10:24:21Z</time>
      </trkpt>
      <trkpt lat="45.95482" lon="4.57495">
        <ele>393.641</ele>
        <time>2022-11-05T10:24:31Z</time>
      </trkpt>
      <trkpt lat="45.95491" lon="4.57478">
        <ele>390.913</ele>
        <time>2022-11-05T10:24:48Z</time>
      </trkpt>
      <trkpt lat="45.95499" lon="4.57463">
        <ele>388.132</ele>
        <time>2022-11-05T10:25:05Z</time>
      </trkpt>
      <trkpt lat="45.95499" lon="4.57459">
        <ele>385.499</ele>
        <time>2022-11-05T10:25:09Z</time>
      </trkpt>
      <trkpt lat="45.95499" lon="4.57449">
        <ele>382.861</ele>
        <time>2022-11-05T10:25:16Z</time>
      </trkpt>
      <trkpt lat="45.955" lon="4.57445">
        <ele>383.776</ele>
        <time>2022-11-05T10:25:20Z</time>
      </trkpt>
      <trkpt lat="45.95507" lon="4.57432">
        <ele>381.668</ele>
        <time>2022-11-05T10:25:34Z</time>
      </trkpt>
      <trkpt lat="45.95509" lon="4.57427">
        <ele>382.224</ele>
        <time>2022-11-05T10:25:39Z</time>
      </trkpt>
      <trkpt lat="45.95511" lon="4.57423">
        <ele>381.563</ele>
        <time>2022-11-05T10:25:42Z</time>
      </trkpt>
      <trkpt lat="45.95522" lon="4.57401">
        <ele>378.508</ele>
        <time>2022-11-05T10:25:59Z</time>
      </trkpt>
      <trkpt lat="45.95523" lon="4.57395">
        <ele>376.882</ele>
        <time>2022-11-05T10:26:04Z</time>
      </trkpt>
      <trkpt lat="45.95531" lon="4.57382">
        <ele>375.788</ele>
        <time>2022-11-05T10:26:17Z</time>
      </trkpt>
      <trkpt lat="45.95533" lon="4.57379">
        <ele>374.41</ele>
        <time>2022-11-05T10:26:21Z</time>
      </trkpt>
      <trkpt lat="45.9554" lon="4.57364">
        <ele>372.561</ele>
        <time>2022-11-05T10:26:34Z</time>
      </trkpt>
      <trkpt lat="45.95545" lon="4.57356">
        <ele>372.066</ele>
        <time>2022-11-05T10:26:40Z</time>
      </trkpt>
      <trkpt lat="45.95556" lon="4.57339">
        <ele>372.59</ele>
        <time>2022-11-05T10:26:54Z</time>
      </trkpt>
      <trkpt lat="45.95556" lon="4.57329">
        <ele>370.467</ele>
        <time>2022-11-05T10:26:59Z</time>
      </trkpt>
      <trkpt lat="45.95556" lon="4.57323">
        <ele>367.868</ele>
        <time>2022-11-05T10:27:03Z</time>
      </trkpt>
      <trkpt lat="45.95555" lon="4.57313">
        <ele>364.903</ele>
        <time>2022-11-05T10:27:09Z</time>
      </trkpt>
      <trkpt lat="45.95562" lon="4.57286">
        <ele>363.52</ele>
        <time>2022-11-05T10:27:27Z</time>
      </trkpt>
      <trkpt lat="45.95561" lon="4.57271">
        <ele>362.083</ele>
        <time>2022-11-05T10:27:34Z</time>
      </trkpt>
      <trkpt lat="45.95558" lon="4.57267">
        <ele>361.234</ele>
        <time>2022-11-05T10:27:37Z</time>
      </trkpt>
      <trkpt lat="45.95554" lon="4.5726">
        <ele>360.738</ele>
        <time>2022-11-05T10:27:43Z</time>
      </trkpt>
      <trkpt lat="45.95555" lon="4.57253">
        <ele>360.962</ele>
        <time>2022-11-05T10:27:48Z</time>
      </trkpt>
      <trkpt lat="45.9555" lon="4.57242">
        <ele>360.179</ele>
        <time>2022-11-05T10:28:00Z</time>
      </trkpt>
      <trkpt lat="45.95548" lon="4.57238">
        <ele>359.952</ele>
        <time>2022-11-05T10:28:04Z</time>
      </trkpt>
      <trkpt lat="45.95547" lon="4.57233">
        <ele>359.411</ele>
        <time>2022-11-05T10:28:07Z</time>
      </trkpt>
      <trkpt lat="45.95546" lon="4.57231">
        <ele>359.518</ele>
        <time>2022-11-05T10:28:09Z</time>
      </trkpt>
      <trkpt lat="45.95546" lon="4.57229">
        <ele>359.934</ele>
        <time>2022-11-05T10:28:10Z</time>
      </trkpt>
      <trkpt lat="45.95541" lon="4.57209">
        <ele>360.936</ele>
        <time>2022-11-05T10:28:23Z</time>
      </trkpt>
      <trkpt lat="45.95528" lon="4.5719">
        <ele>361.164</ele>
        <time>2022-11-05T10:28:38Z</time>
      </trkpt>
      <trkpt lat="45.9549" lon="4.57136">
        <ele>362.916</ele>
        <time>2022-11-05T10:29:23Z</time>
      </trkpt>
      <trkpt lat="45.95465" lon="4.57087">
        <ele>362.695</ele>
        <time>2022-11-05T10:30:03Z</time>
      </trkpt>
      <trkpt lat="45.95464" lon="4.57085">
        <ele>362.116</ele>
        <time>2022-11-05T10:30:05Z</time>
      </trkpt>
      <trkpt lat="45.95457" lon="4.57076">
        <ele>361.22</ele>
        <time>2022-11-05T10:30:11Z</time>
      </trkpt>
      <trkpt lat="45.95455" lon="4.57071">
        <ele>361.35</ele>
        <time>2022-11-05T10:30:14Z</time>
      </trkpt>
      <trkpt lat="45.95454" lon="4.57067">
        <ele>361.011</ele>
        <time>2022-11-05T10:30:17Z</time>
      </trkpt>
      <trkpt lat="45.95453" lon="4.57067">
        <ele>361.135</ele>
        <time>2022-11-05T10:30:19Z</time>
      </trkpt>
      <trkpt lat="45.95453" lon="4.57066">
        <ele>361.284</ele>
        <time>2022-11-05T10:30:20Z</time>
      </trkpt>
      <trkpt lat="45.95451" lon="4.57062">
        <ele>360.618</ele>
        <time>2022-11-05T10:30:23Z</time>
      </trkpt>
      <trkpt lat="45.95447" lon="4.57052">
        <ele>360.452</ele>
        <time>2022-11-05T10:30:29Z</time>
      </trkpt>
      <trkpt lat="45.95444" lon="4.57048">
        <ele>360.712</ele>
        <time>2022-11-05T10:30:32Z</time>
      </trkpt>
      <trkpt lat="45.95443" lon="4.57048">
        <ele>360.63</ele>
        <time>2022-11-05T10:30:34Z</time>
      </trkpt>
      <trkpt lat="45.95443" lon="4.57048">
        <ele>360.63</ele>
        <time>2022-11-05T10:30:34Z</time>
      </trkpt>
      <trkpt lat="45.95443" lon="4.57048">
        <ele>360.34</ele>
        <time>2022-11-05T10:30:35Z</time>
      </trkpt>
      <trkpt lat="45.95443" lon="4.57048">
        <ele>360.34</ele>
        <time>2022-11-05T10:30:35Z</time>
      </trkpt>
      <trkpt lat="45.95443" lon="4.57048">
        <ele>360.759</ele>
        <time>2022-11-05T10:30:36Z</time>
      </trkpt>
      <trkpt lat="45.95443" lon="4.57049">
        <ele>360.422</ele>
        <time>2022-11-05T10:30:37Z</time>
      </trkpt>
      <trkpt lat="45.95443" lon="4.57049">
        <ele>360.122</ele>
        <time>2022-11-05T10:30:38Z</time>
      </trkpt>
      <trkpt lat="45.95443" lon="4.57049">
        <ele>360.005</ele>
        <time>2022-11-05T10:30:39Z</time>
      </trkpt>
      <trkpt lat="45.95443" lon="4.5705">
        <ele>359.87</ele>
        <time>2022-11-05T10:30:40Z</time>
      </trkpt>
      <trkpt lat="45.95442" lon="4.57049">
        <ele>359.342</ele>
        <time>2022-11-05T10:30:42Z</time>
      </trkpt>
      <trkpt lat="45.95438" lon="4.57043">
        <ele>358.162</ele>
        <time>2022-11-05T10:30:48Z</time>
      </trkpt>
      <trkpt lat="45.95431" lon="4.57027">
        <ele>359.296</ele>
        <time>2022-11-05T10:30:58Z</time>
      </trkpt>
      <trkpt lat="45.95419" lon="4.56989">
        <ele>357.288</ele>
        <time>2022-11-05T10:31:21Z</time>
      </trkpt>
      <trkpt lat="45.95411" lon="4.56973">
        <ele>356.494</ele>
        <time>2022-11-05T10:31:34Z</time>
      </trkpt>
      <trkpt lat="45.95408" lon="4.56968">
        <ele>354.433</ele>
        <time>2022-11-05T10:31:39Z</time>
      </trkpt>
      <trkpt lat="45.95388" lon="4.56919">
        <ele>353.292</ele>
        <time>2022-11-05T10:32:09Z</time>
      </trkpt>
      <trkpt lat="45.95386" lon="4.56913">
        <ele>354.118</ele>
        <time>2022-11-05T10:32:13Z</time>
      </trkpt>
      <trkpt lat="45.95384" lon="4.56909">
        <ele>354.963</ele>
        <time>2022-11-05T10:32:16Z</time>
      </trkpt>
      <trkpt lat="45.95382" lon="4.56898">
        <ele>354.876</ele>
        <time>2022-11-05T10:32:24Z</time>
      </trkpt>
      <trkpt lat="45.9538" lon="4.56892">
        <ele>355.039</ele>
        <time>2022-11-05T10:32:27Z</time>
      </trkpt>
      <trkpt lat="45.95379" lon="4.56887">
        <ele>353.903</ele>
        <time>2022-11-05T10:32:30Z</time>
      </trkpt>
      <trkpt lat="45.95378" lon="4.56883">
        <ele>354.92</ele>
        <time>2022-11-05T10:32:33Z</time>
      </trkpt>
      <trkpt lat="45.95376" lon="4.56877">
        <ele>355.545</ele>
        <time>2022-11-05T10:32:37Z</time>
      </trkpt>
      <trkpt lat="45.95375" lon="4.56873">
        <ele>354.174</ele>
        <time>2022-11-05T10:32:40Z</time>
      </trkpt>
      <trkpt lat="45.95372" lon="4.56867">
        <ele>353.4</ele>
        <time>2022-11-05T10:32:47Z</time>
      </trkpt>
      <trkpt lat="45.95363" lon="4.56839">
        <ele>352.71</ele>
        <time>2022-11-05T10:33:06Z</time>
      </trkpt>
      <trkpt lat="45.95354" lon="4.5682">
        <ele>352.987</ele>
        <time>2022-11-05T10:33:20Z</time>
      </trkpt>
      <trkpt lat="45.95345" lon="4.56805">
        <ele>350.857</ele>
        <time>2022-11-05T10:33:32Z</time>
      </trkpt>
      <trkpt lat="45.95343" lon="4.56802">
        <ele>351.458</ele>
        <time>2022-11-05T10:33:34Z</time>
      </trkpt>
      <trkpt lat="45.95328" lon="4.56773">
        <ele>352.984</ele>
        <time>2022-11-05T10:33:54Z</time>
      </trkpt>
      <trkpt lat="45.95328" lon="4.56769">
        <ele>352.305</ele>
        <time>2022-11-05T10:33:58Z</time>
      </trkpt>
      <trkpt lat="45.95328" lon="4.56768">
        <ele>352.494</ele>
        <time>2022-11-05T10:33:59Z</time>
      </trkpt>
      <trkpt lat="45.95328" lon="4.56768">
        <ele>351.703</ele>
        <time>2022-11-05T10:34:00Z</time>
      </trkpt>
      <trkpt lat="45.95328" lon="4.56768">
        <ele>351.703</ele>
        <time>2022-11-05T10:34:00Z</time>
      </trkpt>
      <trkpt lat="45.95328" lon="4.56768">
        <ele>351.846</ele>
        <time>2022-11-05T10:34:01Z</time>
      </trkpt>
      <trkpt lat="45.95328" lon="4.56768">
        <ele>351.846</ele>
        <time>2022-11-05T10:34:01Z</time>
      </trkpt>
      <trkpt lat="45.95328" lon="4.56768">
        <ele>351.319</ele>
        <time>2022-11-05T10:34:02Z</time>
      </trkpt>
      <trkpt lat="45.95328" lon="4.56768">
        <ele>351.253</ele>
        <time>2022-11-05T10:34:03Z</time>
      </trkpt>
      <trkpt lat="45.95328" lon="4.56769">
        <ele>351.755</ele>
        <time>2022-11-05T10:34:04Z</time>
      </trkpt>
      <trkpt lat="45.95327" lon="4.5677">
        <ele>352.476</ele>
        <time>2022-11-05T10:34:06Z</time>
      </trkpt>
      <trkpt lat="45.95327" lon="4.56771">
        <ele>351.799</ele>
        <time>2022-11-05T10:34:09Z</time>
      </trkpt>
      <trkpt lat="45.95327" lon="4.56771">
        <ele>351.611</ele>
        <time>2022-11-05T10:34:10Z</time>
      </trkpt>
      <trkpt lat="45.95327" lon="4.56769">
        <ele>350.937</ele>
        <time>2022-11-05T10:34:14Z</time>
      </trkpt>
      <trkpt lat="45.95327" lon="4.56769">
        <ele>351.015</ele>
        <time>2022-11-05T10:34:15Z</time>
      </trkpt>
      <trkpt lat="45.95327" lon="4.56769">
        <ele>351.015</ele>
        <time>2022-11-05T10:34:15Z</time>
      </trkpt>
      <trkpt lat="45.95327" lon="4.56768">
        <ele>350.879</ele>
        <time>2022-11-05T10:34:16Z</time>
      </trkpt>
      <trkpt lat="45.95327" lon="4.56768">
        <ele>350.879</ele>
        <time>2022-11-05T10:34:16Z</time>
      </trkpt>
      <trkpt lat="45.95326" lon="4.56766">
        <ele>350.913</ele>
        <time>2022-11-05T10:34:17Z</time>
      </trkpt>
      <trkpt lat="45.95326" lon="4.56766">
        <ele>351.275</ele>
        <time>2022-11-05T10:34:18Z</time>
      </trkpt>
      <trkpt lat="45.95326" lon="4.56766">
        <ele>351.291</ele>
        <time>2022-11-05T10:34:42Z</time>
      </trkpt>
      <trkpt lat="45.95327" lon="4.56765">
        <ele>351.255</ele>
        <time>2022-11-05T10:34:43Z</time>
      </trkpt>
      <trkpt lat="45.95327" lon="4.56765">
        <ele>351.255</ele>
        <time>2022-11-05T10:34:43Z</time>
      </trkpt>
      <trkpt lat="45.95327" lon="4.56765">
        <ele>350.195</ele>
        <time>2022-11-05T10:34:44Z</time>
      </trkpt>
      <trkpt lat="45.95327" lon="4.56765">
        <ele>348.768</ele>
        <time>2022-11-05T10:37:51Z</time>
      </trkpt>
      <trkpt lat="45.95326" lon="4.56759">
        <ele>348.629</ele>
        <time>2022-11-05T10:37:52Z</time>
      </trkpt>
      <trkpt lat="45.95329" lon="4.56757">
        <ele>348.129</ele>
        <time>2022-11-05T10:37:55Z</time>
      </trkpt>
      <trkpt lat="45.95334" lon="4.56755">
        <ele>349.948</ele>
        <time>2022-11-05T10:38:00Z</time>
      </trkpt>
      <trkpt lat="45.95341" lon="4.56752">
        <ele>351.471</ele>
        <time>2022-11-05T10:38:07Z</time>
      </trkpt>
      <trkpt lat="45.95341" lon="4.56752">
        <ele>351.661</ele>
        <time>2022-11-05T10:38:08Z</time>
      </trkpt>
      <trkpt lat="45.95344" lon="4.56751">
        <ele>349.528</ele>
        <time>2022-11-05T10:38:11Z</time>
      </trkpt>
      <trkpt lat="45.95344" lon="4.56751">
        <ele>349.433</ele>
        <time>2022-11-05T10:38:12Z</time>
      </trkpt>
      <trkpt lat="45.95345" lon="4.5675">
        <ele>349.447</ele>
        <time>2022-11-05T10:38:13Z</time>
      </trkpt>
      <trkpt lat="45.95345" lon="4.5675">
        <ele>349.545</ele>
        <time>2022-11-05T10:38:14Z</time>
      </trkpt>
      <trkpt lat="45.95347" lon="4.56748">
        <ele>349.479</ele>
        <time>2022-11-05T10:38:17Z</time>
      </trkpt>
      <trkpt lat="45.95353" lon="4.56746">
        <ele>350.302</ele>
        <time>2022-11-05T10:38:24Z</time>
      </trkpt>
      <trkpt lat="45.95354" lon="4.56746">
        <ele>350.351</ele>
        <time>2022-11-05T10:38:27Z</time>
      </trkpt>
      <trkpt lat="45.95355" lon="4.56745">
        <ele>350.253</ele>
        <time>2022-11-05T10:38:30Z</time>
      </trkpt>
      <trkpt lat="45.95356" lon="4.56744">
        <ele>350.55</ele>
        <time>2022-11-05T10:38:32Z</time>
      </trkpt>
      <trkpt lat="45.95358" lon="4.56742">
        <ele>349.482</ele>
        <time>2022-11-05T10:38:36Z</time>
      </trkpt>
      <trkpt lat="45.95358" lon="4.56742">
        <ele>349.482</ele>
        <time>2022-11-05T10:38:36Z</time>
      </trkpt>
      <trkpt lat="45.95358" lon="4.56741">
        <ele>349.812</ele>
        <time>2022-11-05T10:38:37Z</time>
      </trkpt>
      <trkpt lat="45.95359" lon="4.56738">
        <ele>352.292</ele>
        <time>2022-11-05T10:38:40Z</time>
      </trkpt>
      <trkpt lat="45.95361" lon="4.56737">
        <ele>352.378</ele>
        <time>2022-11-05T10:38:42Z</time>
      </trkpt>
      <trkpt lat="45.95365" lon="4.56735">
        <ele>353.703</ele>
        <time>2022-11-05T10:38:47Z</time>
      </trkpt>
      <trkpt lat="45.95366" lon="4.56735">
        <ele>353.281</ele>
        <time>2022-11-05T10:38:50Z</time>
      </trkpt>
      <trkpt lat="45.95396" lon="4.56721">
        <ele>351.621</ele>
        <time>2022-11-05T10:39:26Z</time>
      </trkpt>
      <trkpt lat="45.95403" lon="4.56723">
        <ele>351.604</ele>
        <time>2022-11-05T10:39:33Z</time>
      </trkpt>
      <trkpt lat="45.95413" lon="4.56726">
        <ele>353.86</ele>
        <time>2022-11-05T10:39:45Z</time>
      </trkpt>
      <trkpt lat="45.95421" lon="4.56731">
        <ele>354.48</ele>
        <time>2022-11-05T10:39:59Z</time>
      </trkpt>
      <trkpt lat="45.95424" lon="4.5673">
        <ele>355.25</ele>
        <time>2022-11-05T10:40:03Z</time>
      </trkpt>
      <trkpt lat="45.95429" lon="4.56726">
        <ele>354.825</ele>
        <time>2022-11-05T10:40:09Z</time>
      </trkpt>
      <trkpt lat="45.9546" lon="4.56702">
        <ele>354.012</ele>
        <time>2022-11-05T10:40:45Z</time>
      </trkpt>
      <trkpt lat="45.95466" lon="4.56698">
        <ele>351.62</ele>
        <time>2022-11-05T10:40:50Z</time>
      </trkpt>
      <trkpt lat="45.95483" lon="4.56684">
        <ele>352.11</ele>
        <time>2022-11-05T10:41:10Z</time>
      </trkpt>
      <trkpt lat="45.95487" lon="4.5668">
        <ele>352.457</ele>
        <time>2022-11-05T10:41:18Z</time>
      </trkpt>
      <trkpt lat="45.95495" lon="4.56677">
        <ele>352.67</ele>
        <time>2022-11-05T10:41:28Z</time>
      </trkpt>
      <trkpt lat="45.95496" lon="4.56677">
        <ele>352.416</ele>
        <time>2022-11-05T10:41:29Z</time>
      </trkpt>
      <trkpt lat="45.9551" lon="4.56678">
        <ele>354.749</ele>
        <time>2022-11-05T10:41:42Z</time>
      </trkpt>
      <trkpt lat="45.95514" lon="4.56676">
        <ele>355.516</ele>
        <time>2022-11-05T10:41:47Z</time>
      </trkpt>
      <trkpt lat="45.95517" lon="4.56673">
        <ele>357.382</ele>
        <time>2022-11-05T10:41:52Z</time>
      </trkpt>
      <trkpt lat="45.95518" lon="4.56673">
        <ele>357.23</ele>
        <time>2022-11-05T10:41:53Z</time>
      </trkpt>
      <trkpt lat="45.95518" lon="4.56672">
        <ele>357.207</ele>
        <time>2022-11-05T10:41:54Z</time>
      </trkpt>
      <trkpt lat="45.95521" lon="4.56671">
        <ele>357.75</ele>
        <time>2022-11-05T10:41:57Z</time>
      </trkpt>
      <trkpt lat="45.95527" lon="4.56668">
        <ele>358.774</ele>
        <time>2022-11-05T10:42:03Z</time>
      </trkpt>
      <trkpt lat="45.95528" lon="4.56668">
        <ele>358.83</ele>
        <time>2022-11-05T10:42:04Z</time>
      </trkpt>
      <trkpt lat="45.95547" lon="4.56654">
        <ele>359.259</ele>
        <time>2022-11-05T10:42:26Z</time>
      </trkpt>
      <trkpt lat="45.95549" lon="4.56649">
        <ele>359.336</ele>
        <time>2022-11-05T10:42:31Z</time>
      </trkpt>
      <trkpt lat="45.95556" lon="4.56643">
        <ele>361.446</ele>
        <time>2022-11-05T10:42:39Z</time>
      </trkpt>
      <trkpt lat="45.95558" lon="4.56641">
        <ele>361.098</ele>
        <time>2022-11-05T10:42:42Z</time>
      </trkpt>
      <trkpt lat="45.95559" lon="4.5664">
        <ele>361.602</ele>
        <time>2022-11-05T10:42:43Z</time>
      </trkpt>
      <trkpt lat="45.95564" lon="4.56635">
        <ele>363.756</ele>
        <time>2022-11-05T10:42:49Z</time>
      </trkpt>
      <trkpt lat="45.9557" lon="4.56629">
        <ele>364.491</ele>
        <time>2022-11-05T10:42:57Z</time>
      </trkpt>
      <trkpt lat="45.95575" lon="4.56624">
        <ele>364.438</ele>
        <time>2022-11-05T10:43:03Z</time>
      </trkpt>
      <trkpt lat="45.95577" lon="4.56622">
        <ele>363.932</ele>
        <time>2022-11-05T10:43:06Z</time>
      </trkpt>
      <trkpt lat="45.9558" lon="4.56617">
        <ele>365.096</ele>
        <time>2022-11-05T10:43:11Z</time>
      </trkpt>
      <trkpt lat="45.95587" lon="4.56605">
        <ele>366.372</ele>
        <time>2022-11-05T10:43:22Z</time>
      </trkpt>
      <trkpt lat="45.95591" lon="4.56601">
        <ele>368.89</ele>
        <time>2022-11-05T10:43:26Z</time>
      </trkpt>
      <trkpt lat="45.95599" lon="4.56592">
        <ele>371.157</ele>
        <time>2022-11-05T10:43:35Z</time>
      </trkpt>
      <trkpt lat="45.95604" lon="4.56585">
        <ele>373.471</ele>
        <time>2022-11-05T10:43:42Z</time>
      </trkpt>
      <trkpt lat="45.95614" lon="4.56569">
        <ele>374.314</ele>
        <time>2022-11-05T10:44:00Z</time>
      </trkpt>
      <trkpt lat="45.95623" lon="4.56561">
        <ele>376.927</ele>
        <time>2022-11-05T10:44:11Z</time>
      </trkpt>
      <trkpt lat="45.95644" lon="4.56542">
        <ele>378.979</ele>
        <time>2022-11-05T10:44:39Z</time>
      </trkpt>
      <trkpt lat="45.95654" lon="4.56534">
        <ele>381.392</ele>
        <time>2022-11-05T10:44:51Z</time>
      </trkpt>
      <trkpt lat="45.95668" lon="4.56517">
        <ele>381.898</ele>
        <time>2022-11-05T10:45:19Z</time>
      </trkpt>
      <trkpt lat="45.95669" lon="4.56516">
        <ele>382.469</ele>
        <time>2022-11-05T10:45:21Z</time>
      </trkpt>
      <trkpt lat="45.95671" lon="4.56512">
        <ele>383.437</ele>
        <time>2022-11-05T10:45:24Z</time>
      </trkpt>
      <trkpt lat="45.95674" lon="4.56508">
        <ele>382.344</ele>
        <time>2022-11-05T10:45:29Z</time>
      </trkpt>
      <trkpt lat="45.95677" lon="4.56505">
        <ele>383.84</ele>
        <time>2022-11-05T10:45:33Z</time>
      </trkpt>
      <trkpt lat="45.95683" lon="4.56497">
        <ele>384.718</ele>
        <time>2022-11-05T10:45:42Z</time>
      </trkpt>
      <trkpt lat="45.95689" lon="4.56485">
        <ele>384.284</ele>
        <time>2022-11-05T10:45:56Z</time>
      </trkpt>
      <trkpt lat="45.9569" lon="4.56483">
        <ele>385.096</ele>
        <time>2022-11-05T10:45:59Z</time>
      </trkpt>
      <trkpt lat="45.95693" lon="4.56475">
        <ele>384.959</ele>
        <time>2022-11-05T10:46:06Z</time>
      </trkpt>
      <trkpt lat="45.95693" lon="4.56473">
        <ele>385.12</ele>
        <time>2022-11-05T10:46:07Z</time>
      </trkpt>
      <trkpt lat="45.95695" lon="4.56469">
        <ele>386.183</ele>
        <time>2022-11-05T10:46:11Z</time>
      </trkpt>
      <trkpt lat="45.95701" lon="4.56462">
        <ele>388.027</ele>
        <time>2022-11-05T10:46:18Z</time>
      </trkpt>
      <trkpt lat="45.95703" lon="4.56461">
        <ele>387.493</ele>
        <time>2022-11-05T10:46:21Z</time>
      </trkpt>
      <trkpt lat="45.95704" lon="4.5646">
        <ele>388.254</ele>
        <time>2022-11-05T10:46:22Z</time>
      </trkpt>
      <trkpt lat="45.95708" lon="4.56452">
        <ele>389.238</ele>
        <time>2022-11-05T10:46:30Z</time>
      </trkpt>
      <trkpt lat="45.95708" lon="4.56451">
        <ele>388.992</ele>
        <time>2022-11-05T10:46:31Z</time>
      </trkpt>
      <trkpt lat="45.95708" lon="4.5645">
        <ele>389.54</ele>
        <time>2022-11-05T10:46:32Z</time>
      </trkpt>
      <trkpt lat="45.9571" lon="4.56448">
        <ele>389.452</ele>
        <time>2022-11-05T10:46:37Z</time>
      </trkpt>
      <trkpt lat="45.95711" lon="4.56447">
        <ele>389.419</ele>
        <time>2022-11-05T10:46:38Z</time>
      </trkpt>
      <trkpt lat="45.95711" lon="4.56447">
        <ele>389.82</ele>
        <time>2022-11-05T10:46:39Z</time>
      </trkpt>
      <trkpt lat="45.95713" lon="4.56442">
        <ele>389.594</ele>
        <time>2022-11-05T10:46:43Z</time>
      </trkpt>
      <trkpt lat="45.95714" lon="4.5644">
        <ele>389.852</ele>
        <time>2022-11-05T10:46:45Z</time>
      </trkpt>
      <trkpt lat="45.95714" lon="4.5644">
        <ele>390.194</ele>
        <time>2022-11-05T10:46:46Z</time>
      </trkpt>
      <trkpt lat="45.95714" lon="4.56439">
        <ele>389.884</ele>
        <time>2022-11-05T10:46:47Z</time>
      </trkpt>
      <trkpt lat="45.95719" lon="4.56436">
        <ele>391.038</ele>
        <time>2022-11-05T10:46:54Z</time>
      </trkpt>
      <trkpt lat="45.95727" lon="4.5643">
        <ele>390.964</ele>
        <time>2022-11-05T10:47:05Z</time>
      </trkpt>
      <trkpt lat="45.95727" lon="4.5643">
        <ele>390.553</ele>
        <time>2022-11-05T10:47:06Z</time>
      </trkpt>
      <trkpt lat="45.95728" lon="4.56429">
        <ele>390.508</ele>
        <time>2022-11-05T10:47:07Z</time>
      </trkpt>
      <trkpt lat="45.95728" lon="4.56429">
        <ele>390.859</ele>
        <time>2022-11-05T10:47:08Z</time>
      </trkpt>
      <trkpt lat="45.95729" lon="4.56428">
        <ele>390.711</ele>
        <time>2022-11-05T10:47:09Z</time>
      </trkpt>
      <trkpt lat="45.95731" lon="4.56427">
        <ele>390.687</ele>
        <time>2022-11-05T10:47:11Z</time>
      </trkpt>
      <trkpt lat="45.95732" lon="4.56427">
        <ele>390.841</ele>
        <time>2022-11-05T10:47:12Z</time>
      </trkpt>
      <trkpt lat="45.95732" lon="4.56426">
        <ele>390.769</ele>
        <time>2022-11-05T10:47:13Z</time>
      </trkpt>
      <trkpt lat="45.95735" lon="4.56426">
        <ele>390.762</ele>
        <time>2022-11-05T10:47:16Z</time>
      </trkpt>
      <trkpt lat="45.95738" lon="4.56422">
        <ele>391.698</ele>
        <time>2022-11-05T10:47:21Z</time>
      </trkpt>
      <trkpt lat="45.95741" lon="4.5642">
        <ele>391.351</ele>
        <time>2022-11-05T10:47:25Z</time>
      </trkpt>
      <trkpt lat="45.95746" lon="4.56417">
        <ele>391.863</ele>
        <time>2022-11-05T10:47:31Z</time>
      </trkpt>
      <trkpt lat="45.95746" lon="4.56417">
        <ele>391.937</ele>
        <time>2022-11-05T10:47:32Z</time>
      </trkpt>
      <trkpt lat="45.95746" lon="4.56417">
        <ele>391.604</ele>
        <time>2022-11-05T10:47:33Z</time>
      </trkpt>
      <trkpt lat="45.95747" lon="4.56415">
        <ele>391.991</ele>
        <time>2022-11-05T10:47:35Z</time>
      </trkpt>
      <trkpt lat="45.95748" lon="4.56414">
        <ele>392.435</ele>
        <time>2022-11-05T10:47:36Z</time>
      </trkpt>
      <trkpt lat="45.95751" lon="4.56413">
        <ele>392.749</ele>
        <time>2022-11-05T10:47:40Z</time>
      </trkpt>
      <trkpt lat="45.95752" lon="4.56412">
        <ele>392.712</ele>
        <time>2022-11-05T10:47:41Z</time>
      </trkpt>
      <trkpt lat="45.95755" lon="4.56409">
        <ele>390.959</ele>
        <time>2022-11-05T10:47:45Z</time>
      </trkpt>
      <trkpt lat="45.95763" lon="4.564">
        <ele>391.936</ele>
        <time>2022-11-05T10:47:53Z</time>
      </trkpt>
      <trkpt lat="45.95766" lon="4.56396">
        <ele>391.448</ele>
        <time>2022-11-05T10:47:59Z</time>
      </trkpt>
      <trkpt lat="45.95772" lon="4.56388">
        <ele>391.357</ele>
        <time>2022-11-05T10:48:06Z</time>
      </trkpt>
      <trkpt lat="45.95773" lon="4.56388">
        <ele>391.07</ele>
        <time>2022-11-05T10:48:07Z</time>
      </trkpt>
      <trkpt lat="45.95777" lon="4.56385">
        <ele>391.686</ele>
        <time>2022-11-05T10:48:11Z</time>
      </trkpt>
      <trkpt lat="45.95786" lon="4.56384">
        <ele>390.653</ele>
        <time>2022-11-05T10:48:21Z</time>
      </trkpt>
      <trkpt lat="45.95786" lon="4.56384">
        <ele>390.584</ele>
        <time>2022-11-05T10:48:22Z</time>
      </trkpt>
      <trkpt lat="45.95787" lon="4.56382">
        <ele>390.347</ele>
        <time>2022-11-05T10:48:26Z</time>
      </trkpt>
      <trkpt lat="45.95788" lon="4.56381">
        <ele>389.715</ele>
        <time>2022-11-05T10:48:27Z</time>
      </trkpt>
      <trkpt lat="45.95789" lon="4.56379">
        <ele>388.47</ele>
        <time>2022-11-05T10:48:31Z</time>
      </trkpt>
      <trkpt lat="45.95789" lon="4.56378">
        <ele>387.127</ele>
        <time>2022-11-05T10:48:33Z</time>
      </trkpt>
      <trkpt lat="45.9579" lon="4.56377">
        <ele>386.832</ele>
        <time>2022-11-05T10:48:35Z</time>
      </trkpt>
      <trkpt lat="45.95792" lon="4.56376">
        <ele>386.654</ele>
        <time>2022-11-05T10:48:39Z</time>
      </trkpt>
      <trkpt lat="45.95793" lon="4.56375">
        <ele>386.026</ele>
        <time>2022-11-05T10:48:40Z</time>
      </trkpt>
      <trkpt lat="45.958" lon="4.56371">
        <ele>388.105</ele>
        <time>2022-11-05T10:48:48Z</time>
      </trkpt>
      <trkpt lat="45.95805" lon="4.56367">
        <ele>390.27</ele>
        <time>2022-11-05T10:48:54Z</time>
      </trkpt>
      <trkpt lat="45.95813" lon="4.56361">
        <ele>388.737</ele>
        <time>2022-11-05T10:49:05Z</time>
      </trkpt>
      <trkpt lat="45.95816" lon="4.56359">
        <ele>389.224</ele>
        <time>2022-11-05T10:49:09Z</time>
      </trkpt>
      <trkpt lat="45.9582" lon="4.56358">
        <ele>391.399</ele>
        <time>2022-11-05T10:49:14Z</time>
      </trkpt>
      <trkpt lat="45.95825" lon="4.56356">
        <ele>394.281</ele>
        <time>2022-11-05T10:49:21Z</time>
      </trkpt>
      <trkpt lat="45.95832" lon="4.56354">
        <ele>396.692</ele>
        <time>2022-11-05T10:49:30Z</time>
      </trkpt>
      <trkpt lat="45.95832" lon="4.56354">
        <ele>397.421</ele>
        <time>2022-11-05T10:49:34Z</time>
      </trkpt>
      <trkpt lat="45.95832" lon="4.56354">
        <ele>399.037</ele>
        <time>2022-11-05T10:49:35Z</time>
      </trkpt>
      <trkpt lat="45.95834" lon="4.56354">
        <ele>400.481</ele>
        <time>2022-11-05T10:49:38Z</time>
      </trkpt>
      <trkpt lat="45.95834" lon="4.56354">
        <ele>400.481</ele>
        <time>2022-11-05T10:49:38Z</time>
      </trkpt>
      <trkpt lat="45.95834" lon="4.56354">
        <ele>400.859</ele>
        <time>2022-11-05T10:49:39Z</time>
      </trkpt>
      <trkpt lat="45.95836" lon="4.56354">
        <ele>402.342</ele>
        <time>2022-11-05T10:49:42Z</time>
      </trkpt>
      <trkpt lat="45.95839" lon="4.56353">
        <ele>402.749</ele>
        <time>2022-11-05T10:49:47Z</time>
      </trkpt>
      <trkpt lat="45.9584" lon="4.56353">
        <ele>403.465</ele>
        <time>2022-11-05T10:49:49Z</time>
      </trkpt>
      <trkpt lat="45.95842" lon="4.56353">
        <ele>405.766</ele>
        <time>2022-11-05T10:49:53Z</time>
      </trkpt>
      <trkpt lat="45.95845" lon="4.56353">
        <ele>407.39</ele>
        <time>2022-11-05T10:49:59Z</time>
      </trkpt>
      <trkpt lat="45.95848" lon="4.56353">
        <ele>409.489</ele>
        <time>2022-11-05T10:50:04Z</time>
      </trkpt>
      <trkpt lat="45.95853" lon="4.56352">
        <ele>411.909</ele>
        <time>2022-11-05T10:50:10Z</time>
      </trkpt>
      <trkpt lat="45.95857" lon="4.56351">
        <ele>413.372</ele>
        <time>2022-11-05T10:50:16Z</time>
      </trkpt>
      <trkpt lat="45.95859" lon="4.5635">
        <ele>414.458</ele>
        <time>2022-11-05T10:50:19Z</time>
      </trkpt>
      <trkpt lat="45.95859" lon="4.56349">
        <ele>414.6</ele>
        <time>2022-11-05T10:50:20Z</time>
      </trkpt>
      <trkpt lat="45.95863" lon="4.56346">
        <ele>417.021</ele>
        <time>2022-11-05T10:50:28Z</time>
      </trkpt>
      <trkpt lat="45.95871" lon="4.56343">
        <ele>419.297</ele>
        <time>2022-11-05T10:50:38Z</time>
      </trkpt>
      <trkpt lat="45.95878" lon="4.56336">
        <ele>421.44</ele>
        <time>2022-11-05T10:50:47Z</time>
      </trkpt>
      <trkpt lat="45.95888" lon="4.5633">
        <ele>423.528</ele>
        <time>2022-11-05T10:51:02Z</time>
      </trkpt>
      <trkpt lat="45.95921" lon="4.56308">
        <ele>425.827</ele>
        <time>2022-11-05T10:51:41Z</time>
      </trkpt>
      <trkpt lat="45.95921" lon="4.56306">
        <ele>426.253</ele>
        <time>2022-11-05T10:51:43Z</time>
      </trkpt>
      <trkpt lat="45.95923" lon="4.56305">
        <ele>426.28</ele>
        <time>2022-11-05T10:51:45Z</time>
      </trkpt>
      <trkpt lat="45.95926" lon="4.56303">
        <ele>425.016</ele>
        <time>2022-11-05T10:51:49Z</time>
      </trkpt>
      <trkpt lat="45.95933" lon="4.56304">
        <ele>425.576</ele>
        <time>2022-11-05T10:51:52Z</time>
      </trkpt>
      <trkpt lat="45.95936" lon="4.56305">
        <ele>425.343</ele>
        <time>2022-11-05T10:51:54Z</time>
      </trkpt>
      <trkpt lat="45.95939" lon="4.56304">
        <ele>424.66</ele>
        <time>2022-11-05T10:51:58Z</time>
      </trkpt>
      <trkpt lat="45.95937" lon="4.563">
        <ele>425.146</ele>
        <time>2022-11-05T10:52:06Z</time>
      </trkpt>
      <trkpt lat="45.95938" lon="4.56296">
        <ele>425.755</ele>
        <time>2022-11-05T10:52:09Z</time>
      </trkpt>
      <trkpt lat="45.95941" lon="4.56296">
        <ele>426.525</ele>
        <time>2022-11-05T10:52:12Z</time>
      </trkpt>
      <trkpt lat="45.95944" lon="4.56298">
        <ele>426.986</ele>
        <time>2022-11-05T10:52:16Z</time>
      </trkpt>
      <trkpt lat="45.95946" lon="4.56298">
        <ele>427.576</ele>
        <time>2022-11-05T10:52:20Z</time>
      </trkpt>
      <trkpt lat="45.9595" lon="4.56297">
        <ele>429.395</ele>
        <time>2022-11-05T10:52:26Z</time>
      </trkpt>
      <trkpt lat="45.95952" lon="4.56297">
        <ele>430.693</ele>
        <time>2022-11-05T10:52:29Z</time>
      </trkpt>
      <trkpt lat="45.95953" lon="4.56296">
        <ele>431.13</ele>
        <time>2022-11-05T10:52:30Z</time>
      </trkpt>
      <trkpt lat="45.95954" lon="4.56296">
        <ele>431.463</ele>
        <time>2022-11-05T10:52:31Z</time>
      </trkpt>
      <trkpt lat="45.95956" lon="4.56296">
        <ele>431.236</ele>
        <time>2022-11-05T10:52:34Z</time>
      </trkpt>
      <trkpt lat="45.95966" lon="4.56297">
        <ele>433.53</ele>
        <time>2022-11-05T10:52:41Z</time>
      </trkpt>
      <trkpt lat="45.95971" lon="4.56295">
        <ele>432.536</ele>
        <time>2022-11-05T10:52:47Z</time>
      </trkpt>
      <trkpt lat="45.95974" lon="4.56295">
        <ele>432.564</ele>
        <time>2022-11-05T10:52:50Z</time>
      </trkpt>
      <trkpt lat="45.95975" lon="4.56295">
        <ele>432.378</ele>
        <time>2022-11-05T10:52:51Z</time>
      </trkpt>
      <trkpt lat="45.95975" lon="4.56295">
        <ele>432.268</ele>
        <time>2022-11-05T10:52:52Z</time>
      </trkpt>
      <trkpt lat="45.95975" lon="4.56295">
        <ele>432.432</ele>
        <time>2022-11-05T10:52:53Z</time>
      </trkpt>
      <trkpt lat="45.95975" lon="4.56295">
        <ele>432.432</ele>
        <time>2022-11-05T10:52:53Z</time>
      </trkpt>
      <trkpt lat="45.95975" lon="4.56295">
        <ele>432.391</ele>
        <time>2022-11-05T10:52:54Z</time>
      </trkpt>
      <trkpt lat="45.95975" lon="4.56295">
        <ele>432.583</ele>
        <time>2022-11-05T10:52:55Z</time>
      </trkpt>
      <trkpt lat="45.95976" lon="4.56295">
        <ele>432.266</ele>
        <time>2022-11-05T10:52:57Z</time>
      </trkpt>
      <trkpt lat="45.95976" lon="4.56295">
        <ele>433.462</ele>
        <time>2022-11-05T10:53:01Z</time>
      </trkpt>
      <trkpt lat="45.95977" lon="4.56295">
        <ele>433.695</ele>
        <time>2022-11-05T10:53:02Z</time>
      </trkpt>
      <trkpt lat="45.95977" lon="4.56295">
        <ele>433.695</ele>
        <time>2022-11-05T10:53:02Z</time>
      </trkpt>
      <trkpt lat="45.95977" lon="4.56295">
        <ele>433.598</ele>
        <time>2022-11-05T10:53:03Z</time>
      </trkpt>
      <trkpt lat="45.95977" lon="4.56295">
        <ele>434.986</ele>
        <time>2022-11-05T10:53:29Z</time>
      </trkpt>
      <trkpt lat="45.95978" lon="4.56295">
        <ele>435.599</ele>
        <time>2022-11-05T10:53:30Z</time>
      </trkpt>
      <trkpt lat="45.95978" lon="4.56296">
        <ele>437.078</ele>
        <time>2022-11-05T10:53:33Z</time>
      </trkpt>
      <trkpt lat="45.95977" lon="4.56295">
        <ele>436.975</ele>
        <time>2022-11-05T10:53:35Z</time>
      </trkpt>
      <trkpt lat="45.95977" lon="4.56295">
        <ele>434.092</ele>
        <time>2022-11-05T10:53:37Z</time>
      </trkpt>
      <trkpt lat="45.95977" lon="4.56295">
        <ele>434.092</ele>
        <time>2022-11-05T10:53:37Z</time>
      </trkpt>
      <trkpt lat="45.95977" lon="4.56295">
        <ele>434.128</ele>
        <time>2022-11-05T10:53:38Z</time>
      </trkpt>
      <trkpt lat="45.95977" lon="4.56295">
        <ele>433.765</ele>
        <time>2022-11-05T10:55:09Z</time>
      </trkpt>
      <trkpt lat="45.95978" lon="4.56296">
        <ele>433.595</ele>
        <time>2022-11-05T10:55:10Z</time>
      </trkpt>
      <trkpt lat="45.95992" lon="4.56301">
        <ele>429.944</ele>
        <time>2022-11-05T10:55:27Z</time>
      </trkpt>
      <trkpt lat="45.95995" lon="4.56302">
        <ele>430.179</ele>
        <time>2022-11-05T10:55:30Z</time>
      </trkpt>
      <trkpt lat="45.95996" lon="4.563">
        <ele>431.112</ele>
        <time>2022-11-05T10:55:34Z</time>
      </trkpt>
      <trkpt lat="45.95997" lon="4.56299">
        <ele>431.065</ele>
        <time>2022-11-05T10:55:35Z</time>
      </trkpt>
      <trkpt lat="45.96005" lon="4.563">
        <ele>431.354</ele>
        <time>2022-11-05T10:55:44Z</time>
      </trkpt>
      <trkpt lat="45.96007" lon="4.563">
        <ele>432.105</ele>
        <time>2022-11-05T10:55:46Z</time>
      </trkpt>
      <trkpt lat="45.96008" lon="4.56301">
        <ele>431.018</ele>
        <time>2022-11-05T10:55:49Z</time>
      </trkpt>
      <trkpt lat="45.9601" lon="4.56302">
        <ele>431.459</ele>
        <time>2022-11-05T10:55:50Z</time>
      </trkpt>
      <trkpt lat="45.96015" lon="4.56305">
        <ele>431.949</ele>
        <time>2022-11-05T10:55:55Z</time>
      </trkpt>
      <trkpt lat="45.96017" lon="4.56307">
        <ele>432.958</ele>
        <time>2022-11-05T10:55:58Z</time>
      </trkpt>
      <trkpt lat="45.96024" lon="4.56311">
        <ele>435.192</ele>
        <time>2022-11-05T10:56:07Z</time>
      </trkpt>
      <trkpt lat="45.96038" lon="4.56318">
        <ele>435.566</ele>
        <time>2022-11-05T10:56:23Z</time>
      </trkpt>
      <trkpt lat="45.96038" lon="4.56319">
        <ele>436.223</ele>
        <time>2022-11-05T10:56:24Z</time>
      </trkpt>
      <trkpt lat="45.96044" lon="4.56322">
        <ele>435.648</ele>
        <time>2022-11-05T10:56:32Z</time>
      </trkpt>
      <trkpt lat="45.96047" lon="4.56322">
        <ele>436.371</ele>
        <time>2022-11-05T10:56:36Z</time>
      </trkpt>
      <trkpt lat="45.96052" lon="4.56324">
        <ele>438.416</ele>
        <time>2022-11-05T10:56:42Z</time>
      </trkpt>
      <trkpt lat="45.96055" lon="4.56324">
        <ele>437.903</ele>
        <time>2022-11-05T10:56:47Z</time>
      </trkpt>
      <trkpt lat="45.96056" lon="4.56324">
        <ele>437.151</ele>
        <time>2022-11-05T10:56:48Z</time>
      </trkpt>
      <trkpt lat="45.9606" lon="4.56323">
        <ele>439.376</ele>
        <time>2022-11-05T10:56:53Z</time>
      </trkpt>
      <trkpt lat="45.96065" lon="4.56321">
        <ele>441.458</ele>
        <time>2022-11-05T10:56:58Z</time>
      </trkpt>
      <trkpt lat="45.96067" lon="4.56319">
        <ele>440.805</ele>
        <time>2022-11-05T10:57:01Z</time>
      </trkpt>
      <trkpt lat="45.9607" lon="4.56319">
        <ele>440.618</ele>
        <time>2022-11-05T10:57:04Z</time>
      </trkpt>
      <trkpt lat="45.96073" lon="4.5632">
        <ele>443.333</ele>
        <time>2022-11-05T10:57:07Z</time>
      </trkpt>
      <trkpt lat="45.96076" lon="4.5632">
        <ele>444.95</ele>
        <time>2022-11-05T10:57:10Z</time>
      </trkpt>
      <trkpt lat="45.96081" lon="4.56313">
        <ele>446.077</ele>
        <time>2022-11-05T10:57:18Z</time>
      </trkpt>
      <trkpt lat="45.96083" lon="4.56307">
        <ele>448.281</ele>
        <time>2022-11-05T10:57:24Z</time>
      </trkpt>
      <trkpt lat="45.96089" lon="4.56294">
        <ele>448.356</ele>
        <time>2022-11-05T10:57:38Z</time>
      </trkpt>
      <trkpt lat="45.96091" lon="4.56288">
        <ele>450.621</ele>
        <time>2022-11-05T10:57:43Z</time>
      </trkpt>
      <trkpt lat="45.96096" lon="4.56273">
        <ele>452.99</ele>
        <time>2022-11-05T10:57:55Z</time>
      </trkpt>
      <trkpt lat="45.96101" lon="4.56251">
        <ele>455.28</ele>
        <time>2022-11-05T10:58:12Z</time>
      </trkpt>
      <trkpt lat="45.96102" lon="4.56247">
        <ele>456.726</ele>
        <time>2022-11-05T10:58:15Z</time>
      </trkpt>
      <trkpt lat="45.96101" lon="4.56234">
        <ele>459.112</ele>
        <time>2022-11-05T10:58:24Z</time>
      </trkpt>
      <trkpt lat="45.961" lon="4.56216">
        <ele>461.139</ele>
        <time>2022-11-05T10:58:40Z</time>
      </trkpt>
      <trkpt lat="45.96098" lon="4.56211">
        <ele>463.235</ele>
        <time>2022-11-05T10:58:48Z</time>
      </trkpt>
      <trkpt lat="45.96096" lon="4.56207">
        <ele>463.427</ele>
        <time>2022-11-05T10:58:53Z</time>
      </trkpt>
      <trkpt lat="45.96094" lon="4.56203">
        <ele>463.005</ele>
        <time>2022-11-05T10:58:59Z</time>
      </trkpt>
      <trkpt lat="45.96094" lon="4.56202">
        <ele>463.178</ele>
        <time>2022-11-05T10:59:00Z</time>
      </trkpt>
      <trkpt lat="45.96094" lon="4.562">
        <ele>463.415</ele>
        <time>2022-11-05T10:59:04Z</time>
      </trkpt>
      <trkpt lat="45.96092" lon="4.56196">
        <ele>463.52</ele>
        <time>2022-11-05T10:59:08Z</time>
      </trkpt>
      <trkpt lat="45.96091" lon="4.56195">
        <ele>463.817</ele>
        <time>2022-11-05T10:59:10Z</time>
      </trkpt>
      <trkpt lat="45.96091" lon="4.56195">
        <ele>463.817</ele>
        <time>2022-11-05T10:59:10Z</time>
      </trkpt>
      <trkpt lat="45.96091" lon="4.56195">
        <ele>463.31</ele>
        <time>2022-11-05T10:59:11Z</time>
      </trkpt>
      <trkpt lat="45.96092" lon="4.56193">
        <ele>462.445</ele>
        <time>2022-11-05T10:59:17Z</time>
      </trkpt>
      <trkpt lat="45.96093" lon="4.56194">
        <ele>462.296</ele>
        <time>2022-11-05T10:59:18Z</time>
      </trkpt>
      <trkpt lat="45.96096" lon="4.56198">
        <ele>463.124</ele>
        <time>2022-11-05T10:59:23Z</time>
      </trkpt>
      <trkpt lat="45.96096" lon="4.56199">
        <ele>462.936</ele>
        <time>2022-11-05T10:59:24Z</time>
      </trkpt>
      <trkpt lat="45.96099" lon="4.56199">
        <ele>463.588</ele>
        <time>2022-11-05T10:59:28Z</time>
      </trkpt>
      <trkpt lat="45.96107" lon="4.562">
        <ele>465.622</ele>
        <time>2022-11-05T10:59:37Z</time>
      </trkpt>
      <trkpt lat="45.96122" lon="4.56209">
        <ele>467.413</ele>
        <time>2022-11-05T10:59:54Z</time>
      </trkpt>
      <trkpt lat="45.96124" lon="4.56214">
        <ele>469.744</ele>
        <time>2022-11-05T10:59:58Z</time>
      </trkpt>
      <trkpt lat="45.96126" lon="4.5622">
        <ele>470.722</ele>
        <time>2022-11-05T11:00:03Z</time>
      </trkpt>
      <trkpt lat="45.96127" lon="4.56225">
        <ele>473.589</ele>
        <time>2022-11-05T11:00:07Z</time>
      </trkpt>
      <trkpt lat="45.96128" lon="4.56227">
        <ele>475.394</ele>
        <time>2022-11-05T11:00:11Z</time>
      </trkpt>
      <trkpt lat="45.96128" lon="4.56226">
        <ele>475.028</ele>
        <time>2022-11-05T11:00:12Z</time>
      </trkpt>
      <trkpt lat="45.96129" lon="4.56226">
        <ele>475.013</ele>
        <time>2022-11-05T11:00:14Z</time>
      </trkpt>
      <trkpt lat="45.96129" lon="4.56226">
        <ele>476.354</ele>
        <time>2022-11-05T11:00:16Z</time>
      </trkpt>
      <trkpt lat="45.96129" lon="4.56226">
        <ele>477.81</ele>
        <time>2022-11-05T11:01:08Z</time>
      </trkpt>
      <trkpt lat="45.96129" lon="4.56227">
        <ele>478</ele>
        <time>2022-11-05T11:01:09Z</time>
      </trkpt>
      <trkpt lat="45.96129" lon="4.56227">
        <ele>477.59</ele>
        <time>2022-11-05T11:01:10Z</time>
      </trkpt>
      <trkpt lat="45.96129" lon="4.56227">
        <ele>478.882</ele>
        <time>2022-11-05T11:02:57Z</time>
      </trkpt>
      <trkpt lat="45.96129" lon="4.5623">
        <ele>478.665</ele>
        <time>2022-11-05T11:02:58Z</time>
      </trkpt>
      <trkpt lat="45.96132" lon="4.56233">
        <ele>479.593</ele>
        <time>2022-11-05T11:03:01Z</time>
      </trkpt>
      <trkpt lat="45.96133" lon="4.56236">
        <ele>479.81</ele>
        <time>2022-11-05T11:03:04Z</time>
      </trkpt>
      <trkpt lat="45.96135" lon="4.56239">
        <ele>480.777</ele>
        <time>2022-11-05T11:03:08Z</time>
      </trkpt>
      <trkpt lat="45.96136" lon="4.56239">
        <ele>481.319</ele>
        <time>2022-11-05T11:03:09Z</time>
      </trkpt>
      <trkpt lat="45.96136" lon="4.56239">
        <ele>481.056</ele>
        <time>2022-11-05T11:03:10Z</time>
      </trkpt>
      <trkpt lat="45.96136" lon="4.56239">
        <ele>480.909</ele>
        <time>2022-11-05T11:03:13Z</time>
      </trkpt>
      <trkpt lat="45.96136" lon="4.56242">
        <ele>480.87</ele>
        <time>2022-11-05T11:03:14Z</time>
      </trkpt>
      <trkpt lat="45.96141" lon="4.56259">
        <ele>482.895</ele>
        <time>2022-11-05T11:03:26Z</time>
      </trkpt>
      <trkpt lat="45.96145" lon="4.56273">
        <ele>483.502</ele>
        <time>2022-11-05T11:03:36Z</time>
      </trkpt>
      <trkpt lat="45.96146" lon="4.56277">
        <ele>483.875</ele>
        <time>2022-11-05T11:03:39Z</time>
      </trkpt>
      <trkpt lat="45.96159" lon="4.56322">
        <ele>483.537</ele>
        <time>2022-11-05T11:04:11Z</time>
      </trkpt>
      <trkpt lat="45.96161" lon="4.56346">
        <ele>482.698</ele>
        <time>2022-11-05T11:04:25Z</time>
      </trkpt>
      <trkpt lat="45.96159" lon="4.5636">
        <ele>483.76</ele>
        <time>2022-11-05T11:04:33Z</time>
      </trkpt>
      <trkpt lat="45.96152" lon="4.56376">
        <ele>484.304</ele>
        <time>2022-11-05T11:04:43Z</time>
      </trkpt>
      <trkpt lat="45.96141" lon="4.56388">
        <ele>482.239</ele>
        <time>2022-11-05T11:04:56Z</time>
      </trkpt>
      <trkpt lat="45.96133" lon="4.56396">
        <ele>484.255</ele>
        <time>2022-11-05T11:05:04Z</time>
      </trkpt>
      <trkpt lat="45.96123" lon="4.56407">
        <ele>487.078</ele>
        <time>2022-11-05T11:05:15Z</time>
      </trkpt>
      <trkpt lat="45.96119" lon="4.56408">
        <ele>487.34</ele>
        <time>2022-11-05T11:05:18Z</time>
      </trkpt>
      <trkpt lat="45.96113" lon="4.56413">
        <ele>485.036</ele>
        <time>2022-11-05T11:05:25Z</time>
      </trkpt>
      <trkpt lat="45.96108" lon="4.56418">
        <ele>483.023</ele>
        <time>2022-11-05T11:05:31Z</time>
      </trkpt>
      <trkpt lat="45.96051" lon="4.56455">
        <ele>482.983</ele>
        <time>2022-11-05T11:06:25Z</time>
      </trkpt>
      <trkpt lat="45.96042" lon="4.56464">
        <ele>485.159</ele>
        <time>2022-11-05T11:06:35Z</time>
      </trkpt>
      <trkpt lat="45.96035" lon="4.56471">
        <ele>487.184</ele>
        <time>2022-11-05T11:06:41Z</time>
      </trkpt>
      <trkpt lat="45.9603" lon="4.56483">
        <ele>489.296</ele>
        <time>2022-11-05T11:06:51Z</time>
      </trkpt>
      <trkpt lat="45.96028" lon="4.56489">
        <ele>490.022</ele>
        <time>2022-11-05T11:06:56Z</time>
      </trkpt>
      <trkpt lat="45.96028" lon="4.56489">
        <ele>490.367</ele>
        <time>2022-11-05T11:06:58Z</time>
      </trkpt>
      <trkpt lat="45.96028" lon="4.56489">
        <ele>490.478</ele>
        <time>2022-11-05T11:07:14Z</time>
      </trkpt>
      <trkpt lat="45.96027" lon="4.56491">
        <ele>490.258</ele>
        <time>2022-11-05T11:07:15Z</time>
      </trkpt>
      <trkpt lat="45.96017" lon="4.56516">
        <ele>491.188</ele>
        <time>2022-11-05T11:07:33Z</time>
      </trkpt>
      <trkpt lat="45.96017" lon="4.56516">
        <ele>492.564</ele>
        <time>2022-11-05T11:07:40Z</time>
      </trkpt>
      <trkpt lat="45.96016" lon="4.56516">
        <ele>492.53</ele>
        <time>2022-11-05T11:07:41Z</time>
      </trkpt>
      <trkpt lat="45.96014" lon="4.56521">
        <ele>492.902</ele>
        <time>2022-11-05T11:07:45Z</time>
      </trkpt>
      <trkpt lat="45.96008" lon="4.56536">
        <ele>494.935</ele>
        <time>2022-11-05T11:07:55Z</time>
      </trkpt>
      <trkpt lat="45.96002" lon="4.56549">
        <ele>497.214</ele>
        <time>2022-11-05T11:08:04Z</time>
      </trkpt>
      <trkpt lat="45.95991" lon="4.56574">
        <ele>499.351</ele>
        <time>2022-11-05T11:08:22Z</time>
      </trkpt>
      <trkpt lat="45.95988" lon="4.56579">
        <ele>501.6</ele>
        <time>2022-11-05T11:08:27Z</time>
      </trkpt>
      <trkpt lat="45.95971" lon="4.56619">
        <ele>503.613</ele>
        <time>2022-11-05T11:08:56Z</time>
      </trkpt>
      <trkpt lat="45.95967" lon="4.56632">
        <ele>505.652</ele>
        <time>2022-11-05T11:09:04Z</time>
      </trkpt>
      <trkpt lat="45.95966" lon="4.56637">
        <ele>505.999</ele>
        <time>2022-11-05T11:09:07Z</time>
      </trkpt>
      <trkpt lat="45.95966" lon="4.56642">
        <ele>505.111</ele>
        <time>2022-11-05T11:09:10Z</time>
      </trkpt>
      <trkpt lat="45.95968" lon="4.56647">
        <ele>504.251</ele>
        <time>2022-11-05T11:09:13Z</time>
      </trkpt>
      <trkpt lat="45.9597" lon="4.56648">
        <ele>504.274</ele>
        <time>2022-11-05T11:09:15Z</time>
      </trkpt>
      <trkpt lat="45.95972" lon="4.5665">
        <ele>503.031</ele>
        <time>2022-11-05T11:09:18Z</time>
      </trkpt>
      <trkpt lat="45.95981" lon="4.56655">
        <ele>503.77</ele>
        <time>2022-11-05T11:09:26Z</time>
      </trkpt>
      <trkpt lat="45.95984" lon="4.56654">
        <ele>504.541</ele>
        <time>2022-11-05T11:09:29Z</time>
      </trkpt>
      <trkpt lat="45.95987" lon="4.56651">
        <ele>503.539</ele>
        <time>2022-11-05T11:09:32Z</time>
      </trkpt>
      <trkpt lat="45.95993" lon="4.56644">
        <ele>501.355</ele>
        <time>2022-11-05T11:09:39Z</time>
      </trkpt>
      <trkpt lat="45.95997" lon="4.5664">
        <ele>500.41</ele>
        <time>2022-11-05T11:09:45Z</time>
      </trkpt>
      <trkpt lat="45.95997" lon="4.56639">
        <ele>500.038</ele>
        <time>2022-11-05T11:09:46Z</time>
      </trkpt>
      <trkpt lat="45.96006" lon="4.56623">
        <ele>499.133</ele>
        <time>2022-11-05T11:10:01Z</time>
      </trkpt>
      <trkpt lat="45.96017" lon="4.56611">
        <ele>498.479</ele>
        <time>2022-11-05T11:10:12Z</time>
      </trkpt>
      <trkpt lat="45.9602" lon="4.5661">
        <ele>499.095</ele>
        <time>2022-11-05T11:10:15Z</time>
      </trkpt>
      <trkpt lat="45.96025" lon="4.56608">
        <ele>498.779</ele>
        <time>2022-11-05T11:10:18Z</time>
      </trkpt>
      <trkpt lat="45.96048" lon="4.56582">
        <ele>497.932</ele>
        <time>2022-11-05T11:10:42Z</time>
      </trkpt>
      <trkpt lat="45.96055" lon="4.56578">
        <ele>499.298</ele>
        <time>2022-11-05T11:10:49Z</time>
      </trkpt>
      <trkpt lat="45.96064" lon="4.56562">
        <ele>501.597</ele>
        <time>2022-11-05T11:11:02Z</time>
      </trkpt>
      <trkpt lat="45.96064" lon="4.56563">
        <ele>502.127</ele>
        <time>2022-11-05T11:11:04Z</time>
      </trkpt>
      <trkpt lat="45.96064" lon="4.56563">
        <ele>502.722</ele>
        <time>2022-11-05T11:11:05Z</time>
      </trkpt>
      <trkpt lat="45.96064" lon="4.56563">
        <ele>503.164</ele>
        <time>2022-11-05T11:12:23Z</time>
      </trkpt>
      <trkpt lat="45.96066" lon="4.56562">
        <ele>503.19</ele>
        <time>2022-11-05T11:12:24Z</time>
      </trkpt>
      <trkpt lat="45.96066" lon="4.56562">
        <ele>503.169</ele>
        <time>2022-11-05T11:12:25Z</time>
      </trkpt>
      <trkpt lat="45.96066" lon="4.56562">
        <ele>503.171</ele>
        <time>2022-11-05T11:12:30Z</time>
      </trkpt>
      <trkpt lat="45.96067" lon="4.56562">
        <ele>503.021</ele>
        <time>2022-11-05T11:12:31Z</time>
      </trkpt>
      <trkpt lat="45.96067" lon="4.56561">
        <ele>503.039</ele>
        <time>2022-11-05T11:12:32Z</time>
      </trkpt>
      <trkpt lat="45.96068" lon="4.56558">
        <ele>503.797</ele>
        <time>2022-11-05T11:12:35Z</time>
      </trkpt>
      <trkpt lat="45.9607" lon="4.56555">
        <ele>504.467</ele>
        <time>2022-11-05T11:12:39Z</time>
      </trkpt>
      <trkpt lat="45.96077" lon="4.56552">
        <ele>504.073</ele>
        <time>2022-11-05T11:12:46Z</time>
      </trkpt>
      <trkpt lat="45.9608" lon="4.56552">
        <ele>504.472</ele>
        <time>2022-11-05T11:12:49Z</time>
      </trkpt>
      <trkpt lat="45.9608" lon="4.56553">
        <ele>504.312</ele>
        <time>2022-11-05T11:12:50Z</time>
      </trkpt>
      <trkpt lat="45.96081" lon="4.56553">
        <ele>504.514</ele>
        <time>2022-11-05T11:12:51Z</time>
      </trkpt>
      <trkpt lat="45.96083" lon="4.56551">
        <ele>504.977</ele>
        <time>2022-11-05T11:12:54Z</time>
      </trkpt>
      <trkpt lat="45.96089" lon="4.56548">
        <ele>504.622</ele>
        <time>2022-11-05T11:12:59Z</time>
      </trkpt>
      <trkpt lat="45.96091" lon="4.56549">
        <ele>504.69</ele>
        <time>2022-11-05T11:13:01Z</time>
      </trkpt>
      <trkpt lat="45.96095" lon="4.5655">
        <ele>505.194</ele>
        <time>2022-11-05T11:13:05Z</time>
      </trkpt>
      <trkpt lat="45.96096" lon="4.56551">
        <ele>505.94</ele>
        <time>2022-11-05T11:13:07Z</time>
      </trkpt>
      <trkpt lat="45.96096" lon="4.56551">
        <ele>505.94</ele>
        <time>2022-11-05T11:13:07Z</time>
      </trkpt>
      <trkpt lat="45.96096" lon="4.56551">
        <ele>505.859</ele>
        <time>2022-11-05T11:13:08Z</time>
      </trkpt>
      <trkpt lat="45.96097" lon="4.56552">
        <ele>506.209</ele>
        <time>2022-11-05T11:13:10Z</time>
      </trkpt>
      <trkpt lat="45.96098" lon="4.56552">
        <ele>507.777</ele>
        <time>2022-11-05T11:13:11Z</time>
      </trkpt>
      <trkpt lat="45.961" lon="4.56548">
        <ele>508.462</ele>
        <time>2022-11-05T11:13:15Z</time>
      </trkpt>
      <trkpt lat="45.96099" lon="4.56544">
        <ele>508.525</ele>
        <time>2022-11-05T11:13:18Z</time>
      </trkpt>
      <trkpt lat="45.96099" lon="4.56544">
        <ele>509.051</ele>
        <time>2022-11-05T11:13:19Z</time>
      </trkpt>
      <trkpt lat="45.96099" lon="4.56544">
        <ele>509.003</ele>
        <time>2022-11-05T11:13:50Z</time>
      </trkpt>
      <trkpt lat="45.96099" lon="4.56546">
        <ele>508.421</ele>
        <time>2022-11-05T11:13:51Z</time>
      </trkpt>
      <trkpt lat="45.96099" lon="4.56546">
        <ele>508.655</ele>
        <time>2022-11-05T11:13:52Z</time>
      </trkpt>
      <trkpt lat="45.96099" lon="4.56546">
        <ele>508.378</ele>
        <time>2022-11-05T11:14:14Z</time>
      </trkpt>
      <trkpt lat="45.96095" lon="4.56546">
        <ele>508.696</ele>
        <time>2022-11-05T11:14:15Z</time>
      </trkpt>
      <trkpt lat="45.96094" lon="4.56547">
        <ele>508.706</ele>
        <time>2022-11-05T11:14:16Z</time>
      </trkpt>
      <trkpt lat="45.96092" lon="4.5655">
        <ele>507.408</ele>
        <time>2022-11-05T11:14:20Z</time>
      </trkpt>
      <trkpt lat="45.96092" lon="4.56551">
        <ele>507.356</ele>
        <time>2022-11-05T11:14:21Z</time>
      </trkpt>
      <trkpt lat="45.96092" lon="4.56553">
        <ele>508.598</ele>
        <time>2022-11-05T11:14:24Z</time>
      </trkpt>
      <trkpt lat="45.96092" lon="4.56553">
        <ele>508.598</ele>
        <time>2022-11-05T11:14:24Z</time>
      </trkpt>
      <trkpt lat="45.96092" lon="4.56555">
        <ele>508.431</ele>
        <time>2022-11-05T11:14:25Z</time>
      </trkpt>
      <trkpt lat="45.96092" lon="4.56555">
        <ele>508.762</ele>
        <time>2022-11-05T11:14:26Z</time>
      </trkpt>
      <trkpt lat="45.96092" lon="4.56557">
        <ele>507.301</ele>
        <time>2022-11-05T11:14:29Z</time>
      </trkpt>
      <trkpt lat="45.96091" lon="4.56559">
        <ele>507.943</ele>
        <time>2022-11-05T11:14:31Z</time>
      </trkpt>
      <trkpt lat="45.96092" lon="4.56564">
        <ele>507.462</ele>
        <time>2022-11-05T11:14:35Z</time>
      </trkpt>
      <trkpt lat="45.96093" lon="4.56572">
        <ele>506.437</ele>
        <time>2022-11-05T11:14:43Z</time>
      </trkpt>
      <trkpt lat="45.96093" lon="4.56572">
        <ele>505.995</ele>
        <time>2022-11-05T11:14:45Z</time>
      </trkpt>
      <trkpt lat="45.96093" lon="4.56572">
        <ele>506.211</ele>
        <time>2022-11-05T11:14:46Z</time>
      </trkpt>
      <trkpt lat="45.96092" lon="4.56574">
        <ele>506.154</ele>
        <time>2022-11-05T11:14:47Z</time>
      </trkpt>
      <trkpt lat="45.96092" lon="4.56574">
        <ele>506.154</ele>
        <time>2022-11-05T11:14:47Z</time>
      </trkpt>
      <trkpt lat="45.96092" lon="4.56574">
        <ele>506.093</ele>
        <time>2022-11-05T11:14:48Z</time>
      </trkpt>
      <trkpt lat="45.96092" lon="4.56574">
        <ele>506.093</ele>
        <time>2022-11-05T11:14:48Z</time>
      </trkpt>
      <trkpt lat="45.96092" lon="4.56574">
        <ele>506.469</ele>
        <time>2022-11-05T11:14:49Z</time>
      </trkpt>
      <trkpt lat="45.96092" lon="4.56575">
        <ele>505.899</ele>
        <time>2022-11-05T11:14:52Z</time>
      </trkpt>
      <trkpt lat="45.96089" lon="4.56577">
        <ele>504.92</ele>
        <time>2022-11-05T11:14:55Z</time>
      </trkpt>
      <trkpt lat="45.96086" lon="4.56578">
        <ele>505.663</ele>
        <time>2022-11-05T11:14:58Z</time>
      </trkpt>
      <trkpt lat="45.96086" lon="4.56578">
        <ele>506.215</ele>
        <time>2022-11-05T11:14:59Z</time>
      </trkpt>
      <trkpt lat="45.96086" lon="4.56578">
        <ele>506.587</ele>
        <time>2022-11-05T11:15:02Z</time>
      </trkpt>
      <trkpt lat="45.96086" lon="4.56577">
        <ele>506.327</ele>
        <time>2022-11-05T11:15:03Z</time>
      </trkpt>
      <trkpt lat="45.96086" lon="4.56577">
        <ele>506.267</ele>
        <time>2022-11-05T11:15:04Z</time>
      </trkpt>
      <trkpt lat="45.96086" lon="4.56577">
        <ele>506.26</ele>
        <time>2022-11-05T11:15:05Z</time>
      </trkpt>
      <trkpt lat="45.96086" lon="4.56576">
        <ele>506.387</ele>
        <time>2022-11-05T11:15:06Z</time>
      </trkpt>
      <trkpt lat="45.96087" lon="4.56576">
        <ele>506.026</ele>
        <time>2022-11-05T11:15:07Z</time>
      </trkpt>
      <trkpt lat="45.96087" lon="4.56576">
        <ele>506.332</ele>
        <time>2022-11-05T11:15:08Z</time>
      </trkpt>
      <trkpt lat="45.96086" lon="4.56578">
        <ele>506.51</ele>
        <time>2022-11-05T11:15:12Z</time>
      </trkpt>
      <trkpt lat="45.96086" lon="4.56578">
        <ele>506.208</ele>
        <time>2022-11-05T11:15:13Z</time>
      </trkpt>
      <trkpt lat="45.96084" lon="4.56579">
        <ele>506.319</ele>
        <time>2022-11-05T11:15:14Z</time>
      </trkpt>
      <trkpt lat="45.96084" lon="4.56579">
        <ele>503.569</ele>
        <time>2022-11-05T11:15:16Z</time>
      </trkpt>
      <trkpt lat="45.96084" lon="4.56579">
        <ele>503.569</ele>
        <time>2022-11-05T11:15:16Z</time>
      </trkpt>
      <trkpt lat="45.96085" lon="4.5658">
        <ele>503.658</ele>
        <time>2022-11-05T11:15:17Z</time>
      </trkpt>
      <trkpt lat="45.96085" lon="4.5658">
        <ele>502.921</ele>
        <time>2022-11-05T11:15:18Z</time>
      </trkpt>
      <trkpt lat="45.96085" lon="4.5658">
        <ele>503.458</ele>
        <time>2022-11-05T11:15:20Z</time>
      </trkpt>
      <trkpt lat="45.96085" lon="4.5658">
        <ele>503.744</ele>
        <time>2022-11-05T11:15:21Z</time>
      </trkpt>
      <trkpt lat="45.96085" lon="4.5658">
        <ele>502.762</ele>
        <time>2022-11-05T11:15:23Z</time>
      </trkpt>
      <trkpt lat="45.96086" lon="4.5658">
        <ele>502.5</ele>
        <time>2022-11-05T11:15:24Z</time>
      </trkpt>
      <trkpt lat="45.96086" lon="4.5658">
        <ele>502.721</ele>
        <time>2022-11-05T11:15:25Z</time>
      </trkpt>
      <trkpt lat="45.96086" lon="4.5658">
        <ele>502.886</ele>
        <time>2022-11-05T11:15:26Z</time>
      </trkpt>
      <trkpt lat="45.96086" lon="4.5658">
        <ele>502.886</ele>
        <time>2022-11-05T11:15:26Z</time>
      </trkpt>
      <trkpt lat="45.96086" lon="4.56582">
        <ele>503.589</ele>
        <time>2022-11-05T11:15:27Z</time>
      </trkpt>
      <trkpt lat="45.96087" lon="4.56582">
        <ele>505.997</ele>
        <time>2022-11-05T11:15:30Z</time>
      </trkpt>
      <trkpt lat="45.96088" lon="4.56581">
        <ele>506.804</ele>
        <time>2022-11-05T11:15:32Z</time>
      </trkpt>
      <trkpt lat="45.96088" lon="4.5658">
        <ele>506.804</ele>
        <time>2022-11-05T11:15:34Z</time>
      </trkpt>
      <trkpt lat="45.96088" lon="4.5658">
        <ele>506.804</ele>
        <time>2022-11-05T11:15:34Z</time>
      </trkpt>
      <trkpt lat="45.96088" lon="4.5658">
        <ele>507.108</ele>
        <time>2022-11-05T11:15:35Z</time>
      </trkpt>
      <trkpt lat="45.96088" lon="4.5658">
        <ele>508.244</ele>
        <time>2022-11-05T11:15:36Z</time>
      </trkpt>
      <trkpt lat="45.96088" lon="4.5658">
        <ele>509.262</ele>
        <time>2022-11-05T11:15:37Z</time>
      </trkpt>
      <trkpt lat="45.96089" lon="4.56581">
        <ele>509.701</ele>
        <time>2022-11-05T11:15:40Z</time>
      </trkpt>
      <trkpt lat="45.9609" lon="4.56582">
        <ele>510.224</ele>
        <time>2022-11-05T11:15:41Z</time>
      </trkpt>
      <trkpt lat="45.96091" lon="4.56585">
        <ele>513.209</ele>
        <time>2022-11-05T11:15:45Z</time>
      </trkpt>
      <trkpt lat="45.96091" lon="4.56585">
        <ele>513.209</ele>
        <time>2022-11-05T11:15:45Z</time>
      </trkpt>
      <trkpt lat="45.96092" lon="4.56585">
        <ele>513.672</ele>
        <time>2022-11-05T11:15:46Z</time>
      </trkpt>
      <trkpt lat="45.9609" lon="4.56589">
        <ele>514.023</ele>
        <time>2022-11-05T11:15:50Z</time>
      </trkpt>
      <trkpt lat="45.96086" lon="4.56601">
        <ele>511.245</ele>
        <time>2022-11-05T11:15:59Z</time>
      </trkpt>
      <trkpt lat="45.96085" lon="4.56601">
        <ele>512.496</ele>
        <time>2022-11-05T11:16:01Z</time>
      </trkpt>
      <trkpt lat="45.96084" lon="4.56602">
        <ele>512.449</ele>
        <time>2022-11-05T11:16:04Z</time>
      </trkpt>
      <trkpt lat="45.96084" lon="4.56601">
        <ele>511.635</ele>
        <time>2022-11-05T11:16:05Z</time>
      </trkpt>
      <trkpt lat="45.96084" lon="4.56601">
        <ele>512.235</ele>
        <time>2022-11-05T11:16:07Z</time>
      </trkpt>
      <trkpt lat="45.96084" lon="4.56601">
        <ele>512.647</ele>
        <time>2022-11-05T11:16:14Z</time>
      </trkpt>
      <trkpt lat="45.96086" lon="4.56598">
        <ele>512.591</ele>
        <time>2022-11-05T11:16:15Z</time>
      </trkpt>
      <trkpt lat="45.96086" lon="4.56596">
        <ele>511.812</ele>
        <time>2022-11-05T11:16:16Z</time>
      </trkpt>
      <trkpt lat="45.96089" lon="4.56587">
        <ele>512.27</ele>
        <time>2022-11-05T11:16:21Z</time>
      </trkpt>
      <trkpt lat="45.9609" lon="4.56578">
        <ele>512.242</ele>
        <time>2022-11-05T11:16:25Z</time>
      </trkpt>
      <trkpt lat="45.9609" lon="4.56577">
        <ele>512.235</ele>
        <time>2022-11-05T11:16:26Z</time>
      </trkpt>
      <trkpt lat="45.96089" lon="4.56574">
        <ele>510.875</ele>
        <time>2022-11-05T11:16:29Z</time>
      </trkpt>
      <trkpt lat="45.96089" lon="4.56574">
        <ele>510.875</ele>
        <time>2022-11-05T11:16:29Z</time>
      </trkpt>
      <trkpt lat="45.96089" lon="4.56573">
        <ele>510.439</ele>
        <time>2022-11-05T11:16:30Z</time>
      </trkpt>
      <trkpt lat="45.96089" lon="4.56574">
        <ele>510.34</ele>
        <time>2022-11-05T11:16:31Z</time>
      </trkpt>
      <trkpt lat="45.96087" lon="4.56575">
        <ele>510.514</ele>
        <time>2022-11-05T11:16:34Z</time>
      </trkpt>
      <trkpt lat="45.96088" lon="4.56575">
        <ele>510.543</ele>
        <time>2022-11-05T11:16:36Z</time>
      </trkpt>
      <trkpt lat="45.96089" lon="4.56575">
        <ele>510.179</ele>
        <time>2022-11-05T11:16:39Z</time>
      </trkpt>
      <trkpt lat="45.96089" lon="4.56572">
        <ele>509.82</ele>
        <time>2022-11-05T11:16:42Z</time>
      </trkpt>
      <trkpt lat="45.96089" lon="4.56572">
        <ele>509.24</ele>
        <time>2022-11-05T11:16:44Z</time>
      </trkpt>
      <trkpt lat="45.96089" lon="4.56572">
        <ele>509.253</ele>
        <time>2022-11-05T11:16:45Z</time>
      </trkpt>
      <trkpt lat="45.9609" lon="4.56571">
        <ele>507.105</ele>
        <time>2022-11-05T11:16:49Z</time>
      </trkpt>
      <trkpt lat="45.9609" lon="4.56571">
        <ele>506.283</ele>
        <time>2022-11-05T11:17:04Z</time>
      </trkpt>
      <trkpt lat="45.96091" lon="4.5657">
        <ele>506.358</ele>
        <time>2022-11-05T11:17:05Z</time>
      </trkpt>
      <trkpt lat="45.96091" lon="4.5657">
        <ele>504.534</ele>
        <time>2022-11-05T11:17:07Z</time>
      </trkpt>
      <trkpt lat="45.9609" lon="4.5657">
        <ele>503.648</ele>
        <time>2022-11-05T11:17:10Z</time>
      </trkpt>
      <trkpt lat="45.9609" lon="4.5657">
        <ele>503.647</ele>
        <time>2022-11-05T11:17:16Z</time>
      </trkpt>
      <trkpt lat="45.96091" lon="4.56573">
        <ele>503.855</ele>
        <time>2022-11-05T11:17:17Z</time>
      </trkpt>
      <trkpt lat="45.96091" lon="4.56573">
        <ele>503.855</ele>
        <time>2022-11-05T11:17:17Z</time>
      </trkpt>
      <trkpt lat="45.96091" lon="4.56573">
        <ele>504.407</ele>
        <time>2022-11-05T11:17:18Z</time>
      </trkpt>
      <trkpt lat="45.96091" lon="4.56573">
        <ele>504.759</ele>
        <time>2022-11-05T11:17:35Z</time>
      </trkpt>
      <trkpt lat="45.96091" lon="4.56575">
        <ele>505.343</ele>
        <time>2022-11-05T11:17:36Z</time>
      </trkpt>
      <trkpt lat="45.9609" lon="4.56575">
        <ele>506.083</ele>
        <time>2022-11-05T11:17:40Z</time>
      </trkpt>
      <trkpt lat="45.96089" lon="4.56573">
        <ele>505.974</ele>
        <time>2022-11-05T11:17:43Z</time>
      </trkpt>
      <trkpt lat="45.96089" lon="4.56573">
        <ele>506.249</ele>
        <time>2022-11-05T11:17:44Z</time>
      </trkpt>
      <trkpt lat="45.96089" lon="4.56573">
        <ele>506.592</ele>
        <time>2022-11-05T11:17:45Z</time>
      </trkpt>
      <trkpt lat="45.9609" lon="4.56572">
        <ele>506.681</ele>
        <time>2022-11-05T11:17:46Z</time>
      </trkpt>
      <trkpt lat="45.9609" lon="4.56573">
        <ele>506.664</ele>
        <time>2022-11-05T11:17:47Z</time>
      </trkpt>
      <trkpt lat="45.9609" lon="4.56574">
        <ele>507.221</ele>
        <time>2022-11-05T11:17:48Z</time>
      </trkpt>
      <trkpt lat="45.9609" lon="4.56574">
        <ele>507.616</ele>
        <time>2022-11-05T11:17:49Z</time>
      </trkpt>
      <trkpt lat="45.9609" lon="4.56574">
        <ele>507.617</ele>
        <time>2022-11-05T11:18:54Z</time>
      </trkpt>
      <trkpt lat="45.96091" lon="4.56575">
        <ele>507.998</ele>
        <time>2022-11-05T11:18:55Z</time>
      </trkpt>
      <trkpt lat="45.96091" lon="4.56575">
        <ele>508.016</ele>
        <time>2022-11-05T11:18:56Z</time>
      </trkpt>
      <trkpt lat="45.96091" lon="4.56575">
        <ele>505.072</ele>
        <time>2022-11-05T11:18:58Z</time>
      </trkpt>
      <trkpt lat="45.96092" lon="4.56574">
        <ele>506.133</ele>
        <time>2022-11-05T11:18:59Z</time>
      </trkpt>
      <trkpt lat="45.96092" lon="4.56574">
        <ele>506.529</ele>
        <time>2022-11-05T11:19:00Z</time>
      </trkpt>
      <trkpt lat="45.96092" lon="4.56574">
        <ele>506.497</ele>
        <time>2022-11-05T11:19:03Z</time>
      </trkpt>
      <trkpt lat="45.96095" lon="4.56573">
        <ele>506.481</ele>
        <time>2022-11-05T11:19:04Z</time>
      </trkpt>
      <trkpt lat="45.96095" lon="4.56573">
        <ele>506.036</ele>
        <time>2022-11-05T11:19:05Z</time>
      </trkpt>
      <trkpt lat="45.96095" lon="4.56573">
        <ele>505.975</ele>
        <time>2022-11-05T11:19:17Z</time>
      </trkpt>
      <trkpt lat="45.96097" lon="4.56574">
        <ele>505.778</ele>
        <time>2022-11-05T11:19:18Z</time>
      </trkpt>
      <trkpt lat="45.96097" lon="4.56574">
        <ele>506.406</ele>
        <time>2022-11-05T11:19:19Z</time>
      </trkpt>
      <trkpt lat="45.96097" lon="4.56574">
        <ele>505.372</ele>
        <time>2022-11-05T11:19:20Z</time>
      </trkpt>
      <trkpt lat="45.96097" lon="4.56574">
        <ele>505.372</ele>
        <time>2022-11-05T11:19:20Z</time>
      </trkpt>
      <trkpt lat="45.96097" lon="4.56574">
        <ele>503.738</ele>
        <time>2022-11-05T11:19:21Z</time>
      </trkpt>
      <trkpt lat="45.96099" lon="4.56574">
        <ele>501.083</ele>
        <time>2022-11-05T11:19:27Z</time>
      </trkpt>
      <trkpt lat="45.961" lon="4.56574">
        <ele>499.95</ele>
        <time>2022-11-05T11:19:29Z</time>
      </trkpt>
      <trkpt lat="45.96102" lon="4.5657">
        <ele>500.313</ele>
        <time>2022-11-05T11:19:34Z</time>
      </trkpt>
      <trkpt lat="45.96102" lon="4.56565">
        <ele>502.995</ele>
        <time>2022-11-05T11:19:38Z</time>
      </trkpt>
      <trkpt lat="45.96101" lon="4.56561">
        <ele>503.831</ele>
        <time>2022-11-05T11:19:42Z</time>
      </trkpt>
      <trkpt lat="45.96101" lon="4.56558">
        <ele>504.264</ele>
        <time>2022-11-05T11:19:50Z</time>
      </trkpt>
      <trkpt lat="45.96102" lon="4.56554">
        <ele>505.41</ele>
        <time>2022-11-05T11:19:54Z</time>
      </trkpt>
      <trkpt lat="45.96104" lon="4.56551">
        <ele>504.653</ele>
        <time>2022-11-05T11:19:57Z</time>
      </trkpt>
      <trkpt lat="45.96106" lon="4.56549">
        <ele>504.348</ele>
        <time>2022-11-05T11:20:01Z</time>
      </trkpt>
      <trkpt lat="45.96109" lon="4.56547">
        <ele>505.359</ele>
        <time>2022-11-05T11:20:04Z</time>
      </trkpt>
      <trkpt lat="45.96111" lon="4.56546">
        <ele>505.847</ele>
        <time>2022-11-05T11:20:08Z</time>
      </trkpt>
      <trkpt lat="45.96116" lon="4.56541">
        <ele>504.768</ele>
        <time>2022-11-05T11:20:15Z</time>
      </trkpt>
      <trkpt lat="45.9612" lon="4.56539">
        <ele>506.332</ele>
        <time>2022-11-05T11:20:19Z</time>
      </trkpt>
      <trkpt lat="45.96122" lon="4.56538">
        <ele>507.356</ele>
        <time>2022-11-05T11:20:23Z</time>
      </trkpt>
      <trkpt lat="45.96123" lon="4.56538">
        <ele>507.091</ele>
        <time>2022-11-05T11:20:24Z</time>
      </trkpt>
      <trkpt lat="45.96123" lon="4.56538">
        <ele>507.028</ele>
        <time>2022-11-05T11:20:25Z</time>
      </trkpt>
      <trkpt lat="45.96125" lon="4.56537">
        <ele>506.92</ele>
        <time>2022-11-05T11:20:27Z</time>
      </trkpt>
      <trkpt lat="45.96128" lon="4.56535">
        <ele>507.765</ele>
        <time>2022-11-05T11:20:31Z</time>
      </trkpt>
      <trkpt lat="45.9613" lon="4.56534">
        <ele>507.181</ele>
        <time>2022-11-05T11:20:33Z</time>
      </trkpt>
      <trkpt lat="45.96132" lon="4.56533">
        <ele>507.161</ele>
        <time>2022-11-05T11:20:35Z</time>
      </trkpt>
      <trkpt lat="45.96136" lon="4.56531">
        <ele>508.163</ele>
        <time>2022-11-05T11:20:39Z</time>
      </trkpt>
      <trkpt lat="45.9615" lon="4.56523">
        <ele>509.482</ele>
        <time>2022-11-05T11:20:54Z</time>
      </trkpt>
      <trkpt lat="45.9616" lon="4.56509">
        <ele>510.472</ele>
        <time>2022-11-05T11:21:06Z</time>
      </trkpt>
      <trkpt lat="45.96162" lon="4.56509">
        <ele>510.663</ele>
        <time>2022-11-05T11:21:08Z</time>
      </trkpt>
      <trkpt lat="45.96166" lon="4.56509">
        <ele>510.445</ele>
        <time>2022-11-05T11:21:12Z</time>
      </trkpt>
      <trkpt lat="45.96168" lon="4.56508">
        <ele>508.467</ele>
        <time>2022-11-05T11:21:14Z</time>
      </trkpt>
      <trkpt lat="45.96169" lon="4.56508">
        <ele>508.877</ele>
        <time>2022-11-05T11:21:15Z</time>
      </trkpt>
      <trkpt lat="45.96172" lon="4.56503">
        <ele>509.756</ele>
        <time>2022-11-05T11:21:19Z</time>
      </trkpt>
      <trkpt lat="45.96174" lon="4.56499">
        <ele>510.356</ele>
        <time>2022-11-05T11:21:22Z</time>
      </trkpt>
      <trkpt lat="45.96177" lon="4.56498">
        <ele>512.491</ele>
        <time>2022-11-05T11:21:24Z</time>
      </trkpt>
      <trkpt lat="45.96184" lon="4.56498">
        <ele>510.722</ele>
        <time>2022-11-05T11:21:31Z</time>
      </trkpt>
      <trkpt lat="45.9619" lon="4.56494">
        <ele>512.575</ele>
        <time>2022-11-05T11:21:39Z</time>
      </trkpt>
      <trkpt lat="45.96188" lon="4.5649">
        <ele>513.394</ele>
        <time>2022-11-05T11:21:42Z</time>
      </trkpt>
      <trkpt lat="45.96186" lon="4.56488">
        <ele>511.972</ele>
        <time>2022-11-05T11:21:44Z</time>
      </trkpt>
      <trkpt lat="45.96184" lon="4.56493">
        <ele>509.506</ele>
        <time>2022-11-05T11:21:47Z</time>
      </trkpt>
      <trkpt lat="45.96188" lon="4.56493">
        <ele>510.206</ele>
        <time>2022-11-05T11:21:50Z</time>
      </trkpt>
      <trkpt lat="45.96199" lon="4.56493">
        <ele>510.051</ele>
        <time>2022-11-05T11:21:59Z</time>
      </trkpt>
      <trkpt lat="45.96204" lon="4.56493">
        <ele>510.358</ele>
        <time>2022-11-05T11:22:04Z</time>
      </trkpt>
      <trkpt lat="45.96204" lon="4.56493">
        <ele>510.81</ele>
        <time>2022-11-05T11:22:05Z</time>
      </trkpt>
      <trkpt lat="45.96211" lon="4.56493">
        <ele>510.015</ele>
        <time>2022-11-05T11:22:11Z</time>
      </trkpt>
      <trkpt lat="45.96213" lon="4.56492">
        <ele>510.58</ele>
        <time>2022-11-05T11:22:13Z</time>
      </trkpt>
      <trkpt lat="45.96221" lon="4.56493">
        <ele>512.789</ele>
        <time>2022-11-05T11:22:20Z</time>
      </trkpt>
      <trkpt lat="45.9623" lon="4.56495">
        <ele>513.396</ele>
        <time>2022-11-05T11:22:28Z</time>
      </trkpt>
      <trkpt lat="45.96233" lon="4.56496">
        <ele>515.935</ele>
        <time>2022-11-05T11:22:33Z</time>
      </trkpt>
      <trkpt lat="45.96237" lon="4.56498">
        <ele>517.775</ele>
        <time>2022-11-05T11:22:40Z</time>
      </trkpt>
      <trkpt lat="45.96237" lon="4.56498">
        <ele>518.171</ele>
        <time>2022-11-05T11:22:41Z</time>
      </trkpt>
      <trkpt lat="45.9624" lon="4.565">
        <ele>518.844</ele>
        <time>2022-11-05T11:22:46Z</time>
      </trkpt>
      <trkpt lat="45.96246" lon="4.56502">
        <ele>519.063</ele>
        <time>2022-11-05T11:22:54Z</time>
      </trkpt>
      <trkpt lat="45.96249" lon="4.56505">
        <ele>519.561</ele>
        <time>2022-11-05T11:22:59Z</time>
      </trkpt>
      <trkpt lat="45.96255" lon="4.56509">
        <ele>522.11</ele>
        <time>2022-11-05T11:23:07Z</time>
      </trkpt>
      <trkpt lat="45.96262" lon="4.56513">
        <ele>522.228</ele>
        <time>2022-11-05T11:23:17Z</time>
      </trkpt>
      <trkpt lat="45.96266" lon="4.56517">
        <ele>524.251</ele>
        <time>2022-11-05T11:23:23Z</time>
      </trkpt>
      <trkpt lat="45.96281" lon="4.56521">
        <ele>526.646</ele>
        <time>2022-11-05T11:23:39Z</time>
      </trkpt>
      <trkpt lat="45.9629" lon="4.56524">
        <ele>529.215</ele>
        <time>2022-11-05T11:23:47Z</time>
      </trkpt>
      <trkpt lat="45.96306" lon="4.56528">
        <ele>531.334</ele>
        <time>2022-11-05T11:24:07Z</time>
      </trkpt>
      <trkpt lat="45.96314" lon="4.56528">
        <ele>534.032</ele>
        <time>2022-11-05T11:24:16Z</time>
      </trkpt>
      <trkpt lat="45.96332" lon="4.56526">
        <ele>536.521</ele>
        <time>2022-11-05T11:24:33Z</time>
      </trkpt>
      <trkpt lat="45.96368" lon="4.56513">
        <ele>538.74</ele>
        <time>2022-11-05T11:25:05Z</time>
      </trkpt>
      <trkpt lat="45.96397" lon="4.56499">
        <ele>539.506</ele>
        <time>2022-11-05T11:25:34Z</time>
      </trkpt>
      <trkpt lat="45.9647" lon="4.5645">
        <ele>541.668</ele>
        <time>2022-11-05T11:26:48Z</time>
      </trkpt>
      <trkpt lat="45.96473" lon="4.56449">
        <ele>542.85</ele>
        <time>2022-11-05T11:26:51Z</time>
      </trkpt>
      <trkpt lat="45.96487" lon="4.56434">
        <ele>542.575</ele>
        <time>2022-11-05T11:27:08Z</time>
      </trkpt>
      <trkpt lat="45.96504" lon="4.56423">
        <ele>544.637</ele>
        <time>2022-11-05T11:27:25Z</time>
      </trkpt>
      <trkpt lat="45.96534" lon="4.56405">
        <ele>545.672</ele>
        <time>2022-11-05T11:27:55Z</time>
      </trkpt>
      <trkpt lat="45.96559" lon="4.56399">
        <ele>547.741</ele>
        <time>2022-11-05T11:28:17Z</time>
      </trkpt>
      <trkpt lat="45.96579" lon="4.56393">
        <ele>549.98</ele>
        <time>2022-11-05T11:28:37Z</time>
      </trkpt>
      <trkpt lat="45.96582" lon="4.56392">
        <ele>550.254</ele>
        <time>2022-11-05T11:28:40Z</time>
      </trkpt>
      <trkpt lat="45.96593" lon="4.56387">
        <ele>553.09</ele>
        <time>2022-11-05T11:28:53Z</time>
      </trkpt>
      <trkpt lat="45.96596" lon="4.56386">
        <ele>555.226</ele>
        <time>2022-11-05T11:28:57Z</time>
      </trkpt>
      <trkpt lat="45.96606" lon="4.5638">
        <ele>557.686</ele>
        <time>2022-11-05T11:29:08Z</time>
      </trkpt>
      <trkpt lat="45.96614" lon="4.56377">
        <ele>559.085</ele>
        <time>2022-11-05T11:29:14Z</time>
      </trkpt>
      <trkpt lat="45.96647" lon="4.56361">
        <ele>558.98</ele>
        <time>2022-11-05T11:29:45Z</time>
      </trkpt>
      <trkpt lat="45.96653" lon="4.56359">
        <ele>558.638</ele>
        <time>2022-11-05T11:29:53Z</time>
      </trkpt>
      <trkpt lat="45.96655" lon="4.56357">
        <ele>558.804</ele>
        <time>2022-11-05T11:29:56Z</time>
      </trkpt>
      <trkpt lat="45.96658" lon="4.56356">
        <ele>558.927</ele>
        <time>2022-11-05T11:29:59Z</time>
      </trkpt>
      <trkpt lat="45.9668" lon="4.56348">
        <ele>559.954</ele>
        <time>2022-11-05T11:30:17Z</time>
      </trkpt>
      <trkpt lat="45.96709" lon="4.5634">
        <ele>562.001</ele>
        <time>2022-11-05T11:30:42Z</time>
      </trkpt>
      <trkpt lat="45.96748" lon="4.56331">
        <ele>560.784</ele>
        <time>2022-11-05T11:31:16Z</time>
      </trkpt>
      <trkpt lat="45.96776" lon="4.56336">
        <ele>562.86</ele>
        <time>2022-11-05T11:31:43Z</time>
      </trkpt>
      <trkpt lat="45.96854" lon="4.56357">
        <ele>560.72</ele>
        <time>2022-11-05T11:32:51Z</time>
      </trkpt>
      <trkpt lat="45.9692" lon="4.56384">
        <ele>560.561</ele>
        <time>2022-11-05T11:33:51Z</time>
      </trkpt>
      <trkpt lat="45.96944" lon="4.56406">
        <ele>562.761</ele>
        <time>2022-11-05T11:34:17Z</time>
      </trkpt>
      <trkpt lat="45.96985" lon="4.56443">
        <ele>562.188</ele>
        <time>2022-11-05T11:35:02Z</time>
      </trkpt>
      <trkpt lat="45.96992" lon="4.56448">
        <ele>564.265</ele>
        <time>2022-11-05T11:35:09Z</time>
      </trkpt>
      <trkpt lat="45.97009" lon="4.56456">
        <ele>566.426</ele>
        <time>2022-11-05T11:35:24Z</time>
      </trkpt>
      <trkpt lat="45.97041" lon="4.56465">
        <ele>565.848</ele>
        <time>2022-11-05T11:35:54Z</time>
      </trkpt>
      <trkpt lat="45.97067" lon="4.56465">
        <ele>563.706</ele>
        <time>2022-11-05T11:36:16Z</time>
      </trkpt>
      <trkpt lat="45.97087" lon="4.56463">
        <ele>566.153</ele>
        <time>2022-11-05T11:36:32Z</time>
      </trkpt>
      <trkpt lat="45.97177" lon="4.56441">
        <ele>566.991</ele>
        <time>2022-11-05T11:37:46Z</time>
      </trkpt>
      <trkpt lat="45.97209" lon="4.56429">
        <ele>569.256</ele>
        <time>2022-11-05T11:38:15Z</time>
      </trkpt>
      <trkpt lat="45.97224" lon="4.56423">
        <ele>571.41</ele>
        <time>2022-11-05T11:38:29Z</time>
      </trkpt>
      <trkpt lat="45.97239" lon="4.56418">
        <ele>573.455</ele>
        <time>2022-11-05T11:38:41Z</time>
      </trkpt>
      <trkpt lat="45.97252" lon="4.56412">
        <ele>575.897</ele>
        <time>2022-11-05T11:38:52Z</time>
      </trkpt>
      <trkpt lat="45.97268" lon="4.56402">
        <ele>578.688</ele>
        <time>2022-11-05T11:39:07Z</time>
      </trkpt>
      <trkpt lat="45.97285" lon="4.56392">
        <ele>580.948</ele>
        <time>2022-11-05T11:39:25Z</time>
      </trkpt>
      <trkpt lat="45.97312" lon="4.56376">
        <ele>582.958</ele>
        <time>2022-11-05T11:39:52Z</time>
      </trkpt>
      <trkpt lat="45.97336" lon="4.56363">
        <ele>584.965</ele>
        <time>2022-11-05T11:40:17Z</time>
      </trkpt>
      <trkpt lat="45.97362" lon="4.56351">
        <ele>587.238</ele>
        <time>2022-11-05T11:40:42Z</time>
      </trkpt>
      <trkpt lat="45.97372" lon="4.56347">
        <ele>586.424</ele>
        <time>2022-11-05T11:40:51Z</time>
      </trkpt>
      <trkpt lat="45.97394" lon="4.56342">
        <ele>588.466</ele>
        <time>2022-11-05T11:41:08Z</time>
      </trkpt>
      <trkpt lat="45.97407" lon="4.5634">
        <ele>590.891</ele>
        <time>2022-11-05T11:41:19Z</time>
      </trkpt>
      <trkpt lat="45.97417" lon="4.5634">
        <ele>592.892</ele>
        <time>2022-11-05T11:41:25Z</time>
      </trkpt>
      <trkpt lat="45.97443" lon="4.5634">
        <ele>590.76</ele>
        <time>2022-11-05T11:41:47Z</time>
      </trkpt>
      <trkpt lat="45.97478" lon="4.56331">
        <ele>591.783</ele>
        <time>2022-11-05T11:42:18Z</time>
      </trkpt>
      <trkpt lat="45.97491" lon="4.56325">
        <ele>589.74</ele>
        <time>2022-11-05T11:42:29Z</time>
      </trkpt>
      <trkpt lat="45.97508" lon="4.56317">
        <ele>589.974</ele>
        <time>2022-11-05T11:42:45Z</time>
      </trkpt>
      <trkpt lat="45.97508" lon="4.56317">
        <ele>590.457</ele>
        <time>2022-11-05T11:42:46Z</time>
      </trkpt>
      <trkpt lat="45.97508" lon="4.56317">
        <ele>590.25</ele>
        <time>2022-11-05T11:42:47Z</time>
      </trkpt>
      <trkpt lat="45.97508" lon="4.56317">
        <ele>590.502</ele>
        <time>2022-11-05T11:42:55Z</time>
      </trkpt>
      <trkpt lat="45.97508" lon="4.56317">
        <ele>590.004</ele>
        <time>2022-11-05T11:42:56Z</time>
      </trkpt>
      <trkpt lat="45.97535" lon="4.56303">
        <ele>590.563</ele>
        <time>2022-11-05T11:43:25Z</time>
      </trkpt>
      <trkpt lat="45.97535" lon="4.56304">
        <ele>589.999</ele>
        <time>2022-11-05T11:43:26Z</time>
      </trkpt>
      <trkpt lat="45.97535" lon="4.56304">
        <ele>589.999</ele>
        <time>2022-11-05T11:43:26Z</time>
      </trkpt>
      <trkpt lat="45.97535" lon="4.56304">
        <ele>589.947</ele>
        <time>2022-11-05T11:43:27Z</time>
      </trkpt>
      <trkpt lat="45.97535" lon="4.56304">
        <ele>589.947</ele>
        <time>2022-11-05T11:43:27Z</time>
      </trkpt>
      <trkpt lat="45.97536" lon="4.56305">
        <ele>589.966</ele>
        <time>2022-11-05T11:43:28Z</time>
      </trkpt>
      <trkpt lat="45.97536" lon="4.56305">
        <ele>589.966</ele>
        <time>2022-11-05T11:43:28Z</time>
      </trkpt>
      <trkpt lat="45.97536" lon="4.56305">
        <ele>588.487</ele>
        <time>2022-11-05T11:43:29Z</time>
      </trkpt>
      <trkpt lat="45.97536" lon="4.56305">
        <ele>589.186</ele>
        <time>2022-11-05T11:43:59Z</time>
      </trkpt>
      <trkpt lat="45.97535" lon="4.56308">
        <ele>589.183</ele>
        <time>2022-11-05T11:44:00Z</time>
      </trkpt>
      <trkpt lat="45.97535" lon="4.56309">
        <ele>588.393</ele>
        <time>2022-11-05T11:44:01Z</time>
      </trkpt>
      <trkpt lat="45.97536" lon="4.56311">
        <ele>587.779</ele>
        <time>2022-11-05T11:44:04Z</time>
      </trkpt>
      <trkpt lat="45.97536" lon="4.56311">
        <ele>587.779</ele>
        <time>2022-11-05T11:44:04Z</time>
      </trkpt>
      <trkpt lat="45.97536" lon="4.56312">
        <ele>588.034</ele>
        <time>2022-11-05T11:44:05Z</time>
      </trkpt>
      <trkpt lat="45.97535" lon="4.56312">
        <ele>586.152</ele>
        <time>2022-11-05T11:44:08Z</time>
      </trkpt>
      <trkpt lat="45.97535" lon="4.56312">
        <ele>585.396</ele>
        <time>2022-11-05T11:44:30Z</time>
      </trkpt>
      <trkpt lat="45.97534" lon="4.56312">
        <ele>584.969</ele>
        <time>2022-11-05T11:44:32Z</time>
      </trkpt>
      <trkpt lat="45.97534" lon="4.56312">
        <ele>583.841</ele>
        <time>2022-11-05T11:44:34Z</time>
      </trkpt>
      <trkpt lat="45.97534" lon="4.56312">
        <ele>583.004</ele>
        <time>2022-11-05T11:44:35Z</time>
      </trkpt>
      <trkpt lat="45.97534" lon="4.56311">
        <ele>582.691</ele>
        <time>2022-11-05T11:44:36Z</time>
      </trkpt>
      <trkpt lat="45.97535" lon="4.56309">
        <ele>582.275</ele>
        <time>2022-11-05T11:44:37Z</time>
      </trkpt>
      <trkpt lat="45.97535" lon="4.56308">
        <ele>582.271</ele>
        <time>2022-11-05T11:44:39Z</time>
      </trkpt>
      <trkpt lat="45.97535" lon="4.56308">
        <ele>582.532</ele>
        <time>2022-11-05T11:45:03Z</time>
      </trkpt>
      <trkpt lat="45.97536" lon="4.56306">
        <ele>582.714</ele>
        <time>2022-11-05T11:45:04Z</time>
      </trkpt>
      <trkpt lat="45.97537" lon="4.56305">
        <ele>583.405</ele>
        <time>2022-11-05T11:45:06Z</time>
      </trkpt>
      <trkpt lat="45.97542" lon="4.56301">
        <ele>584.559</ele>
        <time>2022-11-05T11:45:13Z</time>
      </trkpt>
      <trkpt lat="45.97555" lon="4.56301">
        <ele>582.177</ele>
        <time>2022-11-05T11:45:26Z</time>
      </trkpt>
      <trkpt lat="45.97558" lon="4.56299">
        <ele>584.355</ele>
        <time>2022-11-05T11:45:29Z</time>
      </trkpt>
      <trkpt lat="45.97566" lon="4.56296">
        <ele>583.49</ele>
        <time>2022-11-05T11:45:36Z</time>
      </trkpt>
      <trkpt lat="45.97588" lon="4.56279">
        <ele>583.878</ele>
        <time>2022-11-05T11:45:57Z</time>
      </trkpt>
      <trkpt lat="45.97614" lon="4.56274">
        <ele>584.213</ele>
        <time>2022-11-05T11:46:18Z</time>
      </trkpt>
      <trkpt lat="45.97616" lon="4.56274">
        <ele>585.651</ele>
        <time>2022-11-05T11:46:20Z</time>
      </trkpt>
      <trkpt lat="45.97658" lon="4.56267">
        <ele>587.811</ele>
        <time>2022-11-05T11:46:58Z</time>
      </trkpt>
      <trkpt lat="45.97663" lon="4.56269">
        <ele>588.945</ele>
        <time>2022-11-05T11:47:02Z</time>
      </trkpt>
      <trkpt lat="45.97666" lon="4.5627">
        <ele>589.133</ele>
        <time>2022-11-05T11:47:04Z</time>
      </trkpt>
      <trkpt lat="45.97674" lon="4.56279">
        <ele>586.267</ele>
        <time>2022-11-05T11:47:15Z</time>
      </trkpt>
      <trkpt lat="45.97682" lon="4.56283">
        <ele>586.823</ele>
        <time>2022-11-05T11:47:24Z</time>
      </trkpt>
      <trkpt lat="45.97683" lon="4.56284">
        <ele>587.269</ele>
        <time>2022-11-05T11:47:25Z</time>
      </trkpt>
      <trkpt lat="45.97694" lon="4.56293">
        <ele>586.536</ele>
        <time>2022-11-05T11:47:36Z</time>
      </trkpt>
      <trkpt lat="45.97707" lon="4.56301">
        <ele>587.239</ele>
        <time>2022-11-05T11:47:47Z</time>
      </trkpt>
      <trkpt lat="45.97717" lon="4.56307">
        <ele>588.503</ele>
        <time>2022-11-05T11:47:56Z</time>
      </trkpt>
      <trkpt lat="45.97725" lon="4.56311">
        <ele>588.924</ele>
        <time>2022-11-05T11:48:01Z</time>
      </trkpt>
      <trkpt lat="45.97727" lon="4.56313">
        <ele>589.653</ele>
        <time>2022-11-05T11:48:03Z</time>
      </trkpt>
      <trkpt lat="45.97742" lon="4.5632">
        <ele>591.826</ele>
        <time>2022-11-05T11:48:12Z</time>
      </trkpt>
      <trkpt lat="45.97757" lon="4.56327">
        <ele>590.261</ele>
        <time>2022-11-05T11:48:28Z</time>
      </trkpt>
      <trkpt lat="45.97765" lon="4.5633">
        <ele>591.312</ele>
        <time>2022-11-05T11:48:38Z</time>
      </trkpt>
      <trkpt lat="45.97769" lon="4.56331">
        <ele>591.057</ele>
        <time>2022-11-05T11:48:43Z</time>
      </trkpt>
      <trkpt lat="45.97778" lon="4.56331">
        <ele>591.247</ele>
        <time>2022-11-05T11:48:50Z</time>
      </trkpt>
      <trkpt lat="45.97806" lon="4.56325">
        <ele>591.12</ele>
        <time>2022-11-05T11:49:14Z</time>
      </trkpt>
      <trkpt lat="45.97838" lon="4.56308">
        <ele>591.495</ele>
        <time>2022-11-05T11:49:43Z</time>
      </trkpt>
      <trkpt lat="45.97858" lon="4.56284">
        <ele>590.567</ele>
        <time>2022-11-05T11:50:06Z</time>
      </trkpt>
      <trkpt lat="45.97868" lon="4.56265">
        <ele>588.5</ele>
        <time>2022-11-05T11:50:19Z</time>
      </trkpt>
      <trkpt lat="45.97878" lon="4.56252">
        <ele>588.812</ele>
        <time>2022-11-05T11:50:30Z</time>
      </trkpt>
      <trkpt lat="45.9788" lon="4.56249">
        <ele>588.532</ele>
        <time>2022-11-05T11:50:33Z</time>
      </trkpt>
      <trkpt lat="45.97885" lon="4.56245">
        <ele>587.974</ele>
        <time>2022-11-05T11:50:38Z</time>
      </trkpt>
      <trkpt lat="45.9789" lon="4.5624">
        <ele>587.611</ele>
        <time>2022-11-05T11:50:43Z</time>
      </trkpt>
      <trkpt lat="45.97901" lon="4.5623">
        <ele>585.599</ele>
        <time>2022-11-05T11:50:55Z</time>
      </trkpt>
      <trkpt lat="45.97909" lon="4.56222">
        <ele>585.16</ele>
        <time>2022-11-05T11:51:04Z</time>
      </trkpt>
      <trkpt lat="45.97917" lon="4.56217">
        <ele>585.387</ele>
        <time>2022-11-05T11:51:10Z</time>
      </trkpt>
      <trkpt lat="45.97932" lon="4.56202">
        <ele>583.592</ele>
        <time>2022-11-05T11:51:24Z</time>
      </trkpt>
      <trkpt lat="45.97948" lon="4.56204">
        <ele>582.413</ele>
        <time>2022-11-05T11:51:40Z</time>
      </trkpt>
      <trkpt lat="45.97962" lon="4.56208">
        <ele>583.857</ele>
        <time>2022-11-05T11:51:53Z</time>
      </trkpt>
      <trkpt lat="45.97963" lon="4.56208">
        <ele>583.239</ele>
        <time>2022-11-05T11:51:54Z</time>
      </trkpt>
      <trkpt lat="45.97974" lon="4.56208">
        <ele>581.691</ele>
        <time>2022-11-05T11:52:02Z</time>
      </trkpt>
      <trkpt lat="45.97986" lon="4.56202">
        <ele>580.151</ele>
        <time>2022-11-05T11:52:14Z</time>
      </trkpt>
      <trkpt lat="45.97987" lon="4.56197">
        <ele>580.574</ele>
        <time>2022-11-05T11:52:17Z</time>
      </trkpt>
      <trkpt lat="45.9801" lon="4.56162">
        <ele>580.942</ele>
        <time>2022-11-05T11:52:48Z</time>
      </trkpt>
      <trkpt lat="45.98017" lon="4.56155">
        <ele>580.454</ele>
        <time>2022-11-05T11:52:57Z</time>
      </trkpt>
      <trkpt lat="45.98021" lon="4.56149">
        <ele>580.22</ele>
        <time>2022-11-05T11:53:04Z</time>
      </trkpt>
      <trkpt lat="45.98023" lon="4.56148">
        <ele>580.28</ele>
        <time>2022-11-05T11:53:09Z</time>
      </trkpt>
      <trkpt lat="45.98025" lon="4.56146">
        <ele>580.591</ele>
        <time>2022-11-05T11:53:11Z</time>
      </trkpt>
      <trkpt lat="45.98026" lon="4.56141">
        <ele>580.176</ele>
        <time>2022-11-05T11:53:15Z</time>
      </trkpt>
      <trkpt lat="45.98026" lon="4.5614">
        <ele>579.274</ele>
        <time>2022-11-05T11:53:16Z</time>
      </trkpt>
      <trkpt lat="45.98026" lon="4.56139">
        <ele>579.199</ele>
        <time>2022-11-05T11:53:17Z</time>
      </trkpt>
      <trkpt lat="45.98027" lon="4.56137">
        <ele>579.682</ele>
        <time>2022-11-05T11:53:19Z</time>
      </trkpt>
      <trkpt lat="45.98028" lon="4.56135">
        <ele>579.398</ele>
        <time>2022-11-05T11:53:21Z</time>
      </trkpt>
      <trkpt lat="45.98029" lon="4.56134">
        <ele>579.782</ele>
        <time>2022-11-05T11:53:22Z</time>
      </trkpt>
      <trkpt lat="45.98034" lon="4.56125">
        <ele>579.751</ele>
        <time>2022-11-05T11:53:31Z</time>
      </trkpt>
      <trkpt lat="45.98034" lon="4.56125">
        <ele>579.825</ele>
        <time>2022-11-05T11:53:32Z</time>
      </trkpt>
      <trkpt lat="45.98036" lon="4.56122">
        <ele>578.962</ele>
        <time>2022-11-05T11:53:36Z</time>
      </trkpt>
      <trkpt lat="45.98036" lon="4.56121">
        <ele>578.773</ele>
        <time>2022-11-05T11:53:37Z</time>
      </trkpt>
      <trkpt lat="45.98037" lon="4.56117">
        <ele>578.985</ele>
        <time>2022-11-05T11:53:40Z</time>
      </trkpt>
      <trkpt lat="45.98038" lon="4.56106">
        <ele>581.334</ele>
        <time>2022-11-05T11:53:49Z</time>
      </trkpt>
      <trkpt lat="45.98038" lon="4.561">
        <ele>581.479</ele>
        <time>2022-11-05T11:53:54Z</time>
      </trkpt>
      <trkpt lat="45.98038" lon="4.56099">
        <ele>581.671</ele>
        <time>2022-11-05T11:53:55Z</time>
      </trkpt>
      <trkpt lat="45.98037" lon="4.56098">
        <ele>581.529</ele>
        <time>2022-11-05T11:53:56Z</time>
      </trkpt>
      <trkpt lat="45.98037" lon="4.56094">
        <ele>581.79</ele>
        <time>2022-11-05T11:53:59Z</time>
      </trkpt>
      <trkpt lat="45.98035" lon="4.5608">
        <ele>583.726</ele>
        <time>2022-11-05T11:54:10Z</time>
      </trkpt>
      <trkpt lat="45.98036" lon="4.56078">
        <ele>583.842</ele>
        <time>2022-11-05T11:54:14Z</time>
      </trkpt>
      <trkpt lat="45.98036" lon="4.56078">
        <ele>585.35</ele>
        <time>2022-11-05T11:54:19Z</time>
      </trkpt>
      <trkpt lat="45.98037" lon="4.56077">
        <ele>585.668</ele>
        <time>2022-11-05T11:54:20Z</time>
      </trkpt>
      <trkpt lat="45.98037" lon="4.56074">
        <ele>585.784</ele>
        <time>2022-11-05T11:54:24Z</time>
      </trkpt>
      <trkpt lat="45.98037" lon="4.56073">
        <ele>585.8</ele>
        <time>2022-11-05T11:54:25Z</time>
      </trkpt>
      <trkpt lat="45.98037" lon="4.56072">
        <ele>585.841</ele>
        <time>2022-11-05T11:54:26Z</time>
      </trkpt>
      <trkpt lat="45.98039" lon="4.5606">
        <ele>587.052</ele>
        <time>2022-11-05T11:54:38Z</time>
      </trkpt>
      <trkpt lat="45.98041" lon="4.56046">
        <ele>589.36</ele>
        <time>2022-11-05T11:54:50Z</time>
      </trkpt>
      <trkpt lat="45.98045" lon="4.56033">
        <ele>591.486</ele>
        <time>2022-11-05T11:54:59Z</time>
      </trkpt>
      <trkpt lat="45.98049" lon="4.56028">
        <ele>586.892</ele>
        <time>2022-11-05T11:55:07Z</time>
      </trkpt>
      <trkpt lat="45.98053" lon="4.56024">
        <ele>588.926</ele>
        <time>2022-11-05T11:55:16Z</time>
      </trkpt>
      <trkpt lat="45.98063" lon="4.56004">
        <ele>591.751</ele>
        <time>2022-11-05T11:55:34Z</time>
      </trkpt>
      <trkpt lat="45.98068" lon="4.55995">
        <ele>592.97</ele>
        <time>2022-11-05T11:55:41Z</time>
      </trkpt>
      <trkpt lat="45.98076" lon="4.55983">
        <ele>593.595</ele>
        <time>2022-11-05T11:55:53Z</time>
      </trkpt>
      <trkpt lat="45.98086" lon="4.55971">
        <ele>594.732</ele>
        <time>2022-11-05T11:56:04Z</time>
      </trkpt>
      <trkpt lat="45.98097" lon="4.55964">
        <ele>593.91</ele>
        <time>2022-11-05T11:56:15Z</time>
      </trkpt>
      <trkpt lat="45.9811" lon="4.55963">
        <ele>592.876</ele>
        <time>2022-11-05T11:56:29Z</time>
      </trkpt>
      <trkpt lat="45.98113" lon="4.5596">
        <ele>594.237</ele>
        <time>2022-11-05T11:56:33Z</time>
      </trkpt>
      <trkpt lat="45.9815" lon="4.55944">
        <ele>593.665</ele>
        <time>2022-11-05T11:57:08Z</time>
      </trkpt>
      <trkpt lat="45.98159" lon="4.55944">
        <ele>593.268</ele>
        <time>2022-11-05T11:57:17Z</time>
      </trkpt>
      <trkpt lat="45.98182" lon="4.55948">
        <ele>594.672</ele>
        <time>2022-11-05T11:57:38Z</time>
      </trkpt>
      <trkpt lat="45.98183" lon="4.55948">
        <ele>594.408</ele>
        <time>2022-11-05T11:57:39Z</time>
      </trkpt>
      <trkpt lat="45.98189" lon="4.55948">
        <ele>595.265</ele>
        <time>2022-11-05T11:57:45Z</time>
      </trkpt>
      <trkpt lat="45.98189" lon="4.55948">
        <ele>595.316</ele>
        <time>2022-11-05T11:57:46Z</time>
      </trkpt>
      <trkpt lat="45.98189" lon="4.55948">
        <ele>595.316</ele>
        <time>2022-11-05T11:57:46Z</time>
      </trkpt>
      <trkpt lat="45.98189" lon="4.55947">
        <ele>595.282</ele>
        <time>2022-11-05T11:57:47Z</time>
      </trkpt>
      <trkpt lat="45.9819" lon="4.55945">
        <ele>595.049</ele>
        <time>2022-11-05T11:57:49Z</time>
      </trkpt>
      <trkpt lat="45.98191" lon="4.55945">
        <ele>595.333</ele>
        <time>2022-11-05T11:57:50Z</time>
      </trkpt>
      <trkpt lat="45.98194" lon="4.55944">
        <ele>595.369</ele>
        <time>2022-11-05T11:57:54Z</time>
      </trkpt>
      <trkpt lat="45.98194" lon="4.55944">
        <ele>595.347</ele>
        <time>2022-11-05T11:57:55Z</time>
      </trkpt>
      <trkpt lat="45.982" lon="4.55945">
        <ele>595.947</ele>
        <time>2022-11-05T11:57:59Z</time>
      </trkpt>
      <trkpt lat="45.98205" lon="4.55946">
        <ele>595.693</ele>
        <time>2022-11-05T11:58:02Z</time>
      </trkpt>
      <trkpt lat="45.98215" lon="4.5595">
        <ele>596.249</ele>
        <time>2022-11-05T11:58:11Z</time>
      </trkpt>
      <trkpt lat="45.98217" lon="4.5595">
        <ele>595.919</ele>
        <time>2022-11-05T11:58:13Z</time>
      </trkpt>
      <trkpt lat="45.98218" lon="4.55951">
        <ele>595.699</ele>
        <time>2022-11-05T11:58:14Z</time>
      </trkpt>
      <trkpt lat="45.98222" lon="4.55953">
        <ele>596.06</ele>
        <time>2022-11-05T11:58:19Z</time>
      </trkpt>
      <trkpt lat="45.98227" lon="4.55955">
        <ele>595.688</ele>
        <time>2022-11-05T11:58:24Z</time>
      </trkpt>
      <trkpt lat="45.9823" lon="4.55957">
        <ele>596.137</ele>
        <time>2022-11-05T11:58:27Z</time>
      </trkpt>
      <trkpt lat="45.98243" lon="4.55966">
        <ele>593.381</ele>
        <time>2022-11-05T11:58:39Z</time>
      </trkpt>
      <trkpt lat="45.98244" lon="4.55966">
        <ele>592.432</ele>
        <time>2022-11-05T11:58:42Z</time>
      </trkpt>
      <trkpt lat="45.98245" lon="4.55967">
        <ele>592.392</ele>
        <time>2022-11-05T11:58:44Z</time>
      </trkpt>
      <trkpt lat="45.98247" lon="4.55966">
        <ele>591.688</ele>
        <time>2022-11-05T11:58:46Z</time>
      </trkpt>
      <trkpt lat="45.98249" lon="4.55966">
        <ele>591.926</ele>
        <time>2022-11-05T11:58:48Z</time>
      </trkpt>
      <trkpt lat="45.9825" lon="4.55965">
        <ele>592.28</ele>
        <time>2022-11-05T11:58:49Z</time>
      </trkpt>
      <trkpt lat="45.9825" lon="4.55965">
        <ele>592.28</ele>
        <time>2022-11-05T11:58:49Z</time>
      </trkpt>
      <trkpt lat="45.9825" lon="4.55965">
        <ele>592.221</ele>
        <time>2022-11-05T11:58:50Z</time>
      </trkpt>
      <trkpt lat="45.98251" lon="4.55966">
        <ele>592.256</ele>
        <time>2022-11-05T11:58:51Z</time>
      </trkpt>
      <trkpt lat="45.98255" lon="4.55968">
        <ele>592.415</ele>
        <time>2022-11-05T11:58:56Z</time>
      </trkpt>
      <trkpt lat="45.98258" lon="4.55968">
        <ele>593.187</ele>
        <time>2022-11-05T11:58:59Z</time>
      </trkpt>
      <trkpt lat="45.98259" lon="4.55968">
        <ele>592.896</ele>
        <time>2022-11-05T11:59:00Z</time>
      </trkpt>
      <trkpt lat="45.9826" lon="4.55969">
        <ele>592.313</ele>
        <time>2022-11-05T11:59:01Z</time>
      </trkpt>
      <trkpt lat="45.98263" lon="4.5597">
        <ele>592.092</ele>
        <time>2022-11-05T11:59:04Z</time>
      </trkpt>
      <trkpt lat="45.98264" lon="4.55971">
        <ele>592.208</ele>
        <time>2022-11-05T11:59:05Z</time>
      </trkpt>
      <trkpt lat="45.98266" lon="4.55972">
        <ele>592.158</ele>
        <time>2022-11-05T11:59:07Z</time>
      </trkpt>
      <trkpt lat="45.98269" lon="4.55973">
        <ele>592.139</ele>
        <time>2022-11-05T11:59:09Z</time>
      </trkpt>
      <trkpt lat="45.98272" lon="4.55975">
        <ele>592.261</ele>
        <time>2022-11-05T11:59:12Z</time>
      </trkpt>
      <trkpt lat="45.98276" lon="4.55974">
        <ele>591.056</ele>
        <time>2022-11-05T11:59:15Z</time>
      </trkpt>
      <trkpt lat="45.98279" lon="4.55975">
        <ele>591.946</ele>
        <time>2022-11-05T11:59:18Z</time>
      </trkpt>
      <trkpt lat="45.98292" lon="4.5598">
        <ele>593.105</ele>
        <time>2022-11-05T11:59:28Z</time>
      </trkpt>
      <trkpt lat="45.983" lon="4.5598">
        <ele>593.691</ele>
        <time>2022-11-05T11:59:33Z</time>
      </trkpt>
      <trkpt lat="45.98313" lon="4.55986">
        <ele>592.776</ele>
        <time>2022-11-05T11:59:42Z</time>
      </trkpt>
      <trkpt lat="45.98314" lon="4.55987">
        <ele>592.755</ele>
        <time>2022-11-05T11:59:44Z</time>
      </trkpt>
      <trkpt lat="45.98318" lon="4.55988">
        <ele>592.12</ele>
        <time>2022-11-05T11:59:47Z</time>
      </trkpt>
      <trkpt lat="45.98319" lon="4.55988">
        <ele>591.874</ele>
        <time>2022-11-05T11:59:48Z</time>
      </trkpt>
      <trkpt lat="45.9832" lon="4.55989">
        <ele>592.283</ele>
        <time>2022-11-05T11:59:49Z</time>
      </trkpt>
      <trkpt lat="45.98321" lon="4.5599">
        <ele>592.333</ele>
        <time>2022-11-05T11:59:50Z</time>
      </trkpt>
      <trkpt lat="45.98324" lon="4.55992">
        <ele>592.961</ele>
        <time>2022-11-05T11:59:53Z</time>
      </trkpt>
      <trkpt lat="45.98326" lon="4.55993">
        <ele>592.864</ele>
        <time>2022-11-05T11:59:54Z</time>
      </trkpt>
      <trkpt lat="45.9833" lon="4.55995">
        <ele>592.851</ele>
        <time>2022-11-05T11:59:57Z</time>
      </trkpt>
      <trkpt lat="45.98334" lon="4.55996">
        <ele>594.521</ele>
        <time>2022-11-05T12:00:00Z</time>
      </trkpt>
      <trkpt lat="45.9834" lon="4.55998">
        <ele>593.967</ele>
        <time>2022-11-05T12:00:04Z</time>
      </trkpt>
      <trkpt lat="45.98346" lon="4.56001">
        <ele>594.578</ele>
        <time>2022-11-05T12:00:09Z</time>
      </trkpt>
      <trkpt lat="45.98349" lon="4.56">
        <ele>594.353</ele>
        <time>2022-11-05T12:00:11Z</time>
      </trkpt>
      <trkpt lat="45.98361" lon="4.5599">
        <ele>591.563</ele>
        <time>2022-11-05T12:00:23Z</time>
      </trkpt>
      <trkpt lat="45.98365" lon="4.55985">
        <ele>592.41</ele>
        <time>2022-11-05T12:00:27Z</time>
      </trkpt>
      <trkpt lat="45.98391" lon="4.5594">
        <ele>593.063</ele>
        <time>2022-11-05T12:01:02Z</time>
      </trkpt>
      <trkpt lat="45.98393" lon="4.55936">
        <ele>593.37</ele>
        <time>2022-11-05T12:01:04Z</time>
      </trkpt>
      <trkpt lat="45.98395" lon="4.55932">
        <ele>593.079</ele>
        <time>2022-11-05T12:01:07Z</time>
      </trkpt>
      <trkpt lat="45.98406" lon="4.55929">
        <ele>594.246</ele>
        <time>2022-11-05T12:01:21Z</time>
      </trkpt>
      <trkpt lat="45.98411" lon="4.55929">
        <ele>593.996</ele>
        <time>2022-11-05T12:01:31Z</time>
      </trkpt>
      <trkpt lat="45.98411" lon="4.55929">
        <ele>593.959</ele>
        <time>2022-11-05T12:01:32Z</time>
      </trkpt>
      <trkpt lat="45.98411" lon="4.55929">
        <ele>594.586</ele>
        <time>2022-11-05T12:01:38Z</time>
      </trkpt>
      <trkpt lat="45.98412" lon="4.55926">
        <ele>594.966</ele>
        <time>2022-11-05T12:01:39Z</time>
      </trkpt>
      <trkpt lat="45.98413" lon="4.55927">
        <ele>594.665</ele>
        <time>2022-11-05T12:01:43Z</time>
      </trkpt>
      <trkpt lat="45.98422" lon="4.55929">
        <ele>596.77</ele>
        <time>2022-11-05T12:01:52Z</time>
      </trkpt>
      <trkpt lat="45.98422" lon="4.55929">
        <ele>597.809</ele>
        <time>2022-11-05T12:01:53Z</time>
      </trkpt>
      <trkpt lat="45.98424" lon="4.5593">
        <ele>597.495</ele>
        <time>2022-11-05T12:01:54Z</time>
      </trkpt>
      <trkpt lat="45.98429" lon="4.55933">
        <ele>599.657</ele>
        <time>2022-11-05T12:01:58Z</time>
      </trkpt>
      <trkpt lat="45.98442" lon="4.55944">
        <ele>601.996</ele>
        <time>2022-11-05T12:02:13Z</time>
      </trkpt>
      <trkpt lat="45.98449" lon="4.55951">
        <ele>604.853</ele>
        <time>2022-11-05T12:02:20Z</time>
      </trkpt>
      <trkpt lat="45.98452" lon="4.55954">
        <ele>606.121</ele>
        <time>2022-11-05T12:02:22Z</time>
      </trkpt>
      <trkpt lat="45.98461" lon="4.55961">
        <ele>606.112</ele>
        <time>2022-11-05T12:02:30Z</time>
      </trkpt>
      <trkpt lat="45.98463" lon="4.55964">
        <ele>607.106</ele>
        <time>2022-11-05T12:02:33Z</time>
      </trkpt>
      <trkpt lat="45.98469" lon="4.55973">
        <ele>608.995</ele>
        <time>2022-11-05T12:02:41Z</time>
      </trkpt>
      <trkpt lat="45.98487" lon="4.55998">
        <ele>611.117</ele>
        <time>2022-11-05T12:03:04Z</time>
      </trkpt>
      <trkpt lat="45.98492" lon="4.56004">
        <ele>609.291</ele>
        <time>2022-11-05T12:03:10Z</time>
      </trkpt>
      <trkpt lat="45.98503" lon="4.56016">
        <ele>610.453</ele>
        <time>2022-11-05T12:03:24Z</time>
      </trkpt>
      <trkpt lat="45.98507" lon="4.5602">
        <ele>609.065</ele>
        <time>2022-11-05T12:03:30Z</time>
      </trkpt>
      <trkpt lat="45.98508" lon="4.56021">
        <ele>609.187</ele>
        <time>2022-11-05T12:03:31Z</time>
      </trkpt>
      <trkpt lat="45.98512" lon="4.56024">
        <ele>609.984</ele>
        <time>2022-11-05T12:03:35Z</time>
      </trkpt>
      <trkpt lat="45.98513" lon="4.56024">
        <ele>609.825</ele>
        <time>2022-11-05T12:03:36Z</time>
      </trkpt>
      <trkpt lat="45.98522" lon="4.56029">
        <ele>612.179</ele>
        <time>2022-11-05T12:03:42Z</time>
      </trkpt>
      <trkpt lat="45.9853" lon="4.5603">
        <ele>612.912</ele>
        <time>2022-11-05T12:03:48Z</time>
      </trkpt>
      <trkpt lat="45.98536" lon="4.56028">
        <ele>610.71</ele>
        <time>2022-11-05T12:03:53Z</time>
      </trkpt>
      <trkpt lat="45.9854" lon="4.5602">
        <ele>609.059</ele>
        <time>2022-11-05T12:04:00Z</time>
      </trkpt>
      <trkpt lat="45.98549" lon="4.55988">
        <ele>609.876</ele>
        <time>2022-11-05T12:04:24Z</time>
      </trkpt>
      <trkpt lat="45.98551" lon="4.55983">
        <ele>609.496</ele>
        <time>2022-11-05T12:04:27Z</time>
      </trkpt>
      <trkpt lat="45.98557" lon="4.55963">
        <ele>611.663</ele>
        <time>2022-11-05T12:04:45Z</time>
      </trkpt>
      <trkpt lat="45.98558" lon="4.5596">
        <ele>612.467</ele>
        <time>2022-11-05T12:04:47Z</time>
      </trkpt>
      <trkpt lat="45.98558" lon="4.55959">
        <ele>611.892</ele>
        <time>2022-11-05T12:04:48Z</time>
      </trkpt>
      <trkpt lat="45.98571" lon="4.5594">
        <ele>611.713</ele>
        <time>2022-11-05T12:05:09Z</time>
      </trkpt>
      <trkpt lat="45.98579" lon="4.55927">
        <ele>612.815</ele>
        <time>2022-11-05T12:05:22Z</time>
      </trkpt>
      <trkpt lat="45.98581" lon="4.55926">
        <ele>612.779</ele>
        <time>2022-11-05T12:05:26Z</time>
      </trkpt>
      <trkpt lat="45.98588" lon="4.55924">
        <ele>612.659</ele>
        <time>2022-11-05T12:05:36Z</time>
      </trkpt>
      <trkpt lat="45.98592" lon="4.55924">
        <ele>612.055</ele>
        <time>2022-11-05T12:05:41Z</time>
      </trkpt>
      <trkpt lat="45.98597" lon="4.55921">
        <ele>612.629</ele>
        <time>2022-11-05T12:05:48Z</time>
      </trkpt>
      <trkpt lat="45.98616" lon="4.55908">
        <ele>613.629</ele>
        <time>2022-11-05T12:06:11Z</time>
      </trkpt>
      <trkpt lat="45.98621" lon="4.55905">
        <ele>615.014</ele>
        <time>2022-11-05T12:06:17Z</time>
      </trkpt>
      <trkpt lat="45.98622" lon="4.55905">
        <ele>615.019</ele>
        <time>2022-11-05T12:06:18Z</time>
      </trkpt>
      <trkpt lat="45.98625" lon="4.55904">
        <ele>615.078</ele>
        <time>2022-11-05T12:06:22Z</time>
      </trkpt>
      <trkpt lat="45.98625" lon="4.55903">
        <ele>615.05</ele>
        <time>2022-11-05T12:06:23Z</time>
      </trkpt>
      <trkpt lat="45.98625" lon="4.55903">
        <ele>615.05</ele>
        <time>2022-11-05T12:06:23Z</time>
      </trkpt>
      <trkpt lat="45.98625" lon="4.55903">
        <ele>615.03</ele>
        <time>2022-11-05T12:06:24Z</time>
      </trkpt>
      <trkpt lat="45.98628" lon="4.559">
        <ele>614.785</ele>
        <time>2022-11-05T12:06:27Z</time>
      </trkpt>
      <trkpt lat="45.98631" lon="4.55899">
        <ele>614.678</ele>
        <time>2022-11-05T12:06:32Z</time>
      </trkpt>
      <trkpt lat="45.98634" lon="4.55898">
        <ele>615.083</ele>
        <time>2022-11-05T12:06:36Z</time>
      </trkpt>
      <trkpt lat="45.98634" lon="4.55898">
        <ele>614.832</ele>
        <time>2022-11-05T12:06:37Z</time>
      </trkpt>
      <trkpt lat="45.98644" lon="4.559">
        <ele>615.338</ele>
        <time>2022-11-05T12:06:47Z</time>
      </trkpt>
      <trkpt lat="45.98645" lon="4.559">
        <ele>614.667</ele>
        <time>2022-11-05T12:06:48Z</time>
      </trkpt>
      <trkpt lat="45.98668" lon="4.55906">
        <ele>616.688</ele>
        <time>2022-11-05T12:07:08Z</time>
      </trkpt>
      <trkpt lat="45.98675" lon="4.55911">
        <ele>618.115</ele>
        <time>2022-11-05T12:07:15Z</time>
      </trkpt>
      <trkpt lat="45.98677" lon="4.55911">
        <ele>618.82</ele>
        <time>2022-11-05T12:07:17Z</time>
      </trkpt>
      <trkpt lat="45.98678" lon="4.55911">
        <ele>619.014</ele>
        <time>2022-11-05T12:07:18Z</time>
      </trkpt>
      <trkpt lat="45.98683" lon="4.55913">
        <ele>619.581</ele>
        <time>2022-11-05T12:07:23Z</time>
      </trkpt>
      <trkpt lat="45.98697" lon="4.55922">
        <ele>621.787</ele>
        <time>2022-11-05T12:07:35Z</time>
      </trkpt>
      <trkpt lat="45.98699" lon="4.55925">
        <ele>624.008</ele>
        <time>2022-11-05T12:07:38Z</time>
      </trkpt>
      <trkpt lat="45.98702" lon="4.55928">
        <ele>623.714</ele>
        <time>2022-11-05T12:07:44Z</time>
      </trkpt>
      <trkpt lat="45.98707" lon="4.55935">
        <ele>624.617</ele>
        <time>2022-11-05T12:07:53Z</time>
      </trkpt>
      <trkpt lat="45.98716" lon="4.55941">
        <ele>624.872</ele>
        <time>2022-11-05T12:08:03Z</time>
      </trkpt>
      <trkpt lat="45.9872" lon="4.55946">
        <ele>625.894</ele>
        <time>2022-11-05T12:08:07Z</time>
      </trkpt>
      <trkpt lat="45.98721" lon="4.55949">
        <ele>626.5</ele>
        <time>2022-11-05T12:08:09Z</time>
      </trkpt>
      <trkpt lat="45.98722" lon="4.55951">
        <ele>627.122</ele>
        <time>2022-11-05T12:08:11Z</time>
      </trkpt>
      <trkpt lat="45.98727" lon="4.55958">
        <ele>628.724</ele>
        <time>2022-11-05T12:08:15Z</time>
      </trkpt>
      <trkpt lat="45.98727" lon="4.55959">
        <ele>628.505</ele>
        <time>2022-11-05T12:08:16Z</time>
      </trkpt>
      <trkpt lat="45.98728" lon="4.55962">
        <ele>629.073</ele>
        <time>2022-11-05T12:08:18Z</time>
      </trkpt>
      <trkpt lat="45.9873" lon="4.55965">
        <ele>630.13</ele>
        <time>2022-11-05T12:08:21Z</time>
      </trkpt>
      <trkpt lat="45.98732" lon="4.55969">
        <ele>631.014</ele>
        <time>2022-11-05T12:08:24Z</time>
      </trkpt>
      <trkpt lat="45.98735" lon="4.55973">
        <ele>630.746</ele>
        <time>2022-11-05T12:08:26Z</time>
      </trkpt>
      <trkpt lat="45.98738" lon="4.55975">
        <ele>631.374</ele>
        <time>2022-11-05T12:08:28Z</time>
      </trkpt>
      <trkpt lat="45.9874" lon="4.55978">
        <ele>631.547</ele>
        <time>2022-11-05T12:08:31Z</time>
      </trkpt>
      <trkpt lat="45.98742" lon="4.55982">
        <ele>631.185</ele>
        <time>2022-11-05T12:08:35Z</time>
      </trkpt>
      <trkpt lat="45.98747" lon="4.55988">
        <ele>630.957</ele>
        <time>2022-11-05T12:08:43Z</time>
      </trkpt>
      <trkpt lat="45.98748" lon="4.55992">
        <ele>631.008</ele>
        <time>2022-11-05T12:08:46Z</time>
      </trkpt>
      <trkpt lat="45.98749" lon="4.55994">
        <ele>631.674</ele>
        <time>2022-11-05T12:08:48Z</time>
      </trkpt>
      <trkpt lat="45.98751" lon="4.55996">
        <ele>631.664</ele>
        <time>2022-11-05T12:08:50Z</time>
      </trkpt>
      <trkpt lat="45.98752" lon="4.55998">
        <ele>631.337</ele>
        <time>2022-11-05T12:08:51Z</time>
      </trkpt>
      <trkpt lat="45.98753" lon="4.55999">
        <ele>631.032</ele>
        <time>2022-11-05T12:08:52Z</time>
      </trkpt>
      <trkpt lat="45.98756" lon="4.56002">
        <ele>631.943</ele>
        <time>2022-11-05T12:08:55Z</time>
      </trkpt>
      <trkpt lat="45.98762" lon="4.56008">
        <ele>633.312</ele>
        <time>2022-11-05T12:09:01Z</time>
      </trkpt>
      <trkpt lat="45.98763" lon="4.5601">
        <ele>633.546</ele>
        <time>2022-11-05T12:09:02Z</time>
      </trkpt>
      <trkpt lat="45.98765" lon="4.56014">
        <ele>632.501</ele>
        <time>2022-11-05T12:09:06Z</time>
      </trkpt>
      <trkpt lat="45.98766" lon="4.56015">
        <ele>631.937</ele>
        <time>2022-11-05T12:09:07Z</time>
      </trkpt>
      <trkpt lat="45.98775" lon="4.56026">
        <ele>629.734</ele>
        <time>2022-11-05T12:09:19Z</time>
      </trkpt>
      <trkpt lat="45.98781" lon="4.56034">
        <ele>629.681</ele>
        <time>2022-11-05T12:09:27Z</time>
      </trkpt>
      <trkpt lat="45.98784" lon="4.56038">
        <ele>629.296</ele>
        <time>2022-11-05T12:09:31Z</time>
      </trkpt>
      <trkpt lat="45.98789" lon="4.56043">
        <ele>630.675</ele>
        <time>2022-11-05T12:09:36Z</time>
      </trkpt>
      <trkpt lat="45.98793" lon="4.56045">
        <ele>629.688</ele>
        <time>2022-11-05T12:09:39Z</time>
      </trkpt>
      <trkpt lat="45.98794" lon="4.56046">
        <ele>630.034</ele>
        <time>2022-11-05T12:09:40Z</time>
      </trkpt>
      <trkpt lat="45.98796" lon="4.56047">
        <ele>630.146</ele>
        <time>2022-11-05T12:09:42Z</time>
      </trkpt>
      <trkpt lat="45.988" lon="4.56051">
        <ele>629.885</ele>
        <time>2022-11-05T12:09:46Z</time>
      </trkpt>
      <trkpt lat="45.98803" lon="4.56054">
        <ele>630.453</ele>
        <time>2022-11-05T12:09:49Z</time>
      </trkpt>
      <trkpt lat="45.98807" lon="4.56057">
        <ele>630.719</ele>
        <time>2022-11-05T12:09:53Z</time>
      </trkpt>
      <trkpt lat="45.98813" lon="4.56066">
        <ele>632.195</ele>
        <time>2022-11-05T12:10:00Z</time>
      </trkpt>
      <trkpt lat="45.98814" lon="4.56067">
        <ele>632.342</ele>
        <time>2022-11-05T12:10:01Z</time>
      </trkpt>
      <trkpt lat="45.98814" lon="4.56068">
        <ele>632.534</ele>
        <time>2022-11-05T12:10:02Z</time>
      </trkpt>
      <trkpt lat="45.98817" lon="4.5607">
        <ele>632.565</ele>
        <time>2022-11-05T12:10:04Z</time>
      </trkpt>
      <trkpt lat="45.98818" lon="4.56072">
        <ele>632.582</ele>
        <time>2022-11-05T12:10:06Z</time>
      </trkpt>
      <trkpt lat="45.98819" lon="4.56073">
        <ele>632.763</ele>
        <time>2022-11-05T12:10:07Z</time>
      </trkpt>
      <trkpt lat="45.98822" lon="4.5608">
        <ele>633.271</ele>
        <time>2022-11-05T12:10:11Z</time>
      </trkpt>
      <trkpt lat="45.98824" lon="4.56082">
        <ele>632.778</ele>
        <time>2022-11-05T12:10:14Z</time>
      </trkpt>
      <trkpt lat="45.98826" lon="4.56084">
        <ele>633.12</ele>
        <time>2022-11-05T12:10:16Z</time>
      </trkpt>
      <trkpt lat="45.98828" lon="4.56089">
        <ele>632.601</ele>
        <time>2022-11-05T12:10:20Z</time>
      </trkpt>
      <trkpt lat="45.98829" lon="4.5609">
        <ele>632.339</ele>
        <time>2022-11-05T12:10:21Z</time>
      </trkpt>
      <trkpt lat="45.98832" lon="4.56093">
        <ele>632.928</ele>
        <time>2022-11-05T12:10:24Z</time>
      </trkpt>
      <trkpt lat="45.98836" lon="4.56096">
        <ele>633.006</ele>
        <time>2022-11-05T12:10:27Z</time>
      </trkpt>
      <trkpt lat="45.98838" lon="4.56098">
        <ele>633.234</ele>
        <time>2022-11-05T12:10:30Z</time>
      </trkpt>
      <trkpt lat="45.98844" lon="4.56103">
        <ele>632.434</ele>
        <time>2022-11-05T12:10:36Z</time>
      </trkpt>
      <trkpt lat="45.98846" lon="4.56108">
        <ele>632.464</ele>
        <time>2022-11-05T12:10:39Z</time>
      </trkpt>
      <trkpt lat="45.98849" lon="4.56112">
        <ele>633.291</ele>
        <time>2022-11-05T12:10:42Z</time>
      </trkpt>
      <trkpt lat="45.98862" lon="4.5613">
        <ele>635.676</ele>
        <time>2022-11-05T12:10:59Z</time>
      </trkpt>
      <trkpt lat="45.98869" lon="4.56135">
        <ele>637.124</ele>
        <time>2022-11-05T12:11:04Z</time>
      </trkpt>
      <trkpt lat="45.98873" lon="4.56137">
        <ele>637.447</ele>
        <time>2022-11-05T12:11:06Z</time>
      </trkpt>
      <trkpt lat="45.98873" lon="4.56137">
        <ele>637.766</ele>
        <time>2022-11-05T12:11:07Z</time>
      </trkpt>
      <trkpt lat="45.9888" lon="4.56142">
        <ele>637.366</ele>
        <time>2022-11-05T12:11:13Z</time>
      </trkpt>
      <trkpt lat="45.98882" lon="4.56145">
        <ele>637.013</ele>
        <time>2022-11-05T12:11:16Z</time>
      </trkpt>
      <trkpt lat="45.98884" lon="4.56148">
        <ele>636.846</ele>
        <time>2022-11-05T12:11:20Z</time>
      </trkpt>
      <trkpt lat="45.98886" lon="4.56152">
        <ele>636.602</ele>
        <time>2022-11-05T12:11:24Z</time>
      </trkpt>
      <trkpt lat="45.98888" lon="4.56154">
        <ele>637.866</ele>
        <time>2022-11-05T12:11:27Z</time>
      </trkpt>
      <trkpt lat="45.98888" lon="4.56155">
        <ele>637.965</ele>
        <time>2022-11-05T12:11:28Z</time>
      </trkpt>
      <trkpt lat="45.98888" lon="4.56157">
        <ele>638.164</ele>
        <time>2022-11-05T12:11:30Z</time>
      </trkpt>
      <trkpt lat="45.98891" lon="4.5616">
        <ele>638.321</ele>
        <time>2022-11-05T12:11:33Z</time>
      </trkpt>
      <trkpt lat="45.98898" lon="4.56161">
        <ele>639.295</ele>
        <time>2022-11-05T12:11:40Z</time>
      </trkpt>
      <trkpt lat="45.98906" lon="4.5616">
        <ele>640.373</ele>
        <time>2022-11-05T12:11:48Z</time>
      </trkpt>
      <trkpt lat="45.98911" lon="4.56158">
        <ele>639.668</ele>
        <time>2022-11-05T12:11:54Z</time>
      </trkpt>
      <trkpt lat="45.98915" lon="4.56154">
        <ele>640.555</ele>
        <time>2022-11-05T12:11:59Z</time>
      </trkpt>
      <trkpt lat="45.98925" lon="4.56138">
        <ele>642.723</ele>
        <time>2022-11-05T12:12:14Z</time>
      </trkpt>
      <trkpt lat="45.9893" lon="4.56131">
        <ele>643.241</ele>
        <time>2022-11-05T12:12:21Z</time>
      </trkpt>
      <trkpt lat="45.98936" lon="4.56125">
        <ele>645.239</ele>
        <time>2022-11-05T12:12:28Z</time>
      </trkpt>
      <trkpt lat="45.98937" lon="4.56124">
        <ele>645.776</ele>
        <time>2022-11-05T12:12:30Z</time>
      </trkpt>
      <trkpt lat="45.98942" lon="4.56122">
        <ele>646.23</ele>
        <time>2022-11-05T12:12:35Z</time>
      </trkpt>
      <trkpt lat="45.98944" lon="4.56122">
        <ele>646.389</ele>
        <time>2022-11-05T12:12:38Z</time>
      </trkpt>
      <trkpt lat="45.98945" lon="4.56122">
        <ele>646.724</ele>
        <time>2022-11-05T12:12:39Z</time>
      </trkpt>
      <trkpt lat="45.98946" lon="4.56121">
        <ele>646.96</ele>
        <time>2022-11-05T12:12:40Z</time>
      </trkpt>
      <trkpt lat="45.98947" lon="4.56121">
        <ele>647.189</ele>
        <time>2022-11-05T12:12:41Z</time>
      </trkpt>
      <trkpt lat="45.98948" lon="4.56122">
        <ele>647.361</ele>
        <time>2022-11-05T12:12:42Z</time>
      </trkpt>
      <trkpt lat="45.98948" lon="4.56122">
        <ele>647.445</ele>
        <time>2022-11-05T12:12:43Z</time>
      </trkpt>
      <trkpt lat="45.98948" lon="4.56122">
        <ele>647.445</ele>
        <time>2022-11-05T12:12:43Z</time>
      </trkpt>
      <trkpt lat="45.98949" lon="4.56122">
        <ele>647.985</ele>
        <time>2022-11-05T12:12:44Z</time>
      </trkpt>
      <trkpt lat="45.98949" lon="4.56122">
        <ele>648.665</ele>
        <time>2022-11-05T12:12:45Z</time>
      </trkpt>
      <trkpt lat="45.98953" lon="4.56123">
        <ele>648.844</ele>
        <time>2022-11-05T12:12:50Z</time>
      </trkpt>
      <trkpt lat="45.98957" lon="4.56123">
        <ele>650.613</ele>
        <time>2022-11-05T12:12:55Z</time>
      </trkpt>
      <trkpt lat="45.98958" lon="4.56123">
        <ele>650.645</ele>
        <time>2022-11-05T12:12:56Z</time>
      </trkpt>
      <trkpt lat="45.98966" lon="4.56121">
        <ele>651.485</ele>
        <time>2022-11-05T12:13:04Z</time>
      </trkpt>
      <trkpt lat="45.98969" lon="4.56119">
        <ele>652.188</ele>
        <time>2022-11-05T12:13:08Z</time>
      </trkpt>
      <trkpt lat="45.98977" lon="4.56118">
        <ele>654.244</ele>
        <time>2022-11-05T12:13:17Z</time>
      </trkpt>
      <trkpt lat="45.98977" lon="4.56118">
        <ele>654.776</ele>
        <time>2022-11-05T12:13:18Z</time>
      </trkpt>
      <trkpt lat="45.98979" lon="4.56117">
        <ele>655.088</ele>
        <time>2022-11-05T12:13:21Z</time>
      </trkpt>
      <trkpt lat="45.98981" lon="4.56116">
        <ele>655.127</ele>
        <time>2022-11-05T12:13:24Z</time>
      </trkpt>
      <trkpt lat="45.98982" lon="4.56115">
        <ele>654.873</ele>
        <time>2022-11-05T12:13:26Z</time>
      </trkpt>
      <trkpt lat="45.98987" lon="4.56112">
        <ele>654.803</ele>
        <time>2022-11-05T12:13:30Z</time>
      </trkpt>
      <trkpt lat="45.98991" lon="4.56115">
        <ele>655.362</ele>
        <time>2022-11-05T12:13:35Z</time>
      </trkpt>
      <trkpt lat="45.98993" lon="4.56114">
        <ele>654.444</ele>
        <time>2022-11-05T12:13:38Z</time>
      </trkpt>
      <trkpt lat="45.98994" lon="4.56114">
        <ele>654.728</ele>
        <time>2022-11-05T12:13:39Z</time>
      </trkpt>
      <trkpt lat="45.98997" lon="4.56115">
        <ele>654.715</ele>
        <time>2022-11-05T12:13:45Z</time>
      </trkpt>
      <trkpt lat="45.98999" lon="4.56114">
        <ele>654.619</ele>
        <time>2022-11-05T12:13:48Z</time>
      </trkpt>
      <trkpt lat="45.98999" lon="4.56112">
        <ele>654.706</ele>
        <time>2022-11-05T12:13:50Z</time>
      </trkpt>
      <trkpt lat="45.99" lon="4.56111">
        <ele>654.628</ele>
        <time>2022-11-05T12:13:51Z</time>
      </trkpt>
      <trkpt lat="45.98999" lon="4.5611">
        <ele>654.429</ele>
        <time>2022-11-05T12:13:52Z</time>
      </trkpt>
      <trkpt lat="45.98999" lon="4.56109">
        <ele>654.595</ele>
        <time>2022-11-05T12:13:53Z</time>
      </trkpt>
      <trkpt lat="45.98999" lon="4.56109">
        <ele>654.749</ele>
        <time>2022-11-05T12:13:54Z</time>
      </trkpt>
      <trkpt lat="45.99003" lon="4.5611">
        <ele>655.511</ele>
        <time>2022-11-05T12:13:57Z</time>
      </trkpt>
      <trkpt lat="45.99006" lon="4.5611">
        <ele>655.907</ele>
        <time>2022-11-05T12:14:00Z</time>
      </trkpt>
      <trkpt lat="45.99009" lon="4.5611">
        <ele>656.824</ele>
        <time>2022-11-05T12:14:03Z</time>
      </trkpt>
      <trkpt lat="45.99015" lon="4.56112">
        <ele>657.661</ele>
        <time>2022-11-05T12:14:09Z</time>
      </trkpt>
      <trkpt lat="45.99016" lon="4.56112">
        <ele>657.354</ele>
        <time>2022-11-05T12:14:11Z</time>
      </trkpt>
      <trkpt lat="45.99016" lon="4.56112">
        <ele>657.322</ele>
        <time>2022-11-05T12:14:12Z</time>
      </trkpt>
      <trkpt lat="45.99016" lon="4.56112">
        <ele>657.026</ele>
        <time>2022-11-05T12:14:13Z</time>
      </trkpt>
      <trkpt lat="45.99015" lon="4.56112">
        <ele>657.017</ele>
        <time>2022-11-05T12:14:14Z</time>
      </trkpt>
      <trkpt lat="45.99015" lon="4.56112">
        <ele>657.017</ele>
        <time>2022-11-05T12:14:14Z</time>
      </trkpt>
      <trkpt lat="45.99015" lon="4.56112">
        <ele>657.282</ele>
        <time>2022-11-05T12:14:15Z</time>
      </trkpt>
      <trkpt lat="45.99015" lon="4.56112">
        <ele>657.649</ele>
        <time>2022-11-05T12:14:21Z</time>
      </trkpt>
      <trkpt lat="45.99014" lon="4.56112">
        <ele>657.572</ele>
        <time>2022-11-05T12:14:22Z</time>
      </trkpt>
      <trkpt lat="45.99013" lon="4.56112">
        <ele>657.439</ele>
        <time>2022-11-05T12:14:24Z</time>
      </trkpt>
      <trkpt lat="45.99012" lon="4.56111">
        <ele>656.98</ele>
        <time>2022-11-05T12:14:28Z</time>
      </trkpt>
      <trkpt lat="45.99012" lon="4.56111">
        <ele>657.008</ele>
        <time>2022-11-05T12:14:35Z</time>
      </trkpt>
      <trkpt lat="45.99012" lon="4.56111">
        <ele>657.118</ele>
        <time>2022-11-05T12:14:36Z</time>
      </trkpt>
      <trkpt lat="45.99011" lon="4.5611">
        <ele>657.047</ele>
        <time>2022-11-05T12:14:37Z</time>
      </trkpt>
      <trkpt lat="45.99011" lon="4.56109">
        <ele>656.662</ele>
        <time>2022-11-05T12:14:38Z</time>
      </trkpt>
      <trkpt lat="45.99011" lon="4.56109">
        <ele>657.248</ele>
        <time>2022-11-05T12:14:39Z</time>
      </trkpt>
      <trkpt lat="45.99011" lon="4.56109">
        <ele>657.599</ele>
        <time>2022-11-05T12:14:40Z</time>
      </trkpt>
      <trkpt lat="45.99011" lon="4.56109">
        <ele>657.507</ele>
        <time>2022-11-05T12:14:41Z</time>
      </trkpt>
      <trkpt lat="45.9901" lon="4.56109">
        <ele>657.721</ele>
        <time>2022-11-05T12:14:42Z</time>
      </trkpt>
      <trkpt lat="45.99013" lon="4.56111">
        <ele>659.67</ele>
        <time>2022-11-05T12:14:50Z</time>
      </trkpt>
      <trkpt lat="45.99014" lon="4.56111">
        <ele>659.894</ele>
        <time>2022-11-05T12:14:51Z</time>
      </trkpt>
      <trkpt lat="45.99015" lon="4.56111">
        <ele>660.536</ele>
        <time>2022-11-05T12:14:53Z</time>
      </trkpt>
      <trkpt lat="45.99015" lon="4.56111">
        <ele>660.536</ele>
        <time>2022-11-05T12:14:53Z</time>
      </trkpt>
      <trkpt lat="45.99015" lon="4.5611">
        <ele>661.795</ele>
        <time>2022-11-05T12:14:54Z</time>
      </trkpt>
      <trkpt lat="45.99015" lon="4.5611">
        <ele>662.122</ele>
        <time>2022-11-05T12:14:55Z</time>
      </trkpt>
      <trkpt lat="45.99015" lon="4.5611">
        <ele>662.122</ele>
        <time>2022-11-05T12:14:55Z</time>
      </trkpt>
      <trkpt lat="45.99016" lon="4.5611">
        <ele>661.744</ele>
        <time>2022-11-05T12:14:56Z</time>
      </trkpt>
      <trkpt lat="45.99019" lon="4.56108">
        <ele>660.663</ele>
        <time>2022-11-05T12:14:59Z</time>
      </trkpt>
      <trkpt lat="45.9902" lon="4.56107">
        <ele>661.674</ele>
        <time>2022-11-05T12:15:01Z</time>
      </trkpt>
      <trkpt lat="45.99022" lon="4.56107">
        <ele>661.274</ele>
        <time>2022-11-05T12:15:04Z</time>
      </trkpt>
      <trkpt lat="45.99023" lon="4.56107">
        <ele>661.862</ele>
        <time>2022-11-05T12:15:06Z</time>
      </trkpt>
      <trkpt lat="45.99024" lon="4.56107">
        <ele>662.26</ele>
        <time>2022-11-05T12:15:07Z</time>
      </trkpt>
      <trkpt lat="45.99027" lon="4.56105">
        <ele>665.349</ele>
        <time>2022-11-05T12:15:11Z</time>
      </trkpt>
      <trkpt lat="45.99027" lon="4.56104">
        <ele>665.605</ele>
        <time>2022-11-05T12:15:12Z</time>
      </trkpt>
      <trkpt lat="45.99028" lon="4.56104">
        <ele>666.041</ele>
        <time>2022-11-05T12:15:13Z</time>
      </trkpt>
      <trkpt lat="45.99029" lon="4.56104">
        <ele>666.13</ele>
        <time>2022-11-05T12:15:14Z</time>
      </trkpt>
      <trkpt lat="45.9903" lon="4.56103">
        <ele>666.79</ele>
        <time>2022-11-05T12:15:15Z</time>
      </trkpt>
      <trkpt lat="45.9903" lon="4.56103">
        <ele>666.833</ele>
        <time>2022-11-05T12:15:16Z</time>
      </trkpt>
      <trkpt lat="45.99031" lon="4.56103">
        <ele>667.472</ele>
        <time>2022-11-05T12:15:17Z</time>
      </trkpt>
      <trkpt lat="45.99033" lon="4.56105">
        <ele>668.116</ele>
        <time>2022-11-05T12:15:20Z</time>
      </trkpt>
      <trkpt lat="45.99033" lon="4.56105">
        <ele>667.63</ele>
        <time>2022-11-05T12:15:22Z</time>
      </trkpt>
      <trkpt lat="45.99033" lon="4.56105">
        <ele>667.63</ele>
        <time>2022-11-05T12:15:22Z</time>
      </trkpt>
      <trkpt lat="45.99033" lon="4.56106">
        <ele>667.842</ele>
        <time>2022-11-05T12:15:23Z</time>
      </trkpt>
      <trkpt lat="45.99034" lon="4.56108">
        <ele>669.044</ele>
        <time>2022-11-05T12:15:26Z</time>
      </trkpt>
      <trkpt lat="45.99034" lon="4.56108">
        <ele>669.432</ele>
        <time>2022-11-05T12:15:27Z</time>
      </trkpt>
      <trkpt lat="45.99034" lon="4.56108">
        <ele>669.432</ele>
        <time>2022-11-05T12:15:27Z</time>
      </trkpt>
      <trkpt lat="45.99034" lon="4.56108">
        <ele>669.587</ele>
        <time>2022-11-05T12:15:28Z</time>
      </trkpt>
      <trkpt lat="45.99034" lon="4.56108">
        <ele>669.688</ele>
        <time>2022-11-05T12:15:29Z</time>
      </trkpt>
      <trkpt lat="45.99034" lon="4.56108">
        <ele>669.55</ele>
        <time>2022-11-05T12:15:37Z</time>
      </trkpt>
      <trkpt lat="45.99034" lon="4.5611">
        <ele>669.402</ele>
        <time>2022-11-05T12:15:38Z</time>
      </trkpt>
      <trkpt lat="45.99047" lon="4.56111">
        <ele>667.654</ele>
        <time>2022-11-05T12:15:48Z</time>
      </trkpt>
      <trkpt lat="45.99051" lon="4.56111">
        <ele>667.753</ele>
        <time>2022-11-05T12:15:51Z</time>
      </trkpt>
      <trkpt lat="45.99053" lon="4.56109">
        <ele>668.447</ele>
        <time>2022-11-05T12:15:54Z</time>
      </trkpt>
      <trkpt lat="45.99056" lon="4.56104">
        <ele>669.238</ele>
        <time>2022-11-05T12:16:00Z</time>
      </trkpt>
      <trkpt lat="45.99056" lon="4.56104">
        <ele>669.238</ele>
        <time>2022-11-05T12:16:00Z</time>
      </trkpt>
      <trkpt lat="45.99056" lon="4.56104">
        <ele>670.418</ele>
        <time>2022-11-05T12:16:01Z</time>
      </trkpt>
      <trkpt lat="45.99056" lon="4.56104">
        <ele>670.777</ele>
        <time>2022-11-05T12:16:03Z</time>
      </trkpt>
      <trkpt lat="45.99057" lon="4.56101">
        <ele>671.299</ele>
        <time>2022-11-05T12:16:04Z</time>
      </trkpt>
      <trkpt lat="45.99058" lon="4.56099">
        <ele>671.909</ele>
        <time>2022-11-05T12:16:05Z</time>
      </trkpt>
      <trkpt lat="45.99061" lon="4.56096">
        <ele>671.785</ele>
        <time>2022-11-05T12:16:09Z</time>
      </trkpt>
      <trkpt lat="45.99063" lon="4.56094">
        <ele>672.94</ele>
        <time>2022-11-05T12:16:12Z</time>
      </trkpt>
      <trkpt lat="45.99072" lon="4.56079">
        <ele>673.908</ele>
        <time>2022-11-05T12:16:25Z</time>
      </trkpt>
      <trkpt lat="45.99072" lon="4.56079">
        <ele>674.073</ele>
        <time>2022-11-05T12:16:26Z</time>
      </trkpt>
      <trkpt lat="45.99078" lon="4.56075">
        <ele>673.656</ele>
        <time>2022-11-05T12:16:34Z</time>
      </trkpt>
      <trkpt lat="45.99099" lon="4.56037">
        <ele>675.963</ele>
        <time>2022-11-05T12:17:03Z</time>
      </trkpt>
      <trkpt lat="45.99103" lon="4.56022">
        <ele>675.601</ele>
        <time>2022-11-05T12:17:12Z</time>
      </trkpt>
      <trkpt lat="45.99102" lon="4.55994">
        <ele>676.41</ele>
        <time>2022-11-05T12:17:30Z</time>
      </trkpt>
      <trkpt lat="45.99102" lon="4.55966">
        <ele>675.85</ele>
        <time>2022-11-05T12:17:50Z</time>
      </trkpt>
      <trkpt lat="45.99101" lon="4.55958">
        <ele>676.943</ele>
        <time>2022-11-05T12:17:58Z</time>
      </trkpt>
      <trkpt lat="45.99101" lon="4.55958">
        <ele>676.724</ele>
        <time>2022-11-05T12:17:59Z</time>
      </trkpt>
      <trkpt lat="45.99102" lon="4.55959">
        <ele>676.088</ele>
        <time>2022-11-05T12:18:00Z</time>
      </trkpt>
      <trkpt lat="45.99102" lon="4.5596">
        <ele>675.973</ele>
        <time>2022-11-05T12:18:01Z</time>
      </trkpt>
      <trkpt lat="45.99102" lon="4.5596">
        <ele>675.973</ele>
        <time>2022-11-05T12:18:01Z</time>
      </trkpt>
      <trkpt lat="45.99103" lon="4.55961">
        <ele>676.308</ele>
        <time>2022-11-05T12:18:02Z</time>
      </trkpt>
      <trkpt lat="45.99103" lon="4.55961">
        <ele>677.232</ele>
        <time>2022-11-05T12:18:05Z</time>
      </trkpt>
      <trkpt lat="45.99103" lon="4.55961">
        <ele>677.232</ele>
        <time>2022-11-05T12:18:05Z</time>
      </trkpt>
      <trkpt lat="45.99103" lon="4.55961">
        <ele>677.081</ele>
        <time>2022-11-05T12:18:06Z</time>
      </trkpt>
      <trkpt lat="45.99103" lon="4.55961">
        <ele>676.964</ele>
        <time>2022-11-05T12:18:07Z</time>
      </trkpt>
      <trkpt lat="45.99103" lon="4.55961">
        <ele>677.358</ele>
        <time>2022-11-05T12:18:08Z</time>
      </trkpt>
      <trkpt lat="45.99103" lon="4.55961">
        <ele>677.358</ele>
        <time>2022-11-05T12:18:08Z</time>
      </trkpt>
      <trkpt lat="45.99103" lon="4.55962">
        <ele>677.254</ele>
        <time>2022-11-05T12:18:09Z</time>
      </trkpt>
      <trkpt lat="45.99102" lon="4.55963">
        <ele>679.051</ele>
        <time>2022-11-05T12:18:14Z</time>
      </trkpt>
      <trkpt lat="45.991" lon="4.55964">
        <ele>680.049</ele>
        <time>2022-11-05T12:18:17Z</time>
      </trkpt>
      <trkpt lat="45.99097" lon="4.55964">
        <ele>680.241</ele>
        <time>2022-11-05T12:18:21Z</time>
      </trkpt>
      <trkpt lat="45.99098" lon="4.55966">
        <ele>680.323</ele>
        <time>2022-11-05T12:18:23Z</time>
      </trkpt>
      <trkpt lat="45.99099" lon="4.55974">
        <ele>680.11</ele>
        <time>2022-11-05T12:18:28Z</time>
      </trkpt>
      <trkpt lat="45.991" lon="4.55979">
        <ele>678.475</ele>
        <time>2022-11-05T12:18:32Z</time>
      </trkpt>
      <trkpt lat="45.99101" lon="4.55985">
        <ele>680.194</ele>
        <time>2022-11-05T12:18:35Z</time>
      </trkpt>
      <trkpt lat="45.99102" lon="4.55988">
        <ele>678.452</ele>
        <time>2022-11-05T12:18:37Z</time>
      </trkpt>
      <trkpt lat="45.99104" lon="4.55991">
        <ele>676.28</ele>
        <time>2022-11-05T12:18:41Z</time>
      </trkpt>
      <trkpt lat="45.99105" lon="4.55994">
        <ele>674.56</ele>
        <time>2022-11-05T12:18:44Z</time>
      </trkpt>
      <trkpt lat="45.99105" lon="4.55999">
        <ele>672.12</ele>
        <time>2022-11-05T12:18:48Z</time>
      </trkpt>
      <trkpt lat="45.99105" lon="4.56">
        <ele>673.07</ele>
        <time>2022-11-05T12:18:49Z</time>
      </trkpt>
      <trkpt lat="45.99106" lon="4.56004">
        <ele>673.115</ele>
        <time>2022-11-05T12:18:52Z</time>
      </trkpt>
      <trkpt lat="45.99108" lon="4.56024">
        <ele>675.593</ele>
        <time>2022-11-05T12:19:04Z</time>
      </trkpt>
      <trkpt lat="45.99107" lon="4.56028">
        <ele>674.614</ele>
        <time>2022-11-05T12:19:07Z</time>
      </trkpt>
      <trkpt lat="45.99106" lon="4.56033">
        <ele>674.518</ele>
        <time>2022-11-05T12:19:10Z</time>
      </trkpt>
      <trkpt lat="45.99105" lon="4.56041">
        <ele>674.718</ele>
        <time>2022-11-05T12:19:14Z</time>
      </trkpt>
      <trkpt lat="45.99101" lon="4.56051">
        <ele>675.942</ele>
        <time>2022-11-05T12:19:22Z</time>
      </trkpt>
      <trkpt lat="45.99098" lon="4.56054">
        <ele>675.517</ele>
        <time>2022-11-05T12:19:26Z</time>
      </trkpt>
      <trkpt lat="45.99095" lon="4.56056">
        <ele>675.555</ele>
        <time>2022-11-05T12:19:29Z</time>
      </trkpt>
      <trkpt lat="45.99091" lon="4.56056">
        <ele>674.381</ele>
        <time>2022-11-05T12:19:33Z</time>
      </trkpt>
      <trkpt lat="45.99087" lon="4.56056">
        <ele>673.553</ele>
        <time>2022-11-05T12:19:37Z</time>
      </trkpt>
      <trkpt lat="45.99082" lon="4.56061">
        <ele>674.684</ele>
        <time>2022-11-05T12:19:42Z</time>
      </trkpt>
      <trkpt lat="45.99079" lon="4.56065">
        <ele>675.302</ele>
        <time>2022-11-05T12:19:45Z</time>
      </trkpt>
      <trkpt lat="45.99075" lon="4.56071">
        <ele>676.357</ele>
        <time>2022-11-05T12:19:48Z</time>
      </trkpt>
      <trkpt lat="45.99061" lon="4.56087">
        <ele>674.377</ele>
        <time>2022-11-05T12:20:05Z</time>
      </trkpt>
      <trkpt lat="45.99059" lon="4.5609">
        <ele>673.615</ele>
        <time>2022-11-05T12:20:09Z</time>
      </trkpt>
      <trkpt lat="45.99056" lon="4.56103">
        <ele>673.782</ele>
        <time>2022-11-05T12:20:16Z</time>
      </trkpt>
      <trkpt lat="45.99055" lon="4.56104">
        <ele>672.319</ele>
        <time>2022-11-05T12:20:18Z</time>
      </trkpt>
      <trkpt lat="45.99053" lon="4.56105">
        <ele>671.19</ele>
        <time>2022-11-05T12:20:24Z</time>
      </trkpt>
      <trkpt lat="45.99052" lon="4.56108">
        <ele>673.185</ele>
        <time>2022-11-05T12:20:28Z</time>
      </trkpt>
      <trkpt lat="45.99051" lon="4.5611">
        <ele>672.959</ele>
        <time>2022-11-05T12:20:30Z</time>
      </trkpt>
      <trkpt lat="45.99051" lon="4.56114">
        <ele>672.937</ele>
        <time>2022-11-05T12:20:34Z</time>
      </trkpt>
      <trkpt lat="45.9905" lon="4.56119">
        <ele>673.009</ele>
        <time>2022-11-05T12:20:38Z</time>
      </trkpt>
      <trkpt lat="45.9905" lon="4.56121">
        <ele>673.706</ele>
        <time>2022-11-05T12:20:39Z</time>
      </trkpt>
      <trkpt lat="45.99049" lon="4.56123">
        <ele>674.02</ele>
        <time>2022-11-05T12:20:40Z</time>
      </trkpt>
      <trkpt lat="45.99049" lon="4.56124">
        <ele>674.319</ele>
        <time>2022-11-05T12:20:41Z</time>
      </trkpt>
      <trkpt lat="45.99049" lon="4.56124">
        <ele>675.08</ele>
        <time>2022-11-05T12:20:42Z</time>
      </trkpt>
      <trkpt lat="45.99049" lon="4.56124">
        <ele>675.08</ele>
        <time>2022-11-05T12:20:42Z</time>
      </trkpt>
      <trkpt lat="45.99048" lon="4.56125">
        <ele>674.428</ele>
        <time>2022-11-05T12:20:43Z</time>
      </trkpt>
      <trkpt lat="45.99048" lon="4.56126">
        <ele>674.234</ele>
        <time>2022-11-05T12:20:44Z</time>
      </trkpt>
      <trkpt lat="45.99044" lon="4.56133">
        <ele>675.122</ele>
        <time>2022-11-05T12:20:49Z</time>
      </trkpt>
      <trkpt lat="45.99041" lon="4.56137">
        <ele>674.569</ele>
        <time>2022-11-05T12:20:54Z</time>
      </trkpt>
      <trkpt lat="45.9904" lon="4.56141">
        <ele>674.799</ele>
        <time>2022-11-05T12:20:58Z</time>
      </trkpt>
      <trkpt lat="45.99039" lon="4.56143">
        <ele>674.862</ele>
        <time>2022-11-05T12:20:59Z</time>
      </trkpt>
      <trkpt lat="45.99033" lon="4.56156">
        <ele>674.645</ele>
        <time>2022-11-05T12:21:07Z</time>
      </trkpt>
      <trkpt lat="45.9903" lon="4.5616">
        <ele>675.744</ele>
        <time>2022-11-05T12:21:10Z</time>
      </trkpt>
      <trkpt lat="45.99029" lon="4.56161">
        <ele>675.838</ele>
        <time>2022-11-05T12:21:11Z</time>
      </trkpt>
      <trkpt lat="45.99012" lon="4.56201">
        <ele>678.002</ele>
        <time>2022-11-05T12:21:36Z</time>
      </trkpt>
      <trkpt lat="45.99007" lon="4.5621">
        <ele>678.209</ele>
        <time>2022-11-05T12:21:44Z</time>
      </trkpt>
      <trkpt lat="45.99006" lon="4.56211">
        <ele>678.048</ele>
        <time>2022-11-05T12:21:45Z</time>
      </trkpt>
      <trkpt lat="45.99005" lon="4.56216">
        <ele>678.254</ele>
        <time>2022-11-05T12:21:48Z</time>
      </trkpt>
      <trkpt lat="45.99005" lon="4.56218">
        <ele>678.406</ele>
        <time>2022-11-05T12:21:49Z</time>
      </trkpt>
      <trkpt lat="45.99004" lon="4.56221">
        <ele>679.815</ele>
        <time>2022-11-05T12:21:52Z</time>
      </trkpt>
      <trkpt lat="45.99004" lon="4.56221">
        <ele>679.828</ele>
        <time>2022-11-05T12:21:53Z</time>
      </trkpt>
      <trkpt lat="45.99004" lon="4.56222">
        <ele>680.114</ele>
        <time>2022-11-05T12:21:54Z</time>
      </trkpt>
      <trkpt lat="45.99003" lon="4.56225">
        <ele>680.271</ele>
        <time>2022-11-05T12:21:57Z</time>
      </trkpt>
      <trkpt lat="45.99003" lon="4.56226">
        <ele>680.437</ele>
        <time>2022-11-05T12:21:58Z</time>
      </trkpt>
      <trkpt lat="45.99" lon="4.56228">
        <ele>682.311</ele>
        <time>2022-11-05T12:22:01Z</time>
      </trkpt>
      <trkpt lat="45.98997" lon="4.56232">
        <ele>682.746</ele>
        <time>2022-11-05T12:22:05Z</time>
      </trkpt>
      <trkpt lat="45.98995" lon="4.56235">
        <ele>683.062</ele>
        <time>2022-11-05T12:22:09Z</time>
      </trkpt>
      <trkpt lat="45.98994" lon="4.56236">
        <ele>683.129</ele>
        <time>2022-11-05T12:22:10Z</time>
      </trkpt>
      <trkpt lat="45.9899" lon="4.56241">
        <ele>683.678</ele>
        <time>2022-11-05T12:22:13Z</time>
      </trkpt>
      <trkpt lat="45.98986" lon="4.56251">
        <ele>684.75</ele>
        <time>2022-11-05T12:22:25Z</time>
      </trkpt>
      <trkpt lat="45.98985" lon="4.56253">
        <ele>684.812</ele>
        <time>2022-11-05T12:22:27Z</time>
      </trkpt>
      <trkpt lat="45.98984" lon="4.56257">
        <ele>685.199</ele>
        <time>2022-11-05T12:22:29Z</time>
      </trkpt>
      <trkpt lat="45.98983" lon="4.5626">
        <ele>685.836</ele>
        <time>2022-11-05T12:22:32Z</time>
      </trkpt>
      <trkpt lat="45.98983" lon="4.56261">
        <ele>685.662</ele>
        <time>2022-11-05T12:22:33Z</time>
      </trkpt>
      <trkpt lat="45.98983" lon="4.56261">
        <ele>686.145</ele>
        <time>2022-11-05T12:22:34Z</time>
      </trkpt>
      <trkpt lat="45.98983" lon="4.56261">
        <ele>686.145</ele>
        <time>2022-11-05T12:22:34Z</time>
      </trkpt>
      <trkpt lat="45.98983" lon="4.56262">
        <ele>686.559</ele>
        <time>2022-11-05T12:22:35Z</time>
      </trkpt>
      <trkpt lat="45.98982" lon="4.56263">
        <ele>686.967</ele>
        <time>2022-11-05T12:22:37Z</time>
      </trkpt>
      <trkpt lat="45.98982" lon="4.56263">
        <ele>686.992</ele>
        <time>2022-11-05T12:22:38Z</time>
      </trkpt>
      <trkpt lat="45.98981" lon="4.56265">
        <ele>687.281</ele>
        <time>2022-11-05T12:22:39Z</time>
      </trkpt>
      <trkpt lat="45.98981" lon="4.56266">
        <ele>687.487</ele>
        <time>2022-11-05T12:22:40Z</time>
      </trkpt>
      <trkpt lat="45.98978" lon="4.56271">
        <ele>686.649</ele>
        <time>2022-11-05T12:22:44Z</time>
      </trkpt>
      <trkpt lat="45.98976" lon="4.56275">
        <ele>686.706</ele>
        <time>2022-11-05T12:22:48Z</time>
      </trkpt>
      <trkpt lat="45.98975" lon="4.56275">
        <ele>687.123</ele>
        <time>2022-11-05T12:22:49Z</time>
      </trkpt>
      <trkpt lat="45.98973" lon="4.56278">
        <ele>687.992</ele>
        <time>2022-11-05T12:22:53Z</time>
      </trkpt>
      <trkpt lat="45.98971" lon="4.56281">
        <ele>688.849</ele>
        <time>2022-11-05T12:22:56Z</time>
      </trkpt>
      <trkpt lat="45.98968" lon="4.56285">
        <ele>689.04</ele>
        <time>2022-11-05T12:22:58Z</time>
      </trkpt>
      <trkpt lat="45.98966" lon="4.56288">
        <ele>689.522</ele>
        <time>2022-11-05T12:23:00Z</time>
      </trkpt>
      <trkpt lat="45.98954" lon="4.56309">
        <ele>691.709</ele>
        <time>2022-11-05T12:23:14Z</time>
      </trkpt>
      <trkpt lat="45.9894" lon="4.56329">
        <ele>692.638</ele>
        <time>2022-11-05T12:23:27Z</time>
      </trkpt>
      <trkpt lat="45.9894" lon="4.56329">
        <ele>693.293</ele>
        <time>2022-11-05T12:23:28Z</time>
      </trkpt>
      <trkpt lat="45.98939" lon="4.56328">
        <ele>693.199</ele>
        <time>2022-11-05T12:23:29Z</time>
      </trkpt>
      <trkpt lat="45.98937" lon="4.56332">
        <ele>693.304</ele>
        <time>2022-11-05T12:23:33Z</time>
      </trkpt>
      <trkpt lat="45.98934" lon="4.56334">
        <ele>691.989</ele>
        <time>2022-11-05T12:23:38Z</time>
      </trkpt>
      <trkpt lat="45.98932" lon="4.56338">
        <ele>692.557</ele>
        <time>2022-11-05T12:23:43Z</time>
      </trkpt>
      <trkpt lat="45.9893" lon="4.56341">
        <ele>693.228</ele>
        <time>2022-11-05T12:23:46Z</time>
      </trkpt>
      <trkpt lat="45.98927" lon="4.56346">
        <ele>693.822</ele>
        <time>2022-11-05T12:23:52Z</time>
      </trkpt>
      <trkpt lat="45.98927" lon="4.56346">
        <ele>693.124</ele>
        <time>2022-11-05T12:23:53Z</time>
      </trkpt>
      <trkpt lat="45.98927" lon="4.56346">
        <ele>693.188</ele>
        <time>2022-11-05T12:23:57Z</time>
      </trkpt>
      <trkpt lat="45.98926" lon="4.56345">
        <ele>693.605</ele>
        <time>2022-11-05T12:23:58Z</time>
      </trkpt>
      <trkpt lat="45.98926" lon="4.56344">
        <ele>693.373</ele>
        <time>2022-11-05T12:24:00Z</time>
      </trkpt>
      <trkpt lat="45.98926" lon="4.56344">
        <ele>693.276</ele>
        <time>2022-11-05T12:24:02Z</time>
      </trkpt>
      <trkpt lat="45.98925" lon="4.56344">
        <ele>693.825</ele>
        <time>2022-11-05T12:24:03Z</time>
      </trkpt>
      <trkpt lat="45.98925" lon="4.56345">
        <ele>694.156</ele>
        <time>2022-11-05T12:24:04Z</time>
      </trkpt>
      <trkpt lat="45.98926" lon="4.56346">
        <ele>694.507</ele>
        <time>2022-11-05T12:24:05Z</time>
      </trkpt>
      <trkpt lat="45.98925" lon="4.56348">
        <ele>694.681</ele>
        <time>2022-11-05T12:24:08Z</time>
      </trkpt>
      <trkpt lat="45.98925" lon="4.56349">
        <ele>694.308</ele>
        <time>2022-11-05T12:24:10Z</time>
      </trkpt>
      <trkpt lat="45.98925" lon="4.56349">
        <ele>694.517</ele>
        <time>2022-11-05T12:24:11Z</time>
      </trkpt>
      <trkpt lat="45.98925" lon="4.56349">
        <ele>695.033</ele>
        <time>2022-11-05T12:24:20Z</time>
      </trkpt>
      <trkpt lat="45.98926" lon="4.56349">
        <ele>695.169</ele>
        <time>2022-11-05T12:24:21Z</time>
      </trkpt>
      <trkpt lat="45.98926" lon="4.56349">
        <ele>695.169</ele>
        <time>2022-11-05T12:24:21Z</time>
      </trkpt>
      <trkpt lat="45.98926" lon="4.56349">
        <ele>695.18</ele>
        <time>2022-11-05T12:24:22Z</time>
      </trkpt>
      <trkpt lat="45.98926" lon="4.56349">
        <ele>695.204</ele>
        <time>2022-11-05T12:24:34Z</time>
      </trkpt>
      <trkpt lat="45.98926" lon="4.56349">
        <ele>695.157</ele>
        <time>2022-11-05T12:24:35Z</time>
      </trkpt>
      <trkpt lat="45.98925" lon="4.56348">
        <ele>694.726</ele>
        <time>2022-11-05T12:24:38Z</time>
      </trkpt>
      <trkpt lat="45.98925" lon="4.56348">
        <ele>694.542</ele>
        <time>2022-11-05T12:31:49Z</time>
      </trkpt>
      <trkpt lat="45.98925" lon="4.56347">
        <ele>694.412</ele>
        <time>2022-11-05T12:31:50Z</time>
      </trkpt>
      <trkpt lat="45.98925" lon="4.56347">
        <ele>694.412</ele>
        <time>2022-11-05T12:31:50Z</time>
      </trkpt>
      <trkpt lat="45.98925" lon="4.56347">
        <ele>694.497</ele>
        <time>2022-11-05T12:31:51Z</time>
      </trkpt>
      <trkpt lat="45.98925" lon="4.56347">
        <ele>694.261</ele>
        <time>2022-11-05T12:32:03Z</time>
      </trkpt>
      <trkpt lat="45.98925" lon="4.56347">
        <ele>694.405</ele>
        <time>2022-11-05T12:32:04Z</time>
      </trkpt>
      <trkpt lat="45.98926" lon="4.56348">
        <ele>694.358</ele>
        <time>2022-11-05T12:32:05Z</time>
      </trkpt>
      <trkpt lat="45.98926" lon="4.56348">
        <ele>694.623</ele>
        <time>2022-11-05T12:32:06Z</time>
      </trkpt>
      <trkpt lat="45.98926" lon="4.56348">
        <ele>694.623</ele>
        <time>2022-11-05T12:32:06Z</time>
      </trkpt>
      <trkpt lat="45.98926" lon="4.56349">
        <ele>694.569</ele>
        <time>2022-11-05T12:32:07Z</time>
      </trkpt>
      <trkpt lat="45.98926" lon="4.56349">
        <ele>694.574</ele>
        <time>2022-11-05T12:32:08Z</time>
      </trkpt>
      <trkpt lat="45.98926" lon="4.56349">
        <ele>694.646</ele>
        <time>2022-11-05T12:32:09Z</time>
      </trkpt>
      <trkpt lat="45.98926" lon="4.56349">
        <ele>694.646</ele>
        <time>2022-11-05T12:32:09Z</time>
      </trkpt>
      <trkpt lat="45.98927" lon="4.56353">
        <ele>694.142</ele>
        <time>2022-11-05T12:32:10Z</time>
      </trkpt>
      <trkpt lat="45.98927" lon="4.56353">
        <ele>694.142</ele>
        <time>2022-11-05T12:32:10Z</time>
      </trkpt>
      <trkpt lat="45.98927" lon="4.56353">
        <ele>694.05</ele>
        <time>2022-11-05T12:32:11Z</time>
      </trkpt>
      <trkpt lat="45.98927" lon="4.56353">
        <ele>693.969</ele>
        <time>2022-11-05T12:32:12Z</time>
      </trkpt>
      <trkpt lat="45.98927" lon="4.5635">
        <ele>694.101</ele>
        <time>2022-11-05T12:32:13Z</time>
      </trkpt>
      <trkpt lat="45.98927" lon="4.56347">
        <ele>693.088</ele>
        <time>2022-11-05T12:32:16Z</time>
      </trkpt>
      <trkpt lat="45.98927" lon="4.56347">
        <ele>694.284</ele>
        <time>2022-11-05T12:51:54Z</time>
      </trkpt>
      <trkpt lat="45.98926" lon="4.56346">
        <ele>694.447</ele>
        <time>2022-11-05T12:51:55Z</time>
      </trkpt>
      <trkpt lat="45.98926" lon="4.56346">
        <ele>694.447</ele>
        <time>2022-11-05T12:51:55Z</time>
      </trkpt>
      <trkpt lat="45.98926" lon="4.56346">
        <ele>693.993</ele>
        <time>2022-11-05T12:51:56Z</time>
      </trkpt>
      <trkpt lat="45.98926" lon="4.56346">
        <ele>693.909</ele>
        <time>2022-11-05T12:52:02Z</time>
      </trkpt>
      <trkpt lat="45.98927" lon="4.56348">
        <ele>693.715</ele>
        <time>2022-11-05T12:52:03Z</time>
      </trkpt>
      <trkpt lat="45.98927" lon="4.56348">
        <ele>694.618</ele>
        <time>2022-11-05T12:52:04Z</time>
      </trkpt>
      <trkpt lat="45.98927" lon="4.56348">
        <ele>695.035</ele>
        <time>2022-11-05T12:52:05Z</time>
      </trkpt>
      <trkpt lat="45.98927" lon="4.56348">
        <ele>693.968</ele>
        <time>2022-11-05T12:52:06Z</time>
      </trkpt>
      <trkpt lat="45.98927" lon="4.56349">
        <ele>694.447</ele>
        <time>2022-11-05T12:52:07Z</time>
      </trkpt>
      <trkpt lat="45.98927" lon="4.56349">
        <ele>694.447</ele>
        <time>2022-11-05T12:52:07Z</time>
      </trkpt>
      <trkpt lat="45.98927" lon="4.56349">
        <ele>695.348</ele>
        <time>2022-11-05T12:52:08Z</time>
      </trkpt>
      <trkpt lat="45.98927" lon="4.56349">
        <ele>695.348</ele>
        <time>2022-11-05T12:52:08Z</time>
      </trkpt>
      <trkpt lat="45.98927" lon="4.56349">
        <ele>695.365</ele>
        <time>2022-11-05T12:52:09Z</time>
      </trkpt>
      <trkpt lat="45.98927" lon="4.5635">
        <ele>695.07</ele>
        <time>2022-11-05T12:52:10Z</time>
      </trkpt>
      <trkpt lat="45.98927" lon="4.5635">
        <ele>694.229</ele>
        <time>2022-11-05T12:52:11Z</time>
      </trkpt>
      <trkpt lat="45.98927" lon="4.56349">
        <ele>695.715</ele>
        <time>2022-11-05T12:52:13Z</time>
      </trkpt>
      <trkpt lat="45.98927" lon="4.56349">
        <ele>695.744</ele>
        <time>2022-11-05T12:52:22Z</time>
      </trkpt>
      <trkpt lat="45.98927" lon="4.56349">
        <ele>695.158</ele>
        <time>2022-11-05T12:52:23Z</time>
      </trkpt>
      <trkpt lat="45.98926" lon="4.5635">
        <ele>694.659</ele>
        <time>2022-11-05T12:52:24Z</time>
      </trkpt>
      <trkpt lat="45.98926" lon="4.56351">
        <ele>694.053</ele>
        <time>2022-11-05T12:52:25Z</time>
      </trkpt>
      <trkpt lat="45.98926" lon="4.56351">
        <ele>694.053</ele>
        <time>2022-11-05T12:52:25Z</time>
      </trkpt>
      <trkpt lat="45.98926" lon="4.56351">
        <ele>693.159</ele>
        <time>2022-11-05T12:52:26Z</time>
      </trkpt>
      <trkpt lat="45.98926" lon="4.56351">
        <ele>693.159</ele>
        <time>2022-11-05T12:52:26Z</time>
      </trkpt>
      <trkpt lat="45.98927" lon="4.56352">
        <ele>691.446</ele>
        <time>2022-11-05T12:52:27Z</time>
      </trkpt>
      <trkpt lat="45.98927" lon="4.56352">
        <ele>690.135</ele>
        <time>2022-11-05T12:52:28Z</time>
      </trkpt>
      <trkpt lat="45.98927" lon="4.56352">
        <ele>690.582</ele>
        <time>2022-11-05T12:52:29Z</time>
      </trkpt>
      <trkpt lat="45.98927" lon="4.56352">
        <ele>690.585</ele>
        <time>2022-11-05T12:52:31Z</time>
      </trkpt>
      <trkpt lat="45.98929" lon="4.56353">
        <ele>690.584</ele>
        <time>2022-11-05T12:52:32Z</time>
      </trkpt>
      <trkpt lat="45.98929" lon="4.56353">
        <ele>690.209</ele>
        <time>2022-11-05T12:52:33Z</time>
      </trkpt>
      <trkpt lat="45.98929" lon="4.56353">
        <ele>690.461</ele>
        <time>2022-11-05T12:52:41Z</time>
      </trkpt>
      <trkpt lat="45.98929" lon="4.56353">
        <ele>689.65</ele>
        <time>2022-11-05T12:52:42Z</time>
      </trkpt>
      <trkpt lat="45.98929" lon="4.56354">
        <ele>689.287</ele>
        <time>2022-11-05T12:52:43Z</time>
      </trkpt>
      <trkpt lat="45.98929" lon="4.56354">
        <ele>689.961</ele>
        <time>2022-11-05T12:52:44Z</time>
      </trkpt>
      <trkpt lat="45.98929" lon="4.56354">
        <ele>689.955</ele>
        <time>2022-11-05T12:52:50Z</time>
      </trkpt>
      <trkpt lat="45.9893" lon="4.56356">
        <ele>690.316</ele>
        <time>2022-11-05T12:52:51Z</time>
      </trkpt>
      <trkpt lat="45.9893" lon="4.56356">
        <ele>690.316</ele>
        <time>2022-11-05T12:52:51Z</time>
      </trkpt>
      <trkpt lat="45.9893" lon="4.56356">
        <ele>690.021</ele>
        <time>2022-11-05T12:52:52Z</time>
      </trkpt>
      <trkpt lat="45.9893" lon="4.56356">
        <ele>689.988</ele>
        <time>2022-11-05T12:52:57Z</time>
      </trkpt>
      <trkpt lat="45.98929" lon="4.56355">
        <ele>690.314</ele>
        <time>2022-11-05T12:52:58Z</time>
      </trkpt>
      <trkpt lat="45.98929" lon="4.56355">
        <ele>690.406</ele>
        <time>2022-11-05T12:52:59Z</time>
      </trkpt>
      <trkpt lat="45.98929" lon="4.56355">
        <ele>690.406</ele>
        <time>2022-11-05T12:52:59Z</time>
      </trkpt>
      <trkpt lat="45.9893" lon="4.56356">
        <ele>690.737</ele>
        <time>2022-11-05T12:53:00Z</time>
      </trkpt>
      <trkpt lat="45.9893" lon="4.56356">
        <ele>690.248</ele>
        <time>2022-11-05T12:53:01Z</time>
      </trkpt>
      <trkpt lat="45.9893" lon="4.56356">
        <ele>690.626</ele>
        <time>2022-11-05T12:53:15Z</time>
      </trkpt>
      <trkpt lat="45.98929" lon="4.56357">
        <ele>690.745</ele>
        <time>2022-11-05T12:53:16Z</time>
      </trkpt>
      <trkpt lat="45.98929" lon="4.56357">
        <ele>691.284</ele>
        <time>2022-11-05T12:53:17Z</time>
      </trkpt>
      <trkpt lat="45.98929" lon="4.56357">
        <ele>691.183</ele>
        <time>2022-11-05T12:53:19Z</time>
      </trkpt>
      <trkpt lat="45.9893" lon="4.56358">
        <ele>690.78</ele>
        <time>2022-11-05T12:53:20Z</time>
      </trkpt>
      <trkpt lat="45.98929" lon="4.56358">
        <ele>691.388</ele>
        <time>2022-11-05T12:53:21Z</time>
      </trkpt>
      <trkpt lat="45.98929" lon="4.56358">
        <ele>692.386</ele>
        <time>2022-11-05T12:53:22Z</time>
      </trkpt>
      <trkpt lat="45.98929" lon="4.56358">
        <ele>692.398</ele>
        <time>2022-11-05T12:53:55Z</time>
      </trkpt>
      <trkpt lat="45.98928" lon="4.56356">
        <ele>692.681</ele>
        <time>2022-11-05T12:53:56Z</time>
      </trkpt>
      <trkpt lat="45.98928" lon="4.56356">
        <ele>692.763</ele>
        <time>2022-11-05T12:53:57Z</time>
      </trkpt>
      <trkpt lat="45.98928" lon="4.56356">
        <ele>692.763</ele>
        <time>2022-11-05T12:53:57Z</time>
      </trkpt>
      <trkpt lat="45.98928" lon="4.56356">
        <ele>693.885</ele>
        <time>2022-11-05T12:53:58Z</time>
      </trkpt>
      <trkpt lat="45.98928" lon="4.56355">
        <ele>693.572</ele>
        <time>2022-11-05T12:54:00Z</time>
      </trkpt>
      <trkpt lat="45.98928" lon="4.56355">
        <ele>693.554</ele>
        <time>2022-11-05T12:54:04Z</time>
      </trkpt>
      <trkpt lat="45.98928" lon="4.56354">
        <ele>692.624</ele>
        <time>2022-11-05T12:54:06Z</time>
      </trkpt>
      <trkpt lat="45.98928" lon="4.56354">
        <ele>692.643</ele>
        <time>2022-11-05T12:54:08Z</time>
      </trkpt>
      <trkpt lat="45.98928" lon="4.56354">
        <ele>692.927</ele>
        <time>2022-11-05T12:54:14Z</time>
      </trkpt>
      <trkpt lat="45.98928" lon="4.56354">
        <ele>693.106</ele>
        <time>2022-11-05T12:54:15Z</time>
      </trkpt>
      <trkpt lat="45.98928" lon="4.56353">
        <ele>691.544</ele>
        <time>2022-11-05T12:54:18Z</time>
      </trkpt>
      <trkpt lat="45.98928" lon="4.56353">
        <ele>691.119</ele>
        <time>2022-11-05T12:54:22Z</time>
      </trkpt>
      <trkpt lat="45.98929" lon="4.56351">
        <ele>690.235</ele>
        <time>2022-11-05T12:54:23Z</time>
      </trkpt>
      <trkpt lat="45.9893" lon="4.56351">
        <ele>690.95</ele>
        <time>2022-11-05T12:54:25Z</time>
      </trkpt>
      <trkpt lat="45.9893" lon="4.56351">
        <ele>690.069</ele>
        <time>2022-11-05T12:54:26Z</time>
      </trkpt>
      <trkpt lat="45.9893" lon="4.56351">
        <ele>690.14</ele>
        <time>2022-11-05T12:54:49Z</time>
      </trkpt>
      <trkpt lat="45.98928" lon="4.56351">
        <ele>689.745</ele>
        <time>2022-11-05T12:54:50Z</time>
      </trkpt>
      <trkpt lat="45.98928" lon="4.56352">
        <ele>688.129</ele>
        <time>2022-11-05T12:54:56Z</time>
      </trkpt>
      <trkpt lat="45.98928" lon="4.56352">
        <ele>687.696</ele>
        <time>2022-11-05T12:55:20Z</time>
      </trkpt>
      <trkpt lat="45.9893" lon="4.56352">
        <ele>687.978</ele>
        <time>2022-11-05T12:55:21Z</time>
      </trkpt>
      <trkpt lat="45.9893" lon="4.56352">
        <ele>688.018</ele>
        <time>2022-11-05T12:55:22Z</time>
      </trkpt>
      <trkpt lat="45.9893" lon="4.56352">
        <ele>688.704</ele>
        <time>2022-11-05T12:55:29Z</time>
      </trkpt>
      <trkpt lat="45.98929" lon="4.56353">
        <ele>689.018</ele>
        <time>2022-11-05T12:55:30Z</time>
      </trkpt>
      <trkpt lat="45.98929" lon="4.56353">
        <ele>687.358</ele>
        <time>2022-11-05T12:55:31Z</time>
      </trkpt>
      <trkpt lat="45.98929" lon="4.56353">
        <ele>685.516</ele>
        <time>2022-11-05T12:55:34Z</time>
      </trkpt>
      <trkpt lat="45.9893" lon="4.56353">
        <ele>685.589</ele>
        <time>2022-11-05T12:55:35Z</time>
      </trkpt>
      <trkpt lat="45.9893" lon="4.56353">
        <ele>685.584</ele>
        <time>2022-11-05T12:55:36Z</time>
      </trkpt>
      <trkpt lat="45.9893" lon="4.56353">
        <ele>687.682</ele>
        <time>2022-11-05T12:56:02Z</time>
      </trkpt>
      <trkpt lat="45.9893" lon="4.56355">
        <ele>687.79</ele>
        <time>2022-11-05T12:56:03Z</time>
      </trkpt>
      <trkpt lat="45.9893" lon="4.56355">
        <ele>689.916</ele>
        <time>2022-11-05T12:56:04Z</time>
      </trkpt>
      <trkpt lat="45.9893" lon="4.56355">
        <ele>689.907</ele>
        <time>2022-11-05T12:56:05Z</time>
      </trkpt>
      <trkpt lat="45.9893" lon="4.56355">
        <ele>690.556</ele>
        <time>2022-11-05T12:57:39Z</time>
      </trkpt>
      <trkpt lat="45.9893" lon="4.56357">
        <ele>690.693</ele>
        <time>2022-11-05T12:57:40Z</time>
      </trkpt>
      <trkpt lat="45.9893" lon="4.56357">
        <ele>690.911</ele>
        <time>2022-11-05T12:57:41Z</time>
      </trkpt>
      <trkpt lat="45.9893" lon="4.56357">
        <ele>690.913</ele>
        <time>2022-11-05T12:57:45Z</time>
      </trkpt>
      <trkpt lat="45.98929" lon="4.56357">
        <ele>691.168</ele>
        <time>2022-11-05T12:57:46Z</time>
      </trkpt>
      <trkpt lat="45.98929" lon="4.56357">
        <ele>691.134</ele>
        <time>2022-11-05T12:57:47Z</time>
      </trkpt>
      <trkpt lat="45.98929" lon="4.56357">
        <ele>691.041</ele>
        <time>2022-11-05T12:58:19Z</time>
      </trkpt>
      <trkpt lat="45.98929" lon="4.56357">
        <ele>690.769</ele>
        <time>2022-11-05T12:58:20Z</time>
      </trkpt>
      <trkpt lat="45.98929" lon="4.56357">
        <ele>690.637</ele>
        <time>2022-11-05T12:58:21Z</time>
      </trkpt>
      <trkpt lat="45.98929" lon="4.56357">
        <ele>690.912</ele>
        <time>2022-11-05T13:02:44Z</time>
      </trkpt>
      <trkpt lat="45.98929" lon="4.56356">
        <ele>690.866</ele>
        <time>2022-11-05T13:02:45Z</time>
      </trkpt>
      <trkpt lat="45.98929" lon="4.56357">
        <ele>691.001</ele>
        <time>2022-11-05T13:02:47Z</time>
      </trkpt>
      <trkpt lat="45.98929" lon="4.56357">
        <ele>691.001</ele>
        <time>2022-11-05T13:02:47Z</time>
      </trkpt>
      <trkpt lat="45.98928" lon="4.56357">
        <ele>690.794</ele>
        <time>2022-11-05T13:02:48Z</time>
      </trkpt>
      <trkpt lat="45.98928" lon="4.56357">
        <ele>690.852</ele>
        <time>2022-11-05T13:02:49Z</time>
      </trkpt>
      <trkpt lat="45.98928" lon="4.56357">
        <ele>690.845</ele>
        <time>2022-11-05T13:03:02Z</time>
      </trkpt>
      <trkpt lat="45.98928" lon="4.56359">
        <ele>690.521</ele>
        <time>2022-11-05T13:03:03Z</time>
      </trkpt>
      <trkpt lat="45.98929" lon="4.56358">
        <ele>690.35</ele>
        <time>2022-11-05T13:03:05Z</time>
      </trkpt>
      <trkpt lat="45.98929" lon="4.56358">
        <ele>690.35</ele>
        <time>2022-11-05T13:03:05Z</time>
      </trkpt>
      <trkpt lat="45.98929" lon="4.56358">
        <ele>690.358</ele>
        <time>2022-11-05T13:03:06Z</time>
      </trkpt>
      <trkpt lat="45.98931" lon="4.56358">
        <ele>690.166</ele>
        <time>2022-11-05T13:03:07Z</time>
      </trkpt>
      <trkpt lat="45.98932" lon="4.56358">
        <ele>690.077</ele>
        <time>2022-11-05T13:03:08Z</time>
      </trkpt>
      <trkpt lat="45.98935" lon="4.5636">
        <ele>690.045</ele>
        <time>2022-11-05T13:03:11Z</time>
      </trkpt>
      <trkpt lat="45.98935" lon="4.56361">
        <ele>689.501</ele>
        <time>2022-11-05T13:03:13Z</time>
      </trkpt>
      <trkpt lat="45.98935" lon="4.56361">
        <ele>690.18</ele>
        <time>2022-11-05T13:03:14Z</time>
      </trkpt>
      <trkpt lat="45.98935" lon="4.56361">
        <ele>690.18</ele>
        <time>2022-11-05T13:03:14Z</time>
      </trkpt>
      <trkpt lat="45.98935" lon="4.56361">
        <ele>689.638</ele>
        <time>2022-11-05T13:03:15Z</time>
      </trkpt>
      <trkpt lat="45.98935" lon="4.56361">
        <ele>690.002</ele>
        <time>2022-11-05T13:03:16Z</time>
      </trkpt>
      <trkpt lat="45.98935" lon="4.56361">
        <ele>689.999</ele>
        <time>2022-11-05T13:03:17Z</time>
      </trkpt>
      <trkpt lat="45.98935" lon="4.56361">
        <ele>689.999</ele>
        <time>2022-11-05T13:03:17Z</time>
      </trkpt>
      <trkpt lat="45.98935" lon="4.5636">
        <ele>690.504</ele>
        <time>2022-11-05T13:03:18Z</time>
      </trkpt>
      <trkpt lat="45.98935" lon="4.56359">
        <ele>691.137</ele>
        <time>2022-11-05T13:03:19Z</time>
      </trkpt>
      <trkpt lat="45.98934" lon="4.56359">
        <ele>690.069</ele>
        <time>2022-11-05T13:03:21Z</time>
      </trkpt>
      <trkpt lat="45.9893" lon="4.56357">
        <ele>690.199</ele>
        <time>2022-11-05T13:03:59Z</time>
      </trkpt>
      <trkpt lat="45.9893" lon="4.56357">
        <ele>690.38</ele>
        <time>2022-11-05T13:04:00Z</time>
      </trkpt>
      <trkpt lat="45.9893" lon="4.56357">
        <ele>689.343</ele>
        <time>2022-11-05T13:04:01Z</time>
      </trkpt>
      <trkpt lat="45.98931" lon="4.56358">
        <ele>689.83</ele>
        <time>2022-11-05T13:04:02Z</time>
      </trkpt>
      <trkpt lat="45.98932" lon="4.56358">
        <ele>690.536</ele>
        <time>2022-11-05T13:04:03Z</time>
      </trkpt>
      <trkpt lat="45.98932" lon="4.56358">
        <ele>692.147</ele>
        <time>2022-11-05T13:04:04Z</time>
      </trkpt>
      <trkpt lat="45.98932" lon="4.56358">
        <ele>687.919</ele>
        <time>2022-11-05T13:04:07Z</time>
      </trkpt>
      <trkpt lat="45.98933" lon="4.56359">
        <ele>687.864</ele>
        <time>2022-11-05T13:04:08Z</time>
      </trkpt>
      <trkpt lat="45.98933" lon="4.56359">
        <ele>687.864</ele>
        <time>2022-11-05T13:04:08Z</time>
      </trkpt>
      <trkpt lat="45.98933" lon="4.56359">
        <ele>687.676</ele>
        <time>2022-11-05T13:04:09Z</time>
      </trkpt>
      <trkpt lat="45.98933" lon="4.56359">
        <ele>689.252</ele>
        <time>2022-11-05T13:04:42Z</time>
      </trkpt>
      <trkpt lat="45.98933" lon="4.56362">
        <ele>690.003</ele>
        <time>2022-11-05T13:04:43Z</time>
      </trkpt>
      <trkpt lat="45.98933" lon="4.56362">
        <ele>690.003</ele>
        <time>2022-11-05T13:04:43Z</time>
      </trkpt>
      <trkpt lat="45.98933" lon="4.56362">
        <ele>689.574</ele>
        <time>2022-11-05T13:04:44Z</time>
      </trkpt>
      <trkpt lat="45.98933" lon="4.56362">
        <ele>689.574</ele>
        <time>2022-11-05T13:04:44Z</time>
      </trkpt>
      <trkpt lat="45.98933" lon="4.56363">
        <ele>688.298</ele>
        <time>2022-11-05T13:04:45Z</time>
      </trkpt>
      <trkpt lat="45.98932" lon="4.56363">
        <ele>687.797</ele>
        <time>2022-11-05T13:04:47Z</time>
      </trkpt>
      <trkpt lat="45.98932" lon="4.56363">
        <ele>687.877</ele>
        <time>2022-11-05T13:05:03Z</time>
      </trkpt>
      <trkpt lat="45.98929" lon="4.56365">
        <ele>687.622</ele>
        <time>2022-11-05T13:05:04Z</time>
      </trkpt>
      <trkpt lat="45.98929" lon="4.56365">
        <ele>687.713</ele>
        <time>2022-11-05T13:05:05Z</time>
      </trkpt>
      <trkpt lat="45.98929" lon="4.56365">
        <ele>687.899</ele>
        <time>2022-11-05T13:05:38Z</time>
      </trkpt>
      <trkpt lat="45.98928" lon="4.56363">
        <ele>689.442</ele>
        <time>2022-11-05T13:05:39Z</time>
      </trkpt>
      <trkpt lat="45.98929" lon="4.56362">
        <ele>687.849</ele>
        <time>2022-11-05T13:05:42Z</time>
      </trkpt>
      <trkpt lat="45.98929" lon="4.56361">
        <ele>688.888</ele>
        <time>2022-11-05T13:05:44Z</time>
      </trkpt>
      <trkpt lat="45.98927" lon="4.56362">
        <ele>688.232</ele>
        <time>2022-11-05T13:05:47Z</time>
      </trkpt>
      <trkpt lat="45.98927" lon="4.56362">
        <ele>688.212</ele>
        <time>2022-11-05T13:05:48Z</time>
      </trkpt>
      <trkpt lat="45.98927" lon="4.56362">
        <ele>688.222</ele>
        <time>2022-11-05T13:06:09Z</time>
      </trkpt>
      <trkpt lat="45.98928" lon="4.56363">
        <ele>688.427</ele>
        <time>2022-11-05T13:06:10Z</time>
      </trkpt>
      <trkpt lat="45.98929" lon="4.56363">
        <ele>687.329</ele>
        <time>2022-11-05T13:06:12Z</time>
      </trkpt>
      <trkpt lat="45.9893" lon="4.56363">
        <ele>685.893</ele>
        <time>2022-11-05T13:06:13Z</time>
      </trkpt>
      <trkpt lat="45.9893" lon="4.56363">
        <ele>685.919</ele>
        <time>2022-11-05T13:06:14Z</time>
      </trkpt>
      <trkpt lat="45.9893" lon="4.56363">
        <ele>686.5</ele>
        <time>2022-11-05T13:09:53Z</time>
      </trkpt>
      <trkpt lat="45.98931" lon="4.56359">
        <ele>686.414</ele>
        <time>2022-11-05T13:09:54Z</time>
      </trkpt>
      <trkpt lat="45.98931" lon="4.56359">
        <ele>686.395</ele>
        <time>2022-11-05T13:09:55Z</time>
      </trkpt>
      <trkpt lat="45.98931" lon="4.56359">
        <ele>689.367</ele>
        <time>2022-11-05T13:10:16Z</time>
      </trkpt>
      <trkpt lat="45.9893" lon="4.56356">
        <ele>690.581</ele>
        <time>2022-11-05T13:10:17Z</time>
      </trkpt>
      <trkpt lat="45.9893" lon="4.56355">
        <ele>691.489</ele>
        <time>2022-11-05T13:10:19Z</time>
      </trkpt>
      <trkpt lat="45.9893" lon="4.56355">
        <ele>692.173</ele>
        <time>2022-11-05T13:10:20Z</time>
      </trkpt>
      <trkpt lat="45.9893" lon="4.56355">
        <ele>692.882</ele>
        <time>2022-11-05T13:10:27Z</time>
      </trkpt>
      <trkpt lat="45.9893" lon="4.56352">
        <ele>693.626</ele>
        <time>2022-11-05T13:10:28Z</time>
      </trkpt>
      <trkpt lat="45.98929" lon="4.56353">
        <ele>693.542</ele>
        <time>2022-11-05T13:10:31Z</time>
      </trkpt>
      <trkpt lat="45.98929" lon="4.56353">
        <ele>693.542</ele>
        <time>2022-11-05T13:10:31Z</time>
      </trkpt>
      <trkpt lat="45.98929" lon="4.56353">
        <ele>693.469</ele>
        <time>2022-11-05T13:10:32Z</time>
      </trkpt>
      <trkpt lat="45.98929" lon="4.56353">
        <ele>694.217</ele>
        <time>2022-11-05T13:10:33Z</time>
      </trkpt>
      <trkpt lat="45.98929" lon="4.56353">
        <ele>694.349</ele>
        <time>2022-11-05T13:10:35Z</time>
      </trkpt>
      <trkpt lat="45.98929" lon="4.56351">
        <ele>694.385</ele>
        <time>2022-11-05T13:10:36Z</time>
      </trkpt>
      <trkpt lat="45.98928" lon="4.5635">
        <ele>694.404</ele>
        <time>2022-11-05T13:10:38Z</time>
      </trkpt>
      <trkpt lat="45.98928" lon="4.56348">
        <ele>694.605</ele>
        <time>2022-11-05T13:10:39Z</time>
      </trkpt>
      <trkpt lat="45.98928" lon="4.56334">
        <ele>695.329</ele>
        <time>2022-11-05T13:10:46Z</time>
      </trkpt>
      <trkpt lat="45.98928" lon="4.56334">
        <ele>695.525</ele>
        <time>2022-11-05T13:10:47Z</time>
      </trkpt>
      <trkpt lat="45.98927" lon="4.56336">
        <ele>695.142</ele>
        <time>2022-11-05T13:10:48Z</time>
      </trkpt>
      <trkpt lat="45.98927" lon="4.56336">
        <ele>695.142</ele>
        <time>2022-11-05T13:10:48Z</time>
      </trkpt>
      <trkpt lat="45.98927" lon="4.56336">
        <ele>695.083</ele>
        <time>2022-11-05T13:10:49Z</time>
      </trkpt>
      <trkpt lat="45.98927" lon="4.56336">
        <ele>694.251</ele>
        <time>2022-11-05T13:13:02Z</time>
      </trkpt>
      <trkpt lat="45.98925" lon="4.5634">
        <ele>694.021</ele>
        <time>2022-11-05T13:13:03Z</time>
      </trkpt>
      <trkpt lat="45.98925" lon="4.5634">
        <ele>694.233</ele>
        <time>2022-11-05T13:13:04Z</time>
      </trkpt>
      <trkpt lat="45.98925" lon="4.5634">
        <ele>694.233</ele>
        <time>2022-11-05T13:13:04Z</time>
      </trkpt>
      <trkpt lat="45.98925" lon="4.56342">
        <ele>694.489</ele>
        <time>2022-11-05T13:13:05Z</time>
      </trkpt>
      <trkpt lat="45.98925" lon="4.56343">
        <ele>694.066</ele>
        <time>2022-11-05T13:13:06Z</time>
      </trkpt>
      <trkpt lat="45.98925" lon="4.56343">
        <ele>693.82</ele>
        <time>2022-11-05T13:13:07Z</time>
      </trkpt>
      <trkpt lat="45.98925" lon="4.56343">
        <ele>694.285</ele>
        <time>2022-11-05T13:13:31Z</time>
      </trkpt>
      <trkpt lat="45.98926" lon="4.56344">
        <ele>694.293</ele>
        <time>2022-11-05T13:13:32Z</time>
      </trkpt>
      <trkpt lat="45.98926" lon="4.56344">
        <ele>694.308</ele>
        <time>2022-11-05T13:13:33Z</time>
      </trkpt>
      <trkpt lat="45.98927" lon="4.56347">
        <ele>693.561</ele>
        <time>2022-11-05T13:14:54Z</time>
      </trkpt>
      <trkpt lat="45.98929" lon="4.56352">
        <ele>693.084</ele>
        <time>2022-11-05T13:14:55Z</time>
      </trkpt>
      <trkpt lat="45.98929" lon="4.56352">
        <ele>693.075</ele>
        <time>2022-11-05T13:14:56Z</time>
      </trkpt>
      <trkpt lat="45.98929" lon="4.56352">
        <ele>693.071</ele>
        <time>2022-11-05T13:14:59Z</time>
      </trkpt>
      <trkpt lat="45.9893" lon="4.56356">
        <ele>692.979</ele>
        <time>2022-11-05T13:15:00Z</time>
      </trkpt>
      <trkpt lat="45.9893" lon="4.56357">
        <ele>693.119</ele>
        <time>2022-11-05T13:15:02Z</time>
      </trkpt>
      <trkpt lat="45.98927" lon="4.5636">
        <ele>693.237</ele>
        <time>2022-11-05T13:15:11Z</time>
      </trkpt>
      <trkpt lat="45.98927" lon="4.56359">
        <ele>693.328</ele>
        <time>2022-11-05T13:15:12Z</time>
      </trkpt>
      <trkpt lat="45.98927" lon="4.56358">
        <ele>693.576</ele>
        <time>2022-11-05T13:15:13Z</time>
      </trkpt>
      <trkpt lat="45.98928" lon="4.56357">
        <ele>693.523</ele>
        <time>2022-11-05T13:15:16Z</time>
      </trkpt>
      <trkpt lat="45.98928" lon="4.56357">
        <ele>693.884</ele>
        <time>2022-11-05T13:15:17Z</time>
      </trkpt>
      <trkpt lat="45.98928" lon="4.56357">
        <ele>693.884</ele>
        <time>2022-11-05T13:15:17Z</time>
      </trkpt>
      <trkpt lat="45.98926" lon="4.56356">
        <ele>694.068</ele>
        <time>2022-11-05T13:15:18Z</time>
      </trkpt>
      <trkpt lat="45.98926" lon="4.56356">
        <ele>693.583</ele>
        <time>2022-11-05T13:15:19Z</time>
      </trkpt>
      <trkpt lat="45.98926" lon="4.56356">
        <ele>693.618</ele>
        <time>2022-11-05T13:15:29Z</time>
      </trkpt>
      <trkpt lat="45.98924" lon="4.5635">
        <ele>694.439</ele>
        <time>2022-11-05T13:15:30Z</time>
      </trkpt>
      <trkpt lat="45.98925" lon="4.56348">
        <ele>695.236</ele>
        <time>2022-11-05T13:15:32Z</time>
      </trkpt>
      <trkpt lat="45.98923" lon="4.56345">
        <ele>696.466</ele>
        <time>2022-11-05T13:15:34Z</time>
      </trkpt>
      <trkpt lat="45.98923" lon="4.56345">
        <ele>697.164</ele>
        <time>2022-11-05T13:15:36Z</time>
      </trkpt>
      <trkpt lat="45.98922" lon="4.56347">
        <ele>697.199</ele>
        <time>2022-11-05T13:16:15Z</time>
      </trkpt>
      <trkpt lat="45.98922" lon="4.5635">
        <ele>696.313</ele>
        <time>2022-11-05T13:16:19Z</time>
      </trkpt>
      <trkpt lat="45.98923" lon="4.56348">
        <ele>695.267</ele>
        <time>2022-11-05T13:17:59Z</time>
      </trkpt>
      <trkpt lat="45.98925" lon="4.56347">
        <ele>696.308</ele>
        <time>2022-11-05T13:18:00Z</time>
      </trkpt>
      <trkpt lat="45.98924" lon="4.56346">
        <ele>694.529</ele>
        <time>2022-11-05T13:18:03Z</time>
      </trkpt>
      <trkpt lat="45.98928" lon="4.56342">
        <ele>694.157</ele>
        <time>2022-11-05T13:18:09Z</time>
      </trkpt>
      <trkpt lat="45.98928" lon="4.56342">
        <ele>694.158</ele>
        <time>2022-11-05T13:18:10Z</time>
      </trkpt>
      <trkpt lat="45.98929" lon="4.56342">
        <ele>694.072</ele>
        <time>2022-11-05T13:18:11Z</time>
      </trkpt>
      <trkpt lat="45.98929" lon="4.56343">
        <ele>693.272</ele>
        <time>2022-11-05T13:18:12Z</time>
      </trkpt>
      <trkpt lat="45.9893" lon="4.56347">
        <ele>693.817</ele>
        <time>2022-11-05T13:18:15Z</time>
      </trkpt>
      <trkpt lat="45.9893" lon="4.56348">
        <ele>693.798</ele>
        <time>2022-11-05T13:18:16Z</time>
      </trkpt>
      <trkpt lat="45.98929" lon="4.5635">
        <ele>693.594</ele>
        <time>2022-11-05T13:18:19Z</time>
      </trkpt>
      <trkpt lat="45.98927" lon="4.56349">
        <ele>693.473</ele>
        <time>2022-11-05T13:18:24Z</time>
      </trkpt>
      <trkpt lat="45.98927" lon="4.56351">
        <ele>693.505</ele>
        <time>2022-11-05T13:18:32Z</time>
      </trkpt>
      <trkpt lat="45.98927" lon="4.56351">
        <ele>694.311</ele>
        <time>2022-11-05T13:18:33Z</time>
      </trkpt>
      <trkpt lat="45.98926" lon="4.56343">
        <ele>695.347</ele>
        <time>2022-11-05T13:18:35Z</time>
      </trkpt>
      <trkpt lat="45.98924" lon="4.56344">
        <ele>697.448</ele>
        <time>2022-11-05T13:18:36Z</time>
      </trkpt>
      <trkpt lat="45.98922" lon="4.56344">
        <ele>697.82</ele>
        <time>2022-11-05T13:18:39Z</time>
      </trkpt>
      <trkpt lat="45.98922" lon="4.56344">
        <ele>697.552</ele>
        <time>2022-11-05T13:18:50Z</time>
      </trkpt>
      <trkpt lat="45.98921" lon="4.56347">
        <ele>702.794</ele>
        <time>2022-11-05T13:18:51Z</time>
      </trkpt>
      <trkpt lat="45.98921" lon="4.56347">
        <ele>703</ele>
        <time>2022-11-05T13:18:52Z</time>
      </trkpt>
      <trkpt lat="45.98921" lon="4.56347">
        <ele>701.076</ele>
        <time>2022-11-05T13:18:54Z</time>
      </trkpt>
      <trkpt lat="45.98922" lon="4.56351">
        <ele>701.737</ele>
        <time>2022-11-05T13:18:55Z</time>
      </trkpt>
      <trkpt lat="45.98923" lon="4.56352">
        <ele>700.642</ele>
        <time>2022-11-05T13:18:56Z</time>
      </trkpt>
      <trkpt lat="45.98924" lon="4.56352">
        <ele>697.521</ele>
        <time>2022-11-05T13:18:57Z</time>
      </trkpt>
      <trkpt lat="45.98924" lon="4.56352">
        <ele>697.521</ele>
        <time>2022-11-05T13:18:57Z</time>
      </trkpt>
      <trkpt lat="45.98924" lon="4.56352">
        <ele>701.17</ele>
        <time>2022-11-05T13:18:58Z</time>
      </trkpt>
      <trkpt lat="45.98924" lon="4.56352">
        <ele>701.17</ele>
        <time>2022-11-05T13:18:58Z</time>
      </trkpt>
      <trkpt lat="45.98926" lon="4.56352">
        <ele>702.093</ele>
        <time>2022-11-05T13:18:59Z</time>
      </trkpt>
      <trkpt lat="45.98926" lon="4.56352">
        <ele>702.093</ele>
        <time>2022-11-05T13:18:59Z</time>
      </trkpt>
      <trkpt lat="45.98927" lon="4.56352">
        <ele>705.835</ele>
        <time>2022-11-05T13:19:00Z</time>
      </trkpt>
      <trkpt lat="45.98927" lon="4.56352">
        <ele>701.267</ele>
        <time>2022-11-05T13:19:01Z</time>
      </trkpt>
      <trkpt lat="45.98927" lon="4.56352">
        <ele>701.573</ele>
        <time>2022-11-05T13:19:23Z</time>
      </trkpt>
      <trkpt lat="45.98926" lon="4.56349">
        <ele>702.232</ele>
        <time>2022-11-05T13:19:24Z</time>
      </trkpt>
      <trkpt lat="45.98927" lon="4.56348">
        <ele>697.89</ele>
        <time>2022-11-05T13:19:29Z</time>
      </trkpt>
      <trkpt lat="45.98927" lon="4.56349">
        <ele>695.567</ele>
        <time>2022-11-05T13:19:30Z</time>
      </trkpt>
      <trkpt lat="45.98927" lon="4.56349">
        <ele>695.567</ele>
        <time>2022-11-05T13:19:30Z</time>
      </trkpt>
      <trkpt lat="45.98927" lon="4.56348">
        <ele>695.339</ele>
        <time>2022-11-05T13:19:31Z</time>
      </trkpt>
      <trkpt lat="45.98927" lon="4.56348">
        <ele>695.619</ele>
        <time>2022-11-05T13:19:34Z</time>
      </trkpt>
      <trkpt lat="45.98927" lon="4.56348">
        <ele>694.709</ele>
        <time>2022-11-05T13:25:12Z</time>
      </trkpt>
      <trkpt lat="45.98924" lon="4.56346">
        <ele>694.21</ele>
        <time>2022-11-05T13:25:13Z</time>
      </trkpt>
      <trkpt lat="45.98924" lon="4.56346">
        <ele>694.226</ele>
        <time>2022-11-05T13:25:14Z</time>
      </trkpt>
      <trkpt lat="45.98924" lon="4.56346">
        <ele>694.288</ele>
        <time>2022-11-05T13:26:02Z</time>
      </trkpt>
      <trkpt lat="45.98925" lon="4.56348">
        <ele>693.945</ele>
        <time>2022-11-05T13:26:03Z</time>
      </trkpt>
      <trkpt lat="45.98925" lon="4.56348">
        <ele>693.635</ele>
        <time>2022-11-05T13:26:05Z</time>
      </trkpt>
      <trkpt lat="45.98925" lon="4.56348">
        <ele>692.59</ele>
        <time>2022-11-05T13:26:13Z</time>
      </trkpt>
      <trkpt lat="45.98924" lon="4.56347">
        <ele>692.456</ele>
        <time>2022-11-05T13:26:14Z</time>
      </trkpt>
      <trkpt lat="45.98923" lon="4.56347">
        <ele>692.202</ele>
        <time>2022-11-05T13:26:15Z</time>
      </trkpt>
      <trkpt lat="45.98921" lon="4.56349">
        <ele>692.411</ele>
        <time>2022-11-05T13:26:18Z</time>
      </trkpt>
      <trkpt lat="45.98918" lon="4.56351">
        <ele>692.26</ele>
        <time>2022-11-05T13:26:21Z</time>
      </trkpt>
      <trkpt lat="45.98904" lon="4.56366">
        <ele>690.202</ele>
        <time>2022-11-05T13:26:38Z</time>
      </trkpt>
      <trkpt lat="45.98893" lon="4.56374">
        <ele>688.593</ele>
        <time>2022-11-05T13:26:54Z</time>
      </trkpt>
      <trkpt lat="45.98893" lon="4.56374">
        <ele>689.197</ele>
        <time>2022-11-05T13:26:55Z</time>
      </trkpt>
      <trkpt lat="45.98893" lon="4.56374">
        <ele>688.717</ele>
        <time>2022-11-05T13:26:56Z</time>
      </trkpt>
      <trkpt lat="45.98893" lon="4.56374">
        <ele>689.169</ele>
        <time>2022-11-05T13:26:58Z</time>
      </trkpt>
      <trkpt lat="45.98893" lon="4.56374">
        <ele>689.622</ele>
        <time>2022-11-05T13:26:59Z</time>
      </trkpt>
      <trkpt lat="45.98893" lon="4.56374">
        <ele>689.812</ele>
        <time>2022-11-05T13:27:00Z</time>
      </trkpt>
      <trkpt lat="45.98893" lon="4.56376">
        <ele>689.741</ele>
        <time>2022-11-05T13:27:02Z</time>
      </trkpt>
      <trkpt lat="45.98885" lon="4.56382">
        <ele>689.53</ele>
        <time>2022-11-05T13:27:14Z</time>
      </trkpt>
      <trkpt lat="45.98884" lon="4.56383">
        <ele>689.146</ele>
        <time>2022-11-05T13:27:15Z</time>
      </trkpt>
      <trkpt lat="45.98882" lon="4.56385">
        <ele>689.114</ele>
        <time>2022-11-05T13:27:19Z</time>
      </trkpt>
      <trkpt lat="45.9888" lon="4.56386">
        <ele>687.265</ele>
        <time>2022-11-05T13:27:23Z</time>
      </trkpt>
      <trkpt lat="45.9888" lon="4.56386">
        <ele>687.265</ele>
        <time>2022-11-05T13:27:23Z</time>
      </trkpt>
      <trkpt lat="45.9888" lon="4.56386">
        <ele>688.264</ele>
        <time>2022-11-05T13:27:24Z</time>
      </trkpt>
      <trkpt lat="45.9888" lon="4.56386">
        <ele>688.527</ele>
        <time>2022-11-05T13:27:25Z</time>
      </trkpt>
      <trkpt lat="45.98873" lon="4.5639">
        <ele>688.836</ele>
        <time>2022-11-05T13:27:34Z</time>
      </trkpt>
      <trkpt lat="45.98867" lon="4.56391">
        <ele>690.326</ele>
        <time>2022-11-05T13:27:41Z</time>
      </trkpt>
      <trkpt lat="45.98865" lon="4.56391">
        <ele>691.89</ele>
        <time>2022-11-05T13:27:43Z</time>
      </trkpt>
      <trkpt lat="45.98851" lon="4.56401">
        <ele>693.976</ele>
        <time>2022-11-05T13:27:56Z</time>
      </trkpt>
      <trkpt lat="45.98848" lon="4.56404">
        <ele>695.413</ele>
        <time>2022-11-05T13:28:01Z</time>
      </trkpt>
      <trkpt lat="45.98845" lon="4.56407">
        <ele>698.032</ele>
        <time>2022-11-05T13:28:05Z</time>
      </trkpt>
      <trkpt lat="45.98843" lon="4.5641">
        <ele>698.666</ele>
        <time>2022-11-05T13:28:08Z</time>
      </trkpt>
      <trkpt lat="45.98844" lon="4.56415">
        <ele>699.583</ele>
        <time>2022-11-05T13:28:12Z</time>
      </trkpt>
      <trkpt lat="45.98846" lon="4.56422">
        <ele>699.758</ele>
        <time>2022-11-05T13:28:18Z</time>
      </trkpt>
      <trkpt lat="45.98849" lon="4.56427">
        <ele>699.469</ele>
        <time>2022-11-05T13:28:22Z</time>
      </trkpt>
      <trkpt lat="45.98851" lon="4.5643">
        <ele>699.495</ele>
        <time>2022-11-05T13:28:26Z</time>
      </trkpt>
      <trkpt lat="45.98852" lon="4.56435">
        <ele>699.307</ele>
        <time>2022-11-05T13:28:30Z</time>
      </trkpt>
      <trkpt lat="45.98855" lon="4.56441">
        <ele>699.535</ele>
        <time>2022-11-05T13:28:37Z</time>
      </trkpt>
      <trkpt lat="45.98855" lon="4.56444">
        <ele>700.087</ele>
        <time>2022-11-05T13:28:39Z</time>
      </trkpt>
      <trkpt lat="45.98864" lon="4.56481">
        <ele>702.569</ele>
        <time>2022-11-05T13:29:06Z</time>
      </trkpt>
      <trkpt lat="45.98869" lon="4.56499">
        <ele>705.188</ele>
        <time>2022-11-05T13:29:20Z</time>
      </trkpt>
      <trkpt lat="45.98874" lon="4.5651">
        <ele>707.318</ele>
        <time>2022-11-05T13:29:29Z</time>
      </trkpt>
      <trkpt lat="45.98878" lon="4.56524">
        <ele>706.657</ele>
        <time>2022-11-05T13:29:43Z</time>
      </trkpt>
      <trkpt lat="45.98878" lon="4.56525">
        <ele>706.909</ele>
        <time>2022-11-05T13:29:44Z</time>
      </trkpt>
      <trkpt lat="45.98879" lon="4.56529">
        <ele>707.371</ele>
        <time>2022-11-05T13:29:48Z</time>
      </trkpt>
      <trkpt lat="45.9888" lon="4.56529">
        <ele>707.312</ele>
        <time>2022-11-05T13:29:49Z</time>
      </trkpt>
      <trkpt lat="45.98883" lon="4.56541">
        <ele>708.012</ele>
        <time>2022-11-05T13:29:59Z</time>
      </trkpt>
      <trkpt lat="45.98887" lon="4.5655">
        <ele>707.09</ele>
        <time>2022-11-05T13:30:10Z</time>
      </trkpt>
      <trkpt lat="45.98888" lon="4.56557">
        <ele>709.707</ele>
        <time>2022-11-05T13:30:16Z</time>
      </trkpt>
      <trkpt lat="45.98889" lon="4.56563">
        <ele>711.941</ele>
        <time>2022-11-05T13:30:20Z</time>
      </trkpt>
      <trkpt lat="45.98894" lon="4.56576">
        <ele>710.511</ele>
        <time>2022-11-05T13:30:29Z</time>
      </trkpt>
      <trkpt lat="45.98895" lon="4.56598">
        <ele>711.157</ele>
        <time>2022-11-05T13:30:45Z</time>
      </trkpt>
      <trkpt lat="45.98899" lon="4.56611">
        <ele>709.087</ele>
        <time>2022-11-05T13:30:55Z</time>
      </trkpt>
      <trkpt lat="45.989" lon="4.56616">
        <ele>710.458</ele>
        <time>2022-11-05T13:31:02Z</time>
      </trkpt>
      <trkpt lat="45.989" lon="4.56616">
        <ele>710.145</ele>
        <time>2022-11-05T13:31:03Z</time>
      </trkpt>
      <trkpt lat="45.989" lon="4.56616">
        <ele>709.248</ele>
        <time>2022-11-05T13:32:27Z</time>
      </trkpt>
      <trkpt lat="45.98898" lon="4.56615">
        <ele>708.922</ele>
        <time>2022-11-05T13:32:28Z</time>
      </trkpt>
      <trkpt lat="45.98898" lon="4.56615">
        <ele>708.462</ele>
        <time>2022-11-05T13:32:29Z</time>
      </trkpt>
      <trkpt lat="45.98895" lon="4.56617">
        <ele>706.495</ele>
        <time>2022-11-05T13:32:32Z</time>
      </trkpt>
      <trkpt lat="45.98892" lon="4.56615">
        <ele>701.711</ele>
        <time>2022-11-05T13:32:36Z</time>
      </trkpt>
      <trkpt lat="45.98889" lon="4.56611">
        <ele>698.112</ele>
        <time>2022-11-05T13:32:41Z</time>
      </trkpt>
      <trkpt lat="45.98887" lon="4.5661">
        <ele>695.464</ele>
        <time>2022-11-05T13:32:43Z</time>
      </trkpt>
      <trkpt lat="45.98885" lon="4.5661">
        <ele>694.623</ele>
        <time>2022-11-05T13:32:44Z</time>
      </trkpt>
      <trkpt lat="45.98882" lon="4.56608">
        <ele>693.452</ele>
        <time>2022-11-05T13:32:47Z</time>
      </trkpt>
      <trkpt lat="45.98879" lon="4.56607">
        <ele>690.989</ele>
        <time>2022-11-05T13:32:51Z</time>
      </trkpt>
      <trkpt lat="45.98876" lon="4.56605">
        <ele>691.236</ele>
        <time>2022-11-05T13:32:57Z</time>
      </trkpt>
      <trkpt lat="45.98873" lon="4.56604">
        <ele>691.378</ele>
        <time>2022-11-05T13:33:02Z</time>
      </trkpt>
      <trkpt lat="45.98873" lon="4.56604">
        <ele>691.378</ele>
        <time>2022-11-05T13:33:02Z</time>
      </trkpt>
      <trkpt lat="45.98873" lon="4.56603">
        <ele>692.022</ele>
        <time>2022-11-05T13:33:03Z</time>
      </trkpt>
      <trkpt lat="45.98873" lon="4.56602">
        <ele>692.193</ele>
        <time>2022-11-05T13:33:04Z</time>
      </trkpt>
      <trkpt lat="45.98873" lon="4.56602">
        <ele>693.368</ele>
        <time>2022-11-05T13:33:08Z</time>
      </trkpt>
      <trkpt lat="45.98873" lon="4.56602">
        <ele>693.368</ele>
        <time>2022-11-05T13:33:08Z</time>
      </trkpt>
      <trkpt lat="45.98872" lon="4.56601">
        <ele>693.753</ele>
        <time>2022-11-05T13:33:09Z</time>
      </trkpt>
      <trkpt lat="45.9887" lon="4.56601">
        <ele>694.312</ele>
        <time>2022-11-05T13:33:12Z</time>
      </trkpt>
      <trkpt lat="45.9887" lon="4.56601">
        <ele>694.934</ele>
        <time>2022-11-05T13:33:13Z</time>
      </trkpt>
      <trkpt lat="45.9887" lon="4.56601">
        <ele>694.934</ele>
        <time>2022-11-05T13:33:13Z</time>
      </trkpt>
      <trkpt lat="45.98869" lon="4.56601">
        <ele>695.093</ele>
        <time>2022-11-05T13:33:14Z</time>
      </trkpt>
      <trkpt lat="45.98868" lon="4.56603">
        <ele>696.124</ele>
        <time>2022-11-05T13:33:16Z</time>
      </trkpt>
      <trkpt lat="45.98866" lon="4.56605">
        <ele>696.62</ele>
        <time>2022-11-05T13:33:18Z</time>
      </trkpt>
      <trkpt lat="45.98865" lon="4.56605">
        <ele>695.811</ele>
        <time>2022-11-05T13:33:19Z</time>
      </trkpt>
      <trkpt lat="45.98865" lon="4.56605">
        <ele>695.811</ele>
        <time>2022-11-05T13:33:19Z</time>
      </trkpt>
      <trkpt lat="45.98865" lon="4.56605">
        <ele>695.579</ele>
        <time>2022-11-05T13:33:20Z</time>
      </trkpt>
      <trkpt lat="45.98865" lon="4.56605">
        <ele>694.944</ele>
        <time>2022-11-05T13:33:21Z</time>
      </trkpt>
      <trkpt lat="45.98865" lon="4.56605">
        <ele>694.944</ele>
        <time>2022-11-05T13:33:21Z</time>
      </trkpt>
      <trkpt lat="45.98864" lon="4.56606">
        <ele>695.173</ele>
        <time>2022-11-05T13:33:22Z</time>
      </trkpt>
      <trkpt lat="45.98862" lon="4.56608">
        <ele>694.562</ele>
        <time>2022-11-05T13:33:26Z</time>
      </trkpt>
      <trkpt lat="45.98861" lon="4.56609">
        <ele>694.816</ele>
        <time>2022-11-05T13:33:28Z</time>
      </trkpt>
      <trkpt lat="45.98861" lon="4.56609">
        <ele>695.643</ele>
        <time>2022-11-05T13:33:29Z</time>
      </trkpt>
      <trkpt lat="45.98861" lon="4.56609">
        <ele>695.643</ele>
        <time>2022-11-05T13:33:29Z</time>
      </trkpt>
      <trkpt lat="45.98861" lon="4.5661">
        <ele>695.485</ele>
        <time>2022-11-05T13:33:30Z</time>
      </trkpt>
      <trkpt lat="45.9886" lon="4.5661">
        <ele>695.343</ele>
        <time>2022-11-05T13:33:31Z</time>
      </trkpt>
      <trkpt lat="45.98859" lon="4.56611">
        <ele>696.05</ele>
        <time>2022-11-05T13:33:33Z</time>
      </trkpt>
      <trkpt lat="45.98859" lon="4.56611">
        <ele>696.237</ele>
        <time>2022-11-05T13:33:34Z</time>
      </trkpt>
      <trkpt lat="45.98859" lon="4.56612">
        <ele>696.18</ele>
        <time>2022-11-05T13:33:35Z</time>
      </trkpt>
      <trkpt lat="45.98858" lon="4.56612">
        <ele>695.056</ele>
        <time>2022-11-05T13:33:37Z</time>
      </trkpt>
      <trkpt lat="45.98858" lon="4.56612">
        <ele>694.275</ele>
        <time>2022-11-05T13:33:38Z</time>
      </trkpt>
      <trkpt lat="45.98857" lon="4.56612">
        <ele>695.131</ele>
        <time>2022-11-05T13:33:40Z</time>
      </trkpt>
      <trkpt lat="45.98857" lon="4.56612">
        <ele>695.131</ele>
        <time>2022-11-05T13:33:40Z</time>
      </trkpt>
      <trkpt lat="45.98857" lon="4.56612">
        <ele>695.055</ele>
        <time>2022-11-05T13:33:41Z</time>
      </trkpt>
      <trkpt lat="45.98857" lon="4.56612">
        <ele>695.104</ele>
        <time>2022-11-05T13:33:42Z</time>
      </trkpt>
      <trkpt lat="45.98856" lon="4.56613">
        <ele>695.191</ele>
        <time>2022-11-05T13:33:43Z</time>
      </trkpt>
      <trkpt lat="45.98856" lon="4.56613">
        <ele>695.191</ele>
        <time>2022-11-05T13:33:43Z</time>
      </trkpt>
      <trkpt lat="45.98856" lon="4.56613">
        <ele>695.531</ele>
        <time>2022-11-05T13:33:44Z</time>
      </trkpt>
      <trkpt lat="45.98856" lon="4.56613">
        <ele>695.531</ele>
        <time>2022-11-05T13:33:44Z</time>
      </trkpt>
      <trkpt lat="45.98855" lon="4.56614">
        <ele>695.208</ele>
        <time>2022-11-05T13:33:45Z</time>
      </trkpt>
      <trkpt lat="45.98855" lon="4.56614">
        <ele>695.208</ele>
        <time>2022-11-05T13:33:45Z</time>
      </trkpt>
      <trkpt lat="45.98855" lon="4.56614">
        <ele>695.204</ele>
        <time>2022-11-05T13:33:46Z</time>
      </trkpt>
      <trkpt lat="45.98855" lon="4.56614">
        <ele>694.952</ele>
        <time>2022-11-05T13:33:48Z</time>
      </trkpt>
      <trkpt lat="45.98853" lon="4.56615">
        <ele>695.293</ele>
        <time>2022-11-05T13:33:49Z</time>
      </trkpt>
      <trkpt lat="45.98852" lon="4.56618">
        <ele>694.839</ele>
        <time>2022-11-05T13:33:55Z</time>
      </trkpt>
      <trkpt lat="45.98852" lon="4.56618">
        <ele>694.839</ele>
        <time>2022-11-05T13:33:55Z</time>
      </trkpt>
      <trkpt lat="45.98852" lon="4.56619">
        <ele>692.482</ele>
        <time>2022-11-05T13:33:56Z</time>
      </trkpt>
      <trkpt lat="45.98854" lon="4.56621">
        <ele>690.518</ele>
        <time>2022-11-05T13:33:58Z</time>
      </trkpt>
      <trkpt lat="45.98854" lon="4.56621">
        <ele>691.084</ele>
        <time>2022-11-05T13:34:00Z</time>
      </trkpt>
      <trkpt lat="45.98855" lon="4.56625">
        <ele>689.154</ele>
        <time>2022-11-05T13:34:01Z</time>
      </trkpt>
      <trkpt lat="45.98856" lon="4.56629">
        <ele>689.171</ele>
        <time>2022-11-05T13:34:05Z</time>
      </trkpt>
      <trkpt lat="45.98855" lon="4.56628">
        <ele>688.869</ele>
        <time>2022-11-05T13:34:08Z</time>
      </trkpt>
      <trkpt lat="45.98852" lon="4.56627">
        <ele>688.547</ele>
        <time>2022-11-05T13:34:12Z</time>
      </trkpt>
      <trkpt lat="45.98851" lon="4.56626">
        <ele>684.912</ele>
        <time>2022-11-05T13:34:13Z</time>
      </trkpt>
      <trkpt lat="45.98849" lon="4.56622">
        <ele>687.295</ele>
        <time>2022-11-05T13:34:18Z</time>
      </trkpt>
      <trkpt lat="45.98848" lon="4.56622">
        <ele>686.934</ele>
        <time>2022-11-05T13:34:20Z</time>
      </trkpt>
      <trkpt lat="45.98847" lon="4.56623">
        <ele>688.117</ele>
        <time>2022-11-05T13:34:23Z</time>
      </trkpt>
      <trkpt lat="45.98846" lon="4.56624">
        <ele>687.249</ele>
        <time>2022-11-05T13:34:24Z</time>
      </trkpt>
      <trkpt lat="45.98845" lon="4.56627">
        <ele>684.686</ele>
        <time>2022-11-05T13:34:28Z</time>
      </trkpt>
      <trkpt lat="45.98845" lon="4.56627">
        <ele>684.686</ele>
        <time>2022-11-05T13:34:28Z</time>
      </trkpt>
      <trkpt lat="45.98845" lon="4.56627">
        <ele>684.543</ele>
        <time>2022-11-05T13:34:29Z</time>
      </trkpt>
      <trkpt lat="45.98845" lon="4.56627">
        <ele>684.543</ele>
        <time>2022-11-05T13:34:29Z</time>
      </trkpt>
      <trkpt lat="45.98844" lon="4.56629">
        <ele>685.266</ele>
        <time>2022-11-05T13:34:30Z</time>
      </trkpt>
      <trkpt lat="45.98844" lon="4.56629">
        <ele>685.266</ele>
        <time>2022-11-05T13:34:30Z</time>
      </trkpt>
      <trkpt lat="45.98844" lon="4.5663">
        <ele>684.605</ele>
        <time>2022-11-05T13:34:31Z</time>
      </trkpt>
      <trkpt lat="45.98841" lon="4.56632">
        <ele>686.294</ele>
        <time>2022-11-05T13:34:33Z</time>
      </trkpt>
      <trkpt lat="45.9884" lon="4.56634">
        <ele>685.214</ele>
        <time>2022-11-05T13:34:35Z</time>
      </trkpt>
      <trkpt lat="45.98838" lon="4.56638">
        <ele>684.17</ele>
        <time>2022-11-05T13:34:38Z</time>
      </trkpt>
      <trkpt lat="45.98834" lon="4.56646">
        <ele>684.272</ele>
        <time>2022-11-05T13:34:44Z</time>
      </trkpt>
      <trkpt lat="45.98834" lon="4.56647">
        <ele>684.476</ele>
        <time>2022-11-05T13:34:45Z</time>
      </trkpt>
      <trkpt lat="45.98833" lon="4.56648">
        <ele>685.363</ele>
        <time>2022-11-05T13:34:46Z</time>
      </trkpt>
      <trkpt lat="45.98831" lon="4.5665">
        <ele>685.287</ele>
        <time>2022-11-05T13:34:50Z</time>
      </trkpt>
      <trkpt lat="45.9883" lon="4.56653">
        <ele>686.115</ele>
        <time>2022-11-05T13:34:53Z</time>
      </trkpt>
      <trkpt lat="45.9883" lon="4.56653">
        <ele>686.115</ele>
        <time>2022-11-05T13:34:53Z</time>
      </trkpt>
      <trkpt lat="45.98829" lon="4.56654">
        <ele>686.794</ele>
        <time>2022-11-05T13:34:54Z</time>
      </trkpt>
      <trkpt lat="45.98826" lon="4.56657">
        <ele>686.451</ele>
        <time>2022-11-05T13:34:57Z</time>
      </trkpt>
      <trkpt lat="45.98821" lon="4.56663">
        <ele>686.862</ele>
        <time>2022-11-05T13:35:02Z</time>
      </trkpt>
      <trkpt lat="45.98817" lon="4.56667">
        <ele>686.264</ele>
        <time>2022-11-05T13:35:06Z</time>
      </trkpt>
      <trkpt lat="45.98815" lon="4.56671">
        <ele>686.312</ele>
        <time>2022-11-05T13:35:11Z</time>
      </trkpt>
      <trkpt lat="45.98814" lon="4.56673">
        <ele>687.325</ele>
        <time>2022-11-05T13:35:13Z</time>
      </trkpt>
      <trkpt lat="45.98814" lon="4.56674">
        <ele>686.49</ele>
        <time>2022-11-05T13:35:14Z</time>
      </trkpt>
      <trkpt lat="45.98812" lon="4.56677">
        <ele>687.21</ele>
        <time>2022-11-05T13:35:17Z</time>
      </trkpt>
      <trkpt lat="45.98807" lon="4.56683">
        <ele>686.426</ele>
        <time>2022-11-05T13:35:23Z</time>
      </trkpt>
      <trkpt lat="45.98804" lon="4.56685">
        <ele>684.816</ele>
        <time>2022-11-05T13:35:28Z</time>
      </trkpt>
      <trkpt lat="45.98803" lon="4.56686">
        <ele>685.111</ele>
        <time>2022-11-05T13:35:32Z</time>
      </trkpt>
      <trkpt lat="45.98802" lon="4.56687">
        <ele>685.448</ele>
        <time>2022-11-05T13:35:34Z</time>
      </trkpt>
      <trkpt lat="45.988" lon="4.5669">
        <ele>685.038</ele>
        <time>2022-11-05T13:35:37Z</time>
      </trkpt>
      <trkpt lat="45.98799" lon="4.56691">
        <ele>685.33</ele>
        <time>2022-11-05T13:35:39Z</time>
      </trkpt>
      <trkpt lat="45.98798" lon="4.56692">
        <ele>685.647</ele>
        <time>2022-11-05T13:35:40Z</time>
      </trkpt>
      <trkpt lat="45.98795" lon="4.56694">
        <ele>684.161</ele>
        <time>2022-11-05T13:35:43Z</time>
      </trkpt>
      <trkpt lat="45.98791" lon="4.56695">
        <ele>683.405</ele>
        <time>2022-11-05T13:35:45Z</time>
      </trkpt>
      <trkpt lat="45.98782" lon="4.56696">
        <ele>683.427</ele>
        <time>2022-11-05T13:35:52Z</time>
      </trkpt>
      <trkpt lat="45.9878" lon="4.56696">
        <ele>682.59</ele>
        <time>2022-11-05T13:35:54Z</time>
      </trkpt>
      <trkpt lat="45.98775" lon="4.56697">
        <ele>682.583</ele>
        <time>2022-11-05T13:35:58Z</time>
      </trkpt>
      <trkpt lat="45.98774" lon="4.56697">
        <ele>682.113</ele>
        <time>2022-11-05T13:35:59Z</time>
      </trkpt>
      <trkpt lat="45.98774" lon="4.56697">
        <ele>682.363</ele>
        <time>2022-11-05T13:36:00Z</time>
      </trkpt>
      <trkpt lat="45.9877" lon="4.56697">
        <ele>681.719</ele>
        <time>2022-11-05T13:36:04Z</time>
      </trkpt>
      <trkpt lat="45.98769" lon="4.56698">
        <ele>681.493</ele>
        <time>2022-11-05T13:36:05Z</time>
      </trkpt>
      <trkpt lat="45.98763" lon="4.567">
        <ele>680.961</ele>
        <time>2022-11-05T13:36:08Z</time>
      </trkpt>
      <trkpt lat="45.98759" lon="4.56702">
        <ele>681.383</ele>
        <time>2022-11-05T13:36:12Z</time>
      </trkpt>
      <trkpt lat="45.98757" lon="4.56704">
        <ele>680.747</ele>
        <time>2022-11-05T13:36:15Z</time>
      </trkpt>
      <trkpt lat="45.98754" lon="4.56705">
        <ele>681.095</ele>
        <time>2022-11-05T13:36:18Z</time>
      </trkpt>
      <trkpt lat="45.98749" lon="4.56712">
        <ele>680.829</ele>
        <time>2022-11-05T13:36:22Z</time>
      </trkpt>
      <trkpt lat="45.98749" lon="4.56713">
        <ele>680.249</ele>
        <time>2022-11-05T13:36:23Z</time>
      </trkpt>
      <trkpt lat="45.98749" lon="4.56715">
        <ele>680.547</ele>
        <time>2022-11-05T13:36:24Z</time>
      </trkpt>
      <trkpt lat="45.98746" lon="4.56717">
        <ele>681.178</ele>
        <time>2022-11-05T13:36:28Z</time>
      </trkpt>
      <trkpt lat="45.98745" lon="4.56718">
        <ele>681.329</ele>
        <time>2022-11-05T13:36:29Z</time>
      </trkpt>
      <trkpt lat="45.98742" lon="4.56723">
        <ele>681.604</ele>
        <time>2022-11-05T13:36:33Z</time>
      </trkpt>
      <trkpt lat="45.98742" lon="4.56724">
        <ele>681.363</ele>
        <time>2022-11-05T13:36:34Z</time>
      </trkpt>
      <trkpt lat="45.9874" lon="4.56729">
        <ele>682.53</ele>
        <time>2022-11-05T13:36:37Z</time>
      </trkpt>
      <trkpt lat="45.98739" lon="4.5673">
        <ele>682.632</ele>
        <time>2022-11-05T13:36:38Z</time>
      </trkpt>
      <trkpt lat="45.98737" lon="4.56736">
        <ele>683.006</ele>
        <time>2022-11-05T13:36:42Z</time>
      </trkpt>
      <trkpt lat="45.98736" lon="4.56738">
        <ele>682.209</ele>
        <time>2022-11-05T13:36:44Z</time>
      </trkpt>
      <trkpt lat="45.98734" lon="4.56745">
        <ele>683.382</ele>
        <time>2022-11-05T13:36:50Z</time>
      </trkpt>
      <trkpt lat="45.98733" lon="4.56747">
        <ele>682.943</ele>
        <time>2022-11-05T13:36:53Z</time>
      </trkpt>
      <trkpt lat="45.98728" lon="4.56761">
        <ele>684.779</ele>
        <time>2022-11-05T13:37:06Z</time>
      </trkpt>
      <trkpt lat="45.98727" lon="4.56766">
        <ele>684.449</ele>
        <time>2022-11-05T13:37:09Z</time>
      </trkpt>
      <trkpt lat="45.98725" lon="4.56768">
        <ele>686.197</ele>
        <time>2022-11-05T13:37:12Z</time>
      </trkpt>
      <trkpt lat="45.98725" lon="4.56769">
        <ele>686.073</ele>
        <time>2022-11-05T13:37:13Z</time>
      </trkpt>
      <trkpt lat="45.98724" lon="4.5677">
        <ele>686.53</ele>
        <time>2022-11-05T13:37:15Z</time>
      </trkpt>
      <trkpt lat="45.98723" lon="4.56772">
        <ele>686.373</ele>
        <time>2022-11-05T13:37:17Z</time>
      </trkpt>
      <trkpt lat="45.98722" lon="4.56779">
        <ele>687.049</ele>
        <time>2022-11-05T13:37:23Z</time>
      </trkpt>
      <trkpt lat="45.98722" lon="4.56785">
        <ele>686.198</ele>
        <time>2022-11-05T13:37:28Z</time>
      </trkpt>
      <trkpt lat="45.98722" lon="4.56786">
        <ele>686.324</ele>
        <time>2022-11-05T13:37:29Z</time>
      </trkpt>
      <trkpt lat="45.98721" lon="4.56794">
        <ele>684.933</ele>
        <time>2022-11-05T13:37:38Z</time>
      </trkpt>
      <trkpt lat="45.9872" lon="4.56799">
        <ele>685.129</ele>
        <time>2022-11-05T13:37:43Z</time>
      </trkpt>
      <trkpt lat="45.98718" lon="4.56804">
        <ele>686.164</ele>
        <time>2022-11-05T13:37:48Z</time>
      </trkpt>
      <trkpt lat="45.98715" lon="4.56826">
        <ele>685.59</ele>
        <time>2022-11-05T13:38:01Z</time>
      </trkpt>
      <trkpt lat="45.98714" lon="4.56832">
        <ele>685.077</ele>
        <time>2022-11-05T13:38:05Z</time>
      </trkpt>
      <trkpt lat="45.98712" lon="4.56836">
        <ele>684.887</ele>
        <time>2022-11-05T13:38:09Z</time>
      </trkpt>
      <trkpt lat="45.9871" lon="4.56837">
        <ele>684.939</ele>
        <time>2022-11-05T13:38:13Z</time>
      </trkpt>
      <trkpt lat="45.98709" lon="4.56837">
        <ele>684.878</ele>
        <time>2022-11-05T13:38:14Z</time>
      </trkpt>
      <trkpt lat="45.98708" lon="4.56838">
        <ele>684.732</ele>
        <time>2022-11-05T13:38:15Z</time>
      </trkpt>
      <trkpt lat="45.98708" lon="4.56839">
        <ele>684.369</ele>
        <time>2022-11-05T13:38:16Z</time>
      </trkpt>
      <trkpt lat="45.98707" lon="4.56841">
        <ele>684.575</ele>
        <time>2022-11-05T13:38:17Z</time>
      </trkpt>
      <trkpt lat="45.98704" lon="4.56852">
        <ele>684.971</ele>
        <time>2022-11-05T13:38:23Z</time>
      </trkpt>
      <trkpt lat="45.98702" lon="4.56858">
        <ele>684.5</ele>
        <time>2022-11-05T13:38:27Z</time>
      </trkpt>
      <trkpt lat="45.98699" lon="4.56868">
        <ele>684.446</ele>
        <time>2022-11-05T13:38:35Z</time>
      </trkpt>
      <trkpt lat="45.98691" lon="4.56885">
        <ele>683.353</ele>
        <time>2022-11-05T13:38:50Z</time>
      </trkpt>
      <trkpt lat="45.98687" lon="4.5689">
        <ele>683.36</ele>
        <time>2022-11-05T13:38:54Z</time>
      </trkpt>
      <trkpt lat="45.98677" lon="4.56914">
        <ele>682.647</ele>
        <time>2022-11-05T13:39:12Z</time>
      </trkpt>
      <trkpt lat="45.98676" lon="4.56918">
        <ele>684.034</ele>
        <time>2022-11-05T13:39:15Z</time>
      </trkpt>
      <trkpt lat="45.98675" lon="4.56922">
        <ele>683.209</ele>
        <time>2022-11-05T13:39:18Z</time>
      </trkpt>
      <trkpt lat="45.98672" lon="4.56927">
        <ele>682.833</ele>
        <time>2022-11-05T13:39:22Z</time>
      </trkpt>
      <trkpt lat="45.98672" lon="4.56931">
        <ele>681.886</ele>
        <time>2022-11-05T13:39:26Z</time>
      </trkpt>
      <trkpt lat="45.98674" lon="4.5694">
        <ele>681.264</ele>
        <time>2022-11-05T13:39:32Z</time>
      </trkpt>
      <trkpt lat="45.98676" lon="4.56954">
        <ele>680.052</ele>
        <time>2022-11-05T13:39:43Z</time>
      </trkpt>
      <trkpt lat="45.98682" lon="4.56981">
        <ele>678.62</ele>
        <time>2022-11-05T13:40:02Z</time>
      </trkpt>
      <trkpt lat="45.98688" lon="4.57006">
        <ele>680.749</ele>
        <time>2022-11-05T13:40:19Z</time>
      </trkpt>
      <trkpt lat="45.98691" lon="4.57018">
        <ele>679.251</ele>
        <time>2022-11-05T13:40:28Z</time>
      </trkpt>
      <trkpt lat="45.98691" lon="4.5702">
        <ele>679.395</ele>
        <time>2022-11-05T13:40:29Z</time>
      </trkpt>
      <trkpt lat="45.98693" lon="4.5703">
        <ele>679.711</ele>
        <time>2022-11-05T13:40:37Z</time>
      </trkpt>
      <trkpt lat="45.98696" lon="4.57043">
        <ele>679.473</ele>
        <time>2022-11-05T13:40:48Z</time>
      </trkpt>
      <trkpt lat="45.98697" lon="4.57046">
        <ele>678.883</ele>
        <time>2022-11-05T13:40:51Z</time>
      </trkpt>
      <trkpt lat="45.98697" lon="4.5705">
        <ele>679.425</ele>
        <time>2022-11-05T13:40:54Z</time>
      </trkpt>
      <trkpt lat="45.98696" lon="4.57057">
        <ele>678.751</ele>
        <time>2022-11-05T13:40:58Z</time>
      </trkpt>
      <trkpt lat="45.98696" lon="4.57058">
        <ele>679.101</ele>
        <time>2022-11-05T13:40:59Z</time>
      </trkpt>
      <trkpt lat="45.98698" lon="4.57061">
        <ele>678.461</ele>
        <time>2022-11-05T13:41:01Z</time>
      </trkpt>
      <trkpt lat="45.987" lon="4.5707">
        <ele>678.409</ele>
        <time>2022-11-05T13:41:08Z</time>
      </trkpt>
      <trkpt lat="45.98702" lon="4.57075">
        <ele>678.864</ele>
        <time>2022-11-05T13:41:11Z</time>
      </trkpt>
      <trkpt lat="45.98703" lon="4.57079">
        <ele>678.769</ele>
        <time>2022-11-05T13:41:14Z</time>
      </trkpt>
      <trkpt lat="45.98706" lon="4.57084">
        <ele>677.945</ele>
        <time>2022-11-05T13:41:17Z</time>
      </trkpt>
      <trkpt lat="45.98707" lon="4.57088">
        <ele>678.531</ele>
        <time>2022-11-05T13:41:20Z</time>
      </trkpt>
      <trkpt lat="45.98708" lon="4.57097">
        <ele>679.681</ele>
        <time>2022-11-05T13:41:27Z</time>
      </trkpt>
      <trkpt lat="45.98711" lon="4.571">
        <ele>678.899</ele>
        <time>2022-11-05T13:41:30Z</time>
      </trkpt>
      <trkpt lat="45.98712" lon="4.57104">
        <ele>678.579</ele>
        <time>2022-11-05T13:41:35Z</time>
      </trkpt>
      <trkpt lat="45.98714" lon="4.57107">
        <ele>679.325</ele>
        <time>2022-11-05T13:41:39Z</time>
      </trkpt>
      <trkpt lat="45.98717" lon="4.57114">
        <ele>679.925</ele>
        <time>2022-11-05T13:41:44Z</time>
      </trkpt>
      <trkpt lat="45.98719" lon="4.57119">
        <ele>680.09</ele>
        <time>2022-11-05T13:41:48Z</time>
      </trkpt>
      <trkpt lat="45.98721" lon="4.57122">
        <ele>679.967</ele>
        <time>2022-11-05T13:41:51Z</time>
      </trkpt>
      <trkpt lat="45.98722" lon="4.57124">
        <ele>679.675</ele>
        <time>2022-11-05T13:41:53Z</time>
      </trkpt>
      <trkpt lat="45.98727" lon="4.57137">
        <ele>677.56</ele>
        <time>2022-11-05T13:42:04Z</time>
      </trkpt>
      <trkpt lat="45.98731" lon="4.57144">
        <ele>677.95</ele>
        <time>2022-11-05T13:42:10Z</time>
      </trkpt>
      <trkpt lat="45.98732" lon="4.57146">
        <ele>678.197</ele>
        <time>2022-11-05T13:42:12Z</time>
      </trkpt>
      <trkpt lat="45.98732" lon="4.57151">
        <ele>675.843</ele>
        <time>2022-11-05T13:42:17Z</time>
      </trkpt>
      <trkpt lat="45.98735" lon="4.57157">
        <ele>674.91</ele>
        <time>2022-11-05T13:42:23Z</time>
      </trkpt>
      <trkpt lat="45.98735" lon="4.57158">
        <ele>674.724</ele>
        <time>2022-11-05T13:42:24Z</time>
      </trkpt>
      <trkpt lat="45.98739" lon="4.57177">
        <ele>673.643</ele>
        <time>2022-11-05T13:42:37Z</time>
      </trkpt>
      <trkpt lat="45.98739" lon="4.57178">
        <ele>673.729</ele>
        <time>2022-11-05T13:42:38Z</time>
      </trkpt>
      <trkpt lat="45.98739" lon="4.57179">
        <ele>673.636</ele>
        <time>2022-11-05T13:42:39Z</time>
      </trkpt>
      <trkpt lat="45.9874" lon="4.57183">
        <ele>673.833</ele>
        <time>2022-11-05T13:42:42Z</time>
      </trkpt>
      <trkpt lat="45.98742" lon="4.57187">
        <ele>674.312</ele>
        <time>2022-11-05T13:42:46Z</time>
      </trkpt>
      <trkpt lat="45.98746" lon="4.57193">
        <ele>673.052</ele>
        <time>2022-11-05T13:42:53Z</time>
      </trkpt>
      <trkpt lat="45.98747" lon="4.57193">
        <ele>672.682</ele>
        <time>2022-11-05T13:42:54Z</time>
      </trkpt>
      <trkpt lat="45.98749" lon="4.57197">
        <ele>672.747</ele>
        <time>2022-11-05T13:42:58Z</time>
      </trkpt>
      <trkpt lat="45.9875" lon="4.57198">
        <ele>672.635</ele>
        <time>2022-11-05T13:42:59Z</time>
      </trkpt>
      <trkpt lat="45.98753" lon="4.57204">
        <ele>671.832</ele>
        <time>2022-11-05T13:43:05Z</time>
      </trkpt>
      <trkpt lat="45.98755" lon="4.57206">
        <ele>672.056</ele>
        <time>2022-11-05T13:43:08Z</time>
      </trkpt>
      <trkpt lat="45.98756" lon="4.57207">
        <ele>672.522</ele>
        <time>2022-11-05T13:43:09Z</time>
      </trkpt>
      <trkpt lat="45.98756" lon="4.57207">
        <ele>672.355</ele>
        <time>2022-11-05T13:43:10Z</time>
      </trkpt>
      <trkpt lat="45.98759" lon="4.57209">
        <ele>672.014</ele>
        <time>2022-11-05T13:43:14Z</time>
      </trkpt>
      <trkpt lat="45.9876" lon="4.57212">
        <ele>671.383</ele>
        <time>2022-11-05T13:43:18Z</time>
      </trkpt>
      <trkpt lat="45.98759" lon="4.57215">
        <ele>669.876</ele>
        <time>2022-11-05T13:43:22Z</time>
      </trkpt>
      <trkpt lat="45.98759" lon="4.5722">
        <ele>669.377</ele>
        <time>2022-11-05T13:43:25Z</time>
      </trkpt>
      <trkpt lat="45.98767" lon="4.57233">
        <ele>667.1</ele>
        <time>2022-11-05T13:43:37Z</time>
      </trkpt>
      <trkpt lat="45.98766" lon="4.57238">
        <ele>666.946</ele>
        <time>2022-11-05T13:43:40Z</time>
      </trkpt>
      <trkpt lat="45.98766" lon="4.5724">
        <ele>667.201</ele>
        <time>2022-11-05T13:43:43Z</time>
      </trkpt>
      <trkpt lat="45.98763" lon="4.57244">
        <ele>665.968</ele>
        <time>2022-11-05T13:43:46Z</time>
      </trkpt>
      <trkpt lat="45.98761" lon="4.57247">
        <ele>666.564</ele>
        <time>2022-11-05T13:43:50Z</time>
      </trkpt>
      <trkpt lat="45.98757" lon="4.57247">
        <ele>666.499</ele>
        <time>2022-11-05T13:43:55Z</time>
      </trkpt>
      <trkpt lat="45.98757" lon="4.57247">
        <ele>666.499</ele>
        <time>2022-11-05T13:43:55Z</time>
      </trkpt>
      <trkpt lat="45.98756" lon="4.57247">
        <ele>666.749</ele>
        <time>2022-11-05T13:43:56Z</time>
      </trkpt>
      <trkpt lat="45.98749" lon="4.57253">
        <ele>667.385</ele>
        <time>2022-11-05T13:44:06Z</time>
      </trkpt>
      <trkpt lat="45.98746" lon="4.57256">
        <ele>666.825</ele>
        <time>2022-11-05T13:44:08Z</time>
      </trkpt>
      <trkpt lat="45.98745" lon="4.57256">
        <ele>667.277</ele>
        <time>2022-11-05T13:44:09Z</time>
      </trkpt>
      <trkpt lat="45.98743" lon="4.57257">
        <ele>667.263</ele>
        <time>2022-11-05T13:44:12Z</time>
      </trkpt>
      <trkpt lat="45.9873" lon="4.5725">
        <ele>665.071</ele>
        <time>2022-11-05T13:44:26Z</time>
      </trkpt>
      <trkpt lat="45.98728" lon="4.5725">
        <ele>663.777</ele>
        <time>2022-11-05T13:44:29Z</time>
      </trkpt>
      <trkpt lat="45.98728" lon="4.57249">
        <ele>663.665</ele>
        <time>2022-11-05T13:44:30Z</time>
      </trkpt>
      <trkpt lat="45.98727" lon="4.57249">
        <ele>663.029</ele>
        <time>2022-11-05T13:44:32Z</time>
      </trkpt>
      <trkpt lat="45.98714" lon="4.57256">
        <ele>662.143</ele>
        <time>2022-11-05T13:44:46Z</time>
      </trkpt>
      <trkpt lat="45.98708" lon="4.57257">
        <ele>662.929</ele>
        <time>2022-11-05T13:44:51Z</time>
      </trkpt>
      <trkpt lat="45.98707" lon="4.57257">
        <ele>663.303</ele>
        <time>2022-11-05T13:44:52Z</time>
      </trkpt>
      <trkpt lat="45.98704" lon="4.57255">
        <ele>662.23</ele>
        <time>2022-11-05T13:44:56Z</time>
      </trkpt>
      <trkpt lat="45.98702" lon="4.57255">
        <ele>662.239</ele>
        <time>2022-11-05T13:44:58Z</time>
      </trkpt>
      <trkpt lat="45.98695" lon="4.5726">
        <ele>662.823</ele>
        <time>2022-11-05T13:45:04Z</time>
      </trkpt>
      <trkpt lat="45.98693" lon="4.57261">
        <ele>662.537</ele>
        <time>2022-11-05T13:45:07Z</time>
      </trkpt>
      <trkpt lat="45.98692" lon="4.57261">
        <ele>661.931</ele>
        <time>2022-11-05T13:45:08Z</time>
      </trkpt>
      <trkpt lat="45.98681" lon="4.57268">
        <ele>661.592</ele>
        <time>2022-11-05T13:45:21Z</time>
      </trkpt>
      <trkpt lat="45.98681" lon="4.57268">
        <ele>661.592</ele>
        <time>2022-11-05T13:45:21Z</time>
      </trkpt>
      <trkpt lat="45.98681" lon="4.57269">
        <ele>661.991</ele>
        <time>2022-11-05T13:45:22Z</time>
      </trkpt>
      <trkpt lat="45.98679" lon="4.57267">
        <ele>661.08</ele>
        <time>2022-11-05T13:45:25Z</time>
      </trkpt>
      <trkpt lat="45.98679" lon="4.57267">
        <ele>661.234</ele>
        <time>2022-11-05T13:45:26Z</time>
      </trkpt>
      <trkpt lat="45.9867" lon="4.5727">
        <ele>659.779</ele>
        <time>2022-11-05T13:45:35Z</time>
      </trkpt>
      <trkpt lat="45.98669" lon="4.5727">
        <ele>659.605</ele>
        <time>2022-11-05T13:45:36Z</time>
      </trkpt>
      <trkpt lat="45.98658" lon="4.57273">
        <ele>659.566</ele>
        <time>2022-11-05T13:45:46Z</time>
      </trkpt>
      <trkpt lat="45.98657" lon="4.57273">
        <ele>659.551</ele>
        <time>2022-11-05T13:45:47Z</time>
      </trkpt>
      <trkpt lat="45.98642" lon="4.57274">
        <ele>659.661</ele>
        <time>2022-11-05T13:46:04Z</time>
      </trkpt>
      <trkpt lat="45.98641" lon="4.57274">
        <ele>660.128</ele>
        <time>2022-11-05T13:46:05Z</time>
      </trkpt>
      <trkpt lat="45.9864" lon="4.57273">
        <ele>660.036</ele>
        <time>2022-11-05T13:46:06Z</time>
      </trkpt>
      <trkpt lat="45.98639" lon="4.57272">
        <ele>660.023</ele>
        <time>2022-11-05T13:46:07Z</time>
      </trkpt>
      <trkpt lat="45.98636" lon="4.5727">
        <ele>660.173</ele>
        <time>2022-11-05T13:46:11Z</time>
      </trkpt>
      <trkpt lat="45.9863" lon="4.57266">
        <ele>661.227</ele>
        <time>2022-11-05T13:46:16Z</time>
      </trkpt>
      <trkpt lat="45.98622" lon="4.57265">
        <ele>660.115</ele>
        <time>2022-11-05T13:46:22Z</time>
      </trkpt>
      <trkpt lat="45.9862" lon="4.5726">
        <ele>659.845</ele>
        <time>2022-11-05T13:46:25Z</time>
      </trkpt>
      <trkpt lat="45.98618" lon="4.57258">
        <ele>659.747</ele>
        <time>2022-11-05T13:46:27Z</time>
      </trkpt>
      <trkpt lat="45.98617" lon="4.57258">
        <ele>660.406</ele>
        <time>2022-11-05T13:46:31Z</time>
      </trkpt>
      <trkpt lat="45.98614" lon="4.57258">
        <ele>660.114</ele>
        <time>2022-11-05T13:46:34Z</time>
      </trkpt>
      <trkpt lat="45.9861" lon="4.57259">
        <ele>661.498</ele>
        <time>2022-11-05T13:46:37Z</time>
      </trkpt>
      <trkpt lat="45.98605" lon="4.57261">
        <ele>662.409</ele>
        <time>2022-11-05T13:46:41Z</time>
      </trkpt>
      <trkpt lat="45.98604" lon="4.57261">
        <ele>662.803</ele>
        <time>2022-11-05T13:46:42Z</time>
      </trkpt>
      <trkpt lat="45.98599" lon="4.57264">
        <ele>660.732</ele>
        <time>2022-11-05T13:46:47Z</time>
      </trkpt>
      <trkpt lat="45.98594" lon="4.57267">
        <ele>659.556</ele>
        <time>2022-11-05T13:46:51Z</time>
      </trkpt>
      <trkpt lat="45.98592" lon="4.57269">
        <ele>659.824</ele>
        <time>2022-11-05T13:46:54Z</time>
      </trkpt>
      <trkpt lat="45.98591" lon="4.5727">
        <ele>658.985</ele>
        <time>2022-11-05T13:46:56Z</time>
      </trkpt>
      <trkpt lat="45.98589" lon="4.57272">
        <ele>658.237</ele>
        <time>2022-11-05T13:46:59Z</time>
      </trkpt>
      <trkpt lat="45.98588" lon="4.57273">
        <ele>658.367</ele>
        <time>2022-11-05T13:47:01Z</time>
      </trkpt>
      <trkpt lat="45.98585" lon="4.57279">
        <ele>658.374</ele>
        <time>2022-11-05T13:47:06Z</time>
      </trkpt>
      <trkpt lat="45.98578" lon="4.57293">
        <ele>656.246</ele>
        <time>2022-11-05T13:47:16Z</time>
      </trkpt>
      <trkpt lat="45.98578" lon="4.57295">
        <ele>655.944</ele>
        <time>2022-11-05T13:47:17Z</time>
      </trkpt>
      <trkpt lat="45.98576" lon="4.573">
        <ele>655.793</ele>
        <time>2022-11-05T13:47:21Z</time>
      </trkpt>
      <trkpt lat="45.98576" lon="4.57301">
        <ele>656.621</ele>
        <time>2022-11-05T13:47:22Z</time>
      </trkpt>
      <trkpt lat="45.98576" lon="4.57302">
        <ele>656.587</ele>
        <time>2022-11-05T13:47:23Z</time>
      </trkpt>
      <trkpt lat="45.98574" lon="4.57306">
        <ele>656.939</ele>
        <time>2022-11-05T13:47:26Z</time>
      </trkpt>
      <trkpt lat="45.98573" lon="4.5731">
        <ele>657.869</ele>
        <time>2022-11-05T13:47:29Z</time>
      </trkpt>
      <trkpt lat="45.9857" lon="4.57315">
        <ele>658.374</ele>
        <time>2022-11-05T13:47:33Z</time>
      </trkpt>
      <trkpt lat="45.98569" lon="4.57319">
        <ele>658.781</ele>
        <time>2022-11-05T13:47:36Z</time>
      </trkpt>
      <trkpt lat="45.98569" lon="4.5732">
        <ele>659.594</ele>
        <time>2022-11-05T13:47:37Z</time>
      </trkpt>
      <trkpt lat="45.98568" lon="4.57323">
        <ele>658.95</ele>
        <time>2022-11-05T13:47:40Z</time>
      </trkpt>
      <trkpt lat="45.98568" lon="4.57324">
        <ele>659.361</ele>
        <time>2022-11-05T13:47:41Z</time>
      </trkpt>
      <trkpt lat="45.98566" lon="4.57331">
        <ele>659.072</ele>
        <time>2022-11-05T13:47:46Z</time>
      </trkpt>
      <trkpt lat="45.98565" lon="4.57335">
        <ele>659.237</ele>
        <time>2022-11-05T13:47:48Z</time>
      </trkpt>
      <trkpt lat="45.98564" lon="4.57337">
        <ele>659.298</ele>
        <time>2022-11-05T13:47:50Z</time>
      </trkpt>
      <trkpt lat="45.98564" lon="4.57338">
        <ele>659.635</ele>
        <time>2022-11-05T13:47:51Z</time>
      </trkpt>
      <trkpt lat="45.98562" lon="4.57342">
        <ele>659.806</ele>
        <time>2022-11-05T13:47:55Z</time>
      </trkpt>
      <trkpt lat="45.9856" lon="4.57344">
        <ele>659.275</ele>
        <time>2022-11-05T13:47:57Z</time>
      </trkpt>
      <trkpt lat="45.98558" lon="4.57347">
        <ele>658.806</ele>
        <time>2022-11-05T13:48:00Z</time>
      </trkpt>
      <trkpt lat="45.98552" lon="4.57364">
        <ele>658.785</ele>
        <time>2022-11-05T13:48:10Z</time>
      </trkpt>
      <trkpt lat="45.98551" lon="4.57368">
        <ele>658.665</ele>
        <time>2022-11-05T13:48:13Z</time>
      </trkpt>
      <trkpt lat="45.98549" lon="4.57371">
        <ele>658.283</ele>
        <time>2022-11-05T13:48:16Z</time>
      </trkpt>
      <trkpt lat="45.98547" lon="4.57372">
        <ele>658.379</ele>
        <time>2022-11-05T13:48:19Z</time>
      </trkpt>
      <trkpt lat="45.98545" lon="4.57374">
        <ele>656.184</ele>
        <time>2022-11-05T13:48:22Z</time>
      </trkpt>
      <trkpt lat="45.98543" lon="4.57377">
        <ele>656.566</ele>
        <time>2022-11-05T13:48:25Z</time>
      </trkpt>
      <trkpt lat="45.98542" lon="4.57378">
        <ele>656.387</ele>
        <time>2022-11-05T13:48:26Z</time>
      </trkpt>
      <trkpt lat="45.98541" lon="4.57382">
        <ele>656.346</ele>
        <time>2022-11-05T13:48:29Z</time>
      </trkpt>
      <trkpt lat="45.98539" lon="4.57396">
        <ele>656.253</ele>
        <time>2022-11-05T13:48:37Z</time>
      </trkpt>
      <trkpt lat="45.98539" lon="4.57397">
        <ele>656.433</ele>
        <time>2022-11-05T13:48:38Z</time>
      </trkpt>
      <trkpt lat="45.98538" lon="4.57403">
        <ele>654.956</ele>
        <time>2022-11-05T13:48:41Z</time>
      </trkpt>
      <trkpt lat="45.98537" lon="4.57408">
        <ele>654.338</ele>
        <time>2022-11-05T13:48:44Z</time>
      </trkpt>
      <trkpt lat="45.98536" lon="4.5741">
        <ele>654.676</ele>
        <time>2022-11-05T13:48:46Z</time>
      </trkpt>
      <trkpt lat="45.98535" lon="4.57412">
        <ele>655.14</ele>
        <time>2022-11-05T13:48:48Z</time>
      </trkpt>
      <trkpt lat="45.98533" lon="4.57415">
        <ele>655.814</ele>
        <time>2022-11-05T13:48:51Z</time>
      </trkpt>
      <trkpt lat="45.98531" lon="4.57418">
        <ele>655.121</ele>
        <time>2022-11-05T13:48:55Z</time>
      </trkpt>
      <trkpt lat="45.9853" lon="4.57424">
        <ele>653.991</ele>
        <time>2022-11-05T13:49:01Z</time>
      </trkpt>
      <trkpt lat="45.98529" lon="4.57428">
        <ele>652.764</ele>
        <time>2022-11-05T13:49:06Z</time>
      </trkpt>
      <trkpt lat="45.98526" lon="4.57431">
        <ele>654.141</ele>
        <time>2022-11-05T13:49:11Z</time>
      </trkpt>
      <trkpt lat="45.98525" lon="4.57436">
        <ele>654.206</ele>
        <time>2022-11-05T13:49:14Z</time>
      </trkpt>
      <trkpt lat="45.98524" lon="4.57441">
        <ele>654.465</ele>
        <time>2022-11-05T13:49:17Z</time>
      </trkpt>
      <trkpt lat="45.98525" lon="4.57444">
        <ele>654.714</ele>
        <time>2022-11-05T13:49:19Z</time>
      </trkpt>
      <trkpt lat="45.98525" lon="4.57454">
        <ele>655.635</ele>
        <time>2022-11-05T13:49:24Z</time>
      </trkpt>
      <trkpt lat="45.98525" lon="4.57458">
        <ele>655.442</ele>
        <time>2022-11-05T13:49:26Z</time>
      </trkpt>
      <trkpt lat="45.98526" lon="4.57472">
        <ele>655.868</ele>
        <time>2022-11-05T13:49:34Z</time>
      </trkpt>
      <trkpt lat="45.98525" lon="4.57477">
        <ele>655.559</ele>
        <time>2022-11-05T13:49:37Z</time>
      </trkpt>
      <trkpt lat="45.98525" lon="4.57483">
        <ele>655.467</ele>
        <time>2022-11-05T13:49:40Z</time>
      </trkpt>
      <trkpt lat="45.98524" lon="4.57495">
        <ele>656.079</ele>
        <time>2022-11-05T13:49:45Z</time>
      </trkpt>
      <trkpt lat="45.98524" lon="4.57497">
        <ele>656.385</ele>
        <time>2022-11-05T13:49:46Z</time>
      </trkpt>
      <trkpt lat="45.98524" lon="4.57497">
        <ele>656.202</ele>
        <time>2022-11-05T13:49:47Z</time>
      </trkpt>
      <trkpt lat="45.98524" lon="4.57497">
        <ele>656.202</ele>
        <time>2022-11-05T13:49:47Z</time>
      </trkpt>
      <trkpt lat="45.98523" lon="4.575">
        <ele>656.292</ele>
        <time>2022-11-05T13:49:48Z</time>
      </trkpt>
      <trkpt lat="45.98523" lon="4.57505">
        <ele>656.781</ele>
        <time>2022-11-05T13:49:51Z</time>
      </trkpt>
      <trkpt lat="45.98523" lon="4.5751">
        <ele>656.838</ele>
        <time>2022-11-05T13:49:54Z</time>
      </trkpt>
      <trkpt lat="45.98522" lon="4.57512">
        <ele>656.418</ele>
        <time>2022-11-05T13:49:56Z</time>
      </trkpt>
      <trkpt lat="45.98522" lon="4.57513">
        <ele>655.996</ele>
        <time>2022-11-05T13:49:58Z</time>
      </trkpt>
      <trkpt lat="45.98521" lon="4.57516">
        <ele>656.604</ele>
        <time>2022-11-05T13:50:00Z</time>
      </trkpt>
      <trkpt lat="45.98521" lon="4.57518">
        <ele>656.359</ele>
        <time>2022-11-05T13:50:02Z</time>
      </trkpt>
      <trkpt lat="45.98521" lon="4.57523">
        <ele>656.586</ele>
        <time>2022-11-05T13:50:06Z</time>
      </trkpt>
      <trkpt lat="45.98521" lon="4.57523">
        <ele>656.586</ele>
        <time>2022-11-05T13:50:06Z</time>
      </trkpt>
      <trkpt lat="45.98522" lon="4.57524">
        <ele>656.438</ele>
        <time>2022-11-05T13:50:07Z</time>
      </trkpt>
      <trkpt lat="45.98522" lon="4.57527">
        <ele>656.781</ele>
        <time>2022-11-05T13:50:09Z</time>
      </trkpt>
      <trkpt lat="45.98522" lon="4.57528">
        <ele>656.967</ele>
        <time>2022-11-05T13:50:10Z</time>
      </trkpt>
      <trkpt lat="45.98522" lon="4.5753">
        <ele>656.586</ele>
        <time>2022-11-05T13:50:11Z</time>
      </trkpt>
      <trkpt lat="45.98522" lon="4.57535">
        <ele>656.972</ele>
        <time>2022-11-05T13:50:14Z</time>
      </trkpt>
      <trkpt lat="45.98521" lon="4.57536">
        <ele>657.223</ele>
        <time>2022-11-05T13:50:15Z</time>
      </trkpt>
      <trkpt lat="45.98521" lon="4.57538">
        <ele>657.865</ele>
        <time>2022-11-05T13:50:17Z</time>
      </trkpt>
      <trkpt lat="45.9852" lon="4.57547">
        <ele>657.514</ele>
        <time>2022-11-05T13:50:22Z</time>
      </trkpt>
      <trkpt lat="45.98519" lon="4.57552">
        <ele>656.89</ele>
        <time>2022-11-05T13:50:25Z</time>
      </trkpt>
      <trkpt lat="45.98518" lon="4.57558">
        <ele>656.96</ele>
        <time>2022-11-05T13:50:30Z</time>
      </trkpt>
      <trkpt lat="45.98517" lon="4.57562">
        <ele>656.567</ele>
        <time>2022-11-05T13:50:33Z</time>
      </trkpt>
      <trkpt lat="45.98516" lon="4.57564">
        <ele>655.87</ele>
        <time>2022-11-05T13:50:36Z</time>
      </trkpt>
      <trkpt lat="45.98516" lon="4.57568">
        <ele>654.572</ele>
        <time>2022-11-05T13:50:39Z</time>
      </trkpt>
      <trkpt lat="45.98515" lon="4.5757">
        <ele>654.287</ele>
        <time>2022-11-05T13:50:41Z</time>
      </trkpt>
      <trkpt lat="45.98515" lon="4.57572">
        <ele>653.992</ele>
        <time>2022-11-05T13:50:42Z</time>
      </trkpt>
      <trkpt lat="45.98515" lon="4.57578">
        <ele>653.902</ele>
        <time>2022-11-05T13:50:46Z</time>
      </trkpt>
      <trkpt lat="45.98515" lon="4.57579">
        <ele>654.128</ele>
        <time>2022-11-05T13:50:47Z</time>
      </trkpt>
      <trkpt lat="45.98515" lon="4.57584">
        <ele>654.058</ele>
        <time>2022-11-05T13:50:50Z</time>
      </trkpt>
      <trkpt lat="45.98515" lon="4.57587">
        <ele>653.838</ele>
        <time>2022-11-05T13:50:53Z</time>
      </trkpt>
      <trkpt lat="45.98515" lon="4.5759">
        <ele>654.091</ele>
        <time>2022-11-05T13:50:55Z</time>
      </trkpt>
      <trkpt lat="45.98515" lon="4.57591">
        <ele>654.411</ele>
        <time>2022-11-05T13:50:56Z</time>
      </trkpt>
      <trkpt lat="45.98515" lon="4.57592">
        <ele>654.684</ele>
        <time>2022-11-05T13:50:57Z</time>
      </trkpt>
      <trkpt lat="45.98514" lon="4.57596">
        <ele>654.918</ele>
        <time>2022-11-05T13:51:01Z</time>
      </trkpt>
      <trkpt lat="45.98514" lon="4.57597">
        <ele>655.311</ele>
        <time>2022-11-05T13:51:02Z</time>
      </trkpt>
      <trkpt lat="45.98513" lon="4.576">
        <ele>654.874</ele>
        <time>2022-11-05T13:51:03Z</time>
      </trkpt>
      <trkpt lat="45.98513" lon="4.57603">
        <ele>654.761</ele>
        <time>2022-11-05T13:51:05Z</time>
      </trkpt>
      <trkpt lat="45.98511" lon="4.57607">
        <ele>653.7</ele>
        <time>2022-11-05T13:51:09Z</time>
      </trkpt>
      <trkpt lat="45.98511" lon="4.57608">
        <ele>653.895</ele>
        <time>2022-11-05T13:51:10Z</time>
      </trkpt>
      <trkpt lat="45.9851" lon="4.57611">
        <ele>653.181</ele>
        <time>2022-11-05T13:51:12Z</time>
      </trkpt>
      <trkpt lat="45.98509" lon="4.57612">
        <ele>653.087</ele>
        <time>2022-11-05T13:51:13Z</time>
      </trkpt>
      <trkpt lat="45.98507" lon="4.57616">
        <ele>654.308</ele>
        <time>2022-11-05T13:51:17Z</time>
      </trkpt>
      <trkpt lat="45.98506" lon="4.57617">
        <ele>654.454</ele>
        <time>2022-11-05T13:51:18Z</time>
      </trkpt>
      <trkpt lat="45.98506" lon="4.57618">
        <ele>654.599</ele>
        <time>2022-11-05T13:51:20Z</time>
      </trkpt>
      <trkpt lat="45.98504" lon="4.57622">
        <ele>654.299</ele>
        <time>2022-11-05T13:51:22Z</time>
      </trkpt>
      <trkpt lat="45.98501" lon="4.57633">
        <ele>651.388</ele>
        <time>2022-11-05T13:51:28Z</time>
      </trkpt>
      <trkpt lat="45.985" lon="4.57635">
        <ele>650.76</ele>
        <time>2022-11-05T13:51:29Z</time>
      </trkpt>
      <trkpt lat="45.985" lon="4.5764">
        <ele>650.391</ele>
        <time>2022-11-05T13:51:34Z</time>
      </trkpt>
      <trkpt lat="45.98496" lon="4.57641">
        <ele>650.343</ele>
        <time>2022-11-05T13:51:39Z</time>
      </trkpt>
      <trkpt lat="45.98493" lon="4.57643">
        <ele>650.352</ele>
        <time>2022-11-05T13:51:44Z</time>
      </trkpt>
      <trkpt lat="45.98491" lon="4.57647">
        <ele>650.188</ele>
        <time>2022-11-05T13:51:48Z</time>
      </trkpt>
      <trkpt lat="45.9849" lon="4.57648">
        <ele>650.263</ele>
        <time>2022-11-05T13:51:49Z</time>
      </trkpt>
      <trkpt lat="45.9849" lon="4.57649">
        <ele>650.126</ele>
        <time>2022-11-05T13:51:50Z</time>
      </trkpt>
      <trkpt lat="45.9849" lon="4.57649">
        <ele>650.038</ele>
        <time>2022-11-05T13:51:51Z</time>
      </trkpt>
      <trkpt lat="45.9849" lon="4.57649">
        <ele>650.2</ele>
        <time>2022-11-05T13:51:52Z</time>
      </trkpt>
      <trkpt lat="45.98489" lon="4.57649">
        <ele>650.115</ele>
        <time>2022-11-05T13:51:53Z</time>
      </trkpt>
      <trkpt lat="45.98489" lon="4.5765">
        <ele>650.123</ele>
        <time>2022-11-05T13:51:56Z</time>
      </trkpt>
      <trkpt lat="45.98489" lon="4.5765">
        <ele>649.969</ele>
        <time>2022-11-05T13:54:44Z</time>
      </trkpt>
      <trkpt lat="45.98489" lon="4.57652">
        <ele>649.791</ele>
        <time>2022-11-05T13:54:45Z</time>
      </trkpt>
      <trkpt lat="45.98488" lon="4.57653">
        <ele>649.028</ele>
        <time>2022-11-05T13:54:48Z</time>
      </trkpt>
      <trkpt lat="45.98488" lon="4.57653">
        <ele>649.024</ele>
        <time>2022-11-05T13:54:49Z</time>
      </trkpt>
      <trkpt lat="45.98488" lon="4.57654">
        <ele>648.117</ele>
        <time>2022-11-05T13:54:50Z</time>
      </trkpt>
      <trkpt lat="45.98487" lon="4.57657">
        <ele>647.404</ele>
        <time>2022-11-05T13:54:53Z</time>
      </trkpt>
      <trkpt lat="45.98487" lon="4.57657">
        <ele>646.719</ele>
        <time>2022-11-05T13:54:54Z</time>
      </trkpt>
      <trkpt lat="45.98486" lon="4.57662">
        <ele>644.53</ele>
        <time>2022-11-05T13:54:58Z</time>
      </trkpt>
      <trkpt lat="45.98484" lon="4.57665">
        <ele>646.872</ele>
        <time>2022-11-05T13:55:02Z</time>
      </trkpt>
      <trkpt lat="45.98481" lon="4.57671">
        <ele>646.297</ele>
        <time>2022-11-05T13:55:09Z</time>
      </trkpt>
      <trkpt lat="45.9848" lon="4.57672">
        <ele>646.063</ele>
        <time>2022-11-05T13:55:10Z</time>
      </trkpt>
      <trkpt lat="45.98479" lon="4.57674">
        <ele>645.404</ele>
        <time>2022-11-05T13:55:13Z</time>
      </trkpt>
      <trkpt lat="45.98479" lon="4.57674">
        <ele>644.951</ele>
        <time>2022-11-05T13:55:14Z</time>
      </trkpt>
      <trkpt lat="45.98477" lon="4.57675">
        <ele>644.043</ele>
        <time>2022-11-05T13:55:17Z</time>
      </trkpt>
      <trkpt lat="45.98477" lon="4.57676">
        <ele>643.703</ele>
        <time>2022-11-05T13:55:19Z</time>
      </trkpt>
      <trkpt lat="45.98477" lon="4.57676">
        <ele>643.703</ele>
        <time>2022-11-05T13:55:19Z</time>
      </trkpt>
      <trkpt lat="45.98476" lon="4.57676">
        <ele>643.02</ele>
        <time>2022-11-05T13:55:20Z</time>
      </trkpt>
      <trkpt lat="45.98476" lon="4.57678">
        <ele>642.975</ele>
        <time>2022-11-05T13:55:22Z</time>
      </trkpt>
      <trkpt lat="45.98475" lon="4.5768">
        <ele>641.904</ele>
        <time>2022-11-05T13:55:24Z</time>
      </trkpt>
      <trkpt lat="45.98475" lon="4.57681">
        <ele>641.865</ele>
        <time>2022-11-05T13:55:25Z</time>
      </trkpt>
      <trkpt lat="45.98473" lon="4.57685">
        <ele>642.164</ele>
        <time>2022-11-05T13:55:28Z</time>
      </trkpt>
      <trkpt lat="45.98472" lon="4.57686">
        <ele>642.395</ele>
        <time>2022-11-05T13:55:29Z</time>
      </trkpt>
      <trkpt lat="45.98469" lon="4.57689">
        <ele>641.969</ele>
        <time>2022-11-05T13:55:33Z</time>
      </trkpt>
      <trkpt lat="45.98469" lon="4.5769">
        <ele>641.003</ele>
        <time>2022-11-05T13:55:34Z</time>
      </trkpt>
      <trkpt lat="45.98467" lon="4.57693">
        <ele>641.442</ele>
        <time>2022-11-05T13:55:38Z</time>
      </trkpt>
      <trkpt lat="45.98464" lon="4.57695">
        <ele>641.303</ele>
        <time>2022-11-05T13:55:41Z</time>
      </trkpt>
      <trkpt lat="45.98462" lon="4.57699">
        <ele>640.057</ele>
        <time>2022-11-05T13:55:44Z</time>
      </trkpt>
      <trkpt lat="45.98462" lon="4.57699">
        <ele>639.647</ele>
        <time>2022-11-05T13:55:45Z</time>
      </trkpt>
      <trkpt lat="45.98459" lon="4.57705">
        <ele>637.708</ele>
        <time>2022-11-05T13:55:50Z</time>
      </trkpt>
      <trkpt lat="45.98457" lon="4.57707">
        <ele>637.426</ele>
        <time>2022-11-05T13:55:52Z</time>
      </trkpt>
      <trkpt lat="45.98457" lon="4.57708">
        <ele>637.126</ele>
        <time>2022-11-05T13:55:53Z</time>
      </trkpt>
      <trkpt lat="45.98456" lon="4.5771">
        <ele>636.908</ele>
        <time>2022-11-05T13:55:55Z</time>
      </trkpt>
      <trkpt lat="45.9845" lon="4.5772">
        <ele>636.846</ele>
        <time>2022-11-05T13:56:04Z</time>
      </trkpt>
      <trkpt lat="45.98449" lon="4.57722">
        <ele>637.318</ele>
        <time>2022-11-05T13:56:06Z</time>
      </trkpt>
      <trkpt lat="45.98447" lon="4.57724">
        <ele>637.099</ele>
        <time>2022-11-05T13:56:09Z</time>
      </trkpt>
      <trkpt lat="45.98445" lon="4.5773">
        <ele>637.59</ele>
        <time>2022-11-05T13:56:14Z</time>
      </trkpt>
      <trkpt lat="45.98442" lon="4.57735">
        <ele>636.039</ele>
        <time>2022-11-05T13:56:20Z</time>
      </trkpt>
      <trkpt lat="45.98441" lon="4.5774">
        <ele>634.869</ele>
        <time>2022-11-05T13:56:23Z</time>
      </trkpt>
      <trkpt lat="45.98438" lon="4.5775">
        <ele>633.963</ele>
        <time>2022-11-05T13:56:31Z</time>
      </trkpt>
      <trkpt lat="45.98437" lon="4.57751">
        <ele>633.302</ele>
        <time>2022-11-05T13:56:33Z</time>
      </trkpt>
      <trkpt lat="45.98437" lon="4.57752">
        <ele>633.42</ele>
        <time>2022-11-05T13:56:34Z</time>
      </trkpt>
      <trkpt lat="45.98435" lon="4.57756">
        <ele>632.61</ele>
        <time>2022-11-05T13:56:38Z</time>
      </trkpt>
      <trkpt lat="45.98434" lon="4.57759">
        <ele>632.304</ele>
        <time>2022-11-05T13:56:41Z</time>
      </trkpt>
      <trkpt lat="45.98433" lon="4.57762">
        <ele>631.503</ele>
        <time>2022-11-05T13:56:43Z</time>
      </trkpt>
      <trkpt lat="45.98432" lon="4.57765">
        <ele>631.155</ele>
        <time>2022-11-05T13:56:46Z</time>
      </trkpt>
      <trkpt lat="45.9843" lon="4.57767">
        <ele>630.585</ele>
        <time>2022-11-05T13:56:48Z</time>
      </trkpt>
      <trkpt lat="45.98428" lon="4.57771">
        <ele>629.451</ele>
        <time>2022-11-05T13:56:51Z</time>
      </trkpt>
      <trkpt lat="45.98422" lon="4.57781">
        <ele>628.423</ele>
        <time>2022-11-05T13:56:59Z</time>
      </trkpt>
      <trkpt lat="45.98421" lon="4.57782">
        <ele>628.505</ele>
        <time>2022-11-05T13:57:00Z</time>
      </trkpt>
      <trkpt lat="45.98419" lon="4.57784">
        <ele>628.544</ele>
        <time>2022-11-05T13:57:05Z</time>
      </trkpt>
      <trkpt lat="45.98417" lon="4.57788">
        <ele>628.479</ele>
        <time>2022-11-05T13:57:08Z</time>
      </trkpt>
      <trkpt lat="45.98415" lon="4.57791">
        <ele>629.044</ele>
        <time>2022-11-05T13:57:12Z</time>
      </trkpt>
      <trkpt lat="45.98413" lon="4.57793">
        <ele>628.79</ele>
        <time>2022-11-05T13:57:14Z</time>
      </trkpt>
      <trkpt lat="45.98411" lon="4.57797">
        <ele>628.796</ele>
        <time>2022-11-05T13:57:18Z</time>
      </trkpt>
      <trkpt lat="45.9841" lon="4.57798">
        <ele>628.839</ele>
        <time>2022-11-05T13:57:19Z</time>
      </trkpt>
      <trkpt lat="45.98408" lon="4.57802">
        <ele>627.846</ele>
        <time>2022-11-05T13:57:22Z</time>
      </trkpt>
      <trkpt lat="45.98408" lon="4.57803">
        <ele>627.779</ele>
        <time>2022-11-05T13:57:23Z</time>
      </trkpt>
      <trkpt lat="45.98406" lon="4.57806">
        <ele>627.661</ele>
        <time>2022-11-05T13:57:27Z</time>
      </trkpt>
      <trkpt lat="45.98405" lon="4.57807">
        <ele>627.431</ele>
        <time>2022-11-05T13:57:29Z</time>
      </trkpt>
      <trkpt lat="45.98404" lon="4.57808">
        <ele>627.17</ele>
        <time>2022-11-05T13:57:30Z</time>
      </trkpt>
      <trkpt lat="45.98403" lon="4.57808">
        <ele>627.066</ele>
        <time>2022-11-05T13:57:31Z</time>
      </trkpt>
      <trkpt lat="45.98402" lon="4.57809">
        <ele>626.476</ele>
        <time>2022-11-05T13:57:32Z</time>
      </trkpt>
      <trkpt lat="45.98402" lon="4.57809">
        <ele>626.347</ele>
        <time>2022-11-05T13:57:33Z</time>
      </trkpt>
      <trkpt lat="45.98401" lon="4.5781">
        <ele>626.386</ele>
        <time>2022-11-05T13:57:34Z</time>
      </trkpt>
      <trkpt lat="45.98399" lon="4.57813">
        <ele>627.037</ele>
        <time>2022-11-05T13:57:37Z</time>
      </trkpt>
      <trkpt lat="45.98394" lon="4.5782">
        <ele>625.572</ele>
        <time>2022-11-05T13:57:47Z</time>
      </trkpt>
      <trkpt lat="45.98394" lon="4.5782">
        <ele>625.572</ele>
        <time>2022-11-05T13:57:47Z</time>
      </trkpt>
      <trkpt lat="45.98393" lon="4.57821">
        <ele>625.339</ele>
        <time>2022-11-05T13:57:48Z</time>
      </trkpt>
      <trkpt lat="45.98393" lon="4.57822">
        <ele>625.12</ele>
        <time>2022-11-05T13:57:49Z</time>
      </trkpt>
      <trkpt lat="45.9839" lon="4.57824">
        <ele>624.768</ele>
        <time>2022-11-05T13:57:52Z</time>
      </trkpt>
      <trkpt lat="45.98389" lon="4.57825">
        <ele>624.01</ele>
        <time>2022-11-05T13:57:54Z</time>
      </trkpt>
      <trkpt lat="45.98386" lon="4.57828">
        <ele>623.597</ele>
        <time>2022-11-05T13:57:57Z</time>
      </trkpt>
      <trkpt lat="45.98385" lon="4.57829">
        <ele>622.494</ele>
        <time>2022-11-05T13:57:59Z</time>
      </trkpt>
      <trkpt lat="45.98384" lon="4.5783">
        <ele>621.457</ele>
        <time>2022-11-05T13:58:00Z</time>
      </trkpt>
      <trkpt lat="45.98383" lon="4.57834">
        <ele>621.649</ele>
        <time>2022-11-05T13:58:03Z</time>
      </trkpt>
      <trkpt lat="45.98382" lon="4.57835">
        <ele>621.445</ele>
        <time>2022-11-05T13:58:04Z</time>
      </trkpt>
      <trkpt lat="45.98382" lon="4.57835">
        <ele>621.578</ele>
        <time>2022-11-05T13:58:05Z</time>
      </trkpt>
      <trkpt lat="45.98381" lon="4.57836">
        <ele>621.358</ele>
        <time>2022-11-05T13:58:06Z</time>
      </trkpt>
      <trkpt lat="45.98381" lon="4.57837">
        <ele>621.392</ele>
        <time>2022-11-05T13:58:07Z</time>
      </trkpt>
      <trkpt lat="45.98375" lon="4.57846">
        <ele>620.116</ele>
        <time>2022-11-05T13:58:17Z</time>
      </trkpt>
      <trkpt lat="45.98374" lon="4.57848">
        <ele>620.233</ele>
        <time>2022-11-05T13:58:19Z</time>
      </trkpt>
      <trkpt lat="45.9837" lon="4.57852">
        <ele>619.671</ele>
        <time>2022-11-05T13:58:25Z</time>
      </trkpt>
      <trkpt lat="45.98362" lon="4.57865">
        <ele>619.443</ele>
        <time>2022-11-05T13:58:37Z</time>
      </trkpt>
      <trkpt lat="45.98359" lon="4.57869">
        <ele>618.979</ele>
        <time>2022-11-05T13:58:42Z</time>
      </trkpt>
      <trkpt lat="45.98359" lon="4.5787">
        <ele>618.49</ele>
        <time>2022-11-05T13:58:43Z</time>
      </trkpt>
      <trkpt lat="45.98348" lon="4.57888">
        <ele>618.045</ele>
        <time>2022-11-05T13:59:02Z</time>
      </trkpt>
      <trkpt lat="45.98348" lon="4.57889">
        <ele>618.013</ele>
        <time>2022-11-05T13:59:03Z</time>
      </trkpt>
      <trkpt lat="45.98347" lon="4.57899">
        <ele>615.967</ele>
        <time>2022-11-05T13:59:12Z</time>
      </trkpt>
      <trkpt lat="45.98347" lon="4.57901">
        <ele>614.834</ele>
        <time>2022-11-05T13:59:15Z</time>
      </trkpt>
      <trkpt lat="45.98347" lon="4.57901">
        <ele>614.372</ele>
        <time>2022-11-05T13:59:16Z</time>
      </trkpt>
      <trkpt lat="45.98347" lon="4.57901">
        <ele>614.656</ele>
        <time>2022-11-05T13:59:17Z</time>
      </trkpt>
      <trkpt lat="45.98347" lon="4.57901">
        <ele>614.787</ele>
        <time>2022-11-05T13:59:20Z</time>
      </trkpt>
      <trkpt lat="45.98347" lon="4.57901">
        <ele>614.977</ele>
        <time>2022-11-05T13:59:21Z</time>
      </trkpt>
      <trkpt lat="45.98347" lon="4.57901">
        <ele>614.878</ele>
        <time>2022-11-05T13:59:22Z</time>
      </trkpt>
      <trkpt lat="45.98347" lon="4.57901">
        <ele>614.743</ele>
        <time>2022-11-05T13:59:23Z</time>
      </trkpt>
      <trkpt lat="45.98347" lon="4.57901">
        <ele>614.399</ele>
        <time>2022-11-05T13:59:26Z</time>
      </trkpt>
      <trkpt lat="45.98349" lon="4.57903">
        <ele>614.098</ele>
        <time>2022-11-05T13:59:27Z</time>
      </trkpt>
      <trkpt lat="45.98349" lon="4.57903">
        <ele>614.098</ele>
        <time>2022-11-05T13:59:27Z</time>
      </trkpt>
      <trkpt lat="45.98349" lon="4.57903">
        <ele>614.531</ele>
        <time>2022-11-05T13:59:28Z</time>
      </trkpt>
      <trkpt lat="45.98349" lon="4.57903">
        <ele>614.528</ele>
        <time>2022-11-05T13:59:29Z</time>
      </trkpt>
      <trkpt lat="45.98349" lon="4.57903">
        <ele>614.556</ele>
        <time>2022-11-05T13:59:38Z</time>
      </trkpt>
      <trkpt lat="45.98349" lon="4.57905">
        <ele>614.4</ele>
        <time>2022-11-05T13:59:39Z</time>
      </trkpt>
      <trkpt lat="45.9835" lon="4.57905">
        <ele>613.875</ele>
        <time>2022-11-05T13:59:42Z</time>
      </trkpt>
      <trkpt lat="45.9835" lon="4.57905">
        <ele>613.909</ele>
        <time>2022-11-05T13:59:53Z</time>
      </trkpt>
      <trkpt lat="45.9835" lon="4.57905">
        <ele>614.449</ele>
        <time>2022-11-05T13:59:54Z</time>
      </trkpt>
      <trkpt lat="45.9835" lon="4.57905">
        <ele>614.31</ele>
        <time>2022-11-05T13:59:55Z</time>
      </trkpt>
      <trkpt lat="45.9835" lon="4.57905">
        <ele>614.733</ele>
        <time>2022-11-05T14:01:03Z</time>
      </trkpt>
      <trkpt lat="45.98348" lon="4.57905">
        <ele>615.021</ele>
        <time>2022-11-05T14:01:04Z</time>
      </trkpt>
      <trkpt lat="45.98348" lon="4.57905">
        <ele>615.423</ele>
        <time>2022-11-05T14:01:06Z</time>
      </trkpt>
      <trkpt lat="45.98348" lon="4.57905">
        <ele>615.423</ele>
        <time>2022-11-05T14:01:06Z</time>
      </trkpt>
      <trkpt lat="45.98347" lon="4.57905">
        <ele>615.289</ele>
        <time>2022-11-05T14:01:07Z</time>
      </trkpt>
      <trkpt lat="45.98347" lon="4.57906">
        <ele>615.521</ele>
        <time>2022-11-05T14:01:08Z</time>
      </trkpt>
      <trkpt lat="45.98345" lon="4.57909">
        <ele>615.151</ele>
        <time>2022-11-05T14:01:12Z</time>
      </trkpt>
      <trkpt lat="45.98343" lon="4.57913">
        <ele>615.57</ele>
        <time>2022-11-05T14:01:15Z</time>
      </trkpt>
      <trkpt lat="45.9833" lon="4.57938">
        <ele>613.477</ele>
        <time>2022-11-05T14:01:36Z</time>
      </trkpt>
      <trkpt lat="45.98325" lon="4.57971">
        <ele>613.215</ele>
        <time>2022-11-05T14:02:06Z</time>
      </trkpt>
      <trkpt lat="45.98325" lon="4.57971">
        <ele>613.235</ele>
        <time>2022-11-05T14:02:07Z</time>
      </trkpt>
      <trkpt lat="45.98325" lon="4.57971">
        <ele>612.896</ele>
        <time>2022-11-05T14:02:08Z</time>
      </trkpt>
      <trkpt lat="45.98325" lon="4.57971">
        <ele>613.151</ele>
        <time>2022-11-05T14:02:09Z</time>
      </trkpt>
      <trkpt lat="45.98325" lon="4.57971">
        <ele>613.81</ele>
        <time>2022-11-05T14:02:11Z</time>
      </trkpt>
      <trkpt lat="45.98325" lon="4.57971">
        <ele>614.117</ele>
        <time>2022-11-05T14:02:19Z</time>
      </trkpt>
      <trkpt lat="45.98326" lon="4.57973">
        <ele>613.677</ele>
        <time>2022-11-05T14:02:20Z</time>
      </trkpt>
      <trkpt lat="45.98326" lon="4.57973">
        <ele>613.688</ele>
        <time>2022-11-05T14:02:21Z</time>
      </trkpt>
      <trkpt lat="45.98326" lon="4.57973">
        <ele>613.687</ele>
        <time>2022-11-05T14:02:23Z</time>
      </trkpt>
      <trkpt lat="45.98327" lon="4.57972">
        <ele>613.419</ele>
        <time>2022-11-05T14:02:24Z</time>
      </trkpt>
      <trkpt lat="45.98326" lon="4.57973">
        <ele>613.456</ele>
        <time>2022-11-05T14:02:26Z</time>
      </trkpt>
      <trkpt lat="45.98326" lon="4.57973">
        <ele>613.46</ele>
        <time>2022-11-05T14:02:46Z</time>
      </trkpt>
      <trkpt lat="45.98326" lon="4.57975">
        <ele>613.449</ele>
        <time>2022-11-05T14:02:47Z</time>
      </trkpt>
      <trkpt lat="45.98323" lon="4.5799">
        <ele>610.991</ele>
        <time>2022-11-05T14:03:01Z</time>
      </trkpt>
      <trkpt lat="45.98321" lon="4.58001">
        <ele>610.854</ele>
        <time>2022-11-05T14:03:10Z</time>
      </trkpt>
      <trkpt lat="45.98321" lon="4.58005">
        <ele>612.057</ele>
        <time>2022-11-05T14:03:15Z</time>
      </trkpt>
      <trkpt lat="45.98321" lon="4.58005">
        <ele>611.866</ele>
        <time>2022-11-05T14:03:16Z</time>
      </trkpt>
      <trkpt lat="45.98321" lon="4.58005">
        <ele>611.866</ele>
        <time>2022-11-05T14:03:16Z</time>
      </trkpt>
      <trkpt lat="45.98321" lon="4.58005">
        <ele>611.978</ele>
        <time>2022-11-05T14:03:17Z</time>
      </trkpt>
      <trkpt lat="45.98321" lon="4.58005">
        <ele>611.409</ele>
        <time>2022-11-05T14:03:35Z</time>
      </trkpt>
      <trkpt lat="45.9832" lon="4.58005">
        <ele>611.606</ele>
        <time>2022-11-05T14:03:36Z</time>
      </trkpt>
      <trkpt lat="45.9832" lon="4.58005">
        <ele>611.606</ele>
        <time>2022-11-05T14:03:36Z</time>
      </trkpt>
      <trkpt lat="45.9832" lon="4.58005">
        <ele>611.603</ele>
        <time>2022-11-05T14:03:37Z</time>
      </trkpt>
      <trkpt lat="45.9832" lon="4.58005">
        <ele>611.676</ele>
        <time>2022-11-05T14:03:47Z</time>
      </trkpt>
      <trkpt lat="45.98321" lon="4.58004">
        <ele>611.384</ele>
        <time>2022-11-05T14:03:48Z</time>
      </trkpt>
      <trkpt lat="45.98321" lon="4.58005">
        <ele>611.839</ele>
        <time>2022-11-05T14:03:49Z</time>
      </trkpt>
      <trkpt lat="45.98321" lon="4.58011">
        <ele>610.051</ele>
        <time>2022-11-05T14:03:56Z</time>
      </trkpt>
      <trkpt lat="45.98321" lon="4.58011">
        <ele>609.872</ele>
        <time>2022-11-05T14:03:58Z</time>
      </trkpt>
      <trkpt lat="45.98321" lon="4.58011">
        <ele>609.872</ele>
        <time>2022-11-05T14:03:58Z</time>
      </trkpt>
      <trkpt lat="45.98321" lon="4.58011">
        <ele>609.349</ele>
        <time>2022-11-05T14:03:59Z</time>
      </trkpt>
      <trkpt lat="45.98321" lon="4.58011">
        <ele>609.313</ele>
        <time>2022-11-05T14:04:01Z</time>
      </trkpt>
      <trkpt lat="45.98321" lon="4.58011">
        <ele>609.313</ele>
        <time>2022-11-05T14:04:01Z</time>
      </trkpt>
      <trkpt lat="45.9832" lon="4.58011">
        <ele>609.344</ele>
        <time>2022-11-05T14:04:02Z</time>
      </trkpt>
      <trkpt lat="45.9832" lon="4.58011">
        <ele>609.344</ele>
        <time>2022-11-05T14:04:02Z</time>
      </trkpt>
      <trkpt lat="45.9832" lon="4.58011">
        <ele>609.35</ele>
        <time>2022-11-05T14:04:03Z</time>
      </trkpt>
      <trkpt lat="45.9832" lon="4.58011">
        <ele>609.953</ele>
        <time>2022-11-05T14:05:00Z</time>
      </trkpt>
      <trkpt lat="45.9832" lon="4.58011">
        <ele>610.23</ele>
        <time>2022-11-05T14:05:01Z</time>
      </trkpt>
      <trkpt lat="45.9832" lon="4.58011">
        <ele>611.055</ele>
        <time>2022-11-05T14:05:04Z</time>
      </trkpt>
      <trkpt lat="45.9832" lon="4.58011">
        <ele>611.038</ele>
        <time>2022-11-05T14:05:45Z</time>
      </trkpt>
      <trkpt lat="45.9832" lon="4.58012">
        <ele>610.874</ele>
        <time>2022-11-05T14:05:46Z</time>
      </trkpt>
      <trkpt lat="45.9832" lon="4.58012">
        <ele>610.874</ele>
        <time>2022-11-05T14:05:46Z</time>
      </trkpt>
      <trkpt lat="45.9832" lon="4.58012">
        <ele>610.862</ele>
        <time>2022-11-05T14:05:47Z</time>
      </trkpt>
      <trkpt lat="45.9832" lon="4.58012">
        <ele>610.838</ele>
        <time>2022-11-05T14:06:14Z</time>
      </trkpt>
      <trkpt lat="45.98319" lon="4.58012">
        <ele>610.686</ele>
        <time>2022-11-05T14:06:15Z</time>
      </trkpt>
      <trkpt lat="45.98319" lon="4.58012">
        <ele>611.051</ele>
        <time>2022-11-05T14:06:16Z</time>
      </trkpt>
      <trkpt lat="45.98319" lon="4.58012">
        <ele>610.992</ele>
        <time>2022-11-05T14:06:51Z</time>
      </trkpt>
      <trkpt lat="45.9832" lon="4.58013">
        <ele>611.042</ele>
        <time>2022-11-05T14:06:52Z</time>
      </trkpt>
      <trkpt lat="45.9832" lon="4.58013">
        <ele>611.053</ele>
        <time>2022-11-05T14:06:53Z</time>
      </trkpt>
      <trkpt lat="45.9832" lon="4.58013">
        <ele>610.735</ele>
        <time>2022-11-05T14:08:35Z</time>
      </trkpt>
      <trkpt lat="45.9832" lon="4.58013">
        <ele>610.869</ele>
        <time>2022-11-05T14:08:36Z</time>
      </trkpt>
      <trkpt lat="45.9832" lon="4.58013">
        <ele>610.197</ele>
        <time>2022-11-05T14:08:37Z</time>
      </trkpt>
      <trkpt lat="45.9832" lon="4.58013">
        <ele>610.192</ele>
        <time>2022-11-05T14:08:44Z</time>
      </trkpt>
      <trkpt lat="45.98321" lon="4.58013">
        <ele>610.031</ele>
        <time>2022-11-05T14:08:45Z</time>
      </trkpt>
      <trkpt lat="45.98321" lon="4.58014">
        <ele>610.494</ele>
        <time>2022-11-05T14:08:46Z</time>
      </trkpt>
      <trkpt lat="45.98326" lon="4.58019">
        <ele>608.484</ele>
        <time>2022-11-05T14:08:52Z</time>
      </trkpt>
      <trkpt lat="45.98326" lon="4.58019">
        <ele>607.905</ele>
        <time>2022-11-05T14:08:53Z</time>
      </trkpt>
      <trkpt lat="45.98326" lon="4.58019">
        <ele>607.905</ele>
        <time>2022-11-05T14:08:53Z</time>
      </trkpt>
      <trkpt lat="45.98327" lon="4.58019">
        <ele>608.885</ele>
        <time>2022-11-05T14:08:54Z</time>
      </trkpt>
      <trkpt lat="45.98325" lon="4.58019">
        <ele>608.569</ele>
        <time>2022-11-05T14:08:56Z</time>
      </trkpt>
      <trkpt lat="45.98322" lon="4.58016">
        <ele>608.824</ele>
        <time>2022-11-05T14:09:00Z</time>
      </trkpt>
      <trkpt lat="45.9832" lon="4.58013">
        <ele>609.181</ele>
        <time>2022-11-05T14:09:04Z</time>
      </trkpt>
      <trkpt lat="45.9832" lon="4.58013">
        <ele>609.661</ele>
        <time>2022-11-05T14:09:05Z</time>
      </trkpt>
      <trkpt lat="45.9832" lon="4.58013">
        <ele>609.423</ele>
        <time>2022-11-05T14:09:06Z</time>
      </trkpt>
      <trkpt lat="45.9832" lon="4.58013">
        <ele>609.423</ele>
        <time>2022-11-05T14:09:06Z</time>
      </trkpt>
      <trkpt lat="45.9832" lon="4.58012">
        <ele>610.054</ele>
        <time>2022-11-05T14:09:07Z</time>
      </trkpt>
      <trkpt lat="45.9832" lon="4.58012">
        <ele>610.054</ele>
        <time>2022-11-05T14:09:07Z</time>
      </trkpt>
      <trkpt lat="45.9832" lon="4.58012">
        <ele>609.625</ele>
        <time>2022-11-05T14:09:08Z</time>
      </trkpt>
      <trkpt lat="45.9832" lon="4.58012">
        <ele>609.657</ele>
        <time>2022-11-05T14:09:26Z</time>
      </trkpt>
      <trkpt lat="45.98322" lon="4.58011">
        <ele>609.789</ele>
        <time>2022-11-05T14:09:27Z</time>
      </trkpt>
      <trkpt lat="45.98321" lon="4.58013">
        <ele>609.522</ele>
        <time>2022-11-05T14:09:31Z</time>
      </trkpt>
      <trkpt lat="45.98321" lon="4.58013">
        <ele>609.522</ele>
        <time>2022-11-05T14:09:31Z</time>
      </trkpt>
      <trkpt lat="45.98321" lon="4.58013">
        <ele>609.443</ele>
        <time>2022-11-05T14:09:32Z</time>
      </trkpt>
      <trkpt lat="45.98321" lon="4.58013">
        <ele>609.443</ele>
        <time>2022-11-05T14:09:32Z</time>
      </trkpt>
      <trkpt lat="45.98321" lon="4.58013">
        <ele>609.45</ele>
        <time>2022-11-05T14:09:33Z</time>
      </trkpt>
      <trkpt lat="45.98321" lon="4.58013">
        <ele>609.45</ele>
        <time>2022-11-05T14:09:33Z</time>
      </trkpt>
      <trkpt lat="45.98321" lon="4.58014">
        <ele>609.654</ele>
        <time>2022-11-05T14:09:34Z</time>
      </trkpt>
      <trkpt lat="45.98321" lon="4.58014">
        <ele>609.734</ele>
        <time>2022-11-05T14:09:35Z</time>
      </trkpt>
      <trkpt lat="45.98321" lon="4.58014">
        <ele>609.743</ele>
        <time>2022-11-05T14:09:36Z</time>
      </trkpt>
      <trkpt lat="45.98321" lon="4.58014">
        <ele>609.672</ele>
        <time>2022-11-05T14:09:41Z</time>
      </trkpt>
      <trkpt lat="45.98321" lon="4.58014">
        <ele>610.011</ele>
        <time>2022-11-05T14:09:42Z</time>
      </trkpt>
      <trkpt lat="45.9832" lon="4.58013">
        <ele>609.885</ele>
        <time>2022-11-05T14:09:45Z</time>
      </trkpt>
      <trkpt lat="45.9832" lon="4.58013">
        <ele>609.906</ele>
        <time>2022-11-05T14:09:46Z</time>
      </trkpt>
      <trkpt lat="45.9832" lon="4.58013">
        <ele>610.094</ele>
        <time>2022-11-05T14:13:30Z</time>
      </trkpt>
      <trkpt lat="45.98319" lon="4.58013">
        <ele>610.564</ele>
        <time>2022-11-05T14:13:31Z</time>
      </trkpt>
      <trkpt lat="45.98319" lon="4.58013">
        <ele>610.564</ele>
        <time>2022-11-05T14:13:31Z</time>
      </trkpt>
      <trkpt lat="45.98319" lon="4.58013">
        <ele>610.851</ele>
        <time>2022-11-05T14:13:32Z</time>
      </trkpt>
      <trkpt lat="45.98319" lon="4.58013">
        <ele>611.429</ele>
        <time>2022-11-05T14:13:35Z</time>
      </trkpt>
      <trkpt lat="45.98319" lon="4.58013">
        <ele>611.165</ele>
        <time>2022-11-05T14:13:36Z</time>
      </trkpt>
      <trkpt lat="45.98319" lon="4.58013">
        <ele>612.087</ele>
        <time>2022-11-05T14:13:37Z</time>
      </trkpt>
      <trkpt lat="45.98318" lon="4.58012">
        <ele>613.267</ele>
        <time>2022-11-05T14:13:38Z</time>
      </trkpt>
      <trkpt lat="45.98317" lon="4.58011">
        <ele>615.096</ele>
        <time>2022-11-05T14:13:41Z</time>
      </trkpt>
      <trkpt lat="45.98316" lon="4.5801">
        <ele>614.775</ele>
        <time>2022-11-05T14:13:42Z</time>
      </trkpt>
      <trkpt lat="45.98315" lon="4.5801">
        <ele>615.25</ele>
        <time>2022-11-05T14:13:43Z</time>
      </trkpt>
      <trkpt lat="45.98315" lon="4.5801">
        <ele>613.714</ele>
        <time>2022-11-05T14:13:45Z</time>
      </trkpt>
      <trkpt lat="45.98315" lon="4.5801">
        <ele>613.968</ele>
        <time>2022-11-05T14:14:36Z</time>
      </trkpt>
      <trkpt lat="45.98316" lon="4.58013">
        <ele>613.977</ele>
        <time>2022-11-05T14:14:37Z</time>
      </trkpt>
      <trkpt lat="45.98316" lon="4.58013">
        <ele>613.981</ele>
        <time>2022-11-05T14:14:38Z</time>
      </trkpt>
      <trkpt lat="45.98316" lon="4.58013">
        <ele>613.422</ele>
        <time>2022-11-05T14:23:38Z</time>
      </trkpt>
      <trkpt lat="45.98317" lon="4.58013">
        <ele>612.612</ele>
        <time>2022-11-05T14:23:39Z</time>
      </trkpt>
      <trkpt lat="45.98317" lon="4.58013">
        <ele>612.612</ele>
        <time>2022-11-05T14:23:39Z</time>
      </trkpt>
      <trkpt lat="45.98317" lon="4.58012">
        <ele>612.007</ele>
        <time>2022-11-05T14:23:40Z</time>
      </trkpt>
      <trkpt lat="45.98317" lon="4.58011">
        <ele>612.98</ele>
        <time>2022-11-05T14:23:45Z</time>
      </trkpt>
      <trkpt lat="45.98317" lon="4.58011">
        <ele>612.569</ele>
        <time>2022-11-05T14:24:07Z</time>
      </trkpt>
      <trkpt lat="45.98317" lon="4.58011">
        <ele>613.364</ele>
        <time>2022-11-05T14:24:08Z</time>
      </trkpt>
      <trkpt lat="45.98316" lon="4.58012">
        <ele>613.109</ele>
        <time>2022-11-05T14:24:10Z</time>
      </trkpt>
      <trkpt lat="45.98315" lon="4.58014">
        <ele>611.932</ele>
        <time>2022-11-05T14:24:14Z</time>
      </trkpt>
      <trkpt lat="45.98315" lon="4.58014">
        <ele>611.934</ele>
        <time>2022-11-05T14:24:15Z</time>
      </trkpt>
      <trkpt lat="45.98315" lon="4.58014">
        <ele>611.86</ele>
        <time>2022-11-05T14:24:24Z</time>
      </trkpt>
      <trkpt lat="45.98316" lon="4.58014">
        <ele>611.681</ele>
        <time>2022-11-05T14:24:25Z</time>
      </trkpt>
      <trkpt lat="45.98316" lon="4.58014">
        <ele>611.681</ele>
        <time>2022-11-05T14:24:25Z</time>
      </trkpt>
      <trkpt lat="45.98316" lon="4.58014">
        <ele>611.12</ele>
        <time>2022-11-05T14:24:26Z</time>
      </trkpt>
      <trkpt lat="45.98316" lon="4.58014">
        <ele>611.096</ele>
        <time>2022-11-05T14:24:28Z</time>
      </trkpt>
      <trkpt lat="45.98316" lon="4.58014">
        <ele>611.096</ele>
        <time>2022-11-05T14:24:28Z</time>
      </trkpt>
      <trkpt lat="45.98317" lon="4.58014">
        <ele>611.175</ele>
        <time>2022-11-05T14:24:29Z</time>
      </trkpt>
      <trkpt lat="45.98317" lon="4.58015">
        <ele>610.557</ele>
        <time>2022-11-05T14:24:30Z</time>
      </trkpt>
      <trkpt lat="45.98314" lon="4.58018">
        <ele>610.156</ele>
        <time>2022-11-05T14:24:36Z</time>
      </trkpt>
      <trkpt lat="45.98311" lon="4.58024">
        <ele>609.509</ele>
        <time>2022-11-05T14:24:44Z</time>
      </trkpt>
      <trkpt lat="45.98307" lon="4.58028">
        <ele>609.581</ele>
        <time>2022-11-05T14:24:51Z</time>
      </trkpt>
      <trkpt lat="45.98299" lon="4.58038">
        <ele>606.893</ele>
        <time>2022-11-05T14:25:06Z</time>
      </trkpt>
      <trkpt lat="45.98285" lon="4.58051">
        <ele>604.418</ele>
        <time>2022-11-05T14:25:25Z</time>
      </trkpt>
      <trkpt lat="45.98268" lon="4.58067">
        <ele>602.125</ele>
        <time>2022-11-05T14:25:46Z</time>
      </trkpt>
      <trkpt lat="45.98256" lon="4.58078">
        <ele>603.387</ele>
        <time>2022-11-05T14:26:01Z</time>
      </trkpt>
      <trkpt lat="45.98231" lon="4.58102">
        <ele>602.572</ele>
        <time>2022-11-05T14:26:31Z</time>
      </trkpt>
      <trkpt lat="45.98231" lon="4.58103">
        <ele>602.512</ele>
        <time>2022-11-05T14:26:32Z</time>
      </trkpt>
      <trkpt lat="45.98229" lon="4.58105">
        <ele>601.927</ele>
        <time>2022-11-05T14:26:36Z</time>
      </trkpt>
      <trkpt lat="45.98229" lon="4.58106">
        <ele>601.844</ele>
        <time>2022-11-05T14:26:37Z</time>
      </trkpt>
      <trkpt lat="45.98228" lon="4.58107">
        <ele>602.102</ele>
        <time>2022-11-05T14:26:38Z</time>
      </trkpt>
      <trkpt lat="45.98228" lon="4.58107">
        <ele>602.091</ele>
        <time>2022-11-05T14:26:39Z</time>
      </trkpt>
      <trkpt lat="45.98228" lon="4.58107">
        <ele>602.718</ele>
        <time>2022-11-05T14:26:44Z</time>
      </trkpt>
      <trkpt lat="45.98229" lon="4.58108">
        <ele>602.625</ele>
        <time>2022-11-05T14:26:44Z</time>
      </trkpt>
      <trkpt lat="45.98229" lon="4.58109">
        <ele>602.467</ele>
        <time>2022-11-05T14:26:45Z</time>
      </trkpt>
      <trkpt lat="45.98229" lon="4.58109">
        <ele>602.467</ele>
        <time>2022-11-05T14:26:45Z</time>
      </trkpt>
      <trkpt lat="45.98228" lon="4.58109">
        <ele>602.272</ele>
        <time>2022-11-05T14:26:46Z</time>
      </trkpt>
      <trkpt lat="45.98228" lon="4.58109">
        <ele>602.85</ele>
        <time>2022-11-05T14:26:47Z</time>
      </trkpt>
      <trkpt lat="45.98228" lon="4.58109">
        <ele>602.85</ele>
        <time>2022-11-05T14:26:47Z</time>
      </trkpt>
      <trkpt lat="45.98227" lon="4.5811">
        <ele>602.699</ele>
        <time>2022-11-05T14:26:48Z</time>
      </trkpt>
      <trkpt lat="45.98227" lon="4.5811">
        <ele>602.7</ele>
        <time>2022-11-05T14:26:49Z</time>
      </trkpt>
      <trkpt lat="45.98227" lon="4.5811">
        <ele>602.677</ele>
        <time>2022-11-05T14:27:07Z</time>
      </trkpt>
      <trkpt lat="45.98226" lon="4.5811">
        <ele>602.525</ele>
        <time>2022-11-05T14:27:08Z</time>
      </trkpt>
      <trkpt lat="45.98226" lon="4.5811">
        <ele>602.525</ele>
        <time>2022-11-05T14:27:08Z</time>
      </trkpt>
      <trkpt lat="45.98226" lon="4.5811">
        <ele>602.226</ele>
        <time>2022-11-05T14:27:09Z</time>
      </trkpt>
      <trkpt lat="45.98226" lon="4.5811">
        <ele>602.125</ele>
        <time>2022-11-05T14:28:45Z</time>
      </trkpt>
      <trkpt lat="45.98225" lon="4.58112">
        <ele>602.165</ele>
        <time>2022-11-05T14:28:46Z</time>
      </trkpt>
      <trkpt lat="45.98226" lon="4.58113">
        <ele>601.559</ele>
        <time>2022-11-05T14:28:48Z</time>
      </trkpt>
      <trkpt lat="45.98228" lon="4.58115">
        <ele>600.349</ele>
        <time>2022-11-05T14:28:51Z</time>
      </trkpt>
      <trkpt lat="45.98228" lon="4.58115">
        <ele>600.349</ele>
        <time>2022-11-05T14:28:51Z</time>
      </trkpt>
      <trkpt lat="45.98228" lon="4.58115">
        <ele>600.234</ele>
        <time>2022-11-05T14:28:52Z</time>
      </trkpt>
      <trkpt lat="45.98228" lon="4.58115">
        <ele>600.234</ele>
        <time>2022-11-05T14:28:52Z</time>
      </trkpt>
      <trkpt lat="45.98228" lon="4.58115">
        <ele>599.982</ele>
        <time>2022-11-05T14:28:53Z</time>
      </trkpt>
      <trkpt lat="45.98228" lon="4.58115">
        <ele>599.982</ele>
        <time>2022-11-05T14:28:53Z</time>
      </trkpt>
      <trkpt lat="45.98228" lon="4.58115">
        <ele>599.973</ele>
        <time>2022-11-05T14:28:54Z</time>
      </trkpt>
      <trkpt lat="45.98228" lon="4.58115">
        <ele>599.678</ele>
        <time>2022-11-05T14:29:03Z</time>
      </trkpt>
      <trkpt lat="45.98227" lon="4.58116">
        <ele>600.731</ele>
        <time>2022-11-05T14:29:04Z</time>
      </trkpt>
      <trkpt lat="45.98227" lon="4.58116">
        <ele>600.731</ele>
        <time>2022-11-05T14:29:04Z</time>
      </trkpt>
      <trkpt lat="45.98227" lon="4.58116">
        <ele>600.731</ele>
        <time>2022-11-05T14:29:05Z</time>
      </trkpt>
      <trkpt lat="45.98227" lon="4.58116">
        <ele>601.109</ele>
        <time>2022-11-05T14:29:25Z</time>
      </trkpt>
      <trkpt lat="45.98228" lon="4.58118">
        <ele>601.133</ele>
        <time>2022-11-05T14:29:26Z</time>
      </trkpt>
      <trkpt lat="45.98226" lon="4.58121">
        <ele>601.145</ele>
        <time>2022-11-05T14:29:31Z</time>
      </trkpt>
      <trkpt lat="45.98225" lon="4.5812">
        <ele>601.379</ele>
        <time>2022-11-05T14:29:32Z</time>
      </trkpt>
      <trkpt lat="45.98225" lon="4.58119">
        <ele>600.541</ele>
        <time>2022-11-05T14:29:34Z</time>
      </trkpt>
      <trkpt lat="45.98225" lon="4.58119">
        <ele>600.511</ele>
        <time>2022-11-05T14:30:12Z</time>
      </trkpt>
      <trkpt lat="45.98225" lon="4.58118">
        <ele>600.775</ele>
        <time>2022-11-05T14:30:13Z</time>
      </trkpt>
      <trkpt lat="45.98225" lon="4.58118">
        <ele>601.471</ele>
        <time>2022-11-05T14:30:14Z</time>
      </trkpt>
      <trkpt lat="45.98225" lon="4.58118">
        <ele>601.578</ele>
        <time>2022-11-05T14:30:15Z</time>
      </trkpt>
      <trkpt lat="45.98225" lon="4.58118">
        <ele>601.583</ele>
        <time>2022-11-05T14:30:24Z</time>
      </trkpt>
      <trkpt lat="45.98225" lon="4.58118">
        <ele>601.751</ele>
        <time>2022-11-05T14:30:25Z</time>
      </trkpt>
      <trkpt lat="45.98226" lon="4.58118">
        <ele>601.533</ele>
        <time>2022-11-05T14:30:27Z</time>
      </trkpt>
      <trkpt lat="45.98226" lon="4.58118">
        <ele>601.428</ele>
        <time>2022-11-05T14:31:14Z</time>
      </trkpt>
      <trkpt lat="45.98225" lon="4.58118">
        <ele>601.418</ele>
        <time>2022-11-05T14:31:15Z</time>
      </trkpt>
      <trkpt lat="45.98225" lon="4.58118">
        <ele>601.418</ele>
        <time>2022-11-05T14:31:15Z</time>
      </trkpt>
      <trkpt lat="45.98225" lon="4.58118">
        <ele>601.412</ele>
        <time>2022-11-05T14:31:16Z</time>
      </trkpt>
      <trkpt lat="45.98225" lon="4.58118">
        <ele>600.57</ele>
        <time>2022-11-05T14:38:07Z</time>
      </trkpt>
      <trkpt lat="45.98225" lon="4.58117">
        <ele>600.892</ele>
        <time>2022-11-05T14:38:08Z</time>
      </trkpt>
      <trkpt lat="45.98225" lon="4.58117">
        <ele>601.146</ele>
        <time>2022-11-05T14:38:09Z</time>
      </trkpt>
      <trkpt lat="45.98225" lon="4.58117">
        <ele>601.146</ele>
        <time>2022-11-05T14:38:09Z</time>
      </trkpt>
      <trkpt lat="45.98225" lon="4.58116">
        <ele>600.795</ele>
        <time>2022-11-05T14:38:10Z</time>
      </trkpt>
      <trkpt lat="45.98225" lon="4.58115">
        <ele>601.381</ele>
        <time>2022-11-05T14:38:11Z</time>
      </trkpt>
      <trkpt lat="45.98225" lon="4.58115">
        <ele>601.366</ele>
        <time>2022-11-05T14:38:12Z</time>
      </trkpt>
      <trkpt lat="45.98225" lon="4.58115">
        <ele>600.304</ele>
        <time>2022-11-05T14:38:19Z</time>
      </trkpt>
      <trkpt lat="45.98224" lon="4.58114">
        <ele>601.02</ele>
        <time>2022-11-05T14:38:20Z</time>
      </trkpt>
      <trkpt lat="45.98224" lon="4.58114">
        <ele>601.787</ele>
        <time>2022-11-05T14:38:21Z</time>
      </trkpt>
      <trkpt lat="45.98224" lon="4.58114">
        <ele>601.42</ele>
        <time>2022-11-05T14:38:22Z</time>
      </trkpt>
      <trkpt lat="45.98224" lon="4.58114">
        <ele>601.42</ele>
        <time>2022-11-05T14:38:22Z</time>
      </trkpt>
      <trkpt lat="45.98223" lon="4.58115">
        <ele>601.186</ele>
        <time>2022-11-05T14:38:23Z</time>
      </trkpt>
      <trkpt lat="45.98223" lon="4.58115">
        <ele>601.186</ele>
        <time>2022-11-05T14:38:23Z</time>
      </trkpt>
      <trkpt lat="45.98223" lon="4.58115">
        <ele>601.002</ele>
        <time>2022-11-05T14:38:24Z</time>
      </trkpt>
      <trkpt lat="45.98223" lon="4.58115">
        <ele>601.002</ele>
        <time>2022-11-05T14:38:24Z</time>
      </trkpt>
      <trkpt lat="45.98223" lon="4.58115">
        <ele>600.533</ele>
        <time>2022-11-05T14:38:25Z</time>
      </trkpt>
      <trkpt lat="45.98223" lon="4.58114">
        <ele>600.948</ele>
        <time>2022-11-05T14:38:26Z</time>
      </trkpt>
      <trkpt lat="45.98223" lon="4.58114">
        <ele>600.948</ele>
        <time>2022-11-05T14:38:26Z</time>
      </trkpt>
      <trkpt lat="45.98223" lon="4.58114">
        <ele>600.681</ele>
        <time>2022-11-05T14:38:27Z</time>
      </trkpt>
      <trkpt lat="45.98223" lon="4.58114">
        <ele>600.263</ele>
        <time>2022-11-05T15:04:16Z</time>
      </trkpt>
      <trkpt lat="45.98224" lon="4.58118">
        <ele>600.579</ele>
        <time>2022-11-05T15:04:17Z</time>
      </trkpt>
      <trkpt lat="45.98224" lon="4.58118">
        <ele>600.654</ele>
        <time>2022-11-05T15:04:18Z</time>
      </trkpt>
      <trkpt lat="45.98224" lon="4.58118">
        <ele>601.358</ele>
        <time>2022-11-05T15:04:20Z</time>
      </trkpt>
      <trkpt lat="45.98223" lon="4.58118">
        <ele>601.456</ele>
        <time>2022-11-05T15:04:21Z</time>
      </trkpt>
      <trkpt lat="45.98223" lon="4.5812">
        <ele>601.735</ele>
        <time>2022-11-05T15:04:22Z</time>
      </trkpt>
      <trkpt lat="45.98222" lon="4.58121">
        <ele>601.391</ele>
        <time>2022-11-05T15:04:24Z</time>
      </trkpt>
      <trkpt lat="45.98222" lon="4.58121">
        <ele>601.519</ele>
        <time>2022-11-05T15:04:25Z</time>
      </trkpt>
      <trkpt lat="45.98222" lon="4.58121">
        <ele>601.519</ele>
        <time>2022-11-05T15:04:25Z</time>
      </trkpt>
      <trkpt lat="45.98222" lon="4.58122">
        <ele>601.464</ele>
        <time>2022-11-05T15:04:26Z</time>
      </trkpt>
      <trkpt lat="45.98222" lon="4.58123">
        <ele>602.021</ele>
        <time>2022-11-05T15:04:28Z</time>
      </trkpt>
      <trkpt lat="45.98222" lon="4.58123">
        <ele>601.341</ele>
        <time>2022-11-05T15:13:14Z</time>
      </trkpt>
      <trkpt lat="45.98222" lon="4.58122">
        <ele>600.178</ele>
        <time>2022-11-05T15:13:15Z</time>
      </trkpt>
      <trkpt lat="45.98222" lon="4.58122">
        <ele>599.952</ele>
        <time>2022-11-05T15:13:16Z</time>
      </trkpt>
      <trkpt lat="45.98222" lon="4.58122">
        <ele>599.55</ele>
        <time>2022-11-05T15:15:19Z</time>
      </trkpt>
      <trkpt lat="45.98222" lon="4.58121">
        <ele>599.46</ele>
        <time>2022-11-05T15:15:20Z</time>
      </trkpt>
      <trkpt lat="45.98222" lon="4.58121">
        <ele>599.438</ele>
        <time>2022-11-05T15:15:21Z</time>
      </trkpt>
      <trkpt lat="45.98222" lon="4.58121">
        <ele>599.425</ele>
        <time>2022-11-05T15:15:29Z</time>
      </trkpt>
      <trkpt lat="45.98221" lon="4.5812">
        <ele>599.392</ele>
        <time>2022-11-05T15:15:30Z</time>
      </trkpt>
      <trkpt lat="45.98221" lon="4.5812">
        <ele>599.327</ele>
        <time>2022-11-05T15:15:31Z</time>
      </trkpt>
      <trkpt lat="45.98221" lon="4.5812">
        <ele>597.556</ele>
        <time>2022-11-05T15:18:34Z</time>
      </trkpt>
      <trkpt lat="45.98223" lon="4.58118">
        <ele>597.461</ele>
        <time>2022-11-05T15:18:35Z</time>
      </trkpt>
      <trkpt lat="45.98223" lon="4.58118">
        <ele>597.464</ele>
        <time>2022-11-05T15:18:36Z</time>
      </trkpt>
      <trkpt lat="45.98223" lon="4.58118">
        <ele>596.894</ele>
        <time>2022-11-05T15:19:52Z</time>
      </trkpt>
      <trkpt lat="45.98223" lon="4.58117">
        <ele>597.435</ele>
        <time>2022-11-05T15:19:53Z</time>
      </trkpt>
      <trkpt lat="45.98222" lon="4.58117">
        <ele>597.238</ele>
        <time>2022-11-05T15:19:57Z</time>
      </trkpt>
      <trkpt lat="45.98222" lon="4.58117">
        <ele>597.234</ele>
        <time>2022-11-05T15:20:55Z</time>
      </trkpt>
      <trkpt lat="45.98222" lon="4.58116">
        <ele>597.071</ele>
        <time>2022-11-05T15:20:56Z</time>
      </trkpt>
      <trkpt lat="45.98222" lon="4.58116">
        <ele>597.071</ele>
        <time>2022-11-05T15:20:56Z</time>
      </trkpt>
      <trkpt lat="45.98222" lon="4.58116">
        <ele>596.772</ele>
        <time>2022-11-05T15:20:57Z</time>
      </trkpt>
      <trkpt lat="45.98222" lon="4.58116">
        <ele>596.772</ele>
        <time>2022-11-05T15:20:57Z</time>
      </trkpt>
      <trkpt lat="45.98223" lon="4.58115">
        <ele>595.479</ele>
        <time>2022-11-05T15:20:58Z</time>
      </trkpt>
      <trkpt lat="45.98223" lon="4.58115">
        <ele>594.771</ele>
        <time>2022-11-05T15:20:59Z</time>
      </trkpt>
      <trkpt lat="45.98223" lon="4.58115">
        <ele>595.864</ele>
        <time>2022-11-05T15:21:16Z</time>
      </trkpt>
      <trkpt lat="45.98223" lon="4.58116">
        <ele>596.411</ele>
        <time>2022-11-05T15:21:17Z</time>
      </trkpt>
      <trkpt lat="45.98223" lon="4.58116">
        <ele>597.307</ele>
        <time>2022-11-05T15:21:18Z</time>
      </trkpt>
      <trkpt lat="45.98223" lon="4.58116">
        <ele>597.307</ele>
        <time>2022-11-05T15:21:18Z</time>
      </trkpt>
      <trkpt lat="45.98222" lon="4.58117">
        <ele>598.105</ele>
        <time>2022-11-05T15:21:19Z</time>
      </trkpt>
      <trkpt lat="45.98222" lon="4.58117">
        <ele>597.98</ele>
        <time>2022-11-05T15:21:20Z</time>
      </trkpt>
      <trkpt lat="45.98221" lon="4.58117">
        <ele>598.277</ele>
        <time>2022-11-05T15:21:21Z</time>
      </trkpt>
      <trkpt lat="45.98221" lon="4.58117">
        <ele>598.256</ele>
        <time>2022-11-05T15:21:22Z</time>
      </trkpt>
      <trkpt lat="45.98221" lon="4.58117">
        <ele>598.132</ele>
        <time>2022-11-05T15:21:44Z</time>
      </trkpt>
      <trkpt lat="45.98221" lon="4.58117">
        <ele>597.882</ele>
        <time>2022-11-05T15:21:45Z</time>
      </trkpt>
      <trkpt lat="45.98221" lon="4.58117">
        <ele>597.879</ele>
        <time>2022-11-05T15:21:46Z</time>
      </trkpt>
      <trkpt lat="45.98221" lon="4.58117">
        <ele>597.856</ele>
        <time>2022-11-05T15:21:58Z</time>
      </trkpt>
      <trkpt lat="45.9822" lon="4.58117">
        <ele>598.2</ele>
        <time>2022-11-05T15:21:59Z</time>
      </trkpt>
      <trkpt lat="45.9822" lon="4.58117">
        <ele>597.662</ele>
        <time>2022-11-05T15:22:01Z</time>
      </trkpt>
      <trkpt lat="45.9822" lon="4.58117">
        <ele>597.597</ele>
        <time>2022-11-05T15:22:41Z</time>
      </trkpt>
      <trkpt lat="45.9822" lon="4.58118">
        <ele>597.521</ele>
        <time>2022-11-05T15:22:42Z</time>
      </trkpt>
      <trkpt lat="45.9822" lon="4.58118">
        <ele>597.521</ele>
        <time>2022-11-05T15:22:42Z</time>
      </trkpt>
      <trkpt lat="45.9822" lon="4.58118">
        <ele>597.565</ele>
        <time>2022-11-05T15:22:43Z</time>
      </trkpt>
      <trkpt lat="45.9822" lon="4.58118">
        <ele>597.58</ele>
        <time>2022-11-05T15:22:54Z</time>
      </trkpt>
      <trkpt lat="45.9822" lon="4.58117">
        <ele>597.528</ele>
        <time>2022-11-05T15:22:55Z</time>
      </trkpt>
      <trkpt lat="45.9822" lon="4.58117">
        <ele>597.794</ele>
        <time>2022-11-05T15:22:56Z</time>
      </trkpt>
      <trkpt lat="45.9822" lon="4.58117">
        <ele>597.794</ele>
        <time>2022-11-05T15:22:56Z</time>
      </trkpt>
      <trkpt lat="45.9822" lon="4.58117">
        <ele>597.272</ele>
        <time>2022-11-05T15:22:57Z</time>
      </trkpt>
      <trkpt lat="45.9822" lon="4.58116">
        <ele>597.749</ele>
        <time>2022-11-05T15:22:59Z</time>
      </trkpt>
      <trkpt lat="45.9822" lon="4.58116">
        <ele>597.695</ele>
        <time>2022-11-05T15:23:00Z</time>
      </trkpt>
      <trkpt lat="45.9822" lon="4.58116">
        <ele>598.121</ele>
        <time>2022-11-05T15:23:06Z</time>
      </trkpt>
      <trkpt lat="45.9822" lon="4.58116">
        <ele>597.524</ele>
        <time>2022-11-05T15:23:07Z</time>
      </trkpt>
      <trkpt lat="45.98222" lon="4.58116">
        <ele>596.622</ele>
        <time>2022-11-05T15:23:09Z</time>
      </trkpt>
      <trkpt lat="45.98224" lon="4.58113">
        <ele>596.177</ele>
        <time>2022-11-05T15:23:14Z</time>
      </trkpt>
      <trkpt lat="45.98227" lon="4.5811">
        <ele>597.26</ele>
        <time>2022-11-05T15:23:18Z</time>
      </trkpt>
      <trkpt lat="45.98227" lon="4.5811">
        <ele>598.529</ele>
        <time>2022-11-05T15:23:19Z</time>
      </trkpt>
      <trkpt lat="45.98227" lon="4.58109">
        <ele>597.465</ele>
        <time>2022-11-05T15:23:21Z</time>
      </trkpt>
      <trkpt lat="45.98227" lon="4.58109">
        <ele>597.397</ele>
        <time>2022-11-05T15:23:22Z</time>
      </trkpt>
      <trkpt lat="45.98227" lon="4.58109">
        <ele>597.371</ele>
        <time>2022-11-05T15:23:30Z</time>
      </trkpt>
      <trkpt lat="45.98228" lon="4.58109">
        <ele>597.71</ele>
        <time>2022-11-05T15:23:31Z</time>
      </trkpt>
      <trkpt lat="45.98228" lon="4.58108">
        <ele>597.464</ele>
        <time>2022-11-05T15:23:34Z</time>
      </trkpt>
      <trkpt lat="45.98228" lon="4.58108">
        <ele>597.461</ele>
        <time>2022-11-05T15:23:35Z</time>
      </trkpt>
      <trkpt lat="45.98228" lon="4.58108">
        <ele>597.674</ele>
        <time>2022-11-05T15:23:41Z</time>
      </trkpt>
      <trkpt lat="45.98228" lon="4.58107">
        <ele>597.58</ele>
        <time>2022-11-05T15:23:42Z</time>
      </trkpt>
      <trkpt lat="45.98228" lon="4.58106">
        <ele>596.569</ele>
        <time>2022-11-05T15:23:44Z</time>
      </trkpt>
      <trkpt lat="45.98228" lon="4.58106">
        <ele>596.14</ele>
        <time>2022-11-05T15:24:00Z</time>
      </trkpt>
      <trkpt lat="45.98227" lon="4.58103">
        <ele>596.532</ele>
        <time>2022-11-05T15:24:01Z</time>
      </trkpt>
      <trkpt lat="45.98227" lon="4.58103">
        <ele>596.545</ele>
        <time>2022-11-05T15:24:02Z</time>
      </trkpt>
      <trkpt lat="45.98227" lon="4.58103">
        <ele>596.304</ele>
        <time>2022-11-05T15:24:03Z</time>
      </trkpt>
      <trkpt lat="45.98227" lon="4.58103">
        <ele>596.182</ele>
        <time>2022-11-05T15:24:08Z</time>
      </trkpt>
      <trkpt lat="45.98227" lon="4.58101">
        <ele>595.065</ele>
        <time>2022-11-05T15:24:09Z</time>
      </trkpt>
      <trkpt lat="45.98224" lon="4.581">
        <ele>596.203</ele>
        <time>2022-11-05T15:24:14Z</time>
      </trkpt>
      <trkpt lat="45.98225" lon="4.58101">
        <ele>595.825</ele>
        <time>2022-11-05T15:24:17Z</time>
      </trkpt>
      <trkpt lat="45.98225" lon="4.58101">
        <ele>595.788</ele>
        <time>2022-11-05T15:24:18Z</time>
      </trkpt>
      <trkpt lat="45.98225" lon="4.58101">
        <ele>595.791</ele>
        <time>2022-11-05T15:24:44Z</time>
      </trkpt>
      <trkpt lat="45.98225" lon="4.58101">
        <ele>595.972</ele>
        <time>2022-11-05T15:24:45Z</time>
      </trkpt>
      <trkpt lat="45.98223" lon="4.581">
        <ele>595.471</ele>
        <time>2022-11-05T15:24:49Z</time>
      </trkpt>
      <trkpt lat="45.9822" lon="4.581">
        <ele>595.794</ele>
        <time>2022-11-05T15:24:53Z</time>
      </trkpt>
      <trkpt lat="45.98216" lon="4.581">
        <ele>598.264</ele>
        <time>2022-11-05T15:24:58Z</time>
      </trkpt>
      <trkpt lat="45.98214" lon="4.58099">
        <ele>597.807</ele>
        <time>2022-11-05T15:25:01Z</time>
      </trkpt>
      <trkpt lat="45.98211" lon="4.581">
        <ele>596.045</ele>
        <time>2022-11-05T15:25:05Z</time>
      </trkpt>
      <trkpt lat="45.98197" lon="4.58107">
        <ele>594.03</ele>
        <time>2022-11-05T15:25:21Z</time>
      </trkpt>
      <trkpt lat="45.98193" lon="4.58108">
        <ele>591.834</ele>
        <time>2022-11-05T15:25:26Z</time>
      </trkpt>
      <trkpt lat="45.98184" lon="4.58109">
        <ele>589.659</ele>
        <time>2022-11-05T15:25:36Z</time>
      </trkpt>
      <trkpt lat="45.98177" lon="4.5811">
        <ele>587.639</ele>
        <time>2022-11-05T15:25:42Z</time>
      </trkpt>
      <trkpt lat="45.98175" lon="4.58111">
        <ele>587.405</ele>
        <time>2022-11-05T15:25:45Z</time>
      </trkpt>
      <trkpt lat="45.9817" lon="4.58112">
        <ele>586.288</ele>
        <time>2022-11-05T15:25:50Z</time>
      </trkpt>
      <trkpt lat="45.98168" lon="4.58113">
        <ele>585.68</ele>
        <time>2022-11-05T15:25:53Z</time>
      </trkpt>
      <trkpt lat="45.98158" lon="4.58117">
        <ele>583.386</ele>
        <time>2022-11-05T15:26:04Z</time>
      </trkpt>
      <trkpt lat="45.9815" lon="4.5812">
        <ele>581.27</ele>
        <time>2022-11-05T15:26:12Z</time>
      </trkpt>
      <trkpt lat="45.98136" lon="4.58125">
        <ele>582.383</ele>
        <time>2022-11-05T15:26:33Z</time>
      </trkpt>
      <trkpt lat="45.98136" lon="4.58125">
        <ele>582.383</ele>
        <time>2022-11-05T15:26:33Z</time>
      </trkpt>
      <trkpt lat="45.98136" lon="4.58125">
        <ele>582.462</ele>
        <time>2022-11-05T15:26:34Z</time>
      </trkpt>
      <trkpt lat="45.98136" lon="4.58125">
        <ele>582.732</ele>
        <time>2022-11-05T15:26:35Z</time>
      </trkpt>
      <trkpt lat="45.98136" lon="4.58125">
        <ele>582.611</ele>
        <time>2022-11-05T15:26:38Z</time>
      </trkpt>
      <trkpt lat="45.98136" lon="4.58125">
        <ele>582.44</ele>
        <time>2022-11-05T15:26:39Z</time>
      </trkpt>
      <trkpt lat="45.98136" lon="4.58122">
        <ele>582.487</ele>
        <time>2022-11-05T15:26:43Z</time>
      </trkpt>
      <trkpt lat="45.98136" lon="4.5812">
        <ele>582.387</ele>
        <time>2022-11-05T15:26:46Z</time>
      </trkpt>
      <trkpt lat="45.98136" lon="4.5812">
        <ele>582.387</ele>
        <time>2022-11-05T15:26:46Z</time>
      </trkpt>
      <trkpt lat="45.98136" lon="4.5812">
        <ele>582.485</ele>
        <time>2022-11-05T15:26:47Z</time>
      </trkpt>
      <trkpt lat="45.98136" lon="4.5812">
        <ele>582.485</ele>
        <time>2022-11-05T15:26:47Z</time>
      </trkpt>
      <trkpt lat="45.98136" lon="4.5812">
        <ele>582.331</ele>
        <time>2022-11-05T15:26:48Z</time>
      </trkpt>
      <trkpt lat="45.98136" lon="4.5812">
        <ele>582.331</ele>
        <time>2022-11-05T15:26:48Z</time>
      </trkpt>
      <trkpt lat="45.98136" lon="4.5812">
        <ele>582.511</ele>
        <time>2022-11-05T15:26:49Z</time>
      </trkpt>
      <trkpt lat="45.98136" lon="4.5812">
        <ele>582.515</ele>
        <time>2022-11-05T15:26:52Z</time>
      </trkpt>
      <trkpt lat="45.98136" lon="4.58119">
        <ele>582.726</ele>
        <time>2022-11-05T15:26:53Z</time>
      </trkpt>
      <trkpt lat="45.98136" lon="4.58119">
        <ele>582.737</ele>
        <time>2022-11-05T15:26:54Z</time>
      </trkpt>
      <trkpt lat="45.98136" lon="4.58119">
        <ele>582.686</ele>
        <time>2022-11-05T15:27:48Z</time>
      </trkpt>
      <trkpt lat="45.98135" lon="4.58119">
        <ele>582.74</ele>
        <time>2022-11-05T15:27:49Z</time>
      </trkpt>
      <trkpt lat="45.98136" lon="4.58119">
        <ele>583.43</ele>
        <time>2022-11-05T15:27:51Z</time>
      </trkpt>
      <trkpt lat="45.98136" lon="4.58119">
        <ele>583.386</ele>
        <time>2022-11-05T15:28:11Z</time>
      </trkpt>
      <trkpt lat="45.98134" lon="4.58119">
        <ele>584.339</ele>
        <time>2022-11-05T15:28:12Z</time>
      </trkpt>
      <trkpt lat="45.98134" lon="4.58119">
        <ele>584.298</ele>
        <time>2022-11-05T15:28:13Z</time>
      </trkpt>
      <trkpt lat="45.98134" lon="4.58119">
        <ele>584.298</ele>
        <time>2022-11-05T15:28:13Z</time>
      </trkpt>
      <trkpt lat="45.98133" lon="4.58119">
        <ele>583.025</ele>
        <time>2022-11-05T15:28:14Z</time>
      </trkpt>
      <trkpt lat="45.98132" lon="4.58122">
        <ele>580.603</ele>
        <time>2022-11-05T15:28:17Z</time>
      </trkpt>
      <trkpt lat="45.98131" lon="4.58123">
        <ele>580.007</ele>
        <time>2022-11-05T15:28:18Z</time>
      </trkpt>
      <trkpt lat="45.98129" lon="4.58127">
        <ele>578.812</ele>
        <time>2022-11-05T15:28:21Z</time>
      </trkpt>
      <trkpt lat="45.98114" lon="4.5814">
        <ele>579.449</ele>
        <time>2022-11-05T15:28:33Z</time>
      </trkpt>
      <trkpt lat="45.981" lon="4.58147">
        <ele>577.392</ele>
        <time>2022-11-05T15:28:44Z</time>
      </trkpt>
      <trkpt lat="45.98078" lon="4.58162">
        <ele>575.24</ele>
        <time>2022-11-05T15:29:01Z</time>
      </trkpt>
      <trkpt lat="45.98062" lon="4.58175">
        <ele>572.939</ele>
        <time>2022-11-05T15:29:13Z</time>
      </trkpt>
      <trkpt lat="45.98049" lon="4.58189">
        <ele>571.792</ele>
        <time>2022-11-05T15:29:23Z</time>
      </trkpt>
      <trkpt lat="45.98047" lon="4.58192">
        <ele>572.017</ele>
        <time>2022-11-05T15:29:25Z</time>
      </trkpt>
      <trkpt lat="45.98032" lon="4.58202">
        <ele>570.335</ele>
        <time>2022-11-05T15:29:37Z</time>
      </trkpt>
      <trkpt lat="45.98023" lon="4.58205">
        <ele>569.892</ele>
        <time>2022-11-05T15:29:44Z</time>
      </trkpt>
      <trkpt lat="45.98017" lon="4.58206">
        <ele>569.579</ele>
        <time>2022-11-05T15:29:47Z</time>
      </trkpt>
      <trkpt lat="45.98016" lon="4.58207">
        <ele>569.159</ele>
        <time>2022-11-05T15:29:48Z</time>
      </trkpt>
      <trkpt lat="45.98015" lon="4.58211">
        <ele>569.468</ele>
        <time>2022-11-05T15:29:50Z</time>
      </trkpt>
      <trkpt lat="45.98016" lon="4.58216">
        <ele>569.257</ele>
        <time>2022-11-05T15:29:52Z</time>
      </trkpt>
      <trkpt lat="45.9802" lon="4.5822">
        <ele>569.18</ele>
        <time>2022-11-05T15:29:54Z</time>
      </trkpt>
      <trkpt lat="45.98025" lon="4.58222">
        <ele>569.677</ele>
        <time>2022-11-05T15:29:56Z</time>
      </trkpt>
      <trkpt lat="45.98035" lon="4.58222">
        <ele>569.297</ele>
        <time>2022-11-05T15:30:01Z</time>
      </trkpt>
      <trkpt lat="45.98037" lon="4.58225">
        <ele>569.105</ele>
        <time>2022-11-05T15:30:03Z</time>
      </trkpt>
      <trkpt lat="45.98036" lon="4.58229">
        <ele>568.801</ele>
        <time>2022-11-05T15:30:04Z</time>
      </trkpt>
      <trkpt lat="45.98033" lon="4.58236">
        <ele>569.248</ele>
        <time>2022-11-05T15:30:06Z</time>
      </trkpt>
      <trkpt lat="45.98025" lon="4.58242">
        <ele>568.818</ele>
        <time>2022-11-05T15:30:10Z</time>
      </trkpt>
      <trkpt lat="45.98021" lon="4.58243">
        <ele>567.756</ele>
        <time>2022-11-05T15:30:13Z</time>
      </trkpt>
      <trkpt lat="45.98006" lon="4.58242">
        <ele>565.583</ele>
        <time>2022-11-05T15:30:25Z</time>
      </trkpt>
      <trkpt lat="45.97982" lon="4.58242">
        <ele>567.798</ele>
        <time>2022-11-05T15:30:44Z</time>
      </trkpt>
      <trkpt lat="45.97978" lon="4.58242">
        <ele>566.402</ele>
        <time>2022-11-05T15:30:47Z</time>
      </trkpt>
      <trkpt lat="45.97965" lon="4.58245">
        <ele>565.378</ele>
        <time>2022-11-05T15:30:59Z</time>
      </trkpt>
      <trkpt lat="45.97954" lon="4.58243">
        <ele>567.392</ele>
        <time>2022-11-05T15:31:10Z</time>
      </trkpt>
      <trkpt lat="45.97928" lon="4.58246">
        <ele>566.189</ele>
        <time>2022-11-05T15:31:33Z</time>
      </trkpt>
      <trkpt lat="45.97923" lon="4.58249">
        <ele>564.094</ele>
        <time>2022-11-05T15:31:38Z</time>
      </trkpt>
      <trkpt lat="45.9791" lon="4.58256">
        <ele>561.739</ele>
        <time>2022-11-05T15:31:51Z</time>
      </trkpt>
      <trkpt lat="45.97905" lon="4.5826">
        <ele>559.696</ele>
        <time>2022-11-05T15:31:56Z</time>
      </trkpt>
      <trkpt lat="45.97894" lon="4.58267">
        <ele>557.536</ele>
        <time>2022-11-05T15:32:06Z</time>
      </trkpt>
      <trkpt lat="45.97874" lon="4.58282">
        <ele>555.378</ele>
        <time>2022-11-05T15:32:26Z</time>
      </trkpt>
      <trkpt lat="45.97859" lon="4.58295">
        <ele>553.081</ele>
        <time>2022-11-05T15:32:42Z</time>
      </trkpt>
      <trkpt lat="45.97833" lon="4.58324">
        <ele>550.966</ele>
        <time>2022-11-05T15:33:09Z</time>
      </trkpt>
      <trkpt lat="45.97823" lon="4.58332">
        <ele>552.36</ele>
        <time>2022-11-05T15:33:19Z</time>
      </trkpt>
      <trkpt lat="45.97822" lon="4.58332">
        <ele>553.022</ele>
        <time>2022-11-05T15:33:21Z</time>
      </trkpt>
      <trkpt lat="45.97822" lon="4.58333">
        <ele>552.929</ele>
        <time>2022-11-05T15:33:22Z</time>
      </trkpt>
      <trkpt lat="45.97821" lon="4.58333">
        <ele>553.467</ele>
        <time>2022-11-05T15:33:24Z</time>
      </trkpt>
      <trkpt lat="45.97821" lon="4.58333">
        <ele>553.031</ele>
        <time>2022-11-05T15:33:40Z</time>
      </trkpt>
      <trkpt lat="45.97821" lon="4.58333">
        <ele>552.978</ele>
        <time>2022-11-05T15:33:41Z</time>
      </trkpt>
      <trkpt lat="45.9782" lon="4.58332">
        <ele>552.864</ele>
        <time>2022-11-05T15:33:42Z</time>
      </trkpt>
      <trkpt lat="45.9782" lon="4.58329">
        <ele>555.191</ele>
        <time>2022-11-05T15:33:47Z</time>
      </trkpt>
      <trkpt lat="45.9782" lon="4.58329">
        <ele>553.485</ele>
        <time>2022-11-05T15:35:41Z</time>
      </trkpt>
      <trkpt lat="45.97819" lon="4.5833">
        <ele>553.46</ele>
        <time>2022-11-05T15:35:42Z</time>
      </trkpt>
      <trkpt lat="45.97819" lon="4.58335">
        <ele>550.921</ele>
        <time>2022-11-05T15:35:46Z</time>
      </trkpt>
      <trkpt lat="45.97819" lon="4.58336">
        <ele>550.403</ele>
        <time>2022-11-05T15:35:47Z</time>
      </trkpt>
      <trkpt lat="45.97819" lon="4.58337">
        <ele>549.935</ele>
        <time>2022-11-05T15:35:48Z</time>
      </trkpt>
      <trkpt lat="45.97817" lon="4.58338">
        <ele>549.166</ele>
        <time>2022-11-05T15:35:51Z</time>
      </trkpt>
      <trkpt lat="45.97812" lon="4.58338">
        <ele>550.04</ele>
        <time>2022-11-05T15:35:56Z</time>
      </trkpt>
      <trkpt lat="45.97808" lon="4.5834">
        <ele>550.905</ele>
        <time>2022-11-05T15:36:00Z</time>
      </trkpt>
      <trkpt lat="45.97806" lon="4.58341">
        <ele>552.123</ele>
        <time>2022-11-05T15:36:04Z</time>
      </trkpt>
      <trkpt lat="45.978" lon="4.5834">
        <ele>552.574</ele>
        <time>2022-11-05T15:36:11Z</time>
      </trkpt>
      <trkpt lat="45.97789" lon="4.58338">
        <ele>553.34</ele>
        <time>2022-11-05T15:36:23Z</time>
      </trkpt>
      <trkpt lat="45.97789" lon="4.58338">
        <ele>553.34</ele>
        <time>2022-11-05T15:36:23Z</time>
      </trkpt>
      <trkpt lat="45.97789" lon="4.58338">
        <ele>553.478</ele>
        <time>2022-11-05T15:36:24Z</time>
      </trkpt>
      <trkpt lat="45.97789" lon="4.58338">
        <ele>554.41</ele>
        <time>2022-11-05T15:36:35Z</time>
      </trkpt>
      <trkpt lat="45.97788" lon="4.58338">
        <ele>554.519</ele>
        <time>2022-11-05T15:36:36Z</time>
      </trkpt>
      <trkpt lat="45.97788" lon="4.58338">
        <ele>554.519</ele>
        <time>2022-11-05T15:36:36Z</time>
      </trkpt>
      <trkpt lat="45.97787" lon="4.58338">
        <ele>553.918</ele>
        <time>2022-11-05T15:36:37Z</time>
      </trkpt>
      <trkpt lat="45.97772" lon="4.58335">
        <ele>554.234</ele>
        <time>2022-11-05T15:36:56Z</time>
      </trkpt>
      <trkpt lat="45.97772" lon="4.58335">
        <ele>554.527</ele>
        <time>2022-11-05T15:36:57Z</time>
      </trkpt>
      <trkpt lat="45.97769" lon="4.58336">
        <ele>554.554</ele>
        <time>2022-11-05T15:37:01Z</time>
      </trkpt>
      <trkpt lat="45.97768" lon="4.58336">
        <ele>554.448</ele>
        <time>2022-11-05T15:37:02Z</time>
      </trkpt>
      <trkpt lat="45.97768" lon="4.58336">
        <ele>554.538</ele>
        <time>2022-11-05T15:37:04Z</time>
      </trkpt>
      <trkpt lat="45.97768" lon="4.58336">
        <ele>554.387</ele>
        <time>2022-11-05T15:37:06Z</time>
      </trkpt>
      <trkpt lat="45.97767" lon="4.58336">
        <ele>554.623</ele>
        <time>2022-11-05T15:37:07Z</time>
      </trkpt>
      <trkpt lat="45.97758" lon="4.58338">
        <ele>554.765</ele>
        <time>2022-11-05T15:37:19Z</time>
      </trkpt>
      <trkpt lat="45.97758" lon="4.58338">
        <ele>554.786</ele>
        <time>2022-11-05T15:37:20Z</time>
      </trkpt>
      <trkpt lat="45.97758" lon="4.58338">
        <ele>554.786</ele>
        <time>2022-11-05T15:37:20Z</time>
      </trkpt>
      <trkpt lat="45.97757" lon="4.58338">
        <ele>554.76</ele>
        <time>2022-11-05T15:37:21Z</time>
      </trkpt>
      <trkpt lat="45.97757" lon="4.58339">
        <ele>554.4</ele>
        <time>2022-11-05T15:37:22Z</time>
      </trkpt>
      <trkpt lat="45.97743" lon="4.5835">
        <ele>554.129</ele>
        <time>2022-11-05T15:37:37Z</time>
      </trkpt>
      <trkpt lat="45.97732" lon="4.58363">
        <ele>556.152</ele>
        <time>2022-11-05T15:37:49Z</time>
      </trkpt>
      <trkpt lat="45.9773" lon="4.58366">
        <ele>556.819</ele>
        <time>2022-11-05T15:37:53Z</time>
      </trkpt>
      <trkpt lat="45.9773" lon="4.58366">
        <ele>556.645</ele>
        <time>2022-11-05T15:37:54Z</time>
      </trkpt>
      <trkpt lat="45.9773" lon="4.58366">
        <ele>556.645</ele>
        <time>2022-11-05T15:37:54Z</time>
      </trkpt>
      <trkpt lat="45.9773" lon="4.58367">
        <ele>556.397</ele>
        <time>2022-11-05T15:37:55Z</time>
      </trkpt>
      <trkpt lat="45.9773" lon="4.58367">
        <ele>556.074</ele>
        <time>2022-11-05T15:37:56Z</time>
      </trkpt>
      <trkpt lat="45.9773" lon="4.58367">
        <ele>554.89</ele>
        <time>2022-11-05T15:38:07Z</time>
      </trkpt>
      <trkpt lat="45.9773" lon="4.58366">
        <ele>554.858</ele>
        <time>2022-11-05T15:38:08Z</time>
      </trkpt>
      <trkpt lat="45.97728" lon="4.58368">
        <ele>555.049</ele>
        <time>2022-11-05T15:38:11Z</time>
      </trkpt>
      <trkpt lat="45.97727" lon="4.5837">
        <ele>555.374</ele>
        <time>2022-11-05T15:38:13Z</time>
      </trkpt>
      <trkpt lat="45.97723" lon="4.58376">
        <ele>554.813</ele>
        <time>2022-11-05T15:38:19Z</time>
      </trkpt>
      <trkpt lat="45.97708" lon="4.5839">
        <ele>556.846</ele>
        <time>2022-11-05T15:38:38Z</time>
      </trkpt>
      <trkpt lat="45.97696" lon="4.58396">
        <ele>558.538</ele>
        <time>2022-11-05T15:38:50Z</time>
      </trkpt>
      <trkpt lat="45.97678" lon="4.58396">
        <ele>561.039</ele>
        <time>2022-11-05T15:39:08Z</time>
      </trkpt>
      <trkpt lat="45.97675" lon="4.58396">
        <ele>561.899</ele>
        <time>2022-11-05T15:39:12Z</time>
      </trkpt>
      <trkpt lat="45.97674" lon="4.58397">
        <ele>562.276</ele>
        <time>2022-11-05T15:39:14Z</time>
      </trkpt>
      <trkpt lat="45.97673" lon="4.58397">
        <ele>562.323</ele>
        <time>2022-11-05T15:39:15Z</time>
      </trkpt>
      <trkpt lat="45.97668" lon="4.58396">
        <ele>562.111</ele>
        <time>2022-11-05T15:39:19Z</time>
      </trkpt>
      <trkpt lat="45.97634" lon="4.58399">
        <ele>564.125</ele>
        <time>2022-11-05T15:39:51Z</time>
      </trkpt>
      <trkpt lat="45.97605" lon="4.58401">
        <ele>566.508</ele>
        <time>2022-11-05T15:40:17Z</time>
      </trkpt>
      <trkpt lat="45.97583" lon="4.58401">
        <ele>566.982</ele>
        <time>2022-11-05T15:40:37Z</time>
      </trkpt>
      <trkpt lat="45.97563" lon="4.58402">
        <ele>567.44</ele>
        <time>2022-11-05T15:40:55Z</time>
      </trkpt>
      <trkpt lat="45.97531" lon="4.58403">
        <ele>569.623</ele>
        <time>2022-11-05T15:41:24Z</time>
      </trkpt>
      <trkpt lat="45.97507" lon="4.58397">
        <ele>571.815</ele>
        <time>2022-11-05T15:41:46Z</time>
      </trkpt>
      <trkpt lat="45.97497" lon="4.58394">
        <ele>573.892</ele>
        <time>2022-11-05T15:41:56Z</time>
      </trkpt>
      <trkpt lat="45.97483" lon="4.58391">
        <ele>575.513</ele>
        <time>2022-11-05T15:42:10Z</time>
      </trkpt>
      <trkpt lat="45.97473" lon="4.58387">
        <ele>575.846</ele>
        <time>2022-11-05T15:42:20Z</time>
      </trkpt>
      <trkpt lat="45.97455" lon="4.58384">
        <ele>576.203</ele>
        <time>2022-11-05T15:42:36Z</time>
      </trkpt>
      <trkpt lat="45.97451" lon="4.58383">
        <ele>577.48</ele>
        <time>2022-11-05T15:42:40Z</time>
      </trkpt>
      <trkpt lat="45.9744" lon="4.5838">
        <ele>579.64</ele>
        <time>2022-11-05T15:42:50Z</time>
      </trkpt>
      <trkpt lat="45.97422" lon="4.58373">
        <ele>581.733</ele>
        <time>2022-11-05T15:43:07Z</time>
      </trkpt>
      <trkpt lat="45.97406" lon="4.58366">
        <ele>583.785</ele>
        <time>2022-11-05T15:43:23Z</time>
      </trkpt>
      <trkpt lat="45.97396" lon="4.58364">
        <ele>582.678</ele>
        <time>2022-11-05T15:43:34Z</time>
      </trkpt>
      <trkpt lat="45.97382" lon="4.58361">
        <ele>584.685</ele>
        <time>2022-11-05T15:43:49Z</time>
      </trkpt>
      <trkpt lat="45.9738" lon="4.58361">
        <ele>585.272</ele>
        <time>2022-11-05T15:43:51Z</time>
      </trkpt>
      <trkpt lat="45.97379" lon="4.58362">
        <ele>585.689</ele>
        <time>2022-11-05T15:43:52Z</time>
      </trkpt>
      <trkpt lat="45.97361" lon="4.58361">
        <ele>585.987</ele>
        <time>2022-11-05T15:44:09Z</time>
      </trkpt>
      <trkpt lat="45.9736" lon="4.58361">
        <ele>586.257</ele>
        <time>2022-11-05T15:44:11Z</time>
      </trkpt>
      <trkpt lat="45.97348" lon="4.58365">
        <ele>586.481</ele>
        <time>2022-11-05T15:44:25Z</time>
      </trkpt>
      <trkpt lat="45.97328" lon="4.58383">
        <ele>587.897</ele>
        <time>2022-11-05T15:44:46Z</time>
      </trkpt>
      <trkpt lat="45.97322" lon="4.58385">
        <ele>587.65</ele>
        <time>2022-11-05T15:44:52Z</time>
      </trkpt>
      <trkpt lat="45.97319" lon="4.58386">
        <ele>588.834</ele>
        <time>2022-11-05T15:44:55Z</time>
      </trkpt>
      <trkpt lat="45.97306" lon="4.58391">
        <ele>590.323</ele>
        <time>2022-11-05T15:45:06Z</time>
      </trkpt>
      <trkpt lat="45.97304" lon="4.58392">
        <ele>591.178</ele>
        <time>2022-11-05T15:45:09Z</time>
      </trkpt>
      <trkpt lat="45.97301" lon="4.58394">
        <ele>591.026</ele>
        <time>2022-11-05T15:45:13Z</time>
      </trkpt>
      <trkpt lat="45.97277" lon="4.58401">
        <ele>592.255</ele>
        <time>2022-11-05T15:45:35Z</time>
      </trkpt>
      <trkpt lat="45.97271" lon="4.58402">
        <ele>593.26</ele>
        <time>2022-11-05T15:45:42Z</time>
      </trkpt>
      <trkpt lat="45.97243" lon="4.58408">
        <ele>595.457</ele>
        <time>2022-11-05T15:46:10Z</time>
      </trkpt>
      <trkpt lat="45.97229" lon="4.58412">
        <ele>597.533</ele>
        <time>2022-11-05T15:46:25Z</time>
      </trkpt>
      <trkpt lat="45.97154" lon="4.5844">
        <ele>599</ele>
        <time>2022-11-05T15:47:36Z</time>
      </trkpt>
      <trkpt lat="45.9715" lon="4.58442">
        <ele>599.247</ele>
        <time>2022-11-05T15:47:42Z</time>
      </trkpt>
      <trkpt lat="45.97138" lon="4.58451">
        <ele>598.684</ele>
        <time>2022-11-05T15:47:55Z</time>
      </trkpt>
      <trkpt lat="45.97131" lon="4.5846">
        <ele>598.946</ele>
        <time>2022-11-05T15:48:04Z</time>
      </trkpt>
      <trkpt lat="45.97129" lon="4.58463">
        <ele>598.82</ele>
        <time>2022-11-05T15:48:07Z</time>
      </trkpt>
      <trkpt lat="45.97121" lon="4.58469">
        <ele>599.264</ele>
        <time>2022-11-05T15:48:15Z</time>
      </trkpt>
      <trkpt lat="45.97117" lon="4.58471">
        <ele>599.272</ele>
        <time>2022-11-05T15:48:18Z</time>
      </trkpt>
      <trkpt lat="45.97094" lon="4.58493">
        <ele>599.736</ele>
        <time>2022-11-05T15:48:44Z</time>
      </trkpt>
      <trkpt lat="45.97086" lon="4.58497">
        <ele>599.476</ele>
        <time>2022-11-05T15:48:52Z</time>
      </trkpt>
      <trkpt lat="45.97083" lon="4.58498">
        <ele>599.724</ele>
        <time>2022-11-05T15:48:55Z</time>
      </trkpt>
      <trkpt lat="45.97074" lon="4.58506">
        <ele>599.652</ele>
        <time>2022-11-05T15:49:05Z</time>
      </trkpt>
      <trkpt lat="45.97073" lon="4.58506">
        <ele>599.826</ele>
        <time>2022-11-05T15:49:06Z</time>
      </trkpt>
      <trkpt lat="45.97069" lon="4.58508">
        <ele>599.983</ele>
        <time>2022-11-05T15:49:09Z</time>
      </trkpt>
      <trkpt lat="45.97066" lon="4.58512">
        <ele>599.388</ele>
        <time>2022-11-05T15:49:14Z</time>
      </trkpt>
      <trkpt lat="45.97066" lon="4.58518">
        <ele>598.355</ele>
        <time>2022-11-05T15:49:18Z</time>
      </trkpt>
      <trkpt lat="45.97059" lon="4.58534">
        <ele>596.26</ele>
        <time>2022-11-05T15:49:32Z</time>
      </trkpt>
      <trkpt lat="45.97045" lon="4.58572">
        <ele>593.884</ele>
        <time>2022-11-05T15:50:01Z</time>
      </trkpt>
      <trkpt lat="45.97042" lon="4.58576">
        <ele>593.041</ele>
        <time>2022-11-05T15:50:05Z</time>
      </trkpt>
      <trkpt lat="45.9704" lon="4.58579">
        <ele>593.611</ele>
        <time>2022-11-05T15:50:08Z</time>
      </trkpt>
      <trkpt lat="45.97036" lon="4.58585">
        <ele>593.918</ele>
        <time>2022-11-05T15:50:13Z</time>
      </trkpt>
      <trkpt lat="45.97025" lon="4.58596">
        <ele>594.452</ele>
        <time>2022-11-05T15:50:23Z</time>
      </trkpt>
      <trkpt lat="45.97023" lon="4.58598">
        <ele>593.75</ele>
        <time>2022-11-05T15:50:25Z</time>
      </trkpt>
      <trkpt lat="45.97015" lon="4.58606">
        <ele>592.912</ele>
        <time>2022-11-05T15:50:34Z</time>
      </trkpt>
      <trkpt lat="45.97015" lon="4.58607">
        <ele>593.275</ele>
        <time>2022-11-05T15:50:35Z</time>
      </trkpt>
      <trkpt lat="45.97012" lon="4.5861">
        <ele>593.633</ele>
        <time>2022-11-05T15:50:38Z</time>
      </trkpt>
      <trkpt lat="45.97" lon="4.58624">
        <ele>591.977</ele>
        <time>2022-11-05T15:50:52Z</time>
      </trkpt>
      <trkpt lat="45.97" lon="4.58624">
        <ele>592.144</ele>
        <time>2022-11-05T15:50:53Z</time>
      </trkpt>
      <trkpt lat="45.97" lon="4.58624">
        <ele>592.144</ele>
        <time>2022-11-05T15:50:53Z</time>
      </trkpt>
      <trkpt lat="45.97" lon="4.58624">
        <ele>592.296</ele>
        <time>2022-11-05T15:50:54Z</time>
      </trkpt>
      <trkpt lat="45.96998" lon="4.58626">
        <ele>591.705</ele>
        <time>2022-11-05T15:50:58Z</time>
      </trkpt>
      <trkpt lat="45.96986" lon="4.5864">
        <ele>592.691</ele>
        <time>2022-11-05T15:51:10Z</time>
      </trkpt>
      <trkpt lat="45.96983" lon="4.58643">
        <ele>591.16</ele>
        <time>2022-11-05T15:51:14Z</time>
      </trkpt>
      <trkpt lat="45.96963" lon="4.58667">
        <ele>590.746</ele>
        <time>2022-11-05T15:51:40Z</time>
      </trkpt>
      <trkpt lat="45.96962" lon="4.5867">
        <ele>591.597</ele>
        <time>2022-11-05T15:51:43Z</time>
      </trkpt>
      <trkpt lat="45.96962" lon="4.5867">
        <ele>591.344</ele>
        <time>2022-11-05T15:51:44Z</time>
      </trkpt>
      <trkpt lat="45.96962" lon="4.5867">
        <ele>590.815</ele>
        <time>2022-11-05T15:51:49Z</time>
      </trkpt>
      <trkpt lat="45.96962" lon="4.58672">
        <ele>590.813</ele>
        <time>2022-11-05T15:51:50Z</time>
      </trkpt>
      <trkpt lat="45.96962" lon="4.58674">
        <ele>591.038</ele>
        <time>2022-11-05T15:51:52Z</time>
      </trkpt>
      <trkpt lat="45.96962" lon="4.58674">
        <ele>591.205</ele>
        <time>2022-11-05T15:51:55Z</time>
      </trkpt>
      <trkpt lat="45.96962" lon="4.58674">
        <ele>591.2</ele>
        <time>2022-11-05T15:51:56Z</time>
      </trkpt>
      <trkpt lat="45.96962" lon="4.58674">
        <ele>590.598</ele>
        <time>2022-11-05T15:51:58Z</time>
      </trkpt>
      <trkpt lat="45.96962" lon="4.58677">
        <ele>590.95</ele>
        <time>2022-11-05T15:51:59Z</time>
      </trkpt>
      <trkpt lat="45.96962" lon="4.58677">
        <ele>590.839</ele>
        <time>2022-11-05T15:52:00Z</time>
      </trkpt>
      <trkpt lat="45.96962" lon="4.58677">
        <ele>590.839</ele>
        <time>2022-11-05T15:52:00Z</time>
      </trkpt>
      <trkpt lat="45.96961" lon="4.5868">
        <ele>590.132</ele>
        <time>2022-11-05T15:52:01Z</time>
      </trkpt>
      <trkpt lat="45.96961" lon="4.58682">
        <ele>590.235</ele>
        <time>2022-11-05T15:52:02Z</time>
      </trkpt>
      <trkpt lat="45.9696" lon="4.58682">
        <ele>590.13</ele>
        <time>2022-11-05T15:52:05Z</time>
      </trkpt>
      <trkpt lat="45.9696" lon="4.58682">
        <ele>590.13</ele>
        <time>2022-11-05T15:52:05Z</time>
      </trkpt>
      <trkpt lat="45.96959" lon="4.58683">
        <ele>590</ele>
        <time>2022-11-05T15:52:06Z</time>
      </trkpt>
      <trkpt lat="45.96961" lon="4.58681">
        <ele>589.601</ele>
        <time>2022-11-05T15:52:09Z</time>
      </trkpt>
      <trkpt lat="45.96961" lon="4.5868">
        <ele>589.632</ele>
        <time>2022-11-05T15:52:10Z</time>
      </trkpt>
      <trkpt lat="45.96961" lon="4.58678">
        <ele>589.905</ele>
        <time>2022-11-05T15:52:12Z</time>
      </trkpt>
      <trkpt lat="45.96961" lon="4.58678">
        <ele>589.905</ele>
        <time>2022-11-05T15:52:12Z</time>
      </trkpt>
      <trkpt lat="45.96962" lon="4.58676">
        <ele>590.311</ele>
        <time>2022-11-05T15:52:13Z</time>
      </trkpt>
      <trkpt lat="45.96961" lon="4.58676">
        <ele>590.937</ele>
        <time>2022-11-05T15:52:15Z</time>
      </trkpt>
      <trkpt lat="45.96961" lon="4.58676">
        <ele>591.215</ele>
        <time>2022-11-05T15:52:16Z</time>
      </trkpt>
      <trkpt lat="45.96962" lon="4.58676">
        <ele>591.303</ele>
        <time>2022-11-05T15:52:20Z</time>
      </trkpt>
      <trkpt lat="45.96964" lon="4.58672">
        <ele>588.05</ele>
        <time>2022-11-05T15:52:23Z</time>
      </trkpt>
      <trkpt lat="45.96964" lon="4.58672">
        <ele>588.006</ele>
        <time>2022-11-05T15:52:24Z</time>
      </trkpt>
      <trkpt lat="45.96964" lon="4.58672">
        <ele>588.006</ele>
        <time>2022-11-05T15:52:24Z</time>
      </trkpt>
      <trkpt lat="45.96965" lon="4.58673">
        <ele>588.131</ele>
        <time>2022-11-05T15:52:25Z</time>
      </trkpt>
      <trkpt lat="45.96967" lon="4.58677">
        <ele>587.605</ele>
        <time>2022-11-05T15:52:26Z</time>
      </trkpt>
      <trkpt lat="45.9697" lon="4.58684">
        <ele>588.412</ele>
        <time>2022-11-05T15:52:29Z</time>
      </trkpt>
      <trkpt lat="45.9697" lon="4.58685">
        <ele>589.505</ele>
        <time>2022-11-05T15:52:30Z</time>
      </trkpt>
      <trkpt lat="45.9697" lon="4.58688">
        <ele>589.747</ele>
        <time>2022-11-05T15:52:32Z</time>
      </trkpt>
      <trkpt lat="45.9697" lon="4.58693">
        <ele>590.05</ele>
        <time>2022-11-05T15:52:36Z</time>
      </trkpt>
      <trkpt lat="45.9697" lon="4.58693">
        <ele>590.05</ele>
        <time>2022-11-05T15:52:36Z</time>
      </trkpt>
      <trkpt lat="45.96969" lon="4.58694">
        <ele>589.609</ele>
        <time>2022-11-05T15:52:37Z</time>
      </trkpt>
      <trkpt lat="45.96968" lon="4.58693">
        <ele>589.167</ele>
        <time>2022-11-05T15:52:38Z</time>
      </trkpt>
      <trkpt lat="45.96968" lon="4.58693">
        <ele>587.091</ele>
        <time>2022-11-05T15:52:39Z</time>
      </trkpt>
      <trkpt lat="45.96968" lon="4.58693">
        <ele>587.091</ele>
        <time>2022-11-05T15:52:39Z</time>
      </trkpt>
      <trkpt lat="45.96968" lon="4.58693">
        <ele>587.955</ele>
        <time>2022-11-05T15:52:40Z</time>
      </trkpt>
      <trkpt lat="45.96968" lon="4.58693">
        <ele>587.953</ele>
        <time>2022-11-05T15:52:41Z</time>
      </trkpt>
      <trkpt lat="45.96968" lon="4.58693">
        <ele>587.953</ele>
        <time>2022-11-05T15:52:41Z</time>
      </trkpt>
      <trkpt lat="45.96968" lon="4.58691">
        <ele>587.882</ele>
        <time>2022-11-05T15:52:42Z</time>
      </trkpt>
      <trkpt lat="45.96967" lon="4.5869">
        <ele>590.462</ele>
        <time>2022-11-05T15:52:44Z</time>
      </trkpt>
      <trkpt lat="45.96967" lon="4.58689">
        <ele>592.174</ele>
        <time>2022-11-05T15:52:47Z</time>
      </trkpt>
      <trkpt lat="45.96964" lon="4.58684">
        <ele>593.131</ele>
        <time>2022-11-05T15:52:52Z</time>
      </trkpt>
      <trkpt lat="45.96964" lon="4.58684">
        <ele>593.707</ele>
        <time>2022-11-05T15:53:05Z</time>
      </trkpt>
      <trkpt lat="45.96963" lon="4.58683">
        <ele>593.622</ele>
        <time>2022-11-05T15:53:06Z</time>
      </trkpt>
      <trkpt lat="45.96963" lon="4.58683">
        <ele>593.118</ele>
        <time>2022-11-05T15:53:07Z</time>
      </trkpt>
      <trkpt lat="45.96963" lon="4.58683">
        <ele>593.207</ele>
        <time>2022-11-05T15:53:09Z</time>
      </trkpt>
      <trkpt lat="45.96962" lon="4.58682">
        <ele>594.447</ele>
        <time>2022-11-05T15:53:10Z</time>
      </trkpt>
      <trkpt lat="45.96962" lon="4.58682">
        <ele>594.447</ele>
        <time>2022-11-05T15:53:10Z</time>
      </trkpt>
      <trkpt lat="45.96962" lon="4.58682">
        <ele>593.89</ele>
        <time>2022-11-05T15:53:11Z</time>
      </trkpt>
      <trkpt lat="45.96962" lon="4.58682">
        <ele>594.037</ele>
        <time>2022-11-05T15:53:19Z</time>
      </trkpt>
      <trkpt lat="45.96961" lon="4.5868">
        <ele>593.493</ele>
        <time>2022-11-05T15:53:20Z</time>
      </trkpt>
      <trkpt lat="45.96961" lon="4.5868">
        <ele>593.493</ele>
        <time>2022-11-05T15:53:20Z</time>
      </trkpt>
      <trkpt lat="45.96961" lon="4.5868">
        <ele>593.376</ele>
        <time>2022-11-05T15:53:21Z</time>
      </trkpt>
      <trkpt lat="45.96961" lon="4.5868">
        <ele>593.667</ele>
        <time>2022-11-05T15:53:22Z</time>
      </trkpt>
      <trkpt lat="45.96961" lon="4.5868">
        <ele>593.667</ele>
        <time>2022-11-05T15:53:22Z</time>
      </trkpt>
      <trkpt lat="45.96962" lon="4.5868">
        <ele>593.409</ele>
        <time>2022-11-05T15:53:23Z</time>
      </trkpt>
      <trkpt lat="45.96962" lon="4.58679">
        <ele>593.03</ele>
        <time>2022-11-05T15:53:25Z</time>
      </trkpt>
      <trkpt lat="45.96962" lon="4.58679">
        <ele>593.03</ele>
        <time>2022-11-05T15:53:25Z</time>
      </trkpt>
      <trkpt lat="45.96962" lon="4.58678">
        <ele>592.83</ele>
        <time>2022-11-05T15:53:26Z</time>
      </trkpt>
      <trkpt lat="45.96963" lon="4.58679">
        <ele>592.813</ele>
        <time>2022-11-05T15:53:28Z</time>
      </trkpt>
      <trkpt lat="45.96963" lon="4.58679">
        <ele>591.411</ele>
        <time>2022-11-05T15:53:29Z</time>
      </trkpt>
      <trkpt lat="45.96963" lon="4.58679">
        <ele>591.411</ele>
        <time>2022-11-05T15:53:29Z</time>
      </trkpt>
      <trkpt lat="45.96963" lon="4.58679">
        <ele>591.716</ele>
        <time>2022-11-05T15:53:30Z</time>
      </trkpt>
      <trkpt lat="45.96964" lon="4.58679">
        <ele>590.523</ele>
        <time>2022-11-05T15:53:32Z</time>
      </trkpt>
      <trkpt lat="45.96964" lon="4.58679">
        <ele>591.026</ele>
        <time>2022-11-05T15:54:12Z</time>
      </trkpt>
      <trkpt lat="45.96964" lon="4.58682">
        <ele>592.469</ele>
        <time>2022-11-05T15:54:13Z</time>
      </trkpt>
      <trkpt lat="45.96964" lon="4.58682">
        <ele>592.469</ele>
        <time>2022-11-05T15:54:13Z</time>
      </trkpt>
      <trkpt lat="45.96964" lon="4.58682">
        <ele>592.977</ele>
        <time>2022-11-05T15:54:14Z</time>
      </trkpt>
      <trkpt lat="45.96964" lon="4.58682">
        <ele>592.977</ele>
        <time>2022-11-05T15:54:14Z</time>
      </trkpt>
      <trkpt lat="45.96963" lon="4.58682">
        <ele>592.717</ele>
        <time>2022-11-05T15:54:15Z</time>
      </trkpt>
      <trkpt lat="45.96963" lon="4.58686">
        <ele>590.442</ele>
        <time>2022-11-05T15:54:19Z</time>
      </trkpt>
      <trkpt lat="45.96963" lon="4.58688">
        <ele>590.782</ele>
        <time>2022-11-05T15:54:21Z</time>
      </trkpt>
      <trkpt lat="45.96963" lon="4.58688">
        <ele>590.782</ele>
        <time>2022-11-05T15:54:21Z</time>
      </trkpt>
      <trkpt lat="45.96963" lon="4.58688">
        <ele>590.906</ele>
        <time>2022-11-05T15:54:22Z</time>
      </trkpt>
      <trkpt lat="45.96963" lon="4.58687">
        <ele>592.111</ele>
        <time>2022-11-05T15:54:24Z</time>
      </trkpt>
      <trkpt lat="45.96963" lon="4.58687">
        <ele>591.503</ele>
        <time>2022-11-05T15:54:25Z</time>
      </trkpt>
      <trkpt lat="45.96958" lon="4.58684">
        <ele>589.16</ele>
        <time>2022-11-05T15:54:29Z</time>
      </trkpt>
      <trkpt lat="45.96952" lon="4.58682">
        <ele>590.352</ele>
        <time>2022-11-05T15:54:34Z</time>
      </trkpt>
      <trkpt lat="45.96913" lon="4.58703">
        <ele>590.061</ele>
        <time>2022-11-05T15:55:14Z</time>
      </trkpt>
      <trkpt lat="45.9691" lon="4.58706">
        <ele>589.765</ele>
        <time>2022-11-05T15:55:17Z</time>
      </trkpt>
      <trkpt lat="45.96901" lon="4.58711">
        <ele>590.073</ele>
        <time>2022-11-05T15:55:24Z</time>
      </trkpt>
      <trkpt lat="45.96898" lon="4.58715">
        <ele>589.252</ele>
        <time>2022-11-05T15:55:28Z</time>
      </trkpt>
      <trkpt lat="45.96889" lon="4.58718">
        <ele>591.823</ele>
        <time>2022-11-05T15:55:38Z</time>
      </trkpt>
      <trkpt lat="45.96886" lon="4.5872">
        <ele>592.54</ele>
        <time>2022-11-05T15:55:41Z</time>
      </trkpt>
      <trkpt lat="45.96881" lon="4.58722">
        <ele>592.285</ele>
        <time>2022-11-05T15:55:46Z</time>
      </trkpt>
      <trkpt lat="45.96838" lon="4.58747">
        <ele>591.75</ele>
        <time>2022-11-05T15:56:21Z</time>
      </trkpt>
      <trkpt lat="45.96831" lon="4.58751">
        <ele>590.061</ele>
        <time>2022-11-05T15:56:28Z</time>
      </trkpt>
      <trkpt lat="45.96824" lon="4.58756">
        <ele>589.456</ele>
        <time>2022-11-05T15:56:35Z</time>
      </trkpt>
      <trkpt lat="45.96819" lon="4.58762">
        <ele>589.278</ele>
        <time>2022-11-05T15:56:42Z</time>
      </trkpt>
      <trkpt lat="45.96816" lon="4.58763">
        <ele>589.51</ele>
        <time>2022-11-05T15:56:45Z</time>
      </trkpt>
      <trkpt lat="45.96808" lon="4.58768">
        <ele>589.662</ele>
        <time>2022-11-05T15:56:52Z</time>
      </trkpt>
      <trkpt lat="45.96805" lon="4.5877">
        <ele>589.608</ele>
        <time>2022-11-05T15:56:55Z</time>
      </trkpt>
      <trkpt lat="45.9679" lon="4.58774">
        <ele>587.393</ele>
        <time>2022-11-05T15:57:08Z</time>
      </trkpt>
      <trkpt lat="45.96785" lon="4.58776">
        <ele>587.217</ele>
        <time>2022-11-05T15:57:12Z</time>
      </trkpt>
      <trkpt lat="45.96783" lon="4.58778">
        <ele>586.998</ele>
        <time>2022-11-05T15:57:17Z</time>
      </trkpt>
      <trkpt lat="45.96783" lon="4.58779">
        <ele>587.186</ele>
        <time>2022-11-05T15:57:18Z</time>
      </trkpt>
      <trkpt lat="45.9678" lon="4.58781">
        <ele>585.831</ele>
        <time>2022-11-05T15:57:22Z</time>
      </trkpt>
      <trkpt lat="45.96776" lon="4.58781">
        <ele>585.214</ele>
        <time>2022-11-05T15:57:26Z</time>
      </trkpt>
      <trkpt lat="45.96771" lon="4.58782">
        <ele>584.665</ele>
        <time>2022-11-05T15:57:29Z</time>
      </trkpt>
      <trkpt lat="45.96767" lon="4.58782">
        <ele>583.987</ele>
        <time>2022-11-05T15:57:33Z</time>
      </trkpt>
      <trkpt lat="45.96766" lon="4.58783">
        <ele>584.059</ele>
        <time>2022-11-05T15:57:34Z</time>
      </trkpt>
      <trkpt lat="45.96762" lon="4.58784">
        <ele>583.76</ele>
        <time>2022-11-05T15:57:37Z</time>
      </trkpt>
      <trkpt lat="45.96751" lon="4.58787">
        <ele>583.788</ele>
        <time>2022-11-05T15:57:43Z</time>
      </trkpt>
      <trkpt lat="45.96748" lon="4.58788">
        <ele>583.699</ele>
        <time>2022-11-05T15:57:45Z</time>
      </trkpt>
      <trkpt lat="45.96723" lon="4.58809">
        <ele>585.822</ele>
        <time>2022-11-05T15:58:17Z</time>
      </trkpt>
      <trkpt lat="45.96716" lon="4.58813">
        <ele>587.969</ele>
        <time>2022-11-05T15:58:23Z</time>
      </trkpt>
      <trkpt lat="45.96701" lon="4.58825">
        <ele>589.979</ele>
        <time>2022-11-05T15:58:38Z</time>
      </trkpt>
      <trkpt lat="45.96685" lon="4.58833">
        <ele>591.138</ele>
        <time>2022-11-05T15:58:53Z</time>
      </trkpt>
      <trkpt lat="45.96682" lon="4.58834">
        <ele>591.434</ele>
        <time>2022-11-05T15:58:55Z</time>
      </trkpt>
      <trkpt lat="45.96674" lon="4.58842">
        <ele>593.656</ele>
        <time>2022-11-05T15:59:04Z</time>
      </trkpt>
      <trkpt lat="45.96671" lon="4.58844">
        <ele>593.87</ele>
        <time>2022-11-05T15:59:08Z</time>
      </trkpt>
      <trkpt lat="45.96671" lon="4.58845">
        <ele>593.615</ele>
        <time>2022-11-05T15:59:09Z</time>
      </trkpt>
      <trkpt lat="45.96656" lon="4.58851">
        <ele>594.704</ele>
        <time>2022-11-05T15:59:23Z</time>
      </trkpt>
      <trkpt lat="45.96645" lon="4.58861">
        <ele>596.875</ele>
        <time>2022-11-05T15:59:38Z</time>
      </trkpt>
      <trkpt lat="45.9664" lon="4.58864">
        <ele>597.524</ele>
        <time>2022-11-05T15:59:43Z</time>
      </trkpt>
      <trkpt lat="45.96635" lon="4.58866">
        <ele>596.786</ele>
        <time>2022-11-05T15:59:48Z</time>
      </trkpt>
      <trkpt lat="45.96626" lon="4.58871">
        <ele>598.688</ele>
        <time>2022-11-05T15:59:58Z</time>
      </trkpt>
      <trkpt lat="45.96621" lon="4.58873">
        <ele>600.121</ele>
        <time>2022-11-05T16:00:03Z</time>
      </trkpt>
      <trkpt lat="45.96607" lon="4.58877">
        <ele>602.28</ele>
        <time>2022-11-05T16:00:16Z</time>
      </trkpt>
      <trkpt lat="45.96594" lon="4.58878">
        <ele>601.84</ele>
        <time>2022-11-05T16:00:27Z</time>
      </trkpt>
      <trkpt lat="45.9659" lon="4.5888">
        <ele>602.126</ele>
        <time>2022-11-05T16:00:31Z</time>
      </trkpt>
      <trkpt lat="45.96578" lon="4.5888">
        <ele>601.84</ele>
        <time>2022-11-05T16:00:41Z</time>
      </trkpt>
      <trkpt lat="45.96548" lon="4.58879">
        <ele>603.844</ele>
        <time>2022-11-05T16:01:07Z</time>
      </trkpt>
      <trkpt lat="45.96518" lon="4.58879">
        <ele>605.893</ele>
        <time>2022-11-05T16:01:34Z</time>
      </trkpt>
      <trkpt lat="45.96493" lon="4.58878">
        <ele>608.124</ele>
        <time>2022-11-05T16:01:54Z</time>
      </trkpt>
      <trkpt lat="45.9647" lon="4.58875">
        <ele>610.17</ele>
        <time>2022-11-05T16:02:12Z</time>
      </trkpt>
      <trkpt lat="45.9643" lon="4.58875">
        <ele>609.991</ele>
        <time>2022-11-05T16:02:47Z</time>
      </trkpt>
      <trkpt lat="45.96376" lon="4.58882">
        <ele>612.023</ele>
        <time>2022-11-05T16:03:35Z</time>
      </trkpt>
      <trkpt lat="45.96359" lon="4.58884">
        <ele>612.532</ele>
        <time>2022-11-05T16:03:52Z</time>
      </trkpt>
      <trkpt lat="45.96356" lon="4.58885">
        <ele>612.711</ele>
        <time>2022-11-05T16:03:55Z</time>
      </trkpt>
      <trkpt lat="45.96336" lon="4.5889">
        <ele>612.248</ele>
        <time>2022-11-05T16:04:14Z</time>
      </trkpt>
      <trkpt lat="45.9628" lon="4.58911">
        <ele>610.65</ele>
        <time>2022-11-05T16:05:06Z</time>
      </trkpt>
      <trkpt lat="45.96275" lon="4.58912">
        <ele>610.973</ele>
        <time>2022-11-05T16:05:10Z</time>
      </trkpt>
      <trkpt lat="45.96253" lon="4.58929">
        <ele>613.007</ele>
        <time>2022-11-05T16:05:40Z</time>
      </trkpt>
      <trkpt lat="45.962" lon="4.58955">
        <ele>611.521</ele>
        <time>2022-11-05T16:06:31Z</time>
      </trkpt>
      <trkpt lat="45.96162" lon="4.58964">
        <ele>613.075</ele>
        <time>2022-11-05T16:07:08Z</time>
      </trkpt>
      <trkpt lat="45.96152" lon="4.58965">
        <ele>612.191</ele>
        <time>2022-11-05T16:07:17Z</time>
      </trkpt>
      <trkpt lat="45.96132" lon="4.58963">
        <ele>613.287</ele>
        <time>2022-11-05T16:07:33Z</time>
      </trkpt>
      <trkpt lat="45.96074" lon="4.58944">
        <ele>611.88</ele>
        <time>2022-11-05T16:08:19Z</time>
      </trkpt>
      <trkpt lat="45.96045" lon="4.58922">
        <ele>609.712</ele>
        <time>2022-11-05T16:08:49Z</time>
      </trkpt>
      <trkpt lat="45.96042" lon="4.58921">
        <ele>609.249</ele>
        <time>2022-11-05T16:08:51Z</time>
      </trkpt>
      <trkpt lat="45.96038" lon="4.58919">
        <ele>608.832</ele>
        <time>2022-11-05T16:08:54Z</time>
      </trkpt>
      <trkpt lat="45.96036" lon="4.58917">
        <ele>608.551</ele>
        <time>2022-11-05T16:08:56Z</time>
      </trkpt>
      <trkpt lat="45.9603" lon="4.58913">
        <ele>610.913</ele>
        <time>2022-11-05T16:09:02Z</time>
      </trkpt>
      <trkpt lat="45.96027" lon="4.58911">
        <ele>610.092</ele>
        <time>2022-11-05T16:09:05Z</time>
      </trkpt>
      <trkpt lat="45.96003" lon="4.58905">
        <ele>609.524</ele>
        <time>2022-11-05T16:09:24Z</time>
      </trkpt>
      <trkpt lat="45.95979" lon="4.58907">
        <ele>608.331</ele>
        <time>2022-11-05T16:09:46Z</time>
      </trkpt>
      <trkpt lat="45.95972" lon="4.58913">
        <ele>605.67</ele>
        <time>2022-11-05T16:09:53Z</time>
      </trkpt>
      <trkpt lat="45.95961" lon="4.5892">
        <ele>603.566</ele>
        <time>2022-11-05T16:10:03Z</time>
      </trkpt>
      <trkpt lat="45.95916" lon="4.58945">
        <ele>601.499</ele>
        <time>2022-11-05T16:10:45Z</time>
      </trkpt>
      <trkpt lat="45.95897" lon="4.58955">
        <ele>599.436</ele>
        <time>2022-11-05T16:11:01Z</time>
      </trkpt>
      <trkpt lat="45.95896" lon="4.58956">
        <ele>600.063</ele>
        <time>2022-11-05T16:11:04Z</time>
      </trkpt>
      <trkpt lat="45.95896" lon="4.58956">
        <ele>600.219</ele>
        <time>2022-11-05T16:11:05Z</time>
      </trkpt>
      <trkpt lat="45.95896" lon="4.58956">
        <ele>600.219</ele>
        <time>2022-11-05T16:11:05Z</time>
      </trkpt>
      <trkpt lat="45.95896" lon="4.58956">
        <ele>600.523</ele>
        <time>2022-11-05T16:11:06Z</time>
      </trkpt>
      <trkpt lat="45.95896" lon="4.58955">
        <ele>599.679</ele>
        <time>2022-11-05T16:11:07Z</time>
      </trkpt>
      <trkpt lat="45.95896" lon="4.58955">
        <ele>599.763</ele>
        <time>2022-11-05T16:11:08Z</time>
      </trkpt>
      <trkpt lat="45.95896" lon="4.58955">
        <ele>599.787</ele>
        <time>2022-11-05T16:11:09Z</time>
      </trkpt>
      <trkpt lat="45.95896" lon="4.58955">
        <ele>599.467</ele>
        <time>2022-11-05T16:11:15Z</time>
      </trkpt>
      <trkpt lat="45.95896" lon="4.58955">
        <ele>599.502</ele>
        <time>2022-11-05T16:11:16Z</time>
      </trkpt>
      <trkpt lat="45.95887" lon="4.58962">
        <ele>598.096</ele>
        <time>2022-11-05T16:11:23Z</time>
      </trkpt>
      <trkpt lat="45.95884" lon="4.58965">
        <ele>598.105</ele>
        <time>2022-11-05T16:11:25Z</time>
      </trkpt>
      <trkpt lat="45.9588" lon="4.58968">
        <ele>596.704</ele>
        <time>2022-11-05T16:11:28Z</time>
      </trkpt>
      <trkpt lat="45.95875" lon="4.58972">
        <ele>595.427</ele>
        <time>2022-11-05T16:11:34Z</time>
      </trkpt>
      <trkpt lat="45.95871" lon="4.58974">
        <ele>595.799</ele>
        <time>2022-11-05T16:11:38Z</time>
      </trkpt>
      <trkpt lat="45.95871" lon="4.58974">
        <ele>595.288</ele>
        <time>2022-11-05T16:11:40Z</time>
      </trkpt>
      <trkpt lat="45.95871" lon="4.58974">
        <ele>595.192</ele>
        <time>2022-11-05T16:11:41Z</time>
      </trkpt>
      <trkpt lat="45.95868" lon="4.58976">
        <ele>595.359</ele>
        <time>2022-11-05T16:11:44Z</time>
      </trkpt>
      <trkpt lat="45.9581" lon="4.59005">
        <ele>593.103</ele>
        <time>2022-11-05T16:12:35Z</time>
      </trkpt>
      <trkpt lat="45.95781" lon="4.59012">
        <ele>591.102</ele>
        <time>2022-11-05T16:13:01Z</time>
      </trkpt>
      <trkpt lat="45.9571" lon="4.59029">
        <ele>591.773</ele>
        <time>2022-11-05T16:14:02Z</time>
      </trkpt>
      <trkpt lat="45.95706" lon="4.59031">
        <ele>591.013</ele>
        <time>2022-11-05T16:14:06Z</time>
      </trkpt>
      <trkpt lat="45.95681" lon="4.59042">
        <ele>588.736</ele>
        <time>2022-11-05T16:14:28Z</time>
      </trkpt>
      <trkpt lat="45.95618" lon="4.59055">
        <ele>589.504</ele>
        <time>2022-11-05T16:15:10Z</time>
      </trkpt>
      <trkpt lat="45.95607" lon="4.59057">
        <ele>589.67</ele>
        <time>2022-11-05T16:15:16Z</time>
      </trkpt>
      <trkpt lat="45.95589" lon="4.59056">
        <ele>586.823</ele>
        <time>2022-11-05T16:15:29Z</time>
      </trkpt>
      <trkpt lat="45.95563" lon="4.59053">
        <ele>584.419</ele>
        <time>2022-11-05T16:15:56Z</time>
      </trkpt>
      <trkpt lat="45.95525" lon="4.5905">
        <ele>583.626</ele>
        <time>2022-11-05T16:16:22Z</time>
      </trkpt>
      <trkpt lat="45.95524" lon="4.59046">
        <ele>581.379</ele>
        <time>2022-11-05T16:16:25Z</time>
      </trkpt>
      <trkpt lat="45.95506" lon="4.59039">
        <ele>579.369</ele>
        <time>2022-11-05T16:16:40Z</time>
      </trkpt>
      <trkpt lat="45.95497" lon="4.59033">
        <ele>577.02</ele>
        <time>2022-11-05T16:16:50Z</time>
      </trkpt>
      <trkpt lat="45.95479" lon="4.5902">
        <ele>574.659</ele>
        <time>2022-11-05T16:17:08Z</time>
      </trkpt>
      <trkpt lat="45.95461" lon="4.59002">
        <ele>572.502</ele>
        <time>2022-11-05T16:17:26Z</time>
      </trkpt>
      <trkpt lat="45.95448" lon="4.5899">
        <ele>570.243</ele>
        <time>2022-11-05T16:17:40Z</time>
      </trkpt>
      <trkpt lat="45.95422" lon="4.58971">
        <ele>568.053</ele>
        <time>2022-11-05T16:18:03Z</time>
      </trkpt>
      <trkpt lat="45.95413" lon="4.58968">
        <ele>565.976</ele>
        <time>2022-11-05T16:18:11Z</time>
      </trkpt>
      <trkpt lat="45.9539" lon="4.58953">
        <ele>563.923</ele>
        <time>2022-11-05T16:18:31Z</time>
      </trkpt>
      <trkpt lat="45.95377" lon="4.58944">
        <ele>561.717</ele>
        <time>2022-11-05T16:18:44Z</time>
      </trkpt>
      <trkpt lat="45.95366" lon="4.58933">
        <ele>561.145</ele>
        <time>2022-11-05T16:18:54Z</time>
      </trkpt>
      <trkpt lat="45.95357" lon="4.58918">
        <ele>558.947</ele>
        <time>2022-11-05T16:19:05Z</time>
      </trkpt>
      <trkpt lat="45.9535" lon="4.58901">
        <ele>556.791</ele>
        <time>2022-11-05T16:19:17Z</time>
      </trkpt>
      <trkpt lat="45.95345" lon="4.58891">
        <ele>554.577</ele>
        <time>2022-11-05T16:19:26Z</time>
      </trkpt>
      <trkpt lat="45.95339" lon="4.58878">
        <ele>552.279</ele>
        <time>2022-11-05T16:19:36Z</time>
      </trkpt>
      <trkpt lat="45.95333" lon="4.58863">
        <ele>550.189</ele>
        <time>2022-11-05T16:19:46Z</time>
      </trkpt>
      <trkpt lat="45.95323" lon="4.58843">
        <ele>548.098</ele>
        <time>2022-11-05T16:20:01Z</time>
      </trkpt>
      <trkpt lat="45.95315" lon="4.58829">
        <ele>545.957</ele>
        <time>2022-11-05T16:20:14Z</time>
      </trkpt>
      <trkpt lat="45.95261" lon="4.58726">
        <ele>543.856</ele>
        <time>2022-11-05T16:21:29Z</time>
      </trkpt>
      <trkpt lat="45.95249" lon="4.58705">
        <ele>541.766</ele>
        <time>2022-11-05T16:21:45Z</time>
      </trkpt>
      <trkpt lat="45.95243" lon="4.58695">
        <ele>539.611</ele>
        <time>2022-11-05T16:21:55Z</time>
      </trkpt>
      <trkpt lat="45.95245" lon="4.58687">
        <ele>539.041</ele>
        <time>2022-11-05T16:22:00Z</time>
      </trkpt>
      <trkpt lat="45.95249" lon="4.58678">
        <ele>539.755</ele>
        <time>2022-11-05T16:22:06Z</time>
      </trkpt>
      <trkpt lat="45.95261" lon="4.58673">
        <ele>541.331</ele>
        <time>2022-11-05T16:22:17Z</time>
      </trkpt>
      <trkpt lat="45.95269" lon="4.58671">
        <ele>543.352</ele>
        <time>2022-11-05T16:22:25Z</time>
      </trkpt>
      <trkpt lat="45.95277" lon="4.58673">
        <ele>544.287</ele>
        <time>2022-11-05T16:22:32Z</time>
      </trkpt>
      <trkpt lat="45.95297" lon="4.58683">
        <ele>546.484</ele>
        <time>2022-11-05T16:22:48Z</time>
      </trkpt>
      <trkpt lat="45.95332" lon="4.5871">
        <ele>547.255</ele>
        <time>2022-11-05T16:23:18Z</time>
      </trkpt>
      <trkpt lat="45.9534" lon="4.58717">
        <ele>546.537</ele>
        <time>2022-11-05T16:23:26Z</time>
      </trkpt>
      <trkpt lat="45.95345" lon="4.58717">
        <ele>546</ele>
        <time>2022-11-05T16:23:30Z</time>
      </trkpt>
      <trkpt lat="45.95348" lon="4.58716">
        <ele>545.581</ele>
        <time>2022-11-05T16:23:33Z</time>
      </trkpt>
      <trkpt lat="45.95351" lon="4.58712">
        <ele>544.438</ele>
        <time>2022-11-05T16:23:36Z</time>
      </trkpt>
      <trkpt lat="45.95352" lon="4.58709">
        <ele>544.429</ele>
        <time>2022-11-05T16:23:39Z</time>
      </trkpt>
      <trkpt lat="45.95352" lon="4.58705">
        <ele>542.947</ele>
        <time>2022-11-05T16:23:42Z</time>
      </trkpt>
      <trkpt lat="45.95353" lon="4.58696">
        <ele>540.822</ele>
        <time>2022-11-05T16:23:48Z</time>
      </trkpt>
      <trkpt lat="45.95353" lon="4.58696">
        <ele>540.864</ele>
        <time>2022-11-05T16:24:03Z</time>
      </trkpt>
      <trkpt lat="45.95353" lon="4.587">
        <ele>540.902</ele>
        <time>2022-11-05T16:24:04Z</time>
      </trkpt>
      <trkpt lat="45.95353" lon="4.58699">
        <ele>541.569</ele>
        <time>2022-11-05T16:24:06Z</time>
      </trkpt>
      <trkpt lat="45.95353" lon="4.58699">
        <ele>541.569</ele>
        <time>2022-11-05T16:24:15Z</time>
      </trkpt>
    </trkseg>
  </trk>
</gpx>